<?xml version='1.0' encoding='UTF-8'?><gpx version="1.1" creator="JPX - https://github.com/jenetics/jpx" xmlns="http://www.topografix.com/GPX/1/1"><trk><trkseg><trkpt lat="46.00061293368446" lon="9.384225081088104"><ele>469.99999999999994</ele><time>2026-04-25T13:35:52.968Z</time></trkpt><trkpt lat="46.00054626462478" lon="9.38412832273654"><ele>470.0</ele><time>2026-04-25T13:35:54.968Z</time></trkpt><trkpt lat="46.00047235656629" lon="9.38413748423226"><ele>470.0</ele><time>2026-04-25T13:35:57.968Z</time></trkpt><trkpt lat="46.00048664966916" lon="9.383991622791893"><ele>470.0</ele><time>2026-04-25T13:36:21.968Z</time></trkpt><trkpt lat="46.00054320367259" lon="9.383895059523391"><ele>469.99999999999994</ele><time>2026-04-25T13:36:22.968Z</time></trkpt><trkpt lat="46.00057051599373" lon="9.383784759881404"><ele>470.0</ele><time>2026-04-25T13:36:23.968Z</time></trkpt><trkpt lat="46.000583958099696" lon="9.38366491084834"><ele>471.16666666666663</ele><time>2026-04-25T13:36:24.968Z</time></trkpt><trkpt lat="46.000610488586176" lon="9.383566827148432"><ele>472.3333333333333</ele><time>2026-04-25T13:36:25.969Z</time></trkpt><trkpt lat="46.000633151599615" lon="9.38345289163076"><ele>473.5</ele><time>2026-04-25T13:36:26.969Z</time></trkpt><trkpt lat="46.00066595621045" lon="9.38334600330595"><ele>474.66666666666663</ele><time>2026-04-25T13:36:27.969Z</time></trkpt><trkpt lat="46.00068796307518" lon="9.38323811213872"><ele>475.8333333333333</ele><time>2026-04-25T13:36:28.969Z</time></trkpt><trkpt lat="46.00070873591882" lon="9.383131296397037"><ele>477.0</ele><time>2026-04-25T13:36:29.969Z</time></trkpt><trkpt lat="46.00073013592" lon="9.383017907455125"><ele>477.0</ele><time>2026-04-25T13:36:30.969Z</time></trkpt><trkpt lat="46.00075112361877" lon="9.382895063458351"><ele>477.00000000000006</ele><time>2026-04-25T13:36:31.969Z</time></trkpt><trkpt lat="46.00075178418113" lon="9.38277468864405"><ele>477.00000000000006</ele><time>2026-04-25T13:36:32.969Z</time></trkpt><trkpt lat="46.00078910631662" lon="9.38269907656588"><ele>477.0</ele><time>2026-04-25T13:36:33.969Z</time></trkpt><trkpt lat="46.00079632829501" lon="9.382550923362862"><ele>477.0</ele><time>2026-04-25T13:36:35.969Z</time></trkpt><trkpt lat="46.000854010237326" lon="9.382375891855666"><ele>475.3333333333333</ele><time>2026-04-25T13:36:37.969Z</time></trkpt><trkpt lat="46.0008631701173" lon="9.382263917031775"><ele>473.66666666666663</ele><time>2026-04-25T13:36:38.969Z</time></trkpt><trkpt lat="46.000873755503896" lon="9.382152689935289"><ele>472.0</ele><time>2026-04-25T13:36:39.969Z</time></trkpt><trkpt lat="46.00091039882671" lon="9.382063075227906"><ele>470.3333333333333</ele><time>2026-04-25T13:36:40.969Z</time></trkpt><trkpt lat="46.000936068151745" lon="9.381950913422367"><ele>468.66666666666663</ele><time>2026-04-25T13:36:41.969Z</time></trkpt><trkpt lat="46.000949467583425" lon="9.381826368136547"><ele>467.0</ele><time>2026-04-25T13:36:42.969Z</time></trkpt><trkpt lat="46.00095302136535" lon="9.381696877666434"><ele>466.20000000000005</ele><time>2026-04-25T13:36:43.969Z</time></trkpt><trkpt lat="46.000946438667114" lon="9.381552174160081"><ele>465.40000000000003</ele><time>2026-04-25T13:36:44.969Z</time></trkpt><trkpt lat="46.00092915844017" lon="9.381397672814805"><ele>464.59999999999997</ele><time>2026-04-25T13:36:45.969Z</time></trkpt><trkpt lat="46.00088533803618" lon="9.381234134077005"><ele>463.79999999999995</ele><time>2026-04-25T13:36:46.969Z</time></trkpt><trkpt lat="46.00085068956573" lon="9.381080512800649"><ele>463.0</ele><time>2026-04-25T13:36:47.969Z</time></trkpt><trkpt lat="46.00082155302437" lon="9.38093277654418"><ele>464.59999999999997</ele><time>2026-04-25T13:36:48.969Z</time></trkpt><trkpt lat="46.000800161696674" lon="9.380791616717316"><ele>466.19999999999993</ele><time>2026-04-25T13:36:49.969Z</time></trkpt><trkpt lat="46.00079008915529" lon="9.38065399560495"><ele>467.8</ele><time>2026-04-25T13:36:50.969Z</time></trkpt><trkpt lat="46.000794118190385" lon="9.38051297463774"><ele>469.4</ele><time>2026-04-25T13:36:51.969Z</time></trkpt><trkpt lat="46.000807501692044" lon="9.380372395081173"><ele>471.0</ele><time>2026-04-25T13:36:52.969Z</time></trkpt><trkpt lat="46.00082852374597" lon="9.380218453911318"><ele>471.25</ele><time>2026-04-25T13:36:53.969Z</time></trkpt><trkpt lat="46.00085054573178" lon="9.380052532239477"><ele>471.5</ele><time>2026-04-25T13:36:54.969Z</time></trkpt><trkpt lat="46.000875259023516" lon="9.379871483646342"><ele>471.75</ele><time>2026-04-25T13:36:55.969Z</time></trkpt><trkpt lat="46.00090018253943" lon="9.379694629628307"><ele>472.0</ele><time>2026-04-25T13:36:56.969Z</time></trkpt><trkpt lat="46.000914609581294" lon="9.379539162429257"><ele>472.00000000000006</ele><time>2026-04-25T13:36:57.969Z</time></trkpt><trkpt lat="46.0009343667969" lon="9.379418276849595"><ele>472.0</ele><time>2026-04-25T13:36:58.969Z</time></trkpt><trkpt lat="46.00094631640088" lon="9.379301451021874"><ele>472.0</ele><time>2026-04-25T13:36:59.969Z</time></trkpt><trkpt lat="46.00095036159784" lon="9.37918802446021"><ele>472.0</ele><time>2026-04-25T13:37:00.969Z</time></trkpt><trkpt lat="46.00095256554121" lon="9.379061778159976"><ele>472.00000000000006</ele><time>2026-04-25T13:37:01.969Z</time></trkpt><trkpt lat="46.00094683478498" lon="9.378933082753843"><ele>472.0</ele><time>2026-04-25T13:37:02.969Z</time></trkpt><trkpt lat="46.000940877105855" lon="9.378804012043119"><ele>473.6</ele><time>2026-04-25T13:37:03.969Z</time></trkpt><trkpt lat="46.00093928553756" lon="9.378674506212027"><ele>475.20000000000005</ele><time>2026-04-25T13:37:04.969Z</time></trkpt><trkpt lat="46.000950885939204" lon="9.378548267441074"><ele>476.8</ele><time>2026-04-25T13:37:05.97Z</time></trkpt><trkpt lat="46.00097194242099" lon="9.378415909216784"><ele>478.4</ele><time>2026-04-25T13:37:06.97Z</time></trkpt><trkpt lat="46.00100505630145" lon="9.378277898985072"><ele>480.0</ele><time>2026-04-25T13:37:07.97Z</time></trkpt><trkpt lat="46.00106089125365" lon="9.378144375571981"><ele>484.0</ele><time>2026-04-25T13:37:08.97Z</time></trkpt><trkpt lat="46.00112650002107" lon="9.378005802390422"><ele>488.0</ele><time>2026-04-25T13:37:09.97Z</time></trkpt><trkpt lat="46.00119337840796" lon="9.37787051281129"><ele>492.0</ele><time>2026-04-25T13:37:10.97Z</time></trkpt><trkpt lat="46.00126667615935" lon="9.377738454574287"><ele>496.0</ele><time>2026-04-25T13:37:11.97Z</time></trkpt><trkpt lat="46.00135135871385" lon="9.377618741121587"><ele>496.0</ele><time>2026-04-25T13:37:12.97Z</time></trkpt><trkpt lat="46.0014531187848" lon="9.377517834039919"><ele>496.0</ele><time>2026-04-25T13:37:13.97Z</time></trkpt><trkpt lat="46.00157248924142" lon="9.377435300496357"><ele>496.0</ele><time>2026-04-25T13:37:14.97Z</time></trkpt><trkpt lat="46.001700497345645" lon="9.377362843687386"><ele>496.0</ele><time>2026-04-25T13:37:15.97Z</time></trkpt><trkpt lat="46.00183781014848" lon="9.377288395713165"><ele>494.5</ele><time>2026-04-25T13:37:16.968Z</time></trkpt><trkpt lat="46.00197107249842" lon="9.377200183750059"><ele>493.0</ele><time>2026-04-25T13:37:17.968Z</time></trkpt><trkpt lat="46.002102030496566" lon="9.377111101660404"><ele>491.5</ele><time>2026-04-25T13:37:18.968Z</time></trkpt><trkpt lat="46.00222986323844" lon="9.377010275514515"><ele>490.0</ele><time>2026-04-25T13:37:19.968Z</time></trkpt><trkpt lat="46.00234788464818" lon="9.376900652144492"><ele>490.0</ele><time>2026-04-25T13:37:20.968Z</time></trkpt><trkpt lat="46.002465831219574" lon="9.376777928574267"><ele>490.0</ele><time>2026-04-25T13:37:21.968Z</time></trkpt><trkpt lat="46.00257996120866" lon="9.376651291153406"><ele>490.0</ele><time>2026-04-25T13:37:22.968Z</time></trkpt><trkpt lat="46.00268973982821" lon="9.37652457092616"><ele>490.0</ele><time>2026-04-25T13:37:23.968Z</time></trkpt><trkpt lat="46.00279586003772" lon="9.376391589035181"><ele>492.25</ele><time>2026-04-25T13:37:24.968Z</time></trkpt><trkpt lat="46.002901187476475" lon="9.376262802242076"><ele>494.5</ele><time>2026-04-25T13:37:25.968Z</time></trkpt><trkpt lat="46.003010489165604" lon="9.376133820633225"><ele>496.75</ele><time>2026-04-25T13:37:26.968Z</time></trkpt><trkpt lat="46.00311855978039" lon="9.376017315935528"><ele>499.0</ele><time>2026-04-25T13:37:27.968Z</time></trkpt><trkpt lat="46.00321458419066" lon="9.375906541665572"><ele>499.0</ele><time>2026-04-25T13:37:28.968Z</time></trkpt><trkpt lat="46.003313956272194" lon="9.375815441794721"><ele>499.0</ele><time>2026-04-25T13:37:29.968Z</time></trkpt><trkpt lat="46.003397433967656" lon="9.375683597914922"><ele>499.0</ele><time>2026-04-25T13:37:30.968Z</time></trkpt><trkpt lat="46.0034541735051" lon="9.375525752707274"><ele>499.0</ele><time>2026-04-25T13:37:31.968Z</time></trkpt><trkpt lat="46.00352153112013" lon="9.375363000132593"><ele>499.25</ele><time>2026-04-25T13:37:32.968Z</time></trkpt><trkpt lat="46.003591902178265" lon="9.375192373496985"><ele>499.5</ele><time>2026-04-25T13:37:33.968Z</time></trkpt><trkpt lat="46.00366429174574" lon="9.3750155607786"><ele>499.75</ele><time>2026-04-25T13:37:34.968Z</time></trkpt><trkpt lat="46.003737151007996" lon="9.374832295257171"><ele>500.0</ele><time>2026-04-25T13:37:35.968Z</time></trkpt><trkpt lat="46.00381561036428" lon="9.374654486762946"><ele>503.75</ele><time>2026-04-25T13:37:36.968Z</time></trkpt><trkpt lat="46.0038984312809" lon="9.374480237742715"><ele>507.5</ele><time>2026-04-25T13:37:37.968Z</time></trkpt><trkpt lat="46.003984792132506" lon="9.374312034288568"><ele>511.25</ele><time>2026-04-25T13:37:38.968Z</time></trkpt><trkpt lat="46.00406876421885" lon="9.374138607427668"><ele>515.0</ele><time>2026-04-25T13:37:39.968Z</time></trkpt><trkpt lat="46.004141583337045" lon="9.373949795416006"><ele>513.0</ele><time>2026-04-25T13:37:40.968Z</time></trkpt><trkpt lat="46.0042013251737" lon="9.373748740017458"><ele>511.0</ele><time>2026-04-25T13:37:41.968Z</time></trkpt><trkpt lat="46.004253605524546" lon="9.373549400846178"><ele>509.0</ele><time>2026-04-25T13:37:42.968Z</time></trkpt><trkpt lat="46.004326683146054" lon="9.373363635018045"><ele>507.0</ele><time>2026-04-25T13:37:43.968Z</time></trkpt><trkpt lat="46.00438943434269" lon="9.373178487246486"><ele>510.75</ele><time>2026-04-25T13:37:44.968Z</time></trkpt><trkpt lat="46.00444860231111" lon="9.37300177090022"><ele>514.5</ele><time>2026-04-25T13:37:45.968Z</time></trkpt><trkpt lat="46.00454208020491" lon="9.372856210364754"><ele>518.25</ele><time>2026-04-25T13:37:46.968Z</time></trkpt><trkpt lat="46.0046389687314" lon="9.372716092351299"><ele>522.0</ele><time>2026-04-25T13:37:47.968Z</time></trkpt><trkpt lat="46.00474152482668" lon="9.372578852519451"><ele>522.0</ele><time>2026-04-25T13:37:48.968Z</time></trkpt><trkpt lat="46.004844681881146" lon="9.37243744371733"><ele>522.0</ele><time>2026-04-25T13:37:49.968Z</time></trkpt><trkpt lat="46.00494222194222" lon="9.372295381938802"><ele>522.0</ele><time>2026-04-25T13:37:50.968Z</time></trkpt><trkpt lat="46.00503841491029" lon="9.372153490029119"><ele>522.0</ele><time>2026-04-25T13:37:51.968Z</time></trkpt><trkpt lat="46.00514175874175" lon="9.37201870029712"><ele>520.5</ele><time>2026-04-25T13:37:52.968Z</time></trkpt><trkpt lat="46.00525578142042" lon="9.371881334269641"><ele>519.0</ele><time>2026-04-25T13:37:53.968Z</time></trkpt><trkpt lat="46.005379027132" lon="9.371759223873072"><ele>517.5</ele><time>2026-04-25T13:37:54.968Z</time></trkpt><trkpt lat="46.00550063511129" lon="9.371633230046141"><ele>516.0</ele><time>2026-04-25T13:37:55.969Z</time></trkpt><trkpt lat="46.00560897635265" lon="9.371485425219202"><ele>516.25</ele><time>2026-04-25T13:37:56.969Z</time></trkpt><trkpt lat="46.00569832539745" lon="9.371328218453113"><ele>516.5</ele><time>2026-04-25T13:37:57.969Z</time></trkpt><trkpt lat="46.00578063868933" lon="9.371180864681845"><ele>516.75</ele><time>2026-04-25T13:37:58.969Z</time></trkpt><trkpt lat="46.005853956405595" lon="9.371064217494538"><ele>517.0</ele><time>2026-04-25T13:37:59.969Z</time></trkpt><trkpt lat="46.00591187068328" lon="9.37093793964957"><ele>517.0</ele><time>2026-04-25T13:38:00.969Z</time></trkpt><trkpt lat="46.005957822689986" lon="9.37079909657172"><ele>517.0</ele><time>2026-04-25T13:38:01.969Z</time></trkpt><trkpt lat="46.00597891988792" lon="9.370639996994733"><ele>517.0</ele><time>2026-04-25T13:38:02.969Z</time></trkpt><trkpt lat="46.00598101616016" lon="9.370469849184916"><ele>517.0</ele><time>2026-04-25T13:38:03.969Z</time></trkpt><trkpt lat="46.00597463930719" lon="9.370300527473937"><ele>520.0</ele><time>2026-04-25T13:38:04.969Z</time></trkpt><trkpt lat="46.00598213897861" lon="9.370136655915315"><ele>523.0</ele><time>2026-04-25T13:38:05.969Z</time></trkpt><trkpt lat="46.00600552088609" lon="9.369988305878815"><ele>526.0</ele><time>2026-04-25T13:38:06.969Z</time></trkpt><trkpt lat="46.00605227146105" lon="9.369849384999132"><ele>529.0</ele><time>2026-04-25T13:38:07.969Z</time></trkpt><trkpt lat="46.006116531805226" lon="9.369732969925817"><ele>532.0</ele><time>2026-04-25T13:38:08.969Z</time></trkpt><trkpt lat="46.006220600761154" lon="9.36963381391911"><ele>534.75</ele><time>2026-04-25T13:38:09.969Z</time></trkpt><trkpt lat="46.006330066757485" lon="9.369531719584769"><ele>537.5</ele><time>2026-04-25T13:38:10.969Z</time></trkpt><trkpt lat="46.00643953673671" lon="9.369439221673645"><ele>540.25</ele><time>2026-04-25T13:38:11.969Z</time></trkpt><trkpt lat="46.0065419894425" lon="9.36933441869272"><ele>543.0</ele><time>2026-04-25T13:38:12.969Z</time></trkpt><trkpt lat="46.00664174340232" lon="9.369225783653725"><ele>541.4</ele><time>2026-04-25T13:38:13.969Z</time></trkpt><trkpt lat="46.00673969364163" lon="9.369109129999492"><ele>539.8</ele><time>2026-04-25T13:38:14.969Z</time></trkpt><trkpt lat="46.0068266021375" lon="9.369008835677638"><ele>538.2</ele><time>2026-04-25T13:38:15.969Z</time></trkpt><trkpt lat="46.0069115967813" lon="9.368913073033038"><ele>536.6</ele><time>2026-04-25T13:38:16.969Z</time></trkpt><trkpt lat="46.006997148836035" lon="9.36883169436534"><ele>535.0</ele><time>2026-04-25T13:38:17.969Z</time></trkpt><trkpt lat="46.00709074910941" lon="9.368763879429762"><ele>538.8</ele><time>2026-04-25T13:38:18.969Z</time></trkpt><trkpt lat="46.007192068887996" lon="9.368717029520964"><ele>542.6</ele><time>2026-04-25T13:38:19.969Z</time></trkpt><trkpt lat="46.00729725891174" lon="9.368693061762185"><ele>546.4</ele><time>2026-04-25T13:38:20.969Z</time></trkpt><trkpt lat="46.00739548707289" lon="9.368696602319476"><ele>550.2</ele><time>2026-04-25T13:38:21.969Z</time></trkpt><trkpt lat="46.007494157245304" lon="9.368716670824394"><ele>554.0</ele><time>2026-04-25T13:38:22.969Z</time></trkpt><trkpt lat="46.00759385219967" lon="9.368743137221477"><ele>554.0</ele><time>2026-04-25T13:38:23.969Z</time></trkpt><trkpt lat="46.0076912217824" lon="9.368738467113829"><ele>554.0</ele><time>2026-04-25T13:38:24.969Z</time></trkpt><trkpt lat="46.007798006206976" lon="9.368707036097955"><ele>554.0</ele><time>2026-04-25T13:38:25.969Z</time></trkpt><trkpt lat="46.00790065407782" lon="9.368653331134563"><ele>554.0</ele><time>2026-04-25T13:38:26.969Z</time></trkpt><trkpt lat="46.00799856317361" lon="9.368573808673982"><ele>554.0</ele><time>2026-04-25T13:38:27.969Z</time></trkpt><trkpt lat="46.00810221134576" lon="9.368461451023213"><ele>554.0</ele><time>2026-04-25T13:38:28.969Z</time></trkpt><trkpt lat="46.008195883128934" lon="9.368327849137403"><ele>554.0</ele><time>2026-04-25T13:38:29.969Z</time></trkpt><trkpt lat="46.00828077871214" lon="9.36818553636784"><ele>554.0</ele><time>2026-04-25T13:38:30.969Z</time></trkpt><trkpt lat="46.00835419372912" lon="9.368051258364579"><ele>554.0</ele><time>2026-04-25T13:38:31.969Z</time></trkpt><trkpt lat="46.00842366053992" lon="9.367916419519842"><ele>555.5</ele><time>2026-04-25T13:38:32.969Z</time></trkpt><trkpt lat="46.008466313733294" lon="9.367763688959135"><ele>557.0</ele><time>2026-04-25T13:38:33.969Z</time></trkpt><trkpt lat="46.00849729946525" lon="9.367598112001895"><ele>558.5</ele><time>2026-04-25T13:38:34.969Z</time></trkpt><trkpt lat="46.00852363187738" lon="9.367423075674685"><ele>560.0</ele><time>2026-04-25T13:38:35.97Z</time></trkpt><trkpt lat="46.00855258735152" lon="9.367249701485832"><ele>563.25</ele><time>2026-04-25T13:38:36.97Z</time></trkpt><trkpt lat="46.00859977420485" lon="9.367077957304938"><ele>566.5</ele><time>2026-04-25T13:38:37.97Z</time></trkpt><trkpt lat="46.00866225300763" lon="9.366913072123399"><ele>569.75</ele><time>2026-04-25T13:38:38.97Z</time></trkpt><trkpt lat="46.008749262447004" lon="9.366755589380261"><ele>573.0</ele><time>2026-04-25T13:38:39.97Z</time></trkpt><trkpt lat="46.00884633703793" lon="9.366593305530529"><ele>573.0</ele><time>2026-04-25T13:38:40.97Z</time></trkpt><trkpt lat="46.008938164441645" lon="9.36643501105978"><ele>573.0</ele><time>2026-04-25T13:38:41.97Z</time></trkpt><trkpt lat="46.009023024753596" lon="9.36627347207099"><ele>573.0</ele><time>2026-04-25T13:38:42.97Z</time></trkpt><trkpt lat="46.00909513841754" lon="9.366092817828543"><ele>573.0</ele><time>2026-04-25T13:38:43.97Z</time></trkpt><trkpt lat="46.00915591910423" lon="9.365895604561942"><ele>573.6666666666666</ele><time>2026-04-25T13:38:44.97Z</time></trkpt><trkpt lat="46.0092101446753" lon="9.365686451067091"><ele>574.3333333333333</ele><time>2026-04-25T13:38:45.97Z</time></trkpt><trkpt lat="46.00926530123571" lon="9.365481891193063"><ele>575.0</ele><time>2026-04-25T13:38:46.97Z</time></trkpt><trkpt lat="46.00931901559563" lon="9.365286537266476"><ele>575.0</ele><time>2026-04-25T13:38:47.97Z</time></trkpt><trkpt lat="46.009368236404725" lon="9.36509555828441"><ele>575.0</ele><time>2026-04-25T13:38:48.97Z</time></trkpt><trkpt lat="46.0094127014702" lon="9.364910823065484"><ele>575.0</ele><time>2026-04-25T13:38:49.97Z</time></trkpt><trkpt lat="46.00945316404945" lon="9.364758960853585"><ele>575.0</ele><time>2026-04-25T13:38:50.97Z</time></trkpt><trkpt lat="46.00947810093408" lon="9.364602840419353"><ele>577.75</ele><time>2026-04-25T13:38:51.97Z</time></trkpt><trkpt lat="46.009469046182204" lon="9.364427897785445"><ele>580.5</ele><time>2026-04-25T13:38:52.97Z</time></trkpt><trkpt lat="46.00943893776027" lon="9.36424805696438"><ele>583.25</ele><time>2026-04-25T13:38:53.97Z</time></trkpt><trkpt lat="46.009410852028076" lon="9.36408508899339"><ele>586.0</ele><time>2026-04-25T13:38:54.97Z</time></trkpt><trkpt lat="46.00939913293504" lon="9.363924461557977"><ele>590.5</ele><time>2026-04-25T13:38:55.97Z</time></trkpt><trkpt lat="46.009412977023956" lon="9.363760326137085"><ele>595.0</ele><time>2026-04-25T13:38:56.97Z</time></trkpt><trkpt lat="46.00945091044609" lon="9.363594529804066"><ele>599.5</ele><time>2026-04-25T13:38:57.97Z</time></trkpt><trkpt lat="46.009507539901584" lon="9.36343055139087"><ele>604.0</ele><time>2026-04-25T13:38:58.97Z</time></trkpt><trkpt lat="46.00957792486855" lon="9.363262705918117"><ele>604.0</ele><time>2026-04-25T13:38:59.97Z</time></trkpt><trkpt lat="46.00965439279024" lon="9.363097163834732"><ele>604.0</ele><time>2026-04-25T13:39:00.97Z</time></trkpt><trkpt lat="46.00973556367727" lon="9.362935311696008"><ele>604.0</ele><time>2026-04-25T13:39:01.97Z</time></trkpt><trkpt lat="46.00982653588308" lon="9.3627818351703"><ele>604.0</ele><time>2026-04-25T13:39:02.97Z</time></trkpt><trkpt lat="46.009927570475476" lon="9.362628094200593"><ele>605.75</ele><time>2026-04-25T13:39:03.97Z</time></trkpt><trkpt lat="46.010029718391635" lon="9.362470839909045"><ele>607.5</ele><time>2026-04-25T13:39:04.97Z</time></trkpt><trkpt lat="46.0101313514385" lon="9.36231701414769"><ele>609.25</ele><time>2026-04-25T13:39:05.97Z</time></trkpt><trkpt lat="46.0102231086154" lon="9.362179841272873"><ele>611.0</ele><time>2026-04-25T13:39:06.97Z</time></trkpt><trkpt lat="46.01030578021722" lon="9.362061096013607"><ele>611.0</ele><time>2026-04-25T13:39:07.97Z</time></trkpt><trkpt lat="46.010382510173706" lon="9.361950375443884"><ele>611.0</ele><time>2026-04-25T13:39:08.97Z</time></trkpt><trkpt lat="46.010452639133234" lon="9.361825536584988"><ele>611.0</ele><time>2026-04-25T13:39:09.97Z</time></trkpt><trkpt lat="46.01050739094294" lon="9.361675836675396"><ele>611.0</ele><time>2026-04-25T13:39:10.97Z</time></trkpt><trkpt lat="46.01054513139497" lon="9.361503542064012"><ele>614.0</ele><time>2026-04-25T13:39:11.97Z</time></trkpt><trkpt lat="46.01056962679416" lon="9.361323486944897"><ele>617.0</ele><time>2026-04-25T13:39:12.97Z</time></trkpt><trkpt lat="46.01058841349502" lon="9.361134940874992"><ele>620.0</ele><time>2026-04-25T13:39:13.97Z</time></trkpt><trkpt lat="46.010612546334414" lon="9.360947920304032"><ele>623.0</ele><time>2026-04-25T13:39:14.97Z</time></trkpt><trkpt lat="46.01063704217011" lon="9.360768604350245"><ele>623.0</ele><time>2026-04-25T13:39:15.971Z</time></trkpt><trkpt lat="46.01067913508904" lon="9.360596158619538"><ele>623.0</ele><time>2026-04-25T13:39:16.971Z</time></trkpt><trkpt lat="46.01074274631305" lon="9.360441745804316"><ele>623.0</ele><time>2026-04-25T13:39:17.971Z</time></trkpt><trkpt lat="46.010823382727345" lon="9.360289571984778"><ele>623.0</ele><time>2026-04-25T13:39:18.971Z</time></trkpt><trkpt lat="46.01091565731868" lon="9.360133733131628"><ele>623.75</ele><time>2026-04-25T13:39:19.971Z</time></trkpt><trkpt lat="46.011017863640404" lon="9.359980913204039"><ele>624.5</ele><time>2026-04-25T13:39:20.971Z</time></trkpt><trkpt lat="46.011115291212434" lon="9.359829509720782"><ele>625.25</ele><time>2026-04-25T13:39:21.971Z</time></trkpt><trkpt lat="46.0112067304412" lon="9.359684320139054"><ele>626.0</ele><time>2026-04-25T13:39:22.968Z</time></trkpt><trkpt lat="46.011290760497495" lon="9.35956197284791"><ele>626.0</ele><time>2026-04-25T13:39:23.968Z</time></trkpt><trkpt lat="46.01136479650554" lon="9.359433726537283"><ele>626.0</ele><time>2026-04-25T13:39:24.968Z</time></trkpt><trkpt lat="46.01142361169545" lon="9.359284250813504"><ele>626.0</ele><time>2026-04-25T13:39:25.968Z</time></trkpt><trkpt lat="46.01146185655718" lon="9.359113536865335"><ele>626.0</ele><time>2026-04-25T13:39:26.967Z</time></trkpt><trkpt lat="46.011471481381356" lon="9.35893458402977"><ele>627.5</ele><time>2026-04-25T13:39:27.967Z</time></trkpt><trkpt lat="46.01145420059508" lon="9.35876304798437"><ele>629.0</ele><time>2026-04-25T13:39:28.968Z</time></trkpt><trkpt lat="46.01141884742031" lon="9.358603691291655"><ele>630.5</ele><time>2026-04-25T13:39:29.967Z</time></trkpt><trkpt lat="46.01140015434145" lon="9.358446407338189"><ele>632.0</ele><time>2026-04-25T13:39:30.967Z</time></trkpt><trkpt lat="46.01142055282634" lon="9.358280899161242"><ele>632.0</ele><time>2026-04-25T13:39:31.968Z</time></trkpt><trkpt lat="46.01148916404459" lon="9.358134328834828"><ele>632.0</ele><time>2026-04-25T13:39:32.968Z</time></trkpt><trkpt lat="46.011568906299274" lon="9.358022822707836"><ele>632.0</ele><time>2026-04-25T13:39:33.968Z</time></trkpt><trkpt lat="46.01166911084201" lon="9.357957532653455"><ele>632.0</ele><time>2026-04-25T13:39:34.968Z</time></trkpt><trkpt lat="46.0117854441512" lon="9.357915294717957"><ele>629.5</ele><time>2026-04-25T13:39:35.968Z</time></trkpt><trkpt lat="46.01189575994466" lon="9.357862030719652"><ele>627.0</ele><time>2026-04-25T13:39:36.968Z</time></trkpt><trkpt lat="46.011987388264004" lon="9.357781181696893"><ele>624.5</ele><time>2026-04-25T13:39:37.968Z</time></trkpt><trkpt lat="46.01207129631339" lon="9.357664989924356"><ele>622.0</ele><time>2026-04-25T13:39:38.968Z</time></trkpt><trkpt lat="46.012137590637636" lon="9.357511403025457"><ele>622.0</ele><time>2026-04-25T13:39:39.968Z</time></trkpt><trkpt lat="46.01220708981603" lon="9.3573499432574"><ele>622.0</ele><time>2026-04-25T13:39:40.968Z</time></trkpt><trkpt lat="46.01228187567923" lon="9.357171245096243"><ele>622.0</ele><time>2026-04-25T13:39:41.968Z</time></trkpt><trkpt lat="46.012366792758954" lon="9.356993551472529"><ele>622.0</ele><time>2026-04-25T13:39:42.968Z</time></trkpt><trkpt lat="46.01246132910655" lon="9.35680981197814"><ele>621.0</ele><time>2026-04-25T13:39:43.968Z</time></trkpt><trkpt lat="46.01255937820601" lon="9.356638681057364"><ele>620.0</ele><time>2026-04-25T13:39:44.968Z</time></trkpt><trkpt lat="46.01266396976397" lon="9.356471595492346"><ele>619.0</ele><time>2026-04-25T13:39:45.968Z</time></trkpt><trkpt lat="46.01276883307738" lon="9.356306939677992"><ele>624.3333333333334</ele><time>2026-04-25T13:39:46.968Z</time></trkpt><trkpt lat="46.012874363811825" lon="9.356135410838531"><ele>629.6666666666666</ele><time>2026-04-25T13:39:47.968Z</time></trkpt><trkpt lat="46.01296920093402" lon="9.355966837971872"><ele>635.0</ele><time>2026-04-25T13:39:48.968Z</time></trkpt><trkpt lat="46.013072108074944" lon="9.355815066816596"><ele>635.0</ele><time>2026-04-25T13:39:49.968Z</time></trkpt><trkpt lat="46.01317448488554" lon="9.355684659122945"><ele>635.0</ele><time>2026-04-25T13:39:50.968Z</time></trkpt><trkpt lat="46.013276603659754" lon="9.355580684426762"><ele>635.0</ele><time>2026-04-25T13:39:51.968Z</time></trkpt><trkpt lat="46.01336652342978" lon="9.355463583756665"><ele>635.0</ele><time>2026-04-25T13:39:52.968Z</time></trkpt><trkpt lat="46.013449821270974" lon="9.355321284367651"><ele>635.0</ele><time>2026-04-25T13:39:53.968Z</time></trkpt><trkpt lat="46.01350924122642" lon="9.35516687017031"><ele>635.0</ele><time>2026-04-25T13:39:54.968Z</time></trkpt><trkpt lat="46.01355315796713" lon="9.355012057885597"><ele>635.0</ele><time>2026-04-25T13:39:55.968Z</time></trkpt><trkpt lat="46.013616388227355" lon="9.354891468826752"><ele>635.0</ele><time>2026-04-25T13:39:56.968Z</time></trkpt><trkpt lat="46.013699247548736" lon="9.354799944545386"><ele>635.0</ele><time>2026-04-25T13:39:57.968Z</time></trkpt><trkpt lat="46.01380378576654" lon="9.354749105791443"><ele>635.0</ele><time>2026-04-25T13:39:58.968Z</time></trkpt><trkpt lat="46.01392580886793" lon="9.354733811707392"><ele>635.0</ele><time>2026-04-25T13:39:59.968Z</time></trkpt><trkpt lat="46.01403567271585" lon="9.35471368265933"><ele>635.0</ele><time>2026-04-25T13:40:00.968Z</time></trkpt><trkpt lat="46.01414190943327" lon="9.354663482677266"><ele>635.0</ele><time>2026-04-25T13:40:01.968Z</time></trkpt><trkpt lat="46.014226533111845" lon="9.35456558857224"><ele>636.5</ele><time>2026-04-25T13:40:02.968Z</time></trkpt><trkpt lat="46.014301854608654" lon="9.354434637996698"><ele>638.0</ele><time>2026-04-25T13:40:03.968Z</time></trkpt><trkpt lat="46.01436594842372" lon="9.354276615610583"><ele>639.5</ele><time>2026-04-25T13:40:04.968Z</time></trkpt><trkpt lat="46.0144339461697" lon="9.35411988748451"><ele>641.0</ele><time>2026-04-25T13:40:05.968Z</time></trkpt><trkpt lat="46.0145070329703" lon="9.353954547175823"><ele>645.75</ele><time>2026-04-25T13:40:06.968Z</time></trkpt><trkpt lat="46.0145859191121" lon="9.353803792411943"><ele>650.5</ele><time>2026-04-25T13:40:07.968Z</time></trkpt><trkpt lat="46.01468988508696" lon="9.353667381382927"><ele>655.25</ele><time>2026-04-25T13:40:08.968Z</time></trkpt><trkpt lat="46.01479361526292" lon="9.35353492988297"><ele>660.0</ele><time>2026-04-25T13:40:09.969Z</time></trkpt><trkpt lat="46.01489146311643" lon="9.353397135675497"><ele>660.0</ele><time>2026-04-25T13:40:10.969Z</time></trkpt><trkpt lat="46.01498296857198" lon="9.353254958241562"><ele>660.0</ele><time>2026-04-25T13:40:11.969Z</time></trkpt><trkpt lat="46.01507512339021" lon="9.353118830879863"><ele>660.0</ele><time>2026-04-25T13:40:12.969Z</time></trkpt><trkpt lat="46.0151695051668" lon="9.352989419772971"><ele>660.0</ele><time>2026-04-25T13:40:13.969Z</time></trkpt><trkpt lat="46.01526180747395" lon="9.352864172242123"><ele>661.5</ele><time>2026-04-25T13:40:14.969Z</time></trkpt><trkpt lat="46.0153537530762" lon="9.352729414897928"><ele>663.0</ele><time>2026-04-25T13:40:15.969Z</time></trkpt><trkpt lat="46.01543386940033" lon="9.352578031818437"><ele>664.5</ele><time>2026-04-25T13:40:16.969Z</time></trkpt><trkpt lat="46.01550140433389" lon="9.352405419149525"><ele>666.0</ele><time>2026-04-25T13:40:17.969Z</time></trkpt><trkpt lat="46.01557673247289" lon="9.352231031438937"><ele>665.25</ele><time>2026-04-25T13:40:18.969Z</time></trkpt><trkpt lat="46.015674876773105" lon="9.352083222480411"><ele>664.5</ele><time>2026-04-25T13:40:19.969Z</time></trkpt><trkpt lat="46.01577937778649" lon="9.351946687874252"><ele>663.75</ele><time>2026-04-25T13:40:20.969Z</time></trkpt><trkpt lat="46.0158934707185" lon="9.351838694933532"><ele>663.0</ele><time>2026-04-25T13:40:21.969Z</time></trkpt><trkpt lat="46.0160158379486" lon="9.351759793875624"><ele>663.0</ele><time>2026-04-25T13:40:22.969Z</time></trkpt><trkpt lat="46.01614489184363" lon="9.351702230936466"><ele>663.0</ele><time>2026-04-25T13:40:23.969Z</time></trkpt><trkpt lat="46.01625776655385" lon="9.35163642888117"><ele>663.0</ele><time>2026-04-25T13:40:24.969Z</time></trkpt><trkpt lat="46.016358361295474" lon="9.351553770746625"><ele>663.0</ele><time>2026-04-25T13:40:25.969Z</time></trkpt><trkpt lat="46.016438946711055" lon="9.351437939523617"><ele>661.75</ele><time>2026-04-25T13:40:26.969Z</time></trkpt><trkpt lat="46.016497149663216" lon="9.351299425231568"><ele>660.5</ele><time>2026-04-25T13:40:27.969Z</time></trkpt><trkpt lat="46.016574974806844" lon="9.351177479333863"><ele>659.25</ele><time>2026-04-25T13:40:28.969Z</time></trkpt><trkpt lat="46.016668311544436" lon="9.351071068199817"><ele>658.0</ele><time>2026-04-25T13:40:29.969Z</time></trkpt><trkpt lat="46.01676552299944" lon="9.35098653191881"><ele>658.0</ele><time>2026-04-25T13:40:30.969Z</time></trkpt><trkpt lat="46.016854810150534" lon="9.350896042010623"><ele>658.0</ele><time>2026-04-25T13:40:31.969Z</time></trkpt><trkpt lat="46.01692952992019" lon="9.350779889145901"><ele>658.0</ele><time>2026-04-25T13:40:32.969Z</time></trkpt><trkpt lat="46.01698055117648" lon="9.350637767685335"><ele>658.0</ele><time>2026-04-25T13:40:33.969Z</time></trkpt><trkpt lat="46.01699672666319" lon="9.350479349326447"><ele>658.0</ele><time>2026-04-25T13:40:34.969Z</time></trkpt><trkpt lat="46.01698557662487" lon="9.350314884516127"><ele>660.25</ele><time>2026-04-25T13:40:35.969Z</time></trkpt><trkpt lat="46.016953767463036" lon="9.350151286130366"><ele>662.5</ele><time>2026-04-25T13:40:36.969Z</time></trkpt><trkpt lat="46.016916457502894" lon="9.349985963583737"><ele>664.75</ele><time>2026-04-25T13:40:37.969Z</time></trkpt><trkpt lat="46.01687857767458" lon="9.349831455807074"><ele>667.0</ele><time>2026-04-25T13:40:38.969Z</time></trkpt><trkpt lat="46.01684097244014" lon="9.349667669126402"><ele>668.8</ele><time>2026-04-25T13:40:39.969Z</time></trkpt><trkpt lat="46.01680322277505" lon="9.349519365582559"><ele>670.6</ele><time>2026-04-25T13:40:40.969Z</time></trkpt><trkpt lat="46.016772525690534" lon="9.349371835271079"><ele>672.4</ele><time>2026-04-25T13:40:41.969Z</time></trkpt><trkpt lat="46.01677437465438" lon="9.349234387189654"><ele>674.1999999999999</ele><time>2026-04-25T13:40:42.969Z</time></trkpt><trkpt lat="46.0168116832844" lon="9.349107230373344"><ele>676.0</ele><time>2026-04-25T13:40:43.969Z</time></trkpt><trkpt lat="46.01687332042829" lon="9.34896946103583"><ele>678.4</ele><time>2026-04-25T13:40:44.969Z</time></trkpt><trkpt lat="46.01693917556628" lon="9.348844370282174"><ele>680.8</ele><time>2026-04-25T13:40:45.969Z</time></trkpt><trkpt lat="46.01700734060971" lon="9.348708855453964"><ele>683.1999999999999</ele><time>2026-04-25T13:40:46.969Z</time></trkpt><trkpt lat="46.017062508129335" lon="9.348585265026474"><ele>685.5999999999999</ele><time>2026-04-25T13:40:47.969Z</time></trkpt><trkpt lat="46.01713226110581" lon="9.348471008499622"><ele>688.0</ele><time>2026-04-25T13:40:48.969Z</time></trkpt><trkpt lat="46.01722051454403" lon="9.348364964663771"><ele>688.0</ele><time>2026-04-25T13:40:49.969Z</time></trkpt><trkpt lat="46.01732028225292" lon="9.348266589088482"><ele>688.0</ele><time>2026-04-25T13:40:50.97Z</time></trkpt><trkpt lat="46.01742210414244" lon="9.348173446795078"><ele>688.0</ele><time>2026-04-25T13:40:51.97Z</time></trkpt><trkpt lat="46.017527458949246" lon="9.34809809758391"><ele>688.0</ele><time>2026-04-25T13:40:52.97Z</time></trkpt><trkpt lat="46.01764066535116" lon="9.348038079249672"><ele>686.75</ele><time>2026-04-25T13:40:53.97Z</time></trkpt><trkpt lat="46.01775980230497" lon="9.347981689782245"><ele>685.5</ele><time>2026-04-25T13:40:54.97Z</time></trkpt><trkpt lat="46.01787112652454" lon="9.347923715490115"><ele>684.25</ele><time>2026-04-25T13:40:55.97Z</time></trkpt><trkpt lat="46.017970307013705" lon="9.347861309118183"><ele>683.0</ele><time>2026-04-25T13:40:56.97Z</time></trkpt><trkpt lat="46.018054624554466" lon="9.347784115693221"><ele>683.0</ele><time>2026-04-25T13:40:57.97Z</time></trkpt><trkpt lat="46.018125547719066" lon="9.347689846776706"><ele>683.0</ele><time>2026-04-25T13:40:58.97Z</time></trkpt><trkpt lat="46.01818095711705" lon="9.347575652396367"><ele>683.0</ele><time>2026-04-25T13:40:59.97Z</time></trkpt><trkpt lat="46.01821087888268" lon="9.34742825820112"><ele>683.0</ele><time>2026-04-25T13:41:00.97Z</time></trkpt><trkpt lat="46.018227854018534" lon="9.347267591144561"><ele>683.0</ele><time>2026-04-25T13:41:01.97Z</time></trkpt><trkpt lat="46.0182428475149" lon="9.347118401228004"><ele>683.0</ele><time>2026-04-25T13:41:02.97Z</time></trkpt><trkpt lat="46.0182518966429" lon="9.346975631588435"><ele>683.0</ele><time>2026-04-25T13:41:03.97Z</time></trkpt><trkpt lat="46.01825731880113" lon="9.346839463764445"><ele>683.0</ele><time>2026-04-25T13:41:04.97Z</time></trkpt><trkpt lat="46.01825783419752" lon="9.346687023719468"><ele>683.0</ele><time>2026-04-25T13:41:05.97Z</time></trkpt><trkpt lat="46.01825951711506" lon="9.346533439312276"><ele>683.0</ele><time>2026-04-25T13:41:06.97Z</time></trkpt><trkpt lat="46.01827482120109" lon="9.34637280816791"><ele>680.25</ele><time>2026-04-25T13:41:07.97Z</time></trkpt><trkpt lat="46.01831869339509" lon="9.346211474078343"><ele>677.5</ele><time>2026-04-25T13:41:08.97Z</time></trkpt><trkpt lat="46.018372195823765" lon="9.346063458786363"><ele>674.75</ele><time>2026-04-25T13:41:09.97Z</time></trkpt><trkpt lat="46.01843608543869" lon="9.345931586760365"><ele>672.0</ele><time>2026-04-25T13:41:10.97Z</time></trkpt><trkpt lat="46.018500864619284" lon="9.345792301998955"><ele>672.0</ele><time>2026-04-25T13:41:11.97Z</time></trkpt><trkpt lat="46.018552398451064" lon="9.345648695297042"><ele>672.0</ele><time>2026-04-25T13:41:12.97Z</time></trkpt><trkpt lat="46.01859593020637" lon="9.34549670961102"><ele>672.0</ele><time>2026-04-25T13:41:13.97Z</time></trkpt><trkpt lat="46.01862185758989" lon="9.345335254912406"><ele>672.0</ele><time>2026-04-25T13:41:14.97Z</time></trkpt><trkpt lat="46.018631426284365" lon="9.345167020485214"><ele>672.75</ele><time>2026-04-25T13:41:15.97Z</time></trkpt><trkpt lat="46.018634908415535" lon="9.344995639440153"><ele>673.5</ele><time>2026-04-25T13:41:16.97Z</time></trkpt><trkpt lat="46.01864790171008" lon="9.344827595941664"><ele>674.25</ele><time>2026-04-25T13:41:17.97Z</time></trkpt><trkpt lat="46.018681482882954" lon="9.344656785718762"><ele>675.0</ele><time>2026-04-25T13:41:18.97Z</time></trkpt><trkpt lat="46.01871633376148" lon="9.344491792079223"><ele>675.5</ele><time>2026-04-25T13:41:19.97Z</time></trkpt><trkpt lat="46.01876563608014" lon="9.344335901158212"><ele>676.0</ele><time>2026-04-25T13:41:20.97Z</time></trkpt><trkpt lat="46.018801914727874" lon="9.344174815170698"><ele>676.5</ele><time>2026-04-25T13:41:21.97Z</time></trkpt><trkpt lat="46.01882052633362" lon="9.344017368646089"><ele>677.0</ele><time>2026-04-25T13:41:22.97Z</time></trkpt><trkpt lat="46.01882190765104" lon="9.34386600133878"><ele>677.6</ele><time>2026-04-25T13:41:23.97Z</time></trkpt><trkpt lat="46.01879136646067" lon="9.343722047837712"><ele>678.2</ele><time>2026-04-25T13:41:24.97Z</time></trkpt><trkpt lat="46.01874200391059" lon="9.343588404632838"><ele>678.8</ele><time>2026-04-25T13:41:25.97Z</time></trkpt><trkpt lat="46.01868819846718" lon="9.34345074995437"><ele>679.4</ele><time>2026-04-25T13:41:26.97Z</time></trkpt><trkpt lat="46.01865060119108" lon="9.34331056867918"><ele>680.0</ele><time>2026-04-25T13:41:27.97Z</time></trkpt><trkpt lat="46.0186458258242" lon="9.34315927193023"><ele>680.8</ele><time>2026-04-25T13:41:28.968Z</time></trkpt><trkpt lat="46.01868408738424" lon="9.34300494063327"><ele>681.6</ele><time>2026-04-25T13:41:29.968Z</time></trkpt><trkpt lat="46.018737056446604" lon="9.342850990078682"><ele>682.4000000000001</ele><time>2026-04-25T13:41:30.968Z</time></trkpt><trkpt lat="46.01876443096517" lon="9.342693208050015"><ele>683.2</ele><time>2026-04-25T13:41:31.968Z</time></trkpt><trkpt lat="46.018772258231465" lon="9.342560577490666"><ele>684.0</ele><time>2026-04-25T13:41:32.969Z</time></trkpt><trkpt lat="46.01876912914153" lon="9.342463876611863"><ele>684.0</ele><time>2026-04-25T13:41:33.969Z</time></trkpt><trkpt lat="46.018740331987644" lon="9.34237944454873"><ele>684.0</ele><time>2026-04-25T13:41:34.968Z</time></trkpt><trkpt lat="46.01868162150437" lon="9.342329114791951"><ele>684.0</ele><time>2026-04-25T13:41:35.969Z</time></trkpt><trkpt lat="46.01860316057925" lon="9.342296881158775"><ele>684.0</ele><time>2026-04-25T13:41:36.969Z</time></trkpt><trkpt lat="46.01850673906192" lon="9.342283417869966"><ele>684.0</ele><time>2026-04-25T13:41:37.969Z</time></trkpt><trkpt lat="46.018405350380235" lon="9.342282175557209"><ele>684.0</ele><time>2026-04-25T13:41:38.968Z</time></trkpt><trkpt lat="46.0183241471303" lon="9.342280901139999"><ele>688.3333333333334</ele><time>2026-04-25T13:41:39.968Z</time></trkpt><trkpt lat="46.01824437449735" lon="9.342266719738534"><ele>692.6666666666666</ele><time>2026-04-25T13:41:40.968Z</time></trkpt><trkpt lat="46.018175279324836" lon="9.342216882314297"><ele>697.0</ele><time>2026-04-25T13:41:41.968Z</time></trkpt><trkpt lat="46.018119860531385" lon="9.342141624117408"><ele>701.3333333333333</ele><time>2026-04-25T13:41:42.968Z</time></trkpt><trkpt lat="46.01807585280005" lon="9.34202577611526"><ele>705.6666666666666</ele><time>2026-04-25T13:41:43.968Z</time></trkpt><trkpt lat="46.0180433839501" lon="9.341896703565975"><ele>710.0</ele><time>2026-04-25T13:41:44.968Z</time></trkpt><trkpt lat="46.01800298135388" lon="9.341792931707497"><ele>710.0</ele><time>2026-04-25T13:41:45.968Z</time></trkpt><trkpt lat="46.01793853636382" lon="9.341705951094376"><ele>710.0</ele><time>2026-04-25T13:41:46.968Z</time></trkpt><trkpt lat="46.01786428464131" lon="9.341648510359914"><ele>710.0</ele><time>2026-04-25T13:41:47.969Z</time></trkpt><trkpt lat="46.01777298533152" lon="9.341613886042813"><ele>710.0</ele><time>2026-04-25T13:41:48.969Z</time></trkpt><trkpt lat="46.01767778934609" lon="9.341587813248081"><ele>710.0</ele><time>2026-04-25T13:41:49.969Z</time></trkpt><trkpt lat="46.01759093507139" lon="9.34155398953513"><ele>710.0</ele><time>2026-04-25T13:41:50.969Z</time></trkpt><trkpt lat="46.01750949162519" lon="9.34149513065867"><ele>710.0</ele><time>2026-04-25T13:41:51.969Z</time></trkpt><trkpt lat="46.01743903827224" lon="9.341415545101862"><ele>710.0</ele><time>2026-04-25T13:41:52.969Z</time></trkpt><trkpt lat="46.01737383550678" lon="9.341310795313877"><ele>710.0</ele><time>2026-04-25T13:41:53.969Z</time></trkpt><trkpt lat="46.017352893907436" lon="9.341195670876713"><ele>710.0</ele><time>2026-04-25T13:41:54.969Z</time></trkpt><trkpt lat="46.017360879339165" lon="9.341052055495522"><ele>716.0</ele><time>2026-04-25T13:41:55.969Z</time></trkpt><trkpt lat="46.017375067580694" lon="9.34091601930873"><ele>722.0</ele><time>2026-04-25T13:41:56.969Z</time></trkpt><trkpt lat="46.0173714656101" lon="9.340788599276364"><ele>728.0</ele><time>2026-04-25T13:41:57.969Z</time></trkpt><trkpt lat="46.01733504806446" lon="9.340660426879857"><ele>734.0</ele><time>2026-04-25T13:41:58.969Z</time></trkpt><trkpt lat="46.01727210201773" lon="9.340539880945892"><ele>740.0</ele><time>2026-04-25T13:41:59.969Z</time></trkpt><trkpt lat="46.01721394531857" lon="9.3404268363351"><ele>740.0</ele><time>2026-04-25T13:42:00.969Z</time></trkpt><trkpt lat="46.01716073402703" lon="9.340338591103924"><ele>740.0</ele><time>2026-04-25T13:42:01.969Z</time></trkpt><trkpt lat="46.01712498491358" lon="9.3402397751602"><ele>740.0</ele><time>2026-04-25T13:42:02.969Z</time></trkpt><trkpt lat="46.017110670534926" lon="9.340138349137334"><ele>740.0</ele><time>2026-04-25T13:42:03.969Z</time></trkpt><trkpt lat="46.01712353353456" lon="9.340040370438588"><ele>740.0</ele><time>2026-04-25T13:42:04.969Z</time></trkpt><trkpt lat="46.017157109004195" lon="9.339917360268943"><ele>740.0</ele><time>2026-04-25T13:42:05.969Z</time></trkpt><trkpt lat="46.017165186352216" lon="9.33977209328584"><ele>741.4</ele><time>2026-04-25T13:42:06.969Z</time></trkpt><trkpt lat="46.01714808033346" lon="9.339635285124787"><ele>742.8</ele><time>2026-04-25T13:42:07.969Z</time></trkpt><trkpt lat="46.01712571783766" lon="9.339505754679367"><ele>744.2</ele><time>2026-04-25T13:42:08.969Z</time></trkpt><trkpt lat="46.01711507365803" lon="9.339377692456246"><ele>745.6</ele><time>2026-04-25T13:42:09.969Z</time></trkpt><trkpt lat="46.0171213659947" lon="9.339240526457418"><ele>747.0</ele><time>2026-04-25T13:42:10.969Z</time></trkpt><trkpt lat="46.01716965783188" lon="9.339111739286952"><ele>747.0</ele><time>2026-04-25T13:42:11.969Z</time></trkpt><trkpt lat="46.01722705974759" lon="9.339001324724075"><ele>747.0</ele><time>2026-04-25T13:42:12.969Z</time></trkpt><trkpt lat="46.01726450509538" lon="9.338874735047805"><ele>747.0</ele><time>2026-04-25T13:42:13.969Z</time></trkpt><trkpt lat="46.01729861022266" lon="9.338749326345113"><ele>747.0</ele><time>2026-04-25T13:42:14.969Z</time></trkpt><trkpt lat="46.01734873105367" lon="9.338644577850376"><ele>747.0</ele><time>2026-04-25T13:42:15.969Z</time></trkpt><trkpt lat="46.017429838193245" lon="9.338566769356273"><ele>743.5</ele><time>2026-04-25T13:42:16.969Z</time></trkpt><trkpt lat="46.0175077115942" lon="9.338519728263012"><ele>740.0</ele><time>2026-04-25T13:42:17.969Z</time></trkpt><trkpt lat="46.017585604281585" lon="9.338518029794912"><ele>736.5</ele><time>2026-04-25T13:42:18.969Z</time></trkpt><trkpt lat="46.017660184421366" lon="9.338461979100712"><ele>733.0</ele><time>2026-04-25T13:42:19.969Z</time></trkpt><trkpt lat="46.01770192088417" lon="9.3383494964153"><ele>729.5</ele><time>2026-04-25T13:42:20.969Z</time></trkpt><trkpt lat="46.01770844291121" lon="9.338199640789094"><ele>726.0</ele><time>2026-04-25T13:42:21.969Z</time></trkpt><trkpt lat="46.0177150863336" lon="9.33805361558679"><ele>727.5999999999999</ele><time>2026-04-25T13:42:22.969Z</time></trkpt><trkpt lat="46.01771730019121" lon="9.337916725815743"><ele>729.2</ele><time>2026-04-25T13:42:23.969Z</time></trkpt><trkpt lat="46.01771563507285" lon="9.337781308698087"><ele>730.8</ele><time>2026-04-25T13:42:24.969Z</time></trkpt><trkpt lat="46.01769689885846" lon="9.33762506731415"><ele>732.4000000000001</ele><time>2026-04-25T13:42:25.969Z</time></trkpt><trkpt lat="46.01764610851503" lon="9.337460156714652"><ele>734.0</ele><time>2026-04-25T13:42:26.969Z</time></trkpt><trkpt lat="46.01757547999437" lon="9.337299458481594"><ele>734.5</ele><time>2026-04-25T13:42:27.97Z</time></trkpt><trkpt lat="46.017504960832994" lon="9.337152497888564"><ele>735.0</ele><time>2026-04-25T13:42:28.97Z</time></trkpt><trkpt lat="46.01750195764801" lon="9.336969527781093"><ele>735.5</ele><time>2026-04-25T13:42:29.97Z</time></trkpt><trkpt lat="46.0174911353381" lon="9.336802769533733"><ele>736.0</ele><time>2026-04-25T13:42:30.97Z</time></trkpt><trkpt lat="46.01748666989235" lon="9.336650124340371"><ele>736.0</ele><time>2026-04-25T13:42:31.97Z</time></trkpt><trkpt lat="46.01749198991269" lon="9.33651319915269"><ele>736.0</ele><time>2026-04-25T13:42:32.97Z</time></trkpt><trkpt lat="46.017498530258614" lon="9.336381909314111"><ele>736.0</ele><time>2026-04-25T13:42:33.97Z</time></trkpt><trkpt lat="46.01750384495613" lon="9.336275222994765"><ele>736.0</ele><time>2026-04-25T13:42:34.97Z</time></trkpt><trkpt lat="46.01749006319778" lon="9.336184794067853"><ele>736.0</ele><time>2026-04-25T13:42:35.97Z</time></trkpt><trkpt lat="46.01747393685925" lon="9.33604018481847"><ele>736.0</ele><time>2026-04-25T13:42:37.97Z</time></trkpt><trkpt lat="46.01736413181802" lon="9.335907690429789"><ele>750.75</ele><time>2026-04-25T13:42:39.97Z</time></trkpt><trkpt lat="46.01730976061961" lon="9.336113010688088"><ele>765.5</ele><time>2026-04-25T13:42:40.97Z</time></trkpt><trkpt lat="46.017282514538515" lon="9.336251752525088"><ele>780.25</ele><time>2026-04-25T13:42:41.97Z</time></trkpt><trkpt lat="46.017256894663205" lon="9.33638329049555"><ele>795.0</ele><time>2026-04-25T13:42:42.97Z</time></trkpt><trkpt lat="46.017244779708655" lon="9.33653996882442"><ele>795.0</ele><time>2026-04-25T13:42:43.97Z</time></trkpt><trkpt lat="46.017204152917884" lon="9.33669023825268"><ele>795.0</ele><time>2026-04-25T13:42:44.97Z</time></trkpt><trkpt lat="46.017173762215045" lon="9.336858126341827"><ele>795.0</ele><time>2026-04-25T13:42:45.97Z</time></trkpt><trkpt lat="46.017148662305566" lon="9.337028291756308"><ele>795.0</ele><time>2026-04-25T13:42:46.97Z</time></trkpt><trkpt lat="46.017122951859754" lon="9.337196684061182"><ele>792.0</ele><time>2026-04-25T13:42:47.97Z</time></trkpt><trkpt lat="46.01709631822653" lon="9.337352416334612"><ele>789.0</ele><time>2026-04-25T13:42:48.97Z</time></trkpt><trkpt lat="46.01706972983883" lon="9.337482737799002"><ele>786.0</ele><time>2026-04-25T13:42:49.97Z</time></trkpt><trkpt lat="46.01704589977347" lon="9.33759935902231"><ele>783.0</ele><time>2026-04-25T13:42:50.97Z</time></trkpt><trkpt lat="46.01702313882042" lon="9.337700895900825"><ele>780.0</ele><time>2026-04-25T13:42:51.97Z</time></trkpt><trkpt lat="46.017002760844335" lon="9.337790799676808"><ele>777.0</ele><time>2026-04-25T13:42:52.97Z</time></trkpt><trkpt lat="46.01693133271405" lon="9.337910390068924"><ele>777.0</ele><time>2026-04-25T13:42:54.97Z</time></trkpt><trkpt lat="46.0168670758828" lon="9.33792224581631"><ele>777.0</ele><time>2026-04-25T13:42:56.97Z</time></trkpt><trkpt lat="46.01684166520813" lon="9.337768191080732"><ele>777.0</ele><time>2026-04-25T13:42:58.97Z</time></trkpt><trkpt lat="46.01687518814499" lon="9.337663899677738"><ele>777.0</ele><time>2026-04-25T13:42:59.97Z</time></trkpt><trkpt lat="46.01691547413735" lon="9.337564297780682"><ele>777.0</ele><time>2026-04-25T13:43:00.97Z</time></trkpt><trkpt lat="46.01695877479269" lon="9.337431892482792"><ele>777.0</ele><time>2026-04-25T13:43:01.97Z</time></trkpt><trkpt lat="46.016986543441575" lon="9.337276682549724"><ele>781.5</ele><time>2026-04-25T13:43:02.97Z</time></trkpt><trkpt lat="46.01699614156599" lon="9.337091698830797"><ele>786.0</ele><time>2026-04-25T13:43:03.97Z</time></trkpt><trkpt lat="46.01701804194284" lon="9.336916336412424"><ele>790.5</ele><time>2026-04-25T13:43:04.97Z</time></trkpt><trkpt lat="46.017014313942994" lon="9.336731075035013"><ele>795.0</ele><time>2026-04-25T13:43:05.97Z</time></trkpt><trkpt lat="46.017007472939206" lon="9.336545667773294"><ele>799.0</ele><time>2026-04-25T13:43:06.97Z</time></trkpt><trkpt lat="46.0170045313891" lon="9.336361313160154"><ele>803.0</ele><time>2026-04-25T13:43:07.971Z</time></trkpt><trkpt lat="46.01699940444224" lon="9.336171396096177"><ele>807.0</ele><time>2026-04-25T13:43:08.971Z</time></trkpt><trkpt lat="46.017012847553275" lon="9.335983909693768"><ele>811.0</ele><time>2026-04-25T13:43:09.971Z</time></trkpt><trkpt lat="46.01702279239809" lon="9.335804867966193"><ele>811.0</ele><time>2026-04-25T13:43:10.971Z</time></trkpt><trkpt lat="46.01707286346679" lon="9.335660773231126"><ele>811.0</ele><time>2026-04-25T13:43:11.971Z</time></trkpt><trkpt lat="46.01711166206409" lon="9.33552131618202"><ele>811.0</ele><time>2026-04-25T13:43:12.971Z</time></trkpt><trkpt lat="46.01714621347044" lon="9.33536712216179"><ele>811.0</ele><time>2026-04-25T13:43:13.971Z</time></trkpt><trkpt lat="46.017212313099826" lon="9.335230913663404"><ele>811.0</ele><time>2026-04-25T13:43:14.971Z</time></trkpt><trkpt lat="46.01727359322504" lon="9.335091692203395"><ele>813.1999999999999</ele><time>2026-04-25T13:43:15.971Z</time></trkpt><trkpt lat="46.01731874059165" lon="9.3349545277024"><ele>815.4</ele><time>2026-04-25T13:43:16.971Z</time></trkpt><trkpt lat="46.01735781282584" lon="9.334812737503485"><ele>817.6</ele><time>2026-04-25T13:43:17.971Z</time></trkpt><trkpt lat="46.01738415560624" lon="9.334658371300486"><ele>819.8</ele><time>2026-04-25T13:43:18.971Z</time></trkpt><trkpt lat="46.017401905084185" lon="9.334495346504672"><ele>822.0</ele><time>2026-04-25T13:43:19.971Z</time></trkpt><trkpt lat="46.01740959780052" lon="9.334352313684601"><ele>822.6</ele><time>2026-04-25T13:43:20.971Z</time></trkpt><trkpt lat="46.017409936079574" lon="9.334221963215928"><ele>823.2</ele><time>2026-04-25T13:43:21.971Z</time></trkpt><trkpt lat="46.01739906455857" lon="9.334092726464778"><ele>823.8</ele><time>2026-04-25T13:43:22.971Z</time></trkpt><trkpt lat="46.01736358881017" lon="9.333965115224562"><ele>824.4</ele><time>2026-04-25T13:43:23.971Z</time></trkpt><trkpt lat="46.017302173223044" lon="9.333851399036268"><ele>825.0</ele><time>2026-04-25T13:43:24.971Z</time></trkpt><trkpt lat="46.01722835300682" lon="9.33374334685713"><ele>825.0</ele><time>2026-04-25T13:43:25.971Z</time></trkpt><trkpt lat="46.01714742805696" lon="9.333631790779801"><ele>825.0</ele><time>2026-04-25T13:43:26.971Z</time></trkpt><trkpt lat="46.0170574078049" lon="9.333528670740174"><ele>825.0</ele><time>2026-04-25T13:43:27.971Z</time></trkpt><trkpt lat="46.01697421444733" lon="9.333477747101789"><ele>825.0</ele><time>2026-04-25T13:43:28.971Z</time></trkpt><trkpt lat="46.016916262811826" lon="9.33339711698577"><ele>825.0</ele><time>2026-04-25T13:43:29.971Z</time></trkpt><trkpt lat="46.01687034886768" lon="9.33332108110396"><ele>825.0</ele><time>2026-04-25T13:43:30.971Z</time></trkpt><trkpt lat="46.01684037358021" lon="9.33317214558214"><ele>825.0</ele><time>2026-04-25T13:43:32.971Z</time></trkpt><trkpt lat="46.01686356337919" lon="9.33302037679643"><ele>825.0</ele><time>2026-04-25T13:43:34.97Z</time></trkpt><trkpt lat="46.01693059375463" lon="9.33295715913803"><ele>825.0</ele><time>2026-04-25T13:43:35.97Z</time></trkpt><trkpt lat="46.01701223253155" lon="9.332910169535092"><ele>825.0</ele><time>2026-04-25T13:43:36.97Z</time></trkpt><trkpt lat="46.017085555324215" lon="9.332842182901201"><ele>826.6</ele><time>2026-04-25T13:43:37.97Z</time></trkpt><trkpt lat="46.017142894184104" lon="9.332728501588486"><ele>828.2</ele><time>2026-04-25T13:43:38.97Z</time></trkpt><trkpt lat="46.01718554474788" lon="9.33258933682869"><ele>829.8</ele><time>2026-04-25T13:43:39.97Z</time></trkpt><trkpt lat="46.017253132119016" lon="9.332448656519004"><ele>831.4</ele><time>2026-04-25T13:43:40.97Z</time></trkpt><trkpt lat="46.01727935862821" lon="9.332277730731228"><ele>833.0</ele><time>2026-04-25T13:43:41.97Z</time></trkpt><trkpt lat="46.01729010205374" lon="9.332108541439695"><ele>832.8</ele><time>2026-04-25T13:43:42.97Z</time></trkpt><trkpt lat="46.01729204146891" lon="9.331938403822823"><ele>832.5999999999999</ele><time>2026-04-25T13:43:43.97Z</time></trkpt><trkpt lat="46.01728340507164" lon="9.331773262523965"><ele>832.4000000000001</ele><time>2026-04-25T13:43:44.969Z</time></trkpt><trkpt lat="46.017266355895806" lon="9.331613425024969"><ele>832.2</ele><time>2026-04-25T13:43:45.969Z</time></trkpt><trkpt lat="46.01723758987249" lon="9.331476788576689"><ele>832.0</ele><time>2026-04-25T13:43:46.97Z</time></trkpt><trkpt lat="46.01720135144132" lon="9.33135445909688"><ele>831.9999999999999</ele><time>2026-04-25T13:43:47.969Z</time></trkpt><trkpt lat="46.017168000320396" lon="9.331257021793693"><ele>832.0</ele><time>2026-04-25T13:43:48.969Z</time></trkpt><trkpt lat="46.01712466156645" lon="9.331148894623801"><ele>832.0</ele><time>2026-04-25T13:43:49.97Z</time></trkpt><trkpt lat="46.01708559687164" lon="9.33105942702752"><ele>832.0</ele><time>2026-04-25T13:43:50.97Z</time></trkpt><trkpt lat="46.017056588179386" lon="9.330950241466212"><ele>831.9999999999999</ele><time>2026-04-25T13:43:51.97Z</time></trkpt><trkpt lat="46.01701327758937" lon="9.330826281379942"><ele>832.0</ele><time>2026-04-25T13:43:52.97Z</time></trkpt><trkpt lat="46.01694416068044" lon="9.33069571299174"><ele>832.0</ele><time>2026-04-25T13:43:53.97Z</time></trkpt><trkpt lat="46.016848228930236" lon="9.33057677301789"><ele>832.0</ele><time>2026-04-25T13:43:54.97Z</time></trkpt><trkpt lat="46.01677466761538" lon="9.330482612326861"><ele>832.0</ele><time>2026-04-25T13:43:55.97Z</time></trkpt><trkpt lat="46.016705077760484" lon="9.330389034363412"><ele>832.0</ele><time>2026-04-25T13:43:56.97Z</time></trkpt><trkpt lat="46.016630504115255" lon="9.330301110855785"><ele>832.0</ele><time>2026-04-25T13:43:57.97Z</time></trkpt><trkpt lat="46.016539814347894" lon="9.330225128882239"><ele>830.0</ele><time>2026-04-25T13:43:58.97Z</time></trkpt><trkpt lat="46.01648729717862" lon="9.330107573679403"><ele>828.0</ele><time>2026-04-25T13:43:59.97Z</time></trkpt><trkpt lat="46.016418296905854" lon="9.32996871853023"><ele>826.0</ele><time>2026-04-25T13:44:00.97Z</time></trkpt><trkpt lat="46.01634505078445" lon="9.329823812196818"><ele>824.0</ele><time>2026-04-25T13:44:01.97Z</time></trkpt><trkpt lat="46.01628011255224" lon="9.329679222092203"><ele>824.0000000000001</ele><time>2026-04-25T13:44:02.97Z</time></trkpt><trkpt lat="46.01621996778792" lon="9.329553069731618"><ele>824.0</ele><time>2026-04-25T13:44:03.97Z</time></trkpt><trkpt lat="46.01617940212887" lon="9.329437842127959"><ele>824.0</ele><time>2026-04-25T13:44:04.97Z</time></trkpt><trkpt lat="46.01614329582879" lon="9.329343161833936"><ele>824.0</ele><time>2026-04-25T13:44:05.97Z</time></trkpt><trkpt lat="46.016104162288514" lon="9.329249446076279"><ele>824.0000000000001</ele><time>2026-04-25T13:44:06.97Z</time></trkpt><trkpt lat="46.01609701682485" lon="9.329130447781717"><ele>824.0</ele><time>2026-04-25T13:44:07.97Z</time></trkpt><trkpt lat="46.016079423685326" lon="9.32901095293169"><ele>824.0</ele><time>2026-04-25T13:44:08.97Z</time></trkpt><trkpt lat="46.01602427265332" lon="9.328906437280212"><ele>824.0</ele><time>2026-04-25T13:44:09.97Z</time></trkpt><trkpt lat="46.01594117800188" lon="9.328845841276896"><ele>824.0</ele><time>2026-04-25T13:44:10.97Z</time></trkpt><trkpt lat="46.01584610026168" lon="9.328808496806566"><ele>824.0</ele><time>2026-04-25T13:44:11.97Z</time></trkpt><trkpt lat="46.01575515480561" lon="9.328771720068062"><ele>824.0</ele><time>2026-04-25T13:44:12.97Z</time></trkpt><trkpt lat="46.01565715489679" lon="9.32872874948763"><ele>828.6</ele><time>2026-04-25T13:44:13.97Z</time></trkpt><trkpt lat="46.015568000020515" lon="9.328663176309371"><ele>833.2</ele><time>2026-04-25T13:44:14.97Z</time></trkpt><trkpt lat="46.015487406718144" lon="9.328577906262591"><ele>837.8000000000001</ele><time>2026-04-25T13:44:15.97Z</time></trkpt><trkpt lat="46.01542133824426" lon="9.328459503290267"><ele>842.4000000000001</ele><time>2026-04-25T13:44:16.97Z</time></trkpt><trkpt lat="46.01534855301299" lon="9.328314658640664"><ele>847.0</ele><time>2026-04-25T13:44:17.97Z</time></trkpt><trkpt lat="46.01529145742933" lon="9.328164201997838"><ele>843.8</ele><time>2026-04-25T13:44:18.97Z</time></trkpt><trkpt lat="46.01524065400564" lon="9.328032376195189"><ele>840.6</ele><time>2026-04-25T13:44:19.97Z</time></trkpt><trkpt lat="46.01516685700527" lon="9.327904297968013"><ele>837.4</ele><time>2026-04-25T13:44:20.97Z</time></trkpt><trkpt lat="46.015087685423" lon="9.327807587473485"><ele>834.1999999999999</ele><time>2026-04-25T13:44:21.97Z</time></trkpt><trkpt lat="46.014990988618194" lon="9.327738431895453"><ele>831.0</ele><time>2026-04-25T13:44:22.97Z</time></trkpt><trkpt lat="46.01491843262733" lon="9.327645840577123"><ele>840.8</ele><time>2026-04-25T13:44:23.97Z</time></trkpt><trkpt lat="46.01485057151726" lon="9.327552564093608"><ele>850.5999999999999</ele><time>2026-04-25T13:44:24.97Z</time></trkpt><trkpt lat="46.014796132048026" lon="9.327439700633432"><ele>860.4</ele><time>2026-04-25T13:44:25.97Z</time></trkpt><trkpt lat="46.01475030729587" lon="9.32732726528749"><ele>870.2</ele><time>2026-04-25T13:44:26.97Z</time></trkpt><trkpt lat="46.014752741775304" lon="9.327174393581782"><ele>880.0</ele><time>2026-04-25T13:44:28.97Z</time></trkpt><trkpt lat="46.01483802025315" lon="9.327001899146575"><ele>880.0</ele><time>2026-04-25T13:44:30.971Z</time></trkpt><trkpt lat="46.014934307443106" lon="9.326972451476506"><ele>880.0</ele><time>2026-04-25T13:44:31.971Z</time></trkpt><trkpt lat="46.01502855921693" lon="9.326973929006877"><ele>880.0</ele><time>2026-04-25T13:44:32.971Z</time></trkpt><trkpt lat="46.01513533866739" lon="9.32695316980945"><ele>880.0</ele><time>2026-04-25T13:44:33.971Z</time></trkpt><trkpt lat="46.01522226604555" lon="9.326901618527176"><ele>880.0</ele><time>2026-04-25T13:44:34.971Z</time></trkpt><trkpt lat="46.01529656124409" lon="9.326848555089066"><ele>875.1666666666666</ele><time>2026-04-25T13:44:35.971Z</time></trkpt><trkpt lat="46.01538617517139" lon="9.326819369776308"><ele>870.3333333333333</ele><time>2026-04-25T13:44:36.971Z</time></trkpt><trkpt lat="46.01545517871903" lon="9.326770683266728"><ele>865.5</ele><time>2026-04-25T13:44:37.971Z</time></trkpt><trkpt lat="46.01553618406923" lon="9.326784615384712"><ele>860.6666666666667</ele><time>2026-04-25T13:44:38.971Z</time></trkpt><trkpt lat="46.015611211348826" lon="9.326854195234501"><ele>855.8333333333334</ele><time>2026-04-25T13:44:39.971Z</time></trkpt><trkpt lat="46.01568711325791" lon="9.32695125284272"><ele>851.0</ele><time>2026-04-25T13:44:40.971Z</time></trkpt><trkpt lat="46.01577296186023" lon="9.327037319446168"><ele>852.6666666666667</ele><time>2026-04-25T13:44:41.971Z</time></trkpt><trkpt lat="46.01584524767156" lon="9.327117860352907"><ele>854.3333333333334</ele><time>2026-04-25T13:44:42.971Z</time></trkpt><trkpt lat="46.01592489557336" lon="9.327153535815848"><ele>856.0</ele><time>2026-04-25T13:44:43.971Z</time></trkpt><trkpt lat="46.01600706588564" lon="9.327146987655299"><ele>857.6666666666667</ele><time>2026-04-25T13:44:44.971Z</time></trkpt><trkpt lat="46.01610031532868" lon="9.327169971610063"><ele>859.3333333333334</ele><time>2026-04-25T13:44:45.971Z</time></trkpt><trkpt lat="46.01616997390139" lon="9.32716644847345"><ele>861.0</ele><time>2026-04-25T13:44:46.971Z</time></trkpt><trkpt lat="46.01625326771651" lon="9.327151199340914"><ele>861.0</ele><time>2026-04-25T13:44:47.971Z</time></trkpt><trkpt lat="46.016335617380044" lon="9.327134814347648"><ele>861.0</ele><time>2026-04-25T13:44:48.971Z</time></trkpt><trkpt lat="46.016406462841005" lon="9.327114659193935"><ele>861.0</ele><time>2026-04-25T13:44:49.971Z</time></trkpt><trkpt lat="46.016487601757156" lon="9.327116809976514"><ele>861.0</ele><time>2026-04-25T13:44:50.971Z</time></trkpt><trkpt lat="46.0165669440167" lon="9.327150770278491"><ele>861.0</ele><time>2026-04-25T13:44:51.971Z</time></trkpt><trkpt lat="46.016643059629395" lon="9.327183686266409"><ele>861.0</ele><time>2026-04-25T13:44:52.971Z</time></trkpt><trkpt lat="46.016730696570995" lon="9.327213603242594"><ele>862.5</ele><time>2026-04-25T13:44:53.971Z</time></trkpt><trkpt lat="46.0168429587968" lon="9.327212245256257"><ele>864.0</ele><time>2026-04-25T13:44:54.971Z</time></trkpt><trkpt lat="46.01694989025559" lon="9.327174502946471"><ele>865.5</ele><time>2026-04-25T13:44:55.971Z</time></trkpt><trkpt lat="46.01706982035881" lon="9.32710347928599"><ele>867.0</ele><time>2026-04-25T13:44:56.971Z</time></trkpt><trkpt lat="46.01717612342622" lon="9.32700998869581"><ele>867.0</ele><time>2026-04-25T13:44:57.971Z</time></trkpt><trkpt lat="46.01728474730932" lon="9.326878892713124"><ele>867.0</ele><time>2026-04-25T13:44:58.971Z</time></trkpt><trkpt lat="46.01738290242001" lon="9.326723630115003"><ele>867.0</ele><time>2026-04-25T13:44:59.971Z</time></trkpt><trkpt lat="46.01747782191587" lon="9.326566927468315"><ele>867.0</ele><time>2026-04-25T13:45:00.971Z</time></trkpt><trkpt lat="46.01757145783626" lon="9.326421801385923"><ele>869.0</ele><time>2026-04-25T13:45:01.971Z</time></trkpt><trkpt lat="46.01766441860379" lon="9.326278191024794"><ele>871.0</ele><time>2026-04-25T13:45:02.971Z</time></trkpt><trkpt lat="46.01775240343008" lon="9.326142267730097"><ele>873.0</ele><time>2026-04-25T13:45:03.971Z</time></trkpt><trkpt lat="46.017829784606455" lon="9.32602259040273"><ele>875.0</ele><time>2026-04-25T13:45:04.971Z</time></trkpt><trkpt lat="46.01790789751031" lon="9.325896569502712"><ele>875.0</ele><time>2026-04-25T13:45:05.971Z</time></trkpt><trkpt lat="46.01799760831135" lon="9.325771052161071"><ele>875.0</ele><time>2026-04-25T13:45:06.971Z</time></trkpt><trkpt lat="46.01808661613814" lon="9.325630101286803"><ele>875.0</ele><time>2026-04-25T13:45:07.971Z</time></trkpt><trkpt lat="46.01816622060168" lon="9.325488558416536"><ele>875.0</ele><time>2026-04-25T13:45:08.971Z</time></trkpt><trkpt lat="46.01825041199071" lon="9.325349022745668"><ele>876.75</ele><time>2026-04-25T13:45:09.972Z</time></trkpt><trkpt lat="46.018318534788015" lon="9.325190487904175"><ele>878.5</ele><time>2026-04-25T13:45:10.972Z</time></trkpt><trkpt lat="46.0183832662808" lon="9.325019885220103"><ele>880.25</ele><time>2026-04-25T13:45:11.972Z</time></trkpt><trkpt lat="46.01845777754871" lon="9.32484584330592"><ele>882.0</ele><time>2026-04-25T13:45:12.972Z</time></trkpt><trkpt lat="46.01851478717944" lon="9.324654419442046"><ele>882.0</ele><time>2026-04-25T13:45:13.972Z</time></trkpt><trkpt lat="46.01856870312243" lon="9.324465391792296"><ele>882.0</ele><time>2026-04-25T13:45:14.972Z</time></trkpt><trkpt lat="46.01862092717894" lon="9.32427569440716"><ele>882.0</ele><time>2026-04-25T13:45:15.972Z</time></trkpt><trkpt lat="46.01866230913235" lon="9.324078781877322"><ele>882.0</ele><time>2026-04-25T13:45:16.972Z</time></trkpt><trkpt lat="46.01868284937365" lon="9.323876782771306"><ele>885.5</ele><time>2026-04-25T13:45:17.972Z</time></trkpt><trkpt lat="46.01870977889745" lon="9.323683151473354"><ele>889.0</ele><time>2026-04-25T13:45:18.972Z</time></trkpt><trkpt lat="46.01875600825209" lon="9.32349618754797"><ele>892.5</ele><time>2026-04-25T13:45:19.972Z</time></trkpt><trkpt lat="46.018793783032876" lon="9.323294411682037"><ele>896.0</ele><time>2026-04-25T13:45:20.972Z</time></trkpt><trkpt lat="46.01881646075596" lon="9.323083365362208"><ele>900.0</ele><time>2026-04-25T13:45:21.972Z</time></trkpt><trkpt lat="46.01878278064737" lon="9.322859669137252"><ele>904.0</ele><time>2026-04-25T13:45:22.972Z</time></trkpt><trkpt lat="46.018796281621704" lon="9.32266414394608"><ele>908.0</ele><time>2026-04-25T13:45:23.972Z</time></trkpt><trkpt lat="46.01881110765634" lon="9.322464292872706"><ele>912.0</ele><time>2026-04-25T13:45:24.972Z</time></trkpt><trkpt lat="46.01883427113332" lon="9.32226529932764"><ele>916.0</ele><time>2026-04-25T13:45:25.972Z</time></trkpt><trkpt lat="46.018845351816026" lon="9.322052628968608"><ele>920.0</ele><time>2026-04-25T13:45:26.972Z</time></trkpt><trkpt lat="46.01887645032112" lon="9.321858975928105"><ele>924.0</ele><time>2026-04-25T13:45:27.972Z</time></trkpt><trkpt lat="46.01891492827492" lon="9.321669494137378"><ele>928.0</ele><time>2026-04-25T13:45:28.972Z</time></trkpt><trkpt lat="46.01894987926487" lon="9.321490650009977"><ele>933.75</ele><time>2026-04-25T13:45:29.972Z</time></trkpt><trkpt lat="46.018976064796945" lon="9.321298262544184"><ele>939.5</ele><time>2026-04-25T13:45:30.972Z</time></trkpt><trkpt lat="46.01899436752527" lon="9.321104354540497"><ele>945.25</ele><time>2026-04-25T13:45:31.972Z</time></trkpt><trkpt lat="46.01903306746606" lon="9.320919050603113"><ele>951.0</ele><time>2026-04-25T13:45:32.972Z</time></trkpt><trkpt lat="46.01906677482198" lon="9.320734171479604"><ele>956.25</ele><time>2026-04-25T13:45:33.972Z</time></trkpt><trkpt lat="46.01908886969686" lon="9.320550605351661"><ele>961.5</ele><time>2026-04-25T13:45:34.972Z</time></trkpt><trkpt lat="46.01912801676484" lon="9.320375107378998"><ele>966.75</ele><time>2026-04-25T13:45:35.972Z</time></trkpt><trkpt lat="46.01918113083657" lon="9.32020781524816"><ele>972.0</ele><time>2026-04-25T13:45:36.972Z</time></trkpt><trkpt lat="46.01921540344124" lon="9.320059930116518"><ele>963.5</ele><time>2026-04-25T13:45:37.972Z</time></trkpt><trkpt lat="46.019250487331405" lon="9.319930474544746"><ele>955.0</ele><time>2026-04-25T13:45:38.972Z</time></trkpt><trkpt lat="46.0192635129945" lon="9.319807387068346"><ele>946.5</ele><time>2026-04-25T13:45:39.972Z</time></trkpt><trkpt lat="46.019277712480175" lon="9.31968739443899"><ele>938.0</ele><time>2026-04-25T13:45:40.971Z</time></trkpt><trkpt lat="46.019298320747104" lon="9.319590434320057"><ele>929.5</ele><time>2026-04-25T13:45:41.971Z</time></trkpt><trkpt lat="46.01932393528475" lon="9.319460408003973"><ele>921.0</ele><time>2026-04-25T13:45:42.971Z</time></trkpt><trkpt lat="46.01938604803303" lon="9.319349981364866"><ele>921.0</ele><time>2026-04-25T13:45:43.971Z</time></trkpt><trkpt lat="46.01944380110023" lon="9.319204158436605"><ele>920.9999999999999</ele><time>2026-04-25T13:45:44.971Z</time></trkpt><trkpt lat="46.01949154534612" lon="9.319060417544739"><ele>920.9999999999999</ele><time>2026-04-25T13:45:45.971Z</time></trkpt><trkpt lat="46.01953029995036" lon="9.318917747829616"><ele>921.0</ele><time>2026-04-25T13:45:46.971Z</time></trkpt><trkpt lat="46.01956453505657" lon="9.318784773380438"><ele>921.0</ele><time>2026-04-25T13:45:47.971Z</time></trkpt><trkpt lat="46.01959834285228" lon="9.31865409131985"><ele>927.4</ele><time>2026-04-25T13:45:48.971Z</time></trkpt><trkpt lat="46.019631611471965" lon="9.318528257646715"><ele>933.8</ele><time>2026-04-25T13:45:49.971Z</time></trkpt><trkpt lat="46.01969332231553" lon="9.31842132021801"><ele>940.1999999999999</ele><time>2026-04-25T13:45:50.971Z</time></trkpt><trkpt lat="46.01974869654771" lon="9.318290359017954"><ele>946.5999999999999</ele><time>2026-04-25T13:45:51.971Z</time></trkpt><trkpt lat="46.019785789943484" lon="9.318132232539698"><ele>953.0</ele><time>2026-04-25T13:45:52.971Z</time></trkpt><trkpt lat="46.019813636179066" lon="9.3179690881487"><ele>943.0</ele><time>2026-04-25T13:45:53.971Z</time></trkpt><trkpt lat="46.019878995519925" lon="9.317835263970757"><ele>933.0</ele><time>2026-04-25T13:45:54.971Z</time></trkpt><trkpt lat="46.01994409526459" lon="9.317694669155545"><ele>923.0</ele><time>2026-04-25T13:45:55.971Z</time></trkpt><trkpt lat="46.020010575328506" lon="9.317531879008083"><ele>913.0</ele><time>2026-04-25T13:45:56.971Z</time></trkpt><trkpt lat="46.02010785498952" lon="9.317392873999367"><ele>913.0</ele><time>2026-04-25T13:45:57.971Z</time></trkpt><trkpt lat="46.02020779447724" lon="9.317256241829952"><ele>913.0</ele><time>2026-04-25T13:45:58.971Z</time></trkpt><trkpt lat="46.02029603143164" lon="9.31709582064893"><ele>913.0</ele><time>2026-04-25T13:45:59.971Z</time></trkpt><trkpt lat="46.02038961259466" lon="9.316949733624938"><ele>913.0</ele><time>2026-04-25T13:46:00.971Z</time></trkpt><trkpt lat="46.02048357982687" lon="9.31680054774445"><ele>924.25</ele><time>2026-04-25T13:46:01.971Z</time></trkpt><trkpt lat="46.02056767314812" lon="9.316638967139411"><ele>935.5</ele><time>2026-04-25T13:46:02.971Z</time></trkpt><trkpt lat="46.020648854183676" lon="9.316470854309308"><ele>946.75</ele><time>2026-04-25T13:46:03.971Z</time></trkpt><trkpt lat="46.0207295578713" lon="9.316301565474093"><ele>958.0</ele><time>2026-04-25T13:46:04.971Z</time></trkpt><trkpt lat="46.02081088178968" lon="9.316138426321395"><ele>955.5</ele><time>2026-04-25T13:46:05.971Z</time></trkpt><trkpt lat="46.02088470206876" lon="9.315975182926273"><ele>953.0</ele><time>2026-04-25T13:46:06.971Z</time></trkpt><trkpt lat="46.02095032840761" lon="9.31581654691529"><ele>950.5</ele><time>2026-04-25T13:46:07.971Z</time></trkpt><trkpt lat="46.021019467283686" lon="9.315664380961781"><ele>948.0</ele><time>2026-04-25T13:46:08.972Z</time></trkpt><trkpt lat="46.02109512549849" lon="9.315543307835657"><ele>948.0</ele><time>2026-04-25T13:46:09.972Z</time></trkpt><trkpt lat="46.02118636175496" lon="9.315429957917676"><ele>948.0</ele><time>2026-04-25T13:46:10.972Z</time></trkpt><trkpt lat="46.02128519736518" lon="9.315312270872477"><ele>948.0</ele><time>2026-04-25T13:46:11.972Z</time></trkpt><trkpt lat="46.0213743213799" lon="9.315184953151828"><ele>948.0</ele><time>2026-04-25T13:46:12.972Z</time></trkpt><trkpt lat="46.02146514236528" lon="9.315092629586797"><ele>948.0</ele><time>2026-04-25T13:46:13.972Z</time></trkpt><trkpt lat="46.02155140648127" lon="9.314993101362914"><ele>948.0</ele><time>2026-04-25T13:46:14.972Z</time></trkpt><trkpt lat="46.021644835271054" lon="9.314875208055556"><ele>948.0</ele><time>2026-04-25T13:46:15.972Z</time></trkpt><trkpt lat="46.021733516335765" lon="9.314738010683115"><ele>948.0</ele><time>2026-04-25T13:46:16.972Z</time></trkpt><trkpt lat="46.02180966103386" lon="9.31458411483826"><ele>943.5</ele><time>2026-04-25T13:46:17.972Z</time></trkpt><trkpt lat="46.02187134171769" lon="9.314408147564565"><ele>939.0</ele><time>2026-04-25T13:46:18.972Z</time></trkpt><trkpt lat="46.02194764927414" lon="9.314267229659977"><ele>934.5</ele><time>2026-04-25T13:46:19.972Z</time></trkpt><trkpt lat="46.02203359271832" lon="9.314179906077507"><ele>930.0</ele><time>2026-04-25T13:46:20.972Z</time></trkpt><trkpt lat="46.02209623962121" lon="9.31406648271638"><ele>930.0</ele><time>2026-04-25T13:46:21.972Z</time></trkpt><trkpt lat="46.022144583375486" lon="9.313972528998772"><ele>930.0</ele><time>2026-04-25T13:46:22.972Z</time></trkpt><trkpt lat="46.02219629837336" lon="9.313902457308364"><ele>930.0</ele><time>2026-04-25T13:46:23.972Z</time></trkpt><trkpt lat="46.022212099375494" lon="9.313803622943698"><ele>930.0</ele><time>2026-04-25T13:46:24.972Z</time></trkpt><trkpt lat="46.02222925963005" lon="9.313699465135418"><ele>930.0</ele><time>2026-04-25T13:46:25.972Z</time></trkpt><trkpt lat="46.02224828833863" lon="9.313565070544442"><ele>930.0</ele><time>2026-04-25T13:46:26.972Z</time></trkpt><trkpt lat="46.02226728221979" lon="9.313419229668357"><ele>934.5</ele><time>2026-04-25T13:46:27.972Z</time></trkpt><trkpt lat="46.022289658865795" lon="9.31324958640158"><ele>939.0</ele><time>2026-04-25T13:46:28.972Z</time></trkpt><trkpt lat="46.022304096679186" lon="9.313067409508921"><ele>943.5</ele><time>2026-04-25T13:46:29.972Z</time></trkpt><trkpt lat="46.0223561207337" lon="9.312894901777081"><ele>948.0</ele><time>2026-04-25T13:46:30.972Z</time></trkpt><trkpt lat="46.02239050906701" lon="9.31270825281706"><ele>948.0</ele><time>2026-04-25T13:46:31.972Z</time></trkpt><trkpt lat="46.022409245609865" lon="9.312542531742343"><ele>948.0</ele><time>2026-04-25T13:46:32.972Z</time></trkpt><trkpt lat="46.02242424421886" lon="9.312378330743696"><ele>948.0</ele><time>2026-04-25T13:46:33.972Z</time></trkpt><trkpt lat="46.02243196938971" lon="9.312212524558316"><ele>948.0</ele><time>2026-04-25T13:46:34.972Z</time></trkpt><trkpt lat="46.02243631378834" lon="9.312040243592302"><ele>944.8</ele><time>2026-04-25T13:46:35.972Z</time></trkpt><trkpt lat="46.02241579497095" lon="9.311866759205147"><ele>941.5999999999999</ele><time>2026-04-25T13:46:36.972Z</time></trkpt><trkpt lat="46.022386502710106" lon="9.311722262858295"><ele>938.4000000000001</ele><time>2026-04-25T13:46:37.972Z</time></trkpt><trkpt lat="46.02234914388675" lon="9.311599582039014"><ele>935.2</ele><time>2026-04-25T13:46:38.972Z</time></trkpt><trkpt lat="46.022303125492925" lon="9.311489956088353"><ele>932.0</ele><time>2026-04-25T13:46:39.972Z</time></trkpt><trkpt lat="46.02224514187515" lon="9.311397918855805"><ele>932.0000000000001</ele><time>2026-04-25T13:46:40.972Z</time></trkpt><trkpt lat="46.02216864518588" lon="9.31133982672544"><ele>932.0</ele><time>2026-04-25T13:46:41.972Z</time></trkpt><trkpt lat="46.02210748786489" lon="9.311310291095175"><ele>932.0</ele><time>2026-04-25T13:46:42.972Z</time></trkpt><trkpt lat="46.022035610000025" lon="9.31129418128615"><ele>932.0</ele><time>2026-04-25T13:46:43.972Z</time></trkpt><trkpt lat="46.021928607705306" lon="9.311316430975399"><ele>932.0000000000001</ele><time>2026-04-25T13:46:44.972Z</time></trkpt><trkpt lat="46.02182353624713" lon="9.31137858937193"><ele>932.0</ele><time>2026-04-25T13:46:45.972Z</time></trkpt><trkpt lat="46.02172152099738" lon="9.311461278899172"><ele>932.5</ele><time>2026-04-25T13:46:46.972Z</time></trkpt><trkpt lat="46.02161229387447" lon="9.311576420640746"><ele>933.0</ele><time>2026-04-25T13:46:47.972Z</time></trkpt><trkpt lat="46.021478724032" lon="9.311660992881919"><ele>933.5</ele><time>2026-04-25T13:46:48.973Z</time></trkpt><trkpt lat="46.021363194658235" lon="9.311764225047206"><ele>934.0</ele><time>2026-04-25T13:46:49.973Z</time></trkpt><trkpt lat="46.02124637853909" lon="9.311856595119828"><ele>934.0</ele><time>2026-04-25T13:46:50.973Z</time></trkpt><trkpt lat="46.021134513236994" lon="9.311927724540233"><ele>934.0</ele><time>2026-04-25T13:46:51.973Z</time></trkpt><trkpt lat="46.02101310563237" lon="9.311979353457255"><ele>934.0</ele><time>2026-04-25T13:46:52.973Z</time></trkpt><trkpt lat="46.02088540497149" lon="9.312022106343875"><ele>934.0</ele><time>2026-04-25T13:46:53.973Z</time></trkpt><trkpt lat="46.020755379704276" lon="9.312039468433458"><ele>935.25</ele><time>2026-04-25T13:46:54.973Z</time></trkpt><trkpt lat="46.0206234909609" lon="9.312056755557661"><ele>936.5</ele><time>2026-04-25T13:46:55.973Z</time></trkpt><trkpt lat="46.020497944201374" lon="9.312083510021738"><ele>937.75</ele><time>2026-04-25T13:46:56.973Z</time></trkpt><trkpt lat="46.02039418104674" lon="9.312136103393284"><ele>939.0</ele><time>2026-04-25T13:46:57.973Z</time></trkpt><trkpt lat="46.02029530205024" lon="9.312193316496627"><ele>939.0</ele><time>2026-04-25T13:46:58.973Z</time></trkpt><trkpt lat="46.02021002340552" lon="9.312236769203986"><ele>939.0000000000001</ele><time>2026-04-25T13:46:59.973Z</time></trkpt><trkpt lat="46.020115442688706" lon="9.31225526429951"><ele>939.0000000000001</ele><time>2026-04-25T13:47:00.973Z</time></trkpt><trkpt lat="46.02000934756079" lon="9.312237224681056"><ele>939.0</ele><time>2026-04-25T13:47:01.973Z</time></trkpt><trkpt lat="46.01989582544287" lon="9.312214442993124"><ele>939.0</ele><time>2026-04-25T13:47:02.973Z</time></trkpt><trkpt lat="46.01977514587935" lon="9.312186929744339"><ele>943.0</ele><time>2026-04-25T13:47:03.973Z</time></trkpt><trkpt lat="46.01966288121049" lon="9.312141363564367"><ele>947.0000000000001</ele><time>2026-04-25T13:47:04.973Z</time></trkpt><trkpt lat="46.01956950088894" lon="9.31204151846333"><ele>951.0000000000001</ele><time>2026-04-25T13:47:05.973Z</time></trkpt><trkpt lat="46.019485131628294" lon="9.31195213240078"><ele>955.0</ele><time>2026-04-25T13:47:06.973Z</time></trkpt><trkpt lat="46.01938869330762" lon="9.311878043464578"><ele>959.0</ele><time>2026-04-25T13:47:07.973Z</time></trkpt><trkpt lat="46.01930346950912" lon="9.311747994842227"><ele>959.0</ele><time>2026-04-25T13:47:08.973Z</time></trkpt><trkpt lat="46.019202623419716" lon="9.311646133967203"><ele>959.0</ele><time>2026-04-25T13:47:09.973Z</time></trkpt><trkpt lat="46.01910256361864" lon="9.311508784500836"><ele>959.0</ele><time>2026-04-25T13:47:10.973Z</time></trkpt><trkpt lat="46.019004561869686" lon="9.31138241059609"><ele>959.0</ele><time>2026-04-25T13:47:11.973Z</time></trkpt><trkpt lat="46.01888423080542" lon="9.311258259774192"><ele>963.25</ele><time>2026-04-25T13:47:12.973Z</time></trkpt><trkpt lat="46.018782844049944" lon="9.311119806571956"><ele>967.5</ele><time>2026-04-25T13:47:13.973Z</time></trkpt><trkpt lat="46.01868222185543" lon="9.311002887100566"><ele>971.75</ele><time>2026-04-25T13:47:14.973Z</time></trkpt><trkpt lat="46.018580058005725" lon="9.31090352317752"><ele>976.0</ele><time>2026-04-25T13:47:15.973Z</time></trkpt><trkpt lat="46.018485763516885" lon="9.310816945597812"><ele>976.0</ele><time>2026-04-25T13:47:16.973Z</time></trkpt><trkpt lat="46.01842410967449" lon="9.310691812645343"><ele>975.9999999999999</ele><time>2026-04-25T13:47:17.973Z</time></trkpt><trkpt lat="46.01835770099005" lon="9.310584638231292"><ele>975.9999999999999</ele><time>2026-04-25T13:47:18.973Z</time></trkpt><trkpt lat="46.01829376847083" lon="9.310482524127139"><ele>976.0</ele><time>2026-04-25T13:47:19.973Z</time></trkpt><trkpt lat="46.018241872591986" lon="9.31040942990291"><ele>976.0</ele><time>2026-04-25T13:47:20.973Z</time></trkpt><trkpt lat="46.0181545348892" lon="9.310341611542228"><ele>980.0</ele><time>2026-04-25T13:47:22.973Z</time></trkpt><trkpt lat="46.01803299563939" lon="9.31038412342274"><ele>984.0</ele><time>2026-04-25T13:47:24.973Z</time></trkpt><trkpt lat="46.01801485862156" lon="9.310538677683478"><ele>988.0</ele><time>2026-04-25T13:47:25.973Z</time></trkpt><trkpt lat="46.01809352288913" lon="9.31066997740722"><ele>992.0</ele><time>2026-04-25T13:47:26.973Z</time></trkpt><trkpt lat="46.01816198409802" lon="9.310781569973622"><ele>994.5</ele><time>2026-04-25T13:47:27.973Z</time></trkpt><trkpt lat="46.01822755946165" lon="9.310931681264481"><ele>997.0</ele><time>2026-04-25T13:47:28.974Z</time></trkpt><trkpt lat="46.018310239494696" lon="9.311090952633858"><ele>999.5</ele><time>2026-04-25T13:47:29.974Z</time></trkpt><trkpt lat="46.018393680493666" lon="9.311244651033116"><ele>1002.0</ele><time>2026-04-25T13:47:30.974Z</time></trkpt><trkpt lat="46.01846775509403" lon="9.311382296954127"><ele>999.25</ele><time>2026-04-25T13:47:31.974Z</time></trkpt><trkpt lat="46.01854874520438" lon="9.311512137042788"><ele>996.5</ele><time>2026-04-25T13:47:32.974Z</time></trkpt><trkpt lat="46.018611154345436" lon="9.31167484243443"><ele>993.75</ele><time>2026-04-25T13:47:33.974Z</time></trkpt><trkpt lat="46.01863964132765" lon="9.311850575070357"><ele>991.0</ele><time>2026-04-25T13:47:34.974Z</time></trkpt><trkpt lat="46.018679523801424" lon="9.312041239876708"><ele>991.0</ele><time>2026-04-25T13:47:35.974Z</time></trkpt><trkpt lat="46.018738378043814" lon="9.312226415007178"><ele>991.0</ele><time>2026-04-25T13:47:36.974Z</time></trkpt><trkpt lat="46.01881022616708" lon="9.31239845054972"><ele>991.0</ele><time>2026-04-25T13:47:37.974Z</time></trkpt><trkpt lat="46.018896597337196" lon="9.312542089789828"><ele>991.0</ele><time>2026-04-25T13:47:38.974Z</time></trkpt><trkpt lat="46.0189843194938" lon="9.312646260739063"><ele>989.4999999999999</ele><time>2026-04-25T13:47:39.974Z</time></trkpt><trkpt lat="46.019063416893715" lon="9.312740183487062"><ele>988.0</ele><time>2026-04-25T13:47:40.974Z</time></trkpt><trkpt lat="46.019129600613844" lon="9.312789673014644"><ele>986.5</ele><time>2026-04-25T13:47:41.974Z</time></trkpt><trkpt lat="46.0191849695337" lon="9.312856534842322"><ele>985.0</ele><time>2026-04-25T13:47:43.974Z</time></trkpt><trkpt lat="46.019228766046474" lon="9.312959269272001"><ele>983.4999999999999</ele><time>2026-04-25T13:47:46.973Z</time></trkpt><trkpt lat="46.019133652695785" lon="9.313028785038266"><ele>982.0</ele><time>2026-04-25T13:47:48.974Z</time></trkpt><trkpt lat="46.019071036734516" lon="9.313077556477497"><ele>985.9999999999999</ele><time>2026-04-25T13:47:49.973Z</time></trkpt><trkpt lat="46.019001068471276" lon="9.313087324588706"><ele>990.0</ele><time>2026-04-25T13:47:50.973Z</time></trkpt><trkpt lat="46.018929954698386" lon="9.313080289239757"><ele>994.0</ele><time>2026-04-25T13:47:51.973Z</time></trkpt><trkpt lat="46.01886100653012" lon="9.313062019479327"><ele>998.0</ele><time>2026-04-25T13:47:52.974Z</time></trkpt><trkpt lat="46.01875321635798" lon="9.31299743102456"><ele>1001.9999999999999</ele><time>2026-04-25T13:47:54.973Z</time></trkpt><trkpt lat="46.018701002883326" lon="9.312927045945163"><ele>1006.0</ele><time>2026-04-25T13:47:55.973Z</time></trkpt><trkpt lat="46.01866235045416" lon="9.312837026073682"><ele>1006.0</ele><time>2026-04-25T13:47:56.973Z</time></trkpt><trkpt lat="46.01860914289095" lon="9.312736542688276"><ele>1005.9999999999999</ele><time>2026-04-25T13:47:57.973Z</time></trkpt><trkpt lat="46.01854404166184" lon="9.312629502284983"><ele>1005.9999999999999</ele><time>2026-04-25T13:47:58.973Z</time></trkpt><trkpt lat="46.018465471986715" lon="9.31253492927865"><ele>1006.0</ele><time>2026-04-25T13:47:59.974Z</time></trkpt><trkpt lat="46.01838531176975" lon="9.312442549748303"><ele>1006.0</ele><time>2026-04-25T13:48:00.974Z</time></trkpt><trkpt lat="46.01830454078614" lon="9.312342692839707"><ele>1006.1999999999999</ele><time>2026-04-25T13:48:01.974Z</time></trkpt><trkpt lat="46.01823204929556" lon="9.31223196930786"><ele>1006.3999999999999</ele><time>2026-04-25T13:48:02.974Z</time></trkpt><trkpt lat="46.018160964946986" lon="9.31214924635485"><ele>1006.6</ele><time>2026-04-25T13:48:03.974Z</time></trkpt><trkpt lat="46.018094033589136" lon="9.312062098119311"><ele>1006.8</ele><time>2026-04-25T13:48:04.974Z</time></trkpt><trkpt lat="46.01801225569988" lon="9.311984846974104"><ele>1007.0</ele><time>2026-04-25T13:48:05.974Z</time></trkpt><trkpt lat="46.01790574297261" lon="9.31191905576425"><ele>1007.0</ele><time>2026-04-25T13:48:06.974Z</time></trkpt><trkpt lat="46.017793818137676" lon="9.311797846313793"><ele>1007.0</ele><time>2026-04-25T13:48:07.974Z</time></trkpt><trkpt lat="46.01768587592045" lon="9.311714664131735"><ele>1007.0</ele><time>2026-04-25T13:48:08.974Z</time></trkpt><trkpt lat="46.01757951939902" lon="9.311646352279102"><ele>1007.0</ele><time>2026-04-25T13:48:09.974Z</time></trkpt><trkpt lat="46.0174508699535" lon="9.311602414281158"><ele>1007.4000000000001</ele><time>2026-04-25T13:48:10.974Z</time></trkpt><trkpt lat="46.01733947886592" lon="9.311549899477965"><ele>1007.8000000000001</ele><time>2026-04-25T13:48:11.974Z</time></trkpt><trkpt lat="46.0172342466818" lon="9.311498218187785"><ele>1008.2</ele><time>2026-04-25T13:48:12.974Z</time></trkpt><trkpt lat="46.01714096272458" lon="9.311455393314903"><ele>1008.6</ele><time>2026-04-25T13:48:13.974Z</time></trkpt><trkpt lat="46.01705870666454" lon="9.31142198116574"><ele>1009.0</ele><time>2026-04-25T13:48:14.974Z</time></trkpt><trkpt lat="46.01699099911441" lon="9.311421337752805"><ele>1009.0</ele><time>2026-04-25T13:48:15.974Z</time></trkpt><trkpt lat="46.01691273937616" lon="9.311463996161088"><ele>1009.0000000000001</ele><time>2026-04-25T13:48:16.974Z</time></trkpt><trkpt lat="46.01683529435441" lon="9.311544655233874"><ele>1009.0000000000001</ele><time>2026-04-25T13:48:17.974Z</time></trkpt><trkpt lat="46.01679103522214" lon="9.31169148896478"><ele>1009.0</ele><time>2026-04-25T13:48:18.974Z</time></trkpt><trkpt lat="46.016761546727444" lon="9.311848891748989"><ele>1009.0</ele><time>2026-04-25T13:48:19.974Z</time></trkpt><trkpt lat="46.016728701438275" lon="9.311996042244647"><ele>1009.0</ele><time>2026-04-25T13:48:20.974Z</time></trkpt><trkpt lat="46.01667109313285" lon="9.312110835287031"><ele>1009.0000000000001</ele><time>2026-04-25T13:48:21.974Z</time></trkpt><trkpt lat="46.016562153284205" lon="9.31215299120996"><ele>1009.0000000000001</ele><time>2026-04-25T13:48:22.974Z</time></trkpt><trkpt lat="46.016466611617346" lon="9.312247674279217"><ele>1009.0</ele><time>2026-04-25T13:48:23.974Z</time></trkpt><trkpt lat="46.016388827120316" lon="9.312341463699475"><ele>1009.0</ele><time>2026-04-25T13:48:24.974Z</time></trkpt><trkpt lat="46.01629937529735" lon="9.312418515055997"><ele>1011.0</ele><time>2026-04-25T13:48:25.974Z</time></trkpt><trkpt lat="46.01620966254532" lon="9.312521719860419"><ele>1013.0</ele><time>2026-04-25T13:48:26.974Z</time></trkpt><trkpt lat="46.016112501073685" lon="9.312622997185406"><ele>1015.0</ele><time>2026-04-25T13:48:27.974Z</time></trkpt><trkpt lat="46.01601344089303" lon="9.312724145967673"><ele>1017.0</ele><time>2026-04-25T13:48:28.974Z</time></trkpt><trkpt lat="46.01591475351171" lon="9.312829069770805"><ele>1015.6</ele><time>2026-04-25T13:48:29.974Z</time></trkpt><trkpt lat="46.01581616897802" lon="9.312924089125094"><ele>1014.2</ele><time>2026-04-25T13:48:30.974Z</time></trkpt><trkpt lat="46.01571739178442" lon="9.313006373369783"><ele>1012.8</ele><time>2026-04-25T13:48:31.974Z</time></trkpt><trkpt lat="46.015622004240115" lon="9.313090868249"><ele>1011.4</ele><time>2026-04-25T13:48:32.974Z</time></trkpt><trkpt lat="46.01553215680189" lon="9.31315278244299"><ele>1010.0</ele><time>2026-04-25T13:48:33.975Z</time></trkpt><trkpt lat="46.01543841391721" lon="9.313193417403633"><ele>1015.0</ele><time>2026-04-25T13:48:34.975Z</time></trkpt><trkpt lat="46.01533872183862" lon="9.313214611863817"><ele>1020.0</ele><time>2026-04-25T13:48:35.975Z</time></trkpt><trkpt lat="46.01524642835157" lon="9.313216235034613"><ele>1025.0</ele><time>2026-04-25T13:48:36.975Z</time></trkpt><trkpt lat="46.01515621516166" lon="9.313242299871295"><ele>1030.0</ele><time>2026-04-25T13:48:37.975Z</time></trkpt><trkpt lat="46.01505717972111" lon="9.31327837827332"><ele>1035.0</ele><time>2026-04-25T13:48:38.975Z</time></trkpt><trkpt lat="46.01495193992717" lon="9.313321613489117"><ele>1035.0</ele><time>2026-04-25T13:48:39.975Z</time></trkpt><trkpt lat="46.01484631944772" lon="9.313381057330941"><ele>1035.0</ele><time>2026-04-25T13:48:40.975Z</time></trkpt><trkpt lat="46.01474111397044" lon="9.313450344459385"><ele>1035.0</ele><time>2026-04-25T13:48:41.975Z</time></trkpt><trkpt lat="46.01463611350942" lon="9.313494920521485"><ele>1035.0</ele><time>2026-04-25T13:48:42.975Z</time></trkpt><trkpt lat="46.01452630409385" lon="9.313540745600521"><ele>1035.0</ele><time>2026-04-25T13:48:43.975Z</time></trkpt><trkpt lat="46.01442207402155" lon="9.31359743554899"><ele>1035.0</ele><time>2026-04-25T13:48:44.975Z</time></trkpt><trkpt lat="46.014313559778785" lon="9.313663193053738"><ele>1035.0</ele><time>2026-04-25T13:48:45.975Z</time></trkpt><trkpt lat="46.01419900621916" lon="9.31372261000295"><ele>1035.0</ele><time>2026-04-25T13:48:46.975Z</time></trkpt><trkpt lat="46.01408543833286" lon="9.313780371974874"><ele>1032.75</ele><time>2026-04-25T13:48:47.975Z</time></trkpt><trkpt lat="46.01396578669006" lon="9.313837381019207"><ele>1030.5</ele><time>2026-04-25T13:48:48.975Z</time></trkpt><trkpt lat="46.0138470688746" lon="9.313896956027282"><ele>1028.25</ele><time>2026-04-25T13:48:49.975Z</time></trkpt><trkpt lat="46.0137392918135" lon="9.313946059578337"><ele>1026.0</ele><time>2026-04-25T13:48:50.975Z</time></trkpt><trkpt lat="46.013633992258576" lon="9.313985941699208"><ele>1026.5</ele><time>2026-04-25T13:48:51.975Z</time></trkpt><trkpt lat="46.01352447309613" lon="9.314034931979617"><ele>1027.0</ele><time>2026-04-25T13:48:52.975Z</time></trkpt><trkpt lat="46.013420876900085" lon="9.314098228115556"><ele>1027.5</ele><time>2026-04-25T13:48:53.975Z</time></trkpt><trkpt lat="46.013313775597595" lon="9.314160641778335"><ele>1028.0</ele><time>2026-04-25T13:48:54.975Z</time></trkpt><trkpt lat="46.01321792560348" lon="9.314233101326254"><ele>1028.0</ele><time>2026-04-25T13:48:55.975Z</time></trkpt><trkpt lat="46.01312730268584" lon="9.314286026629782"><ele>1028.0</ele><time>2026-04-25T13:48:56.975Z</time></trkpt><trkpt lat="46.013035338470814" lon="9.31434296215593"><ele>1028.0</ele><time>2026-04-25T13:48:57.975Z</time></trkpt><trkpt lat="46.012948349117956" lon="9.314400832634682"><ele>1028.0</ele><time>2026-04-25T13:48:58.975Z</time></trkpt><trkpt lat="46.01286255820751" lon="9.314459015946142"><ele>1028.0</ele><time>2026-04-25T13:48:59.975Z</time></trkpt><trkpt lat="46.01279862932043" lon="9.31451353919016"><ele>1028.0</ele><time>2026-04-25T13:49:00.975Z</time></trkpt><trkpt lat="46.01273709859277" lon="9.314569233389383"><ele>1028.0</ele><time>2026-04-25T13:49:01.975Z</time></trkpt><trkpt lat="46.012677176288236" lon="9.314628969404499"><ele>1028.0</ele><time>2026-04-25T13:49:02.975Z</time></trkpt><trkpt lat="46.01262482211566" lon="9.31471459106125"><ele>1028.0</ele><time>2026-04-25T13:49:03.975Z</time></trkpt><trkpt lat="46.012587733857366" lon="9.31482555999474"><ele>1028.0</ele><time>2026-04-25T13:49:04.975Z</time></trkpt><trkpt lat="46.012557914329385" lon="9.31495420433687"><ele>1028.0</ele><time>2026-04-25T13:49:05.975Z</time></trkpt><trkpt lat="46.01253948024801" lon="9.315090910909154"><ele>1029.5</ele><time>2026-04-25T13:49:06.975Z</time></trkpt><trkpt lat="46.01249693285229" lon="9.315219510228118"><ele>1031.0</ele><time>2026-04-25T13:49:07.975Z</time></trkpt><trkpt lat="46.01245145962485" lon="9.315352088996885"><ele>1032.5</ele><time>2026-04-25T13:49:08.975Z</time></trkpt><trkpt lat="46.0124176422304" lon="9.31546419547773"><ele>1034.0</ele><time>2026-04-25T13:49:09.975Z</time></trkpt><trkpt lat="46.012385900608436" lon="9.315563084352164"><ele>1035.5</ele><time>2026-04-25T13:49:10.975Z</time></trkpt><trkpt lat="46.01233568980318" lon="9.3156513594714"><ele>1037.0</ele><time>2026-04-25T13:49:11.975Z</time></trkpt><trkpt lat="46.01226704194114" lon="9.31571616238478"><ele>1045.0</ele><time>2026-04-25T13:49:12.975Z</time></trkpt><trkpt lat="46.012176462417" lon="9.315722799912745"><ele>1053.0</ele><time>2026-04-25T13:49:13.976Z</time></trkpt><trkpt lat="46.01209118161637" lon="9.315752003816709"><ele>1061.0</ele><time>2026-04-25T13:49:14.976Z</time></trkpt><trkpt lat="46.012018278935905" lon="9.315804485990455"><ele>1069.0</ele><time>2026-04-25T13:49:15.976Z</time></trkpt><trkpt lat="46.01192347660985" lon="9.315854266728318"><ele>1077.0</ele><time>2026-04-25T13:49:17.976Z</time></trkpt><trkpt lat="46.011861531163326" lon="9.315981049548336"><ele>1077.0</ele><time>2026-04-25T13:49:19.976Z</time></trkpt><trkpt lat="46.01196001004841" lon="9.316100019126464"><ele>1077.0</ele><time>2026-04-25T13:49:21.976Z</time></trkpt><trkpt lat="46.01207771736513" lon="9.316069746114817"><ele>1077.0</ele><time>2026-04-25T13:49:22.976Z</time></trkpt><trkpt lat="46.01219120735541" lon="9.316046727790553"><ele>1077.0</ele><time>2026-04-25T13:49:23.976Z</time></trkpt><trkpt lat="46.01230308622743" lon="9.316005791067225"><ele>1077.0</ele><time>2026-04-25T13:49:24.976Z</time></trkpt><trkpt lat="46.01239770584459" lon="9.315953892831336"><ele>1077.0</ele><time>2026-04-25T13:49:25.976Z</time></trkpt><trkpt lat="46.012482309245" lon="9.315879775262102"><ele>1077.0</ele><time>2026-04-25T13:49:26.976Z</time></trkpt><trkpt lat="46.012548906525886" lon="9.315785133445385"><ele>1077.0</ele><time>2026-04-25T13:49:27.976Z</time></trkpt><trkpt lat="46.01261479357099" lon="9.315667589278569"><ele>1077.0</ele><time>2026-04-25T13:49:28.976Z</time></trkpt><trkpt lat="46.012696987323686" lon="9.315550855983867"><ele>1073.0</ele><time>2026-04-25T13:49:29.976Z</time></trkpt><trkpt lat="46.01277916505525" lon="9.31543600626132"><ele>1069.0</ele><time>2026-04-25T13:49:30.976Z</time></trkpt><trkpt lat="46.01284426116928" lon="9.315335762834346"><ele>1065.0</ele><time>2026-04-25T13:49:31.976Z</time></trkpt><trkpt lat="46.012903435895346" lon="9.315241687927305"><ele>1061.0</ele><time>2026-04-25T13:49:32.976Z</time></trkpt><trkpt lat="46.01295461337869" lon="9.315183658901175"><ele>1057.0</ele><time>2026-04-25T13:49:33.976Z</time></trkpt><trkpt lat="46.01300603764396" lon="9.315127732928143"><ele>1053.0</ele><time>2026-04-25T13:49:34.976Z</time></trkpt><trkpt lat="46.01307168339544" lon="9.315079384341852"><ele>1053.0</ele><time>2026-04-25T13:49:35.976Z</time></trkpt><trkpt lat="46.013146826017575" lon="9.315037030822332"><ele>1053.0</ele><time>2026-04-25T13:49:36.976Z</time></trkpt><trkpt lat="46.013215156745396" lon="9.315004544203997"><ele>1053.0</ele><time>2026-04-25T13:49:37.976Z</time></trkpt><trkpt lat="46.01331174210245" lon="9.314978857574154"><ele>1053.0</ele><time>2026-04-25T13:49:39.976Z</time></trkpt><trkpt lat="46.013381150421374" lon="9.315038792810057"><ele>1053.0</ele><time>2026-04-25T13:49:41.976Z</time></trkpt><trkpt lat="46.01332629479046" lon="9.315185433414106"><ele>1053.0</ele><time>2026-04-25T13:49:43.976Z</time></trkpt><trkpt lat="46.013238522323356" lon="9.315215590633743"><ele>1053.0</ele><time>2026-04-25T13:49:44.976Z</time></trkpt><trkpt lat="46.01316177157923" lon="9.31525931803741"><ele>1053.0</ele><time>2026-04-25T13:49:45.976Z</time></trkpt><trkpt lat="46.01307704186366" lon="9.315345286814116"><ele>1053.0</ele><time>2026-04-25T13:49:46.976Z</time></trkpt><trkpt lat="46.012990526015244" lon="9.31543554331716"><ele>1053.0</ele><time>2026-04-25T13:49:47.976Z</time></trkpt><trkpt lat="46.01290923487692" lon="9.315534058820605"><ele>1053.0</ele><time>2026-04-25T13:49:48.976Z</time></trkpt><trkpt lat="46.01283259310838" lon="9.31563004867943"><ele>1059.6</ele><time>2026-04-25T13:49:49.976Z</time></trkpt><trkpt lat="46.01277212776193" lon="9.315749378485377"><ele>1066.1999999999998</ele><time>2026-04-25T13:49:50.976Z</time></trkpt><trkpt lat="46.0127208250481" lon="9.315885008804575"><ele>1072.8</ele><time>2026-04-25T13:49:51.975Z</time></trkpt><trkpt lat="46.012670862732946" lon="9.315996740109535"><ele>1079.3999999999999</ele><time>2026-04-25T13:49:52.975Z</time></trkpt><trkpt lat="46.01262680344951" lon="9.316092227150246"><ele>1086.0</ele><time>2026-04-25T13:49:53.975Z</time></trkpt><trkpt lat="46.0125789335389" lon="9.316171975405585"><ele>1086.0</ele><time>2026-04-25T13:49:54.975Z</time></trkpt><trkpt lat="46.01251936825295" lon="9.316234539633534"><ele>1086.0</ele><time>2026-04-25T13:49:55.976Z</time></trkpt><trkpt lat="46.012446363145116" lon="9.316263616087657"><ele>1086.0</ele><time>2026-04-25T13:49:56.976Z</time></trkpt><trkpt lat="46.01237184040656" lon="9.316290047397983"><ele>1086.0</ele><time>2026-04-25T13:49:57.975Z</time></trkpt><trkpt lat="46.0122928041983" lon="9.316321274892998"><ele>1086.0</ele><time>2026-04-25T13:49:59.975Z</time></trkpt><trkpt lat="46.0122038826828" lon="9.316360962682664"><ele>1086.0</ele><time>2026-04-25T13:50:01.975Z</time></trkpt><trkpt lat="46.01214324947547" lon="9.316406743556506"><ele>1094.3999999999999</ele><time>2026-04-25T13:50:02.975Z</time></trkpt><trkpt lat="46.012070268097524" lon="9.316455020073814"><ele>1102.8</ele><time>2026-04-25T13:50:03.976Z</time></trkpt><trkpt lat="46.01198424533709" lon="9.316503102285145"><ele>1111.1999999999998</ele><time>2026-04-25T13:50:04.975Z</time></trkpt><trkpt lat="46.011898028874086" lon="9.31655524746815"><ele>1119.6</ele><time>2026-04-25T13:50:05.975Z</time></trkpt><trkpt lat="46.0118033485028" lon="9.316604367977478"><ele>1128.0</ele><time>2026-04-25T13:50:06.975Z</time></trkpt><trkpt lat="46.01170808178673" lon="9.316645931383064"><ele>1132.0</ele><time>2026-04-25T13:50:07.975Z</time></trkpt><trkpt lat="46.0116160290662" lon="9.316671033261898"><ele>1136.0</ele><time>2026-04-25T13:50:08.975Z</time></trkpt><trkpt lat="46.01152542679578" lon="9.3166781380387"><ele>1140.0</ele><time>2026-04-25T13:50:09.975Z</time></trkpt><trkpt lat="46.01143716231398" lon="9.316667301163566"><ele>1144.0</ele><time>2026-04-25T13:50:10.975Z</time></trkpt><trkpt lat="46.01136090576677" lon="9.316644826769124"><ele>1148.0</ele><time>2026-04-25T13:50:11.975Z</time></trkpt><trkpt lat="46.01129154774936" lon="9.316619120397204"><ele>1152.0</ele><time>2026-04-25T13:50:12.975Z</time></trkpt><trkpt lat="46.01122748135821" lon="9.31657417905065"><ele>1152.0</ele><time>2026-04-25T13:50:13.975Z</time></trkpt><trkpt lat="46.011170323661474" lon="9.316506134350417"><ele>1152.0</ele><time>2026-04-25T13:50:14.975Z</time></trkpt><trkpt lat="46.01111155838545" lon="9.31640858285132"><ele>1152.0</ele><time>2026-04-25T13:50:15.975Z</time></trkpt><trkpt lat="46.01104889870526" lon="9.316335299402873"><ele>1152.0</ele><time>2026-04-25T13:50:16.975Z</time></trkpt><trkpt lat="46.010979640103656" lon="9.316249956905441"><ele>1152.0</ele><time>2026-04-25T13:50:17.975Z</time></trkpt><trkpt lat="46.010897911684246" lon="9.316131849653367"><ele>1146.6</ele><time>2026-04-25T13:50:18.975Z</time></trkpt><trkpt lat="46.01082991641721" lon="9.316022972162942"><ele>1141.2</ele><time>2026-04-25T13:50:19.975Z</time></trkpt><trkpt lat="46.01078342885194" lon="9.315922858367756"><ele>1135.8</ele><time>2026-04-25T13:50:20.975Z</time></trkpt><trkpt lat="46.01073104241143" lon="9.3157707749636"><ele>1130.4</ele><time>2026-04-25T13:50:22.975Z</time></trkpt><trkpt lat="46.01066674993558" lon="9.315619617308194"><ele>1125.0</ele><time>2026-04-25T13:50:24.975Z</time></trkpt><trkpt lat="46.01060125647686" lon="9.315525327322023"><ele>1115.8</ele><time>2026-04-25T13:50:25.975Z</time></trkpt><trkpt lat="46.010507754314496" lon="9.315459114581138"><ele>1106.6</ele><time>2026-04-25T13:50:26.975Z</time></trkpt><trkpt lat="46.01041302572896" lon="9.315424260848348"><ele>1097.4</ele><time>2026-04-25T13:50:27.975Z</time></trkpt><trkpt lat="46.01030907628026" lon="9.315400245236546"><ele>1088.2</ele><time>2026-04-25T13:50:28.975Z</time></trkpt><trkpt lat="46.01020478751918" lon="9.315408271606927"><ele>1079.0</ele><time>2026-04-25T13:50:29.975Z</time></trkpt><trkpt lat="46.010111684346725" lon="9.315406994267887"><ele>1079.0</ele><time>2026-04-25T13:50:30.975Z</time></trkpt><trkpt lat="46.010018657426684" lon="9.315402683246468"><ele>1079.0</ele><time>2026-04-25T13:50:31.975Z</time></trkpt><trkpt lat="46.00995112439759" lon="9.315403307794917"><ele>1079.0</ele><time>2026-04-25T13:50:32.975Z</time></trkpt><trkpt lat="46.00988185604446" lon="9.31541544087858"><ele>1079.0</ele><time>2026-04-25T13:50:33.975Z</time></trkpt><trkpt lat="46.009823794160596" lon="9.31547094660037"><ele>1079.0</ele><time>2026-04-25T13:50:34.975Z</time></trkpt><trkpt lat="46.00976936637709" lon="9.315532774536852"><ele>1079.0</ele><time>2026-04-25T13:50:35.975Z</time></trkpt><trkpt lat="46.00973374069729" lon="9.315639196779292"><ele>1079.4</ele><time>2026-04-25T13:50:36.975Z</time></trkpt><trkpt lat="46.009717186256324" lon="9.315780920597648"><ele>1079.8000000000002</ele><time>2026-04-25T13:50:37.975Z</time></trkpt><trkpt lat="46.00970278053028" lon="9.31592236357288"><ele>1080.1999999999998</ele><time>2026-04-25T13:50:38.975Z</time></trkpt><trkpt lat="46.00969665073452" lon="9.316068338466886"><ele>1080.6</ele><time>2026-04-25T13:50:39.975Z</time></trkpt><trkpt lat="46.0096833843174" lon="9.316195399295218"><ele>1081.0</ele><time>2026-04-25T13:50:40.975Z</time></trkpt><trkpt lat="46.00964353855422" lon="9.316325580477152"><ele>1087.3999999999999</ele><time>2026-04-25T13:50:41.975Z</time></trkpt><trkpt lat="46.009584088352646" lon="9.316430471671229"><ele>1093.8</ele><time>2026-04-25T13:50:42.976Z</time></trkpt><trkpt lat="46.00950975774272" lon="9.316526453105947"><ele>1100.1999999999998</ele><time>2026-04-25T13:50:43.976Z</time></trkpt><trkpt lat="46.00943922296696" lon="9.31661014903276"><ele>1106.6</ele><time>2026-04-25T13:50:44.976Z</time></trkpt><trkpt lat="46.00935131896386" lon="9.316681225391154"><ele>1113.0</ele><time>2026-04-25T13:50:45.976Z</time></trkpt><trkpt lat="46.00928310928393" lon="9.316718512055852"><ele>1113.0</ele><time>2026-04-25T13:50:46.976Z</time></trkpt><trkpt lat="46.00921638715774" lon="9.316741798300693"><ele>1113.0</ele><time>2026-04-25T13:50:49.976Z</time></trkpt><trkpt lat="46.00916027511394" lon="9.31682641143908"><ele>1113.0</ele><time>2026-04-25T13:51:49.977Z</time></trkpt><trkpt lat="46.009078089618036" lon="9.316890328608418"><ele>1113.0</ele><time>2026-04-25T13:51:52.977Z</time></trkpt><trkpt lat="46.009008040309865" lon="9.316991463938196"><ele>1113.0</ele><time>2026-04-25T13:51:54.977Z</time></trkpt><trkpt lat="46.008961890194726" lon="9.317065913487154"><ele>1113.0</ele><time>2026-04-25T13:51:59.977Z</time></trkpt><trkpt lat="46.00882585655527" lon="9.317054295324146"><ele>1109.8333333333333</ele><time>2026-04-25T13:53:46.979Z</time></trkpt><trkpt lat="46.008896227936404" lon="9.317024363780193"><ele>1106.6666666666667</ele><time>2026-04-25T13:54:13.98Z</time></trkpt><trkpt lat="46.008956844861366" lon="9.31715382012043"><ele>1103.5</ele><time>2026-04-25T13:55:40.983Z</time></trkpt><trkpt lat="46.00892860963242" lon="9.317297890873105"><ele>1100.3333333333335</ele><time>2026-04-25T13:55:42.983Z</time></trkpt><trkpt lat="46.00891419344547" lon="9.317403572829743"><ele>1097.1666666666667</ele><time>2026-04-25T13:55:43.983Z</time></trkpt><trkpt lat="46.008898379340515" lon="9.317519954474882"><ele>1094.0</ele><time>2026-04-25T13:55:44.983Z</time></trkpt><trkpt lat="46.00887651193271" lon="9.317624631801406"><ele>1094.0</ele><time>2026-04-25T13:55:45.983Z</time></trkpt><trkpt lat="46.008847390480014" lon="9.31772131091392"><ele>1094.0</ele><time>2026-04-25T13:55:46.983Z</time></trkpt><trkpt lat="46.00880737413895" lon="9.317809607910661"><ele>1094.0</ele><time>2026-04-25T13:55:47.983Z</time></trkpt><trkpt lat="46.00873724364707" lon="9.317890074029517"><ele>1094.0</ele><time>2026-04-25T13:55:48.983Z</time></trkpt><trkpt lat="46.00865804398762" lon="9.317927034839778"><ele>1094.0</ele><time>2026-04-25T13:55:49.983Z</time></trkpt><trkpt lat="46.008586694418895" lon="9.317944317225862"><ele>1094.0</ele><time>2026-04-25T13:55:50.983Z</time></trkpt><trkpt lat="46.00851461313456" lon="9.31795138032861"><ele>1094.0</ele><time>2026-04-25T13:55:51.983Z</time></trkpt><trkpt lat="46.00843817591802" lon="9.317956703581263"><ele>1094.0</ele><time>2026-04-25T13:55:52.983Z</time></trkpt><trkpt lat="46.00834840776121" lon="9.317980882147857"><ele>1094.0</ele><time>2026-04-25T13:55:53.983Z</time></trkpt><trkpt lat="46.008259001219535" lon="9.31801344742998"><ele>1094.0</ele><time>2026-04-25T13:55:54.983Z</time></trkpt><trkpt lat="46.00818505748787" lon="9.318090221297375"><ele>1094.0</ele><time>2026-04-25T13:55:55.983Z</time></trkpt><trkpt lat="46.00812012651001" lon="9.318200516676159"><ele>1099.1666666666667</ele><time>2026-04-25T13:55:56.983Z</time></trkpt><trkpt lat="46.008061234111175" lon="9.318312738088096"><ele>1104.3333333333335</ele><time>2026-04-25T13:55:57.983Z</time></trkpt><trkpt lat="46.0080033358198" lon="9.318427191560861"><ele>1109.5</ele><time>2026-04-25T13:55:58.983Z</time></trkpt><trkpt lat="46.007943124855075" lon="9.318523306276827"><ele>1114.6666666666667</ele><time>2026-04-25T13:55:59.983Z</time></trkpt><trkpt lat="46.00789118386612" lon="9.318601757717289"><ele>1119.8333333333333</ele><time>2026-04-25T13:56:00.984Z</time></trkpt><trkpt lat="46.0078365631169" lon="9.318663603923882"><ele>1125.0</ele><time>2026-04-25T13:56:01.984Z</time></trkpt><trkpt lat="46.00777061830845" lon="9.318705903992651"><ele>1125.0</ele><time>2026-04-25T13:56:02.984Z</time></trkpt><trkpt lat="46.00770169487771" lon="9.318726517385773"><ele>1125.0</ele><time>2026-04-25T13:56:03.984Z</time></trkpt><trkpt lat="46.00760680777855" lon="9.318694743647546"><ele>1125.0</ele><time>2026-04-25T13:56:04.984Z</time></trkpt><trkpt lat="46.00751049172262" lon="9.318637511236753"><ele>1125.0</ele><time>2026-04-25T13:56:05.984Z</time></trkpt><trkpt lat="46.007401690371765" lon="9.318583338553365"><ele>1125.0</ele><time>2026-04-25T13:56:06.984Z</time></trkpt><trkpt lat="46.00731328829617" lon="9.318545474622091"><ele>1128.6</ele><time>2026-04-25T13:56:07.984Z</time></trkpt><trkpt lat="46.007218375781285" lon="9.31851490174782"><ele>1132.2</ele><time>2026-04-25T13:56:08.982Z</time></trkpt><trkpt lat="46.00714043030721" lon="9.318472734718725"><ele>1135.8</ele><time>2026-04-25T13:56:09.982Z</time></trkpt><trkpt lat="46.00706678786442" lon="9.318422547631748"><ele>1139.4</ele><time>2026-04-25T13:56:10.982Z</time></trkpt><trkpt lat="46.0070095048854" lon="9.318304902380117"><ele>1143.0</ele><time>2026-04-25T13:56:11.982Z</time></trkpt><trkpt lat="46.00696261579624" lon="9.318195148810293"><ele>1143.0</ele><time>2026-04-25T13:56:12.982Z</time></trkpt><trkpt lat="46.00691491756225" lon="9.31809052674309"><ele>1143.0</ele><time>2026-04-25T13:56:13.982Z</time></trkpt><trkpt lat="46.0068587294985" lon="9.317989475100878"><ele>1143.0</ele><time>2026-04-25T13:56:14.982Z</time></trkpt><trkpt lat="46.00679123108099" lon="9.317907648549411"><ele>1143.0</ele><time>2026-04-25T13:56:15.982Z</time></trkpt><trkpt lat="46.00670195701436" lon="9.317857512372901"><ele>1143.0</ele><time>2026-04-25T13:56:16.982Z</time></trkpt><trkpt lat="46.0065945691851" lon="9.317849429986317"><ele>1136.2</ele><time>2026-04-25T13:56:17.982Z</time></trkpt><trkpt lat="46.006493479800625" lon="9.317871731728928"><ele>1129.4</ele><time>2026-04-25T13:56:18.982Z</time></trkpt><trkpt lat="46.00639839929988" lon="9.317921628803843"><ele>1122.6000000000001</ele><time>2026-04-25T13:56:19.982Z</time></trkpt><trkpt lat="46.00631946841567" lon="9.317998476718383"><ele>1115.8</ele><time>2026-04-25T13:56:20.982Z</time></trkpt><trkpt lat="46.006261879913765" lon="9.318116682607688"><ele>1109.0</ele><time>2026-04-25T13:56:21.982Z</time></trkpt><trkpt lat="46.00625041114705" lon="9.318272491836971"><ele>1109.0</ele><time>2026-04-25T13:56:22.982Z</time></trkpt><trkpt lat="46.006249120213766" lon="9.318438467283375"><ele>1109.0</ele><time>2026-04-25T13:56:23.982Z</time></trkpt><trkpt lat="46.00624609112949" lon="9.31861408128717"><ele>1109.0</ele><time>2026-04-25T13:56:24.982Z</time></trkpt><trkpt lat="46.00623338483323" lon="9.318766473681823"><ele>1109.0</ele><time>2026-04-25T13:56:25.982Z</time></trkpt><trkpt lat="46.00621168964239" lon="9.31889527212336"><ele>1109.0</ele><time>2026-04-25T13:56:26.982Z</time></trkpt><trkpt lat="46.006198061440365" lon="9.318992841912213"><ele>1111.8333333333335</ele><time>2026-04-25T13:56:27.982Z</time></trkpt><trkpt lat="46.00619051118361" lon="9.319102931431686"><ele>1114.6666666666667</ele><time>2026-04-25T13:56:28.982Z</time></trkpt><trkpt lat="46.006199582880406" lon="9.319230002693285"><ele>1117.5</ele><time>2026-04-25T13:56:29.982Z</time></trkpt><trkpt lat="46.00620868012145" lon="9.319363343912926"><ele>1120.3333333333333</ele><time>2026-04-25T13:56:30.982Z</time></trkpt><trkpt lat="46.006204265232" lon="9.319499241496429"><ele>1123.1666666666665</ele><time>2026-04-25T13:56:31.982Z</time></trkpt><trkpt lat="46.00616456330037" lon="9.319617749014967"><ele>1126.0</ele><time>2026-04-25T13:56:32.982Z</time></trkpt><trkpt lat="46.006129356856434" lon="9.319748905752926"><ele>1122.8</ele><time>2026-04-25T13:56:33.982Z</time></trkpt><trkpt lat="46.00605054691432" lon="9.319847710329505"><ele>1119.6</ele><time>2026-04-25T13:56:34.982Z</time></trkpt><trkpt lat="46.00595989356588" lon="9.319936737409142"><ele>1116.4</ele><time>2026-04-25T13:56:35.982Z</time></trkpt><trkpt lat="46.00588819036133" lon="9.32002444379543"><ele>1113.2</ele><time>2026-04-25T13:56:36.982Z</time></trkpt><trkpt lat="46.00582363723224" lon="9.320128529014235"><ele>1110.0</ele><time>2026-04-25T13:56:37.982Z</time></trkpt><trkpt lat="46.005752932789704" lon="9.320249500979534"><ele>1110.0</ele><time>2026-04-25T13:56:38.982Z</time></trkpt><trkpt lat="46.00566317099055" lon="9.320342931517397"><ele>1110.0</ele><time>2026-04-25T13:56:39.982Z</time></trkpt><trkpt lat="46.00554202989153" lon="9.320344808161758"><ele>1110.0</ele><time>2026-04-25T13:56:40.982Z</time></trkpt><trkpt lat="46.00548207152166" lon="9.320398047739262"><ele>1110.0</ele><time>2026-04-25T13:56:41.982Z</time></trkpt><trkpt lat="46.00542423518806" lon="9.320502344050754"><ele>1110.0</ele><time>2026-04-25T13:56:42.982Z</time></trkpt><trkpt lat="46.00538435306354" lon="9.32060786165314"><ele>1112.0</ele><time>2026-04-25T13:56:43.982Z</time></trkpt><trkpt lat="46.005347400031155" lon="9.32069743193432"><ele>1114.0</ele><time>2026-04-25T13:56:44.982Z</time></trkpt><trkpt lat="46.00530596538546" lon="9.320775557917404"><ele>1116.0</ele><time>2026-04-25T13:56:46.982Z</time></trkpt><trkpt lat="46.00526464003152" lon="9.320844705031721"><ele>1118.0</ele><time>2026-04-25T13:56:49.982Z</time></trkpt><trkpt lat="46.005219732438746" lon="9.320931984744936"><ele>1120.0</ele><time>2026-04-25T13:56:51.982Z</time></trkpt><trkpt lat="46.00519568888384" lon="9.321076044855477"><ele>1122.0</ele><time>2026-04-25T13:56:53.982Z</time></trkpt><trkpt lat="46.00520570664418" lon="9.321171838815095"><ele>1122.0</ele><time>2026-04-25T13:56:56.982Z</time></trkpt><trkpt lat="46.005168856013384" lon="9.321094584055814"><ele>1122.0</ele><time>2026-04-25T13:58:25.984Z</time></trkpt><trkpt lat="46.00513363238045" lon="9.320995513147986"><ele>1122.0</ele><time>2026-04-25T13:58:33.984Z</time></trkpt><trkpt lat="46.005160229129515" lon="9.32090941855434"><ele>1122.0</ele><time>2026-04-25T13:58:45.984Z</time></trkpt><trkpt lat="46.00514258662619" lon="9.32100758233791"><ele>1122.0</ele><time>2026-04-25T13:59:32.985Z</time></trkpt><trkpt lat="46.005171260167636" lon="9.321099175001022"><ele>1122.0</ele><time>2026-04-25T13:59:39.985Z</time></trkpt><trkpt lat="46.005221055846945" lon="9.321179439736786"><ele>1122.0</ele><time>2026-04-25T14:01:06.984Z</time></trkpt><trkpt lat="46.005289603502895" lon="9.321317488370646"><ele>1123.1666666666667</ele><time>2026-04-25T14:01:09.984Z</time></trkpt><trkpt lat="46.00532535230708" lon="9.32140727473137"><ele>1124.3333333333333</ele><time>2026-04-25T14:01:10.984Z</time></trkpt><trkpt lat="46.005355700163264" lon="9.321505357908837"><ele>1125.5</ele><time>2026-04-25T14:01:11.984Z</time></trkpt><trkpt lat="46.005369157904646" lon="9.32162276245022"><ele>1126.6666666666665</ele><time>2026-04-25T14:01:12.985Z</time></trkpt><trkpt lat="46.00541535383057" lon="9.321729203466527"><ele>1127.8333333333333</ele><time>2026-04-25T14:01:13.985Z</time></trkpt><trkpt lat="46.00546050160487" lon="9.321845250629753"><ele>1129.0</ele><time>2026-04-25T14:01:14.985Z</time></trkpt><trkpt lat="46.00549328280063" lon="9.321953786188287"><ele>1129.0</ele><time>2026-04-25T14:01:15.985Z</time></trkpt><trkpt lat="46.00552252943752" lon="9.322068956332885"><ele>1129.0</ele><time>2026-04-25T14:01:16.985Z</time></trkpt><trkpt lat="46.005553266559374" lon="9.322187290335181"><ele>1129.0</ele><time>2026-04-25T14:01:17.985Z</time></trkpt><trkpt lat="46.005593362051705" lon="9.322305338623206"><ele>1129.0</ele><time>2026-04-25T14:01:18.985Z</time></trkpt><trkpt lat="46.00566337457962" lon="9.322396995635007"><ele>1129.0</ele><time>2026-04-25T14:01:19.985Z</time></trkpt><trkpt lat="46.005709981233025" lon="9.322476714481535"><ele>1129.0</ele><time>2026-04-25T14:01:20.985Z</time></trkpt><trkpt lat="46.00579161845164" lon="9.322524803605308"><ele>1134.0</ele><time>2026-04-25T14:01:21.985Z</time></trkpt><trkpt lat="46.00587647498067" lon="9.322562141107774"><ele>1139.0</ele><time>2026-04-25T14:01:22.985Z</time></trkpt><trkpt lat="46.0059448263613" lon="9.322583241889998"><ele>1144.0</ele><time>2026-04-25T14:01:23.985Z</time></trkpt><trkpt lat="46.006020553637796" lon="9.322576934746206"><ele>1149.0</ele><time>2026-04-25T14:01:24.985Z</time></trkpt><trkpt lat="46.00609847929585" lon="9.322543403369975"><ele>1154.0</ele><time>2026-04-25T14:01:25.985Z</time></trkpt><trkpt lat="46.00617801392756" lon="9.322478496597142"><ele>1159.0</ele><time>2026-04-25T14:01:26.985Z</time></trkpt><trkpt lat="46.00626316915837" lon="9.322409752650067"><ele>1159.0</ele><time>2026-04-25T14:01:27.985Z</time></trkpt><trkpt lat="46.006354779189195" lon="9.32234631688831"><ele>1159.0</ele><time>2026-04-25T14:01:28.985Z</time></trkpt><trkpt lat="46.00646018894399" lon="9.322311733677482"><ele>1159.0</ele><time>2026-04-25T14:01:29.985Z</time></trkpt><trkpt lat="46.00656349514876" lon="9.322299511877098"><ele>1159.0</ele><time>2026-04-25T14:01:30.985Z</time></trkpt><trkpt lat="46.00665346459192" lon="9.322313899908984"><ele>1159.0</ele><time>2026-04-25T14:01:31.985Z</time></trkpt><trkpt lat="46.0067353124634" lon="9.322368468211208"><ele>1160.2</ele><time>2026-04-25T14:01:32.985Z</time></trkpt><trkpt lat="46.00682996540632" lon="9.32242772704242"><ele>1161.4</ele><time>2026-04-25T14:01:33.985Z</time></trkpt><trkpt lat="46.006926365752726" lon="9.322492370361685"><ele>1162.6</ele><time>2026-04-25T14:01:34.985Z</time></trkpt><trkpt lat="46.007031023258605" lon="9.32257109113458"><ele>1163.8</ele><time>2026-04-25T14:01:35.985Z</time></trkpt><trkpt lat="46.00711232961675" lon="9.322687711612573"><ele>1165.0</ele><time>2026-04-25T14:01:36.985Z</time></trkpt><trkpt lat="46.0071867367277" lon="9.32280551502463"><ele>1165.0</ele><time>2026-04-25T14:01:37.985Z</time></trkpt><trkpt lat="46.00727366393764" lon="9.322908746198546"><ele>1165.0</ele><time>2026-04-25T14:01:38.985Z</time></trkpt><trkpt lat="46.007354229454776" lon="9.323020616791265"><ele>1165.0</ele><time>2026-04-25T14:01:39.985Z</time></trkpt><trkpt lat="46.00743310145044" lon="9.32314495466829"><ele>1165.0</ele><time>2026-04-25T14:01:40.985Z</time></trkpt><trkpt lat="46.007483721499796" lon="9.323296984737551"><ele>1165.5</ele><time>2026-04-25T14:01:41.985Z</time></trkpt><trkpt lat="46.00753237082659" lon="9.323450465229213"><ele>1166.0</ele><time>2026-04-25T14:01:42.985Z</time></trkpt><trkpt lat="46.00757759350531" lon="9.323606432761654"><ele>1166.5</ele><time>2026-04-25T14:01:43.985Z</time></trkpt><trkpt lat="46.00762010473425" lon="9.323760052387215"><ele>1167.0</ele><time>2026-04-25T14:01:44.985Z</time></trkpt><trkpt lat="46.00767472207446" lon="9.323906717019755"><ele>1161.25</ele><time>2026-04-25T14:01:45.985Z</time></trkpt><trkpt lat="46.00774700749218" lon="9.324044243134823"><ele>1155.5</ele><time>2026-04-25T14:01:46.985Z</time></trkpt><trkpt lat="46.00783798617965" lon="9.32417551072981"><ele>1149.75</ele><time>2026-04-25T14:01:47.985Z</time></trkpt><trkpt lat="46.00793485325618" lon="9.324297181907733"><ele>1144.0</ele><time>2026-04-25T14:01:48.985Z</time></trkpt><trkpt lat="46.00803304078872" lon="9.32443418362696"><ele>1144.0</ele><time>2026-04-25T14:01:49.985Z</time></trkpt><trkpt lat="46.00814181779664" lon="9.32457020408837"><ele>1144.0</ele><time>2026-04-25T14:01:50.985Z</time></trkpt><trkpt lat="46.00825143903557" lon="9.324718181022705"><ele>1144.0</ele><time>2026-04-25T14:01:51.985Z</time></trkpt><trkpt lat="46.008355240051515" lon="9.324877187121986"><ele>1144.0</ele><time>2026-04-25T14:01:52.986Z</time></trkpt><trkpt lat="46.00844604231065" lon="9.325042741379544"><ele>1146.25</ele><time>2026-04-25T14:01:53.986Z</time></trkpt><trkpt lat="46.00853601310708" lon="9.325200767497254"><ele>1148.5</ele><time>2026-04-25T14:01:54.986Z</time></trkpt><trkpt lat="46.00863117017556" lon="9.325339494867917"><ele>1150.75</ele><time>2026-04-25T14:01:55.986Z</time></trkpt><trkpt lat="46.008727587579266" lon="9.325456896838137"><ele>1153.0</ele><time>2026-04-25T14:01:56.986Z</time></trkpt><trkpt lat="46.00882184083204" lon="9.325560677619901"><ele>1153.2</ele><time>2026-04-25T14:01:57.986Z</time></trkpt><trkpt lat="46.00890611148919" lon="9.325657726443236"><ele>1153.4</ele><time>2026-04-25T14:01:58.986Z</time></trkpt><trkpt lat="46.008986667305976" lon="9.325755111531812"><ele>1153.6000000000001</ele><time>2026-04-25T14:01:59.986Z</time></trkpt><trkpt lat="46.00905496192227" lon="9.325853980540082"><ele>1153.8</ele><time>2026-04-25T14:02:00.986Z</time></trkpt><trkpt lat="46.00911783139373" lon="9.325974647062788"><ele>1154.0</ele><time>2026-04-25T14:02:01.986Z</time></trkpt><trkpt lat="46.00917073468469" lon="9.326113389498387"><ele>1153.25</ele><time>2026-04-25T14:02:02.986Z</time></trkpt><trkpt lat="46.0092237412483" lon="9.326257009455082"><ele>1152.5</ele><time>2026-04-25T14:02:03.986Z</time></trkpt><trkpt lat="46.00926111905508" lon="9.326416755730788"><ele>1151.75</ele><time>2026-04-25T14:02:04.986Z</time></trkpt><trkpt lat="46.00928499471134" lon="9.326585596229336"><ele>1151.0</ele><time>2026-04-25T14:02:05.986Z</time></trkpt><trkpt lat="46.009307828447206" lon="9.326766567517513"><ele>1151.0</ele><time>2026-04-25T14:02:06.986Z</time></trkpt><trkpt lat="46.00933345516253" lon="9.326942393855452"><ele>1151.0</ele><time>2026-04-25T14:02:07.986Z</time></trkpt><trkpt lat="46.009358053756" lon="9.327108199549295"><ele>1151.0</ele><time>2026-04-25T14:02:08.986Z</time></trkpt><trkpt lat="46.00937813407166" lon="9.32727497347127"><ele>1151.0</ele><time>2026-04-25T14:02:09.986Z</time></trkpt><trkpt lat="46.009396262565105" lon="9.32744129454032"><ele>1149.25</ele><time>2026-04-25T14:02:10.986Z</time></trkpt><trkpt lat="46.00941557246367" lon="9.327606801031031"><ele>1147.5</ele><time>2026-04-25T14:02:11.986Z</time></trkpt><trkpt lat="46.00943966600384" lon="9.327770595187433"><ele>1145.75</ele><time>2026-04-25T14:02:12.986Z</time></trkpt><trkpt lat="46.009462441295284" lon="9.327930537670218"><ele>1144.0</ele><time>2026-04-25T14:02:13.986Z</time></trkpt><trkpt lat="46.00947946493298" lon="9.328077709814893"><ele>1143.6666666666665</ele><time>2026-04-25T14:02:14.986Z</time></trkpt><trkpt lat="46.00948743194879" lon="9.328206123508497"><ele>1143.3333333333333</ele><time>2026-04-25T14:02:15.986Z</time></trkpt><trkpt lat="46.00946191386183" lon="9.328312130913298"><ele>1143.0</ele><time>2026-04-25T14:02:16.986Z</time></trkpt><trkpt lat="46.00941266577102" lon="9.328378884754866"><ele>1142.6666666666667</ele><time>2026-04-25T14:02:17.986Z</time></trkpt><trkpt lat="46.00935250627473" lon="9.328433444189026"><ele>1142.3333333333335</ele><time>2026-04-25T14:02:18.986Z</time></trkpt><trkpt lat="46.00927945405533" lon="9.328482857231725"><ele>1142.0</ele><time>2026-04-25T14:02:19.986Z</time></trkpt><trkpt lat="46.00919417971937" lon="9.328550317201294"><ele>1141.0</ele><time>2026-04-25T14:02:20.986Z</time></trkpt><trkpt lat="46.00911085811093" lon="9.328626218057048"><ele>1140.0</ele><time>2026-04-25T14:02:21.986Z</time></trkpt><trkpt lat="46.00900834986034" lon="9.328710297623905"><ele>1139.0</ele><time>2026-04-25T14:02:22.986Z</time></trkpt><trkpt lat="46.008899120089154" lon="9.328797059860978"><ele>1138.0</ele><time>2026-04-25T14:02:23.986Z</time></trkpt><trkpt lat="46.00879334438757" lon="9.328893776529592"><ele>1138.0</ele><time>2026-04-25T14:02:24.986Z</time></trkpt><trkpt lat="46.00868548762127" lon="9.328989365668095"><ele>1138.0</ele><time>2026-04-25T14:02:25.986Z</time></trkpt><trkpt lat="46.00858176330324" lon="9.329095986602084"><ele>1138.0</ele><time>2026-04-25T14:02:26.984Z</time></trkpt><trkpt lat="46.0084841617049" lon="9.32920665852919"><ele>1138.0</ele><time>2026-04-25T14:02:27.984Z</time></trkpt><trkpt lat="46.00838872008946" lon="9.329316926011566"><ele>1138.5</ele><time>2026-04-25T14:02:28.984Z</time></trkpt><trkpt lat="46.00827951501067" lon="9.329404307327712"><ele>1139.0</ele><time>2026-04-25T14:02:29.984Z</time></trkpt><trkpt lat="46.008180767114744" lon="9.329509009271039"><ele>1139.5</ele><time>2026-04-25T14:02:30.984Z</time></trkpt><trkpt lat="46.00808700165888" lon="9.329615276011953"><ele>1140.0</ele><time>2026-04-25T14:02:31.984Z</time></trkpt><trkpt lat="46.008004890306914" lon="9.329742738038723"><ele>1140.0</ele><time>2026-04-25T14:02:32.985Z</time></trkpt><trkpt lat="46.00793786974935" lon="9.329857864137248"><ele>1140.0</ele><time>2026-04-25T14:02:33.984Z</time></trkpt><trkpt lat="46.00785468557081" lon="9.3298956710487"><ele>1140.0</ele><time>2026-04-25T14:02:34.984Z</time></trkpt><trkpt lat="46.00777899215263" lon="9.329943641167384"><ele>1140.0</ele><time>2026-04-25T14:02:35.984Z</time></trkpt><trkpt lat="46.0077044757345" lon="9.330000452928976"><ele>1140.0</ele><time>2026-04-25T14:02:36.984Z</time></trkpt><trkpt lat="46.00762237150779" lon="9.330043239502203"><ele>1140.0</ele><time>2026-04-25T14:02:37.984Z</time></trkpt><trkpt lat="46.00754184614559" lon="9.330116729520372"><ele>1135.4</ele><time>2026-04-25T14:02:38.985Z</time></trkpt><trkpt lat="46.007464658912745" lon="9.330219525454535"><ele>1130.8</ele><time>2026-04-25T14:02:39.984Z</time></trkpt><trkpt lat="46.00736815022685" lon="9.330292813980087"><ele>1126.2</ele><time>2026-04-25T14:02:40.984Z</time></trkpt><trkpt lat="46.00728366116927" lon="9.33038136829549"><ele>1121.6</ele><time>2026-04-25T14:02:41.984Z</time></trkpt><trkpt lat="46.00720090279488" lon="9.330478397126997"><ele>1117.0</ele><time>2026-04-25T14:02:42.984Z</time></trkpt><trkpt lat="46.00711326690296" lon="9.33055662687244"><ele>1122.5</ele><time>2026-04-25T14:02:43.984Z</time></trkpt><trkpt lat="46.00704692764135" lon="9.330654580228686"><ele>1128.0</ele><time>2026-04-25T14:02:44.984Z</time></trkpt><trkpt lat="46.007007164960406" lon="9.330781958162257"><ele>1133.5</ele><time>2026-04-25T14:02:45.984Z</time></trkpt><trkpt lat="46.00698064640287" lon="9.330892775802528"><ele>1139.0</ele><time>2026-04-25T14:02:46.984Z</time></trkpt><trkpt lat="46.00696198360383" lon="9.331011793089889"><ele>1144.5</ele><time>2026-04-25T14:02:47.984Z</time></trkpt><trkpt lat="46.006910977526644" lon="9.331105316654028"><ele>1150.0</ele><time>2026-04-25T14:02:48.984Z</time></trkpt><trkpt lat="46.006834994165544" lon="9.331147791869222"><ele>1150.0</ele><time>2026-04-25T14:02:49.984Z</time></trkpt><trkpt lat="46.00673102731652" lon="9.33117357135128"><ele>1150.0</ele><time>2026-04-25T14:02:50.984Z</time></trkpt><trkpt lat="46.006623056155284" lon="9.331203215319166"><ele>1150.0</ele><time>2026-04-25T14:02:51.984Z</time></trkpt><trkpt lat="46.0065074521986" lon="9.331228458511022"><ele>1150.0</ele><time>2026-04-25T14:02:52.984Z</time></trkpt><trkpt lat="46.006402318906964" lon="9.331251041756987"><ele>1150.0</ele><time>2026-04-25T14:02:53.984Z</time></trkpt><trkpt lat="46.006312056883736" lon="9.331294423965572"><ele>1148.4</ele><time>2026-04-25T14:02:54.984Z</time></trkpt><trkpt lat="46.00622912919082" lon="9.3313642558879"><ele>1146.8</ele><time>2026-04-25T14:02:55.984Z</time></trkpt><trkpt lat="46.00616727291875" lon="9.331473937917137"><ele>1145.2</ele><time>2026-04-25T14:02:56.984Z</time></trkpt><trkpt lat="46.00612965158995" lon="9.33160476102601"><ele>1143.6</ele><time>2026-04-25T14:02:57.984Z</time></trkpt><trkpt lat="46.00611290770551" lon="9.331761838967935"><ele>1142.0</ele><time>2026-04-25T14:02:58.984Z</time></trkpt><trkpt lat="46.006096760874605" lon="9.331921758812985"><ele>1142.0</ele><time>2026-04-25T14:02:59.984Z</time></trkpt><trkpt lat="46.006078302877555" lon="9.332076963346067"><ele>1142.0</ele><time>2026-04-25T14:03:00.985Z</time></trkpt><trkpt lat="46.006061589655815" lon="9.332239210151421"><ele>1142.0</ele><time>2026-04-25T14:03:01.985Z</time></trkpt><trkpt lat="46.00604889739492" lon="9.332395024282192"><ele>1142.0</ele><time>2026-04-25T14:03:02.985Z</time></trkpt><trkpt lat="46.006030479249866" lon="9.332556954457333"><ele>1142.0</ele><time>2026-04-25T14:03:03.985Z</time></trkpt><trkpt lat="46.00600346305888" lon="9.332724033192113"><ele>1143.5</ele><time>2026-04-25T14:03:04.985Z</time></trkpt><trkpt lat="46.005956748894484" lon="9.332885731814942"><ele>1145.0</ele><time>2026-04-25T14:03:05.985Z</time></trkpt><trkpt lat="46.00589616330703" lon="9.33303687720142"><ele>1146.5</ele><time>2026-04-25T14:03:06.985Z</time></trkpt><trkpt lat="46.00584606251394" lon="9.333203015218421"><ele>1148.0</ele><time>2026-04-25T14:03:07.985Z</time></trkpt><trkpt lat="46.00579611378598" lon="9.333370346560928"><ele>1148.5</ele><time>2026-04-25T14:03:08.985Z</time></trkpt><trkpt lat="46.005750211976164" lon="9.333551148917794"><ele>1149.0</ele><time>2026-04-25T14:03:09.985Z</time></trkpt><trkpt lat="46.00569204458329" lon="9.333725426646483"><ele>1149.5</ele><time>2026-04-25T14:03:10.985Z</time></trkpt><trkpt lat="46.00563636894517" lon="9.333892731009074"><ele>1150.0</ele><time>2026-04-25T14:03:11.985Z</time></trkpt><trkpt lat="46.005574877394146" lon="9.334048959330167"><ele>1150.0</ele><time>2026-04-25T14:03:12.985Z</time></trkpt><trkpt lat="46.005507538908276" lon="9.334187248423033"><ele>1150.0</ele><time>2026-04-25T14:03:13.985Z</time></trkpt><trkpt lat="46.00545038350527" lon="9.334330268398755"><ele>1150.0</ele><time>2026-04-25T14:03:14.985Z</time></trkpt><trkpt lat="46.00539949363329" lon="9.33445520145657"><ele>1150.0</ele><time>2026-04-25T14:03:15.985Z</time></trkpt><trkpt lat="46.00534880229019" lon="9.334572166382225"><ele>1150.0</ele><time>2026-04-25T14:03:16.985Z</time></trkpt><trkpt lat="46.00526755785993" lon="9.33462650049789"><ele>1150.0</ele><time>2026-04-25T14:03:17.985Z</time></trkpt><trkpt lat="46.005177159600834" lon="9.334653046591027"><ele>1150.0</ele><time>2026-04-25T14:03:18.985Z</time></trkpt><trkpt lat="46.00508574771037" lon="9.334702911583832"><ele>1150.0</ele><time>2026-04-25T14:03:19.985Z</time></trkpt><trkpt lat="46.00498630371047" lon="9.334722904422422"><ele>1150.0</ele><time>2026-04-25T14:03:20.985Z</time></trkpt><trkpt lat="46.004879334096465" lon="9.334783206882678"><ele>1150.0</ele><time>2026-04-25T14:03:21.985Z</time></trkpt><trkpt lat="46.00478618809903" lon="9.334777648606236"><ele>1151.8</ele><time>2026-04-25T14:03:22.985Z</time></trkpt><trkpt lat="46.00469581099521" lon="9.33474895432043"><ele>1153.6</ele><time>2026-04-25T14:03:23.985Z</time></trkpt><trkpt lat="46.00459444720201" lon="9.33472826474723"><ele>1155.4</ele><time>2026-04-25T14:03:24.985Z</time></trkpt><trkpt lat="46.00450281074455" lon="9.334730852892054"><ele>1157.2</ele><time>2026-04-25T14:03:25.985Z</time></trkpt><trkpt lat="46.00441239218771" lon="9.33477564472025"><ele>1159.0</ele><time>2026-04-25T14:03:26.985Z</time></trkpt><trkpt lat="46.00433700936844" lon="9.334879659408202"><ele>1159.0</ele><time>2026-04-25T14:03:27.985Z</time></trkpt><trkpt lat="46.004255404216764" lon="9.335003493817021"><ele>1159.0</ele><time>2026-04-25T14:03:28.985Z</time></trkpt><trkpt lat="46.00418249335328" lon="9.335147609952394"><ele>1159.0</ele><time>2026-04-25T14:03:29.985Z</time></trkpt><trkpt lat="46.00413013155212" lon="9.335300087326708"><ele>1159.0</ele><time>2026-04-25T14:03:30.985Z</time></trkpt><trkpt lat="46.0040789267444" lon="9.335476789893287"><ele>1151.75</ele><time>2026-04-25T14:03:31.985Z</time></trkpt><trkpt lat="46.00403509847169" lon="9.335646312541284"><ele>1144.5</ele><time>2026-04-25T14:03:32.985Z</time></trkpt><trkpt lat="46.00399055849218" lon="9.33583713188946"><ele>1137.25</ele><time>2026-04-25T14:03:33.985Z</time></trkpt><trkpt lat="46.003960487492535" lon="9.336028429395292"><ele>1130.0</ele><time>2026-04-25T14:03:34.985Z</time></trkpt><trkpt lat="46.0039446969959" lon="9.336224559721225"><ele>1131.25</ele><time>2026-04-25T14:03:35.985Z</time></trkpt><trkpt lat="46.003913885000635" lon="9.336408982963452"><ele>1132.5</ele><time>2026-04-25T14:03:36.985Z</time></trkpt><trkpt lat="46.00389317288959" lon="9.336593491529893"><ele>1133.75</ele><time>2026-04-25T14:03:37.985Z</time></trkpt><trkpt lat="46.00386611598049" lon="9.336782833857157"><ele>1135.0</ele><time>2026-04-25T14:03:38.985Z</time></trkpt><trkpt lat="46.003810411363204" lon="9.33695965093878"><ele>1135.0</ele><time>2026-04-25T14:03:39.985Z</time></trkpt><trkpt lat="46.00375429369344" lon="9.337114471866663"><ele>1135.0</ele><time>2026-04-25T14:03:40.986Z</time></trkpt><trkpt lat="46.00371136509865" lon="9.337261874566371"><ele>1135.0</ele><time>2026-04-25T14:03:41.986Z</time></trkpt><trkpt lat="46.00367691443311" lon="9.337397905204828"><ele>1135.0</ele><time>2026-04-25T14:03:42.986Z</time></trkpt><trkpt lat="46.00366051743223" lon="9.337529062362439"><ele>1135.0</ele><time>2026-04-25T14:03:43.986Z</time></trkpt><trkpt lat="46.00364889988737" lon="9.337649747071648"><ele>1135.4</ele><time>2026-04-25T14:03:44.986Z</time></trkpt><trkpt lat="46.00363223141938" lon="9.337782196510064"><ele>1135.8</ele><time>2026-04-25T14:03:45.986Z</time></trkpt><trkpt lat="46.003648650541614" lon="9.337915305423111"><ele>1136.2</ele><time>2026-04-25T14:03:46.986Z</time></trkpt><trkpt lat="46.00366009260055" lon="9.338053785655688"><ele>1136.6</ele><time>2026-04-25T14:03:47.986Z</time></trkpt><trkpt lat="46.00369264902284" lon="9.338188752379255"><ele>1137.0</ele><time>2026-04-25T14:03:48.986Z</time></trkpt><trkpt lat="46.0037466549857" lon="9.338318366395159"><ele>1137.0</ele><time>2026-04-25T14:03:49.986Z</time></trkpt><trkpt lat="46.003809640539636" lon="9.33845390912478"><ele>1137.0</ele><time>2026-04-25T14:03:50.986Z</time></trkpt><trkpt lat="46.00387705742085" lon="9.338602856458248"><ele>1137.0</ele><time>2026-04-25T14:03:51.986Z</time></trkpt><trkpt lat="46.00385581144745" lon="9.338796093722616"><ele>1137.0</ele><time>2026-04-25T14:03:52.986Z</time></trkpt><trkpt lat="46.00387582195826" lon="9.338954332989072"><ele>1134.8</ele><time>2026-04-25T14:03:53.986Z</time></trkpt><trkpt lat="46.00392097739095" lon="9.339084444593707"><ele>1132.6</ele><time>2026-04-25T14:03:54.986Z</time></trkpt><trkpt lat="46.003958724400405" lon="9.339232586193706"><ele>1130.3999999999999</ele><time>2026-04-25T14:03:55.986Z</time></trkpt><trkpt lat="46.00401839854612" lon="9.339356847429446"><ele>1128.2</ele><time>2026-04-25T14:03:56.986Z</time></trkpt><trkpt lat="46.00406928282856" lon="9.339497207623978"><ele>1126.0</ele><time>2026-04-25T14:03:57.986Z</time></trkpt><trkpt lat="46.00409914621045" lon="9.339609775692294"><ele>1127.0</ele><time>2026-04-25T14:03:58.986Z</time></trkpt><trkpt lat="46.004098970525774" lon="9.339742076138757"><ele>1128.0</ele><time>2026-04-25T14:03:59.986Z</time></trkpt><trkpt lat="46.004072964159505" lon="9.33983171657384"><ele>1129.0</ele><time>2026-04-25T14:04:00.986Z</time></trkpt><trkpt lat="46.00400443389163" lon="9.3399212678904"><ele>1130.0</ele><time>2026-04-25T14:04:01.986Z</time></trkpt><trkpt lat="46.00391296351627" lon="9.339915435555485"><ele>1131.0</ele><time>2026-04-25T14:04:02.986Z</time></trkpt><trkpt lat="46.00384405186649" lon="9.339982006426238"><ele>1132.0</ele><time>2026-04-25T14:04:03.986Z</time></trkpt><trkpt lat="46.00378054004377" lon="9.340010945249302"><ele>1132.0</ele><time>2026-04-25T14:04:04.986Z</time></trkpt><trkpt lat="46.00371519986427" lon="9.340095192883249"><ele>1132.0</ele><time>2026-04-25T14:04:05.986Z</time></trkpt><trkpt lat="46.00367089739677" lon="9.340219414001417"><ele>1132.0</ele><time>2026-04-25T14:04:06.986Z</time></trkpt><trkpt lat="46.00363025645972" lon="9.340355404622395"><ele>1132.0</ele><time>2026-04-25T14:04:07.986Z</time></trkpt><trkpt lat="46.00358162131839" lon="9.34048653875463"><ele>1132.0</ele><time>2026-04-25T14:04:08.986Z</time></trkpt><trkpt lat="46.00355278351595" lon="9.340639575520573"><ele>1135.25</ele><time>2026-04-25T14:04:09.986Z</time></trkpt><trkpt lat="46.003485427708696" lon="9.340775738577621"><ele>1138.5</ele><time>2026-04-25T14:04:10.986Z</time></trkpt><trkpt lat="46.00341913063182" lon="9.340917644340347"><ele>1141.75</ele><time>2026-04-25T14:04:11.986Z</time></trkpt><trkpt lat="46.00335463914034" lon="9.341059122538471"><ele>1145.0</ele><time>2026-04-25T14:04:12.986Z</time></trkpt><trkpt lat="46.00329533752335" lon="9.34120796857314"><ele>1143.4</ele><time>2026-04-25T14:04:13.986Z</time></trkpt><trkpt lat="46.00324611348079" lon="9.34135620222043"><ele>1141.8</ele><time>2026-04-25T14:04:14.986Z</time></trkpt><trkpt lat="46.00321002705803" lon="9.341485924934858"><ele>1140.2</ele><time>2026-04-25T14:04:15.986Z</time></trkpt><trkpt lat="46.003204222347286" lon="9.341626425358186"><ele>1138.6</ele><time>2026-04-25T14:04:16.986Z</time></trkpt><trkpt lat="46.0032373888726" lon="9.34174562373385"><ele>1137.0</ele><time>2026-04-25T14:04:17.986Z</time></trkpt><trkpt lat="46.003309615247026" lon="9.341821462136402"><ele>1140.0</ele><time>2026-04-25T14:04:18.986Z</time></trkpt><trkpt lat="46.00336802243024" lon="9.341888124282159"><ele>1143.0</ele><time>2026-04-25T14:04:19.987Z</time></trkpt><trkpt lat="46.00343435920594" lon="9.34195931277402"><ele>1146.0</ele><time>2026-04-25T14:04:20.987Z</time></trkpt><trkpt lat="46.00343183185253" lon="9.342119190482272"><ele>1149.0</ele><time>2026-04-25T14:04:22.987Z</time></trkpt><trkpt lat="46.00335533836273" lon="9.34218302649482"><ele>1152.0</ele><time>2026-04-25T14:04:23.987Z</time></trkpt><trkpt lat="46.00325371695261" lon="9.342221244798216"><ele>1154.8</ele><time>2026-04-25T14:04:24.987Z</time></trkpt><trkpt lat="46.00313976086136" lon="9.34226122794045"><ele>1157.6</ele><time>2026-04-25T14:04:25.987Z</time></trkpt><trkpt lat="46.003030998683876" lon="9.342285962936613"><ele>1160.3999999999999</ele><time>2026-04-25T14:04:26.987Z</time></trkpt><trkpt lat="46.0029264934161" lon="9.34228324566944"><ele>1163.2</ele><time>2026-04-25T14:04:27.987Z</time></trkpt><trkpt lat="46.00282680567812" lon="9.34226419197971"><ele>1166.0</ele><time>2026-04-25T14:04:28.987Z</time></trkpt><trkpt lat="46.002725781402184" lon="9.342223409172489"><ele>1162.5</ele><time>2026-04-25T14:04:29.987Z</time></trkpt><trkpt lat="46.0026282971638" lon="9.342161076493836"><ele>1159.0</ele><time>2026-04-25T14:04:30.987Z</time></trkpt><trkpt lat="46.00252953517582" lon="9.342092671601328"><ele>1155.5</ele><time>2026-04-25T14:04:31.987Z</time></trkpt><trkpt lat="46.0024367501559" lon="9.341991994964474"><ele>1152.0</ele><time>2026-04-25T14:04:32.985Z</time></trkpt><trkpt lat="46.00233634399496" lon="9.341901836082078"><ele>1152.0</ele><time>2026-04-25T14:04:33.985Z</time></trkpt><trkpt lat="46.002239149436214" lon="9.341805527705304"><ele>1152.0</ele><time>2026-04-25T14:04:34.985Z</time></trkpt><trkpt lat="46.00213403692105" lon="9.341709505622108"><ele>1152.0</ele><time>2026-04-25T14:04:35.985Z</time></trkpt><trkpt lat="46.00203009275329" lon="9.341618166387022"><ele>1152.0</ele><time>2026-04-25T14:04:36.985Z</time></trkpt><trkpt lat="46.00192709030629" lon="9.341529569360937"><ele>1152.0</ele><time>2026-04-25T14:04:37.985Z</time></trkpt><trkpt lat="46.00184534207254" lon="9.341408892553659"><ele>1152.0</ele><time>2026-04-25T14:04:38.985Z</time></trkpt><trkpt lat="46.001748794709286" lon="9.341316291329532"><ele>1152.0</ele><time>2026-04-25T14:04:39.984Z</time></trkpt><trkpt lat="46.0016632243217" lon="9.34123502883705"><ele>1152.0</ele><time>2026-04-25T14:04:40.984Z</time></trkpt><trkpt lat="46.00156858005783" lon="9.341163148780343"><ele>1152.0</ele><time>2026-04-25T14:04:41.985Z</time></trkpt><trkpt lat="46.001483479006986" lon="9.341098307699012"><ele>1143.5</ele><time>2026-04-25T14:04:42.985Z</time></trkpt><trkpt lat="46.001389407228125" lon="9.34104675283642"><ele>1135.0</ele><time>2026-04-25T14:04:43.985Z</time></trkpt><trkpt lat="46.00128588058849" lon="9.341017655596886"><ele>1126.5</ele><time>2026-04-25T14:04:44.985Z</time></trkpt><trkpt lat="46.00116562562185" lon="9.341011021274433"><ele>1118.0</ele><time>2026-04-25T14:04:45.985Z</time></trkpt><trkpt lat="46.00104096112017" lon="9.34100298531354"><ele>1118.0</ele><time>2026-04-25T14:04:46.985Z</time></trkpt><trkpt lat="46.00090249512407" lon="9.340988073229715"><ele>1118.0</ele><time>2026-04-25T14:04:47.985Z</time></trkpt><trkpt lat="46.00076151576348" lon="9.340930110876736"><ele>1118.0</ele><time>2026-04-25T14:04:48.985Z</time></trkpt><trkpt lat="46.000623150602024" lon="9.340905818304378"><ele>1118.0</ele><time>2026-04-25T14:04:49.985Z</time></trkpt><trkpt lat="46.00048322855951" lon="9.340877567171667"><ele>1118.5</ele><time>2026-04-25T14:04:50.985Z</time></trkpt><trkpt lat="46.0003435538639" lon="9.340839971836798"><ele>1119.0</ele><time>2026-04-25T14:04:51.985Z</time></trkpt><trkpt lat="46.000208456517754" lon="9.340785275380945"><ele>1119.5</ele><time>2026-04-25T14:04:52.985Z</time></trkpt><trkpt lat="46.000095826576604" lon="9.34072030279025"><ele>1120.0</ele><time>2026-04-25T14:04:53.985Z</time></trkpt><trkpt lat="45.99999616255483" lon="9.340663606737605"><ele>1120.0</ele><time>2026-04-25T14:04:54.985Z</time></trkpt><trkpt lat="45.999905970999414" lon="9.340623322057214"><ele>1120.0</ele><time>2026-04-25T14:04:55.985Z</time></trkpt><trkpt lat="45.99983796554899" lon="9.3406068435155"><ele>1120.0</ele><time>2026-04-25T14:04:56.985Z</time></trkpt><trkpt lat="45.99975405171775" lon="9.340644459331253"><ele>1120.0</ele><time>2026-04-25T14:04:58.985Z</time></trkpt><trkpt lat="45.9996709360729" lon="9.340687977196069"><ele>1120.0</ele><time>2026-04-25T14:05:01.985Z</time></trkpt><trkpt lat="45.999585638757814" lon="9.340752181820546"><ele>1120.0</ele><time>2026-04-25T14:05:03.985Z</time></trkpt><trkpt lat="45.99951572929765" lon="9.340786062914505"><ele>1120.0</ele><time>2026-04-25T14:05:04.985Z</time></trkpt><trkpt lat="45.99944262248536" lon="9.340857080240326"><ele>1120.0</ele><time>2026-04-25T14:05:05.985Z</time></trkpt><trkpt lat="45.99937055840314" lon="9.340947734480265"><ele>1120.0</ele><time>2026-04-25T14:05:06.985Z</time></trkpt><trkpt lat="45.99930025471097" lon="9.3410552218307"><ele>1120.0</ele><time>2026-04-25T14:05:07.985Z</time></trkpt><trkpt lat="45.99922474758075" lon="9.34117625577199"><ele>1120.0</ele><time>2026-04-25T14:05:08.985Z</time></trkpt><trkpt lat="45.99914994210848" lon="9.341289250115492"><ele>1119.8</ele><time>2026-04-25T14:05:09.985Z</time></trkpt><trkpt lat="45.99906363278264" lon="9.341396524768093"><ele>1119.6</ele><time>2026-04-25T14:05:10.985Z</time></trkpt><trkpt lat="45.99897194224126" lon="9.34147377263388"><ele>1119.4</ele><time>2026-04-25T14:05:11.985Z</time></trkpt><trkpt lat="45.998886573052566" lon="9.341547355787332"><ele>1119.2</ele><time>2026-04-25T14:05:12.985Z</time></trkpt><trkpt lat="45.99881082318861" lon="9.341630784159886"><ele>1119.0</ele><time>2026-04-25T14:05:13.985Z</time></trkpt><trkpt lat="45.99873659788754" lon="9.34169762480512"><ele>1119.0</ele><time>2026-04-25T14:05:14.985Z</time></trkpt><trkpt lat="45.99867150455434" lon="9.341770999917562"><ele>1119.0</ele><time>2026-04-25T14:05:15.986Z</time></trkpt><trkpt lat="45.998611015602336" lon="9.341856278536817"><ele>1119.0</ele><time>2026-04-25T14:05:16.986Z</time></trkpt><trkpt lat="45.998551626212816" lon="9.34194339653228"><ele>1119.0</ele><time>2026-04-25T14:05:17.986Z</time></trkpt><trkpt lat="45.99849854764723" lon="9.342039939492453"><ele>1119.0</ele><time>2026-04-25T14:05:18.986Z</time></trkpt><trkpt lat="45.99843676923934" lon="9.342141982716452"><ele>1119.0</ele><time>2026-04-25T14:05:19.986Z</time></trkpt><trkpt lat="45.9983768340851" lon="9.34224563569962"><ele>1116.1666666666667</ele><time>2026-04-25T14:05:20.986Z</time></trkpt><trkpt lat="45.998319546862334" lon="9.342340154036101"><ele>1113.3333333333333</ele><time>2026-04-25T14:05:21.986Z</time></trkpt><trkpt lat="45.998246170156065" lon="9.342419345528338"><ele>1110.5</ele><time>2026-04-25T14:05:22.986Z</time></trkpt><trkpt lat="45.998191755633215" lon="9.342521602369876"><ele>1107.6666666666665</ele><time>2026-04-25T14:05:23.986Z</time></trkpt><trkpt lat="45.99814029585326" lon="9.342611683497285"><ele>1104.8333333333333</ele><time>2026-04-25T14:05:24.986Z</time></trkpt><trkpt lat="45.99806861627261" lon="9.342680788502088"><ele>1102.0</ele><time>2026-04-25T14:05:25.986Z</time></trkpt><trkpt lat="45.99800683168172" lon="9.342739012452459"><ele>1102.0</ele><time>2026-04-25T14:05:26.986Z</time></trkpt><trkpt lat="45.99793168440337" lon="9.342763962186208"><ele>1102.0</ele><time>2026-04-25T14:05:27.986Z</time></trkpt><trkpt lat="45.997853681976" lon="9.342783910519868"><ele>1102.0</ele><time>2026-04-25T14:05:28.986Z</time></trkpt><trkpt lat="45.99774000167941" lon="9.342825052410314"><ele>1102.0</ele><time>2026-04-25T14:05:30.986Z</time></trkpt><trkpt lat="45.997690772766965" lon="9.342887647951304"><ele>1102.0</ele><time>2026-04-25T14:05:31.986Z</time></trkpt><trkpt lat="45.9976282730235" lon="9.342957845570494"><ele>1102.0</ele><time>2026-04-25T14:05:32.986Z</time></trkpt><trkpt lat="45.99756126340774" lon="9.3430594979883"><ele>1104.8</ele><time>2026-04-25T14:05:33.986Z</time></trkpt><trkpt lat="45.997502659309724" lon="9.343158295679828"><ele>1107.6</ele><time>2026-04-25T14:05:34.986Z</time></trkpt><trkpt lat="45.99745873397373" lon="9.343273786328554"><ele>1110.3999999999999</ele><time>2026-04-25T14:05:35.986Z</time></trkpt><trkpt lat="45.99740567867086" lon="9.343383623504845"><ele>1113.2</ele><time>2026-04-25T14:05:36.986Z</time></trkpt><trkpt lat="45.99736847012379" lon="9.34350730792045"><ele>1116.0</ele><time>2026-04-25T14:05:37.986Z</time></trkpt><trkpt lat="45.997309722973746" lon="9.343607367508765"><ele>1112.3333333333333</ele><time>2026-04-25T14:05:38.986Z</time></trkpt><trkpt lat="45.99725772019773" lon="9.343708593714759"><ele>1108.6666666666667</ele><time>2026-04-25T14:05:39.986Z</time></trkpt><trkpt lat="45.997202028226916" lon="9.34379713922054"><ele>1105.0</ele><time>2026-04-25T14:05:40.986Z</time></trkpt><trkpt lat="45.9971354694788" lon="9.343861183202469"><ele>1101.3333333333335</ele><time>2026-04-25T14:05:41.986Z</time></trkpt><trkpt lat="45.9970809001634" lon="9.343922460968534"><ele>1097.6666666666667</ele><time>2026-04-25T14:05:42.986Z</time></trkpt><trkpt lat="45.997042526804016" lon="9.344002561589045"><ele>1094.0</ele><time>2026-04-25T14:05:43.986Z</time></trkpt><trkpt lat="45.99701110083043" lon="9.344087636284062"><ele>1094.0</ele><time>2026-04-25T14:05:44.986Z</time></trkpt><trkpt lat="45.99699528415439" lon="9.344187102187218"><ele>1094.0</ele><time>2026-04-25T14:05:45.986Z</time></trkpt><trkpt lat="45.99697612670153" lon="9.344278887319032"><ele>1094.0</ele><time>2026-04-25T14:05:46.986Z</time></trkpt><trkpt lat="45.99695189401981" lon="9.344418840738584"><ele>1094.0</ele><time>2026-04-25T14:05:48.986Z</time></trkpt><trkpt lat="45.99694267156864" lon="9.344518153874269"><ele>1094.0</ele><time>2026-04-25T14:05:51.986Z</time></trkpt><trkpt lat="45.99690676317832" lon="9.344407910557472"><ele>1094.0</ele><time>2026-04-25T14:05:54.987Z</time></trkpt><trkpt lat="45.996925829310825" lon="9.344301575095574"><ele>1094.0</ele><time>2026-04-25T14:05:55.987Z</time></trkpt><trkpt lat="45.99694490352058" lon="9.344130257221002"><ele>1094.0</ele><time>2026-04-25T14:05:57.987Z</time></trkpt><trkpt lat="45.996954744452545" lon="9.343976611325866"><ele>1094.0</ele><time>2026-04-25T14:05:59.987Z</time></trkpt><trkpt lat="45.99698163074847" lon="9.343822474889905"><ele>1094.0</ele><time>2026-04-25T14:06:01.987Z</time></trkpt><trkpt lat="45.99702954283665" lon="9.34375529196388"><ele>1094.0</ele><time>2026-04-25T14:06:02.987Z</time></trkpt><trkpt lat="45.99708468245599" lon="9.34369641957471"><ele>1092.8333333333335</ele><time>2026-04-25T14:06:03.987Z</time></trkpt><trkpt lat="45.99712632551957" lon="9.343617048916784"><ele>1091.6666666666667</ele><time>2026-04-25T14:06:04.987Z</time></trkpt><trkpt lat="45.9971705350181" lon="9.343550198099127"><ele>1090.5</ele><time>2026-04-25T14:06:05.987Z</time></trkpt><trkpt lat="45.99721121124623" lon="9.34337003902856"><ele>1089.3333333333333</ele><time>2026-04-25T14:06:07.987Z</time></trkpt><trkpt lat="45.99718548739703" lon="9.34326883531975"><ele>1088.1666666666665</ele><time>2026-04-25T14:06:08.987Z</time></trkpt><trkpt lat="45.99715230117769" lon="9.343180285776917"><ele>1087.0</ele><time>2026-04-25T14:06:09.987Z</time></trkpt><trkpt lat="45.99711412527179" lon="9.343094938540574"><ele>1085.8333333333333</ele><time>2026-04-25T14:06:10.987Z</time></trkpt><trkpt lat="45.99707592960391" lon="9.343004230036554"><ele>1084.6666666666665</ele><time>2026-04-25T14:06:11.987Z</time></trkpt><trkpt lat="45.99703538288553" lon="9.342923531557677"><ele>1083.5</ele><time>2026-04-25T14:06:12.987Z</time></trkpt><trkpt lat="45.99701195177686" lon="9.34278783726278"><ele>1082.3333333333333</ele><time>2026-04-25T14:06:14.987Z</time></trkpt><trkpt lat="45.997039429021505" lon="9.342641897961247"><ele>1081.1666666666667</ele><time>2026-04-25T14:06:16.987Z</time></trkpt><trkpt lat="45.997081921311306" lon="9.34254306025302"><ele>1080.0</ele><time>2026-04-25T14:06:17.987Z</time></trkpt><trkpt lat="45.99713539034663" lon="9.342448660848614"><ele>1080.0</ele><time>2026-04-25T14:06:18.987Z</time></trkpt><trkpt lat="45.997187003140475" lon="9.342366697108336"><ele>1080.0</ele><time>2026-04-25T14:06:19.987Z</time></trkpt><trkpt lat="45.99723854138674" lon="9.34228780676776"><ele>1080.0</ele><time>2026-04-25T14:06:20.987Z</time></trkpt><trkpt lat="45.99729327887933" lon="9.342218784499021"><ele>1080.0</ele><time>2026-04-25T14:06:21.987Z</time></trkpt><trkpt lat="45.99735498310903" lon="9.342154845951313"><ele>1080.0</ele><time>2026-04-25T14:06:22.987Z</time></trkpt><trkpt lat="45.99740985921216" lon="9.342076130517876"><ele>1080.0</ele><time>2026-04-25T14:06:23.987Z</time></trkpt><trkpt lat="45.99744386881355" lon="9.341945997436127"><ele>1079.0</ele><time>2026-04-25T14:06:24.987Z</time></trkpt><trkpt lat="45.997455667407735" lon="9.34182331113759"><ele>1078.0</ele><time>2026-04-25T14:06:25.987Z</time></trkpt><trkpt lat="45.997469880296265" lon="9.34172208930149"><ele>1077.0</ele><time>2026-04-25T14:06:26.987Z</time></trkpt><trkpt lat="45.99748177944566" lon="9.341625340366706"><ele>1076.0</ele><time>2026-04-25T14:06:27.987Z</time></trkpt><trkpt lat="45.99751265761745" lon="9.341522278590489"><ele>1075.0</ele><time>2026-04-25T14:06:28.987Z</time></trkpt><trkpt lat="45.997559874952834" lon="9.341427100570185"><ele>1074.0</ele><time>2026-04-25T14:06:29.987Z</time></trkpt><trkpt lat="45.997610126751084" lon="9.34133811066634"><ele>1074.0</ele><time>2026-04-25T14:06:30.987Z</time></trkpt><trkpt lat="45.9976623338683" lon="9.341235289301293"><ele>1074.0</ele><time>2026-04-25T14:06:31.987Z</time></trkpt><trkpt lat="45.99770349146851" lon="9.341128650588029"><ele>1074.0</ele><time>2026-04-25T14:06:32.987Z</time></trkpt><trkpt lat="45.99774491768618" lon="9.341011371438448"><ele>1074.0</ele><time>2026-04-25T14:06:33.987Z</time></trkpt><trkpt lat="45.997768213143715" lon="9.340889286395196"><ele>1074.0</ele><time>2026-04-25T14:06:34.988Z</time></trkpt><trkpt lat="45.99781442544487" lon="9.340786815888277"><ele>1074.0</ele><time>2026-04-25T14:06:35.988Z</time></trkpt><trkpt lat="45.99785008583008" lon="9.340675473580433"><ele>1074.0</ele><time>2026-04-25T14:06:36.988Z</time></trkpt><trkpt lat="45.99788540511547" lon="9.340573088496157"><ele>1074.0</ele><time>2026-04-25T14:06:37.988Z</time></trkpt><trkpt lat="45.99793087224379" lon="9.340468013741587"><ele>1074.0</ele><time>2026-04-25T14:06:38.985Z</time></trkpt><trkpt lat="45.99797889946313" lon="9.340366998499539"><ele>1074.0</ele><time>2026-04-25T14:06:39.986Z</time></trkpt><trkpt lat="45.99802636305862" lon="9.340259756433229"><ele>1074.0</ele><time>2026-04-25T14:06:40.986Z</time></trkpt><trkpt lat="45.99808109527372" lon="9.340139038016268"><ele>1074.0</ele><time>2026-04-25T14:06:41.985Z</time></trkpt><trkpt lat="45.99813554331616" lon="9.340031725993116"><ele>1071.3333333333333</ele><time>2026-04-25T14:06:42.985Z</time></trkpt><trkpt lat="45.99819453114393" lon="9.339908816849379"><ele>1068.6666666666667</ele><time>2026-04-25T14:06:43.985Z</time></trkpt><trkpt lat="45.99824213535146" lon="9.33978787678928"><ele>1066.0</ele><time>2026-04-25T14:06:44.986Z</time></trkpt><trkpt lat="45.99829083159554" lon="9.339679685878208"><ele>1063.3333333333335</ele><time>2026-04-25T14:06:45.986Z</time></trkpt><trkpt lat="45.998330080071696" lon="9.339586087506985"><ele>1060.6666666666667</ele><time>2026-04-25T14:06:46.986Z</time></trkpt><trkpt lat="45.99836227248853" lon="9.33950706773616"><ele>1058.0</ele><time>2026-04-25T14:06:47.986Z</time></trkpt><trkpt lat="45.998417413187106" lon="9.339388862728079"><ele>1058.0</ele><time>2026-04-25T14:06:49.985Z</time></trkpt><trkpt lat="45.99835868919263" lon="9.339316312859218"><ele>1058.0</ele><time>2026-04-25T14:06:51.986Z</time></trkpt><trkpt lat="45.998283685236366" lon="9.339257580576481"><ele>1058.0</ele><time>2026-04-25T14:06:52.986Z</time></trkpt><trkpt lat="45.99817369284255" lon="9.339323558658407"><ele>1058.0</ele><time>2026-04-25T14:06:53.986Z</time></trkpt><trkpt lat="45.99810361834506" lon="9.339397403207492"><ele>1058.0</ele><time>2026-04-25T14:06:54.986Z</time></trkpt><trkpt lat="45.9980235429445" lon="9.339465174017311"><ele>1057.6</ele><time>2026-04-25T14:06:55.986Z</time></trkpt><trkpt lat="45.99794125019461" lon="9.339524048301525"><ele>1057.1999999999998</ele><time>2026-04-25T14:06:56.986Z</time></trkpt><trkpt lat="45.99784943958179" lon="9.339586013574777"><ele>1056.8</ele><time>2026-04-25T14:06:57.986Z</time></trkpt><trkpt lat="45.99775491019451" lon="9.339644511219062"><ele>1056.3999999999999</ele><time>2026-04-25T14:06:58.986Z</time></trkpt><trkpt lat="45.99765510451615" lon="9.339708714904452"><ele>1056.0</ele><time>2026-04-25T14:06:59.986Z</time></trkpt><trkpt lat="45.997549215353196" lon="9.339750341342263"><ele>1051.8</ele><time>2026-04-25T14:07:00.986Z</time></trkpt><trkpt lat="45.997446262964814" lon="9.339797400688127"><ele>1047.6</ele><time>2026-04-25T14:07:01.986Z</time></trkpt><trkpt lat="45.99735322033112" lon="9.339860664955921"><ele>1043.4</ele><time>2026-04-25T14:07:02.986Z</time></trkpt><trkpt lat="45.99726819367566" lon="9.33994324936396"><ele>1039.2</ele><time>2026-04-25T14:07:03.986Z</time></trkpt><trkpt lat="45.997186397955886" lon="9.340028138480642"><ele>1035.0</ele><time>2026-04-25T14:07:04.986Z</time></trkpt><trkpt lat="45.9970911419747" lon="9.34008187770791"><ele>1035.0</ele><time>2026-04-25T14:07:05.986Z</time></trkpt><trkpt lat="45.99702081180341" lon="9.340132613411216"><ele>1035.0</ele><time>2026-04-25T14:07:06.986Z</time></trkpt><trkpt lat="45.99696111502785" lon="9.340181129468114"><ele>1035.0</ele><time>2026-04-25T14:07:07.986Z</time></trkpt><trkpt lat="45.99690125329725" lon="9.340242026280539"><ele>1035.0</ele><time>2026-04-25T14:07:08.986Z</time></trkpt><trkpt lat="45.996844982650835" lon="9.340326865926482"><ele>1035.0</ele><time>2026-04-25T14:07:09.986Z</time></trkpt><trkpt lat="45.99677483966622" lon="9.34042717344058"><ele>1035.0</ele><time>2026-04-25T14:07:10.986Z</time></trkpt><trkpt lat="45.9967036610369" lon="9.340542488961413"><ele>1033.0</ele><time>2026-04-25T14:07:11.986Z</time></trkpt><trkpt lat="45.99663244645976" lon="9.340659609151368"><ele>1031.0</ele><time>2026-04-25T14:07:12.986Z</time></trkpt><trkpt lat="45.996559423746476" lon="9.340768094259653"><ele>1029.0</ele><time>2026-04-25T14:07:13.986Z</time></trkpt><trkpt lat="45.99649388833028" lon="9.340864219019473"><ele>1027.0</ele><time>2026-04-25T14:07:14.986Z</time></trkpt><trkpt lat="45.996425257971694" lon="9.3409492086246"><ele>1025.0</ele><time>2026-04-25T14:07:15.986Z</time></trkpt><trkpt lat="45.996347048851696" lon="9.340978054462358"><ele>1025.0</ele><time>2026-04-25T14:07:16.986Z</time></trkpt><trkpt lat="45.99627129241913" lon="9.341002903460275"><ele>1025.0</ele><time>2026-04-25T14:07:17.987Z</time></trkpt><trkpt lat="45.996196379675304" lon="9.341018905759334"><ele>1025.0</ele><time>2026-04-25T14:07:18.987Z</time></trkpt><trkpt lat="45.99612448225184" lon="9.341051743132368"><ele>1025.0</ele><time>2026-04-25T14:07:19.987Z</time></trkpt><trkpt lat="45.996070528679375" lon="9.341113643330036"><ele>1025.0</ele><time>2026-04-25T14:07:20.987Z</time></trkpt><trkpt lat="45.99603029455341" lon="9.341194440153192"><ele>1025.0</ele><time>2026-04-25T14:07:21.987Z</time></trkpt><trkpt lat="45.99599485828621" lon="9.34131126994073"><ele>1026.8333333333335</ele><time>2026-04-25T14:07:22.987Z</time></trkpt><trkpt lat="45.99597707614295" lon="9.341437487391579"><ele>1028.6666666666667</ele><time>2026-04-25T14:07:23.987Z</time></trkpt><trkpt lat="45.99595898418141" lon="9.341560062906888"><ele>1030.5</ele><time>2026-04-25T14:07:24.987Z</time></trkpt><trkpt lat="45.99593287793356" lon="9.341668045675641"><ele>1032.3333333333333</ele><time>2026-04-25T14:07:25.987Z</time></trkpt><trkpt lat="45.99590229883825" lon="9.341789325448529"><ele>1034.1666666666665</ele><time>2026-04-25T14:07:26.987Z</time></trkpt><trkpt lat="45.99587391899703" lon="9.341908295520557"><ele>1036.0</ele><time>2026-04-25T14:07:27.987Z</time></trkpt><trkpt lat="45.99587052881987" lon="9.34203439903588"><ele>1036.0</ele><time>2026-04-25T14:07:28.987Z</time></trkpt><trkpt lat="45.99584373882903" lon="9.342147420180586"><ele>1036.0</ele><time>2026-04-25T14:07:29.987Z</time></trkpt><trkpt lat="45.99584544431415" lon="9.342252817357398"><ele>1036.0</ele><time>2026-04-25T14:07:30.987Z</time></trkpt><trkpt lat="45.99586214477927" lon="9.342357564951437"><ele>1036.0</ele><time>2026-04-25T14:07:31.987Z</time></trkpt><trkpt lat="45.99588624746462" lon="9.342461753968148"><ele>1036.0</ele><time>2026-04-25T14:07:32.987Z</time></trkpt><trkpt lat="45.995901302478025" lon="9.34255330410587"><ele>1036.0</ele><time>2026-04-25T14:07:33.987Z</time></trkpt><trkpt lat="45.99587652775387" lon="9.342710696638523"><ele>1032.1666666666665</ele><time>2026-04-25T14:07:35.987Z</time></trkpt><trkpt lat="45.9957540264289" lon="9.34281417589441"><ele>1028.3333333333333</ele><time>2026-04-25T14:07:37.987Z</time></trkpt><trkpt lat="45.99567931754624" lon="9.34285288477847"><ele>1024.5</ele><time>2026-04-25T14:07:38.987Z</time></trkpt><trkpt lat="45.99560136372436" lon="9.342842414413013"><ele>1020.6666666666667</ele><time>2026-04-25T14:07:39.987Z</time></trkpt><trkpt lat="45.99553735971115" lon="9.342806692540014"><ele>1016.8333333333334</ele><time>2026-04-25T14:07:40.987Z</time></trkpt><trkpt lat="45.99546243713919" lon="9.342762693534345"><ele>1013.0</ele><time>2026-04-25T14:07:41.987Z</time></trkpt><trkpt lat="45.9953760850128" lon="9.342718851808211"><ele>1013.0000000000001</ele><time>2026-04-25T14:07:42.987Z</time></trkpt><trkpt lat="45.99529092152457" lon="9.342644752978002"><ele>1013.0</ele><time>2026-04-25T14:07:43.987Z</time></trkpt><trkpt lat="45.995219451654926" lon="9.342560031943338"><ele>1013.0</ele><time>2026-04-25T14:07:44.987Z</time></trkpt><trkpt lat="45.99514423993035" lon="9.34248331606842"><ele>1013.0</ele><time>2026-04-25T14:07:45.987Z</time></trkpt><trkpt lat="45.995074372810286" lon="9.342415863598083"><ele>1013.0000000000001</ele><time>2026-04-25T14:07:46.987Z</time></trkpt><trkpt lat="45.99501799544551" lon="9.342357904760632"><ele>1013.0</ele><time>2026-04-25T14:07:47.987Z</time></trkpt><trkpt lat="45.99494833832294" lon="9.342318230638776"><ele>1011.8333333333334</ele><time>2026-04-25T14:07:48.987Z</time></trkpt><trkpt lat="45.994877390138576" lon="9.342298329812207"><ele>1010.6666666666667</ele><time>2026-04-25T14:07:49.987Z</time></trkpt><trkpt lat="45.99480756531174" lon="9.342295675994567"><ele>1009.5</ele><time>2026-04-25T14:07:50.987Z</time></trkpt><trkpt lat="45.99473747257269" lon="9.342291459023814"><ele>1008.3333333333333</ele><time>2026-04-25T14:07:51.987Z</time></trkpt><trkpt lat="45.99465493520251" lon="9.342283483560388"><ele>1007.1666666666666</ele><time>2026-04-25T14:07:52.987Z</time></trkpt><trkpt lat="45.99458544472099" lon="9.342269241384347"><ele>1006.0</ele><time>2026-04-25T14:07:53.987Z</time></trkpt><trkpt lat="45.99447618499255" lon="9.3422491461009"><ele>1005.9999999999999</ele><time>2026-04-25T14:07:55.987Z</time></trkpt><trkpt lat="45.99433784501426" lon="9.34230752182134"><ele>1006.0</ele><time>2026-04-25T14:07:57.988Z</time></trkpt><trkpt lat="45.994270880941635" lon="9.342307558772882"><ele>1006.0</ele><time>2026-04-25T14:07:58.988Z</time></trkpt><trkpt lat="45.99420212176778" lon="9.34226157524966"><ele>1006.0</ele><time>2026-04-25T14:07:59.988Z</time></trkpt><trkpt lat="45.99413474059536" lon="9.342208172144854"><ele>1005.9999999999999</ele><time>2026-04-25T14:08:00.988Z</time></trkpt><trkpt lat="45.99407122085436" lon="9.342139362480227"><ele>1006.0</ele><time>2026-04-25T14:08:01.988Z</time></trkpt><trkpt lat="45.99401824614891" lon="9.342053828325916"><ele>1001.9999999999999</ele><time>2026-04-25T14:08:02.988Z</time></trkpt><trkpt lat="45.99397604663466" lon="9.34194982221893"><ele>998.0</ele><time>2026-04-25T14:08:03.988Z</time></trkpt><trkpt lat="45.993959764255045" lon="9.341831778185542"><ele>994.0</ele><time>2026-04-25T14:08:04.988Z</time></trkpt><trkpt lat="45.993932484828264" lon="9.341725735442372"><ele>990.0</ele><time>2026-04-25T14:08:05.988Z</time></trkpt><trkpt lat="45.9939031041281" lon="9.341622505434115"><ele>985.9999999999999</ele><time>2026-04-25T14:08:06.988Z</time></trkpt><trkpt lat="45.99387010344382" lon="9.341524569487618"><ele>982.0</ele><time>2026-04-25T14:08:07.988Z</time></trkpt><trkpt lat="45.99382865720075" lon="9.341411460517167"><ele>978.4999999999999</ele><time>2026-04-25T14:08:08.988Z</time></trkpt><trkpt lat="45.993785621600836" lon="9.341305622071479"><ele>975.0</ele><time>2026-04-25T14:08:09.988Z</time></trkpt><trkpt lat="45.993741828319514" lon="9.34121016083254"><ele>971.5</ele><time>2026-04-25T14:08:10.988Z</time></trkpt><trkpt lat="45.99369942032318" lon="9.341134998644334"><ele>968.0</ele><time>2026-04-25T14:08:11.988Z</time></trkpt><trkpt lat="45.99365414274138" lon="9.341070982108528"><ele>964.4999999999999</ele><time>2026-04-25T14:08:12.988Z</time></trkpt><trkpt lat="45.99358438610899" lon="9.341019592577757"><ele>961.0</ele><time>2026-04-25T14:08:13.988Z</time></trkpt><trkpt lat="45.993485824513066" lon="9.34105358690122"><ele>960.9999999999999</ele><time>2026-04-25T14:08:14.988Z</time></trkpt><trkpt lat="45.99342317029456" lon="9.341107811573274"><ele>961.0</ele><time>2026-04-25T14:08:15.988Z</time></trkpt><trkpt lat="45.99336147202629" lon="9.34115186181647"><ele>961.0</ele><time>2026-04-25T14:08:16.988Z</time></trkpt><trkpt lat="45.993311912901845" lon="9.341209707898926"><ele>961.0</ele><time>2026-04-25T14:08:17.988Z</time></trkpt><trkpt lat="45.99324952545318" lon="9.341329396606138"><ele>960.9999999999999</ele><time>2026-04-25T14:08:19.988Z</time></trkpt><trkpt lat="45.99319509012766" lon="9.34140558386594"><ele>961.0</ele><time>2026-04-25T14:08:21.988Z</time></trkpt><trkpt lat="45.99312097186742" lon="9.34133041015465"><ele>960.9999999999999</ele><time>2026-04-25T14:08:24.988Z</time></trkpt><trkpt lat="45.9932125762096" lon="9.341187647062462"><ele>961.0</ele><time>2026-04-25T14:08:26.988Z</time></trkpt><trkpt lat="45.9932643775456" lon="9.341100232511367"><ele>961.0</ele><time>2026-04-25T14:08:27.988Z</time></trkpt><trkpt lat="45.993325184035015" lon="9.341026851121134"><ele>961.0</ele><time>2026-04-25T14:08:28.988Z</time></trkpt><trkpt lat="45.99338980154225" lon="9.340963189201297"><ele>960.9999999999999</ele><time>2026-04-25T14:08:29.988Z</time></trkpt><trkpt lat="45.99345255055162" lon="9.340901505191301"><ele>961.0</ele><time>2026-04-25T14:08:30.988Z</time></trkpt><trkpt lat="45.9935177921729" lon="9.340840226806286"><ele>960.9999999999999</ele><time>2026-04-25T14:08:31.988Z</time></trkpt><trkpt lat="45.99358510487699" lon="9.340789353759044"><ele>961.0</ele><time>2026-04-25T14:08:32.988Z</time></trkpt><trkpt lat="45.99365002555444" lon="9.340746147633382"><ele>961.0</ele><time>2026-04-25T14:08:33.988Z</time></trkpt><trkpt lat="45.99373573704937" lon="9.340651549263594"><ele>961.0</ele><time>2026-04-25T14:08:35.988Z</time></trkpt><trkpt lat="45.99372671668683" lon="9.34055272678291"><ele>960.9999999999999</ele><time>2026-04-25T14:08:36.989Z</time></trkpt><trkpt lat="45.99365442320645" lon="9.34040958418657"><ele>961.0</ele><time>2026-04-25T14:08:38.989Z</time></trkpt><trkpt lat="45.99357505004331" lon="9.340445081428832"><ele>960.9999999999999</ele><time>2026-04-25T14:08:39.989Z</time></trkpt><trkpt lat="45.9935004907409" lon="9.340468059154276"><ele>961.0</ele><time>2026-04-25T14:08:40.989Z</time></trkpt><trkpt lat="45.99343327152724" lon="9.340508261928274"><ele>961.0</ele><time>2026-04-25T14:08:41.989Z</time></trkpt><trkpt lat="45.993366266363964" lon="9.340579990775067"><ele>961.0</ele><time>2026-04-25T14:08:42.989Z</time></trkpt><trkpt lat="45.993280198075304" lon="9.340617511285865"><ele>960.9999999999999</ele><time>2026-04-25T14:08:43.989Z</time></trkpt><trkpt lat="45.99319461601453" lon="9.340675269927686"><ele>961.0</ele><time>2026-04-25T14:08:44.985Z</time></trkpt><trkpt lat="45.993099334365986" lon="9.34073910414142"><ele>962.4</ele><time>2026-04-25T14:08:45.986Z</time></trkpt><trkpt lat="45.99300394244442" lon="9.340805926907551"><ele>963.8</ele><time>2026-04-25T14:08:46.986Z</time></trkpt><trkpt lat="45.99290927772667" lon="9.340869271349083"><ele>965.1999999999999</ele><time>2026-04-25T14:08:47.986Z</time></trkpt><trkpt lat="45.99282339819702" lon="9.340920469177629"><ele>966.5999999999999</ele><time>2026-04-25T14:08:48.986Z</time></trkpt><trkpt lat="45.99273929661594" lon="9.340952861492333"><ele>968.0</ele><time>2026-04-25T14:08:49.986Z</time></trkpt><trkpt lat="45.9926444185138" lon="9.340984315959998"><ele>968.0</ele><time>2026-04-25T14:08:50.986Z</time></trkpt><trkpt lat="45.9925519946133" lon="9.34101730009158"><ele>968.0</ele><time>2026-04-25T14:08:51.985Z</time></trkpt><trkpt lat="45.99245974185717" lon="9.341051875291946"><ele>968.0</ele><time>2026-04-25T14:08:52.985Z</time></trkpt><trkpt lat="45.992373309519415" lon="9.34108778859908"><ele>968.0</ele><time>2026-04-25T14:08:53.986Z</time></trkpt><trkpt lat="45.99230453355566" lon="9.341119324841673"><ele>968.0</ele><time>2026-04-25T14:08:54.985Z</time></trkpt><trkpt lat="45.99220368667537" lon="9.341135282255955"><ele>968.0000000000001</ele><time>2026-04-25T14:08:56.986Z</time></trkpt><trkpt lat="45.99217451496707" lon="9.34104168291784"><ele>968.0</ele><time>2026-04-25T14:08:58.985Z</time></trkpt><trkpt lat="45.992208813930056" lon="9.340951028582708"><ele>968.0</ele><time>2026-04-25T14:08:59.985Z</time></trkpt><trkpt lat="45.992272975354865" lon="9.34087034927263"><ele>968.0</ele><time>2026-04-25T14:09:00.986Z</time></trkpt><trkpt lat="45.99234430847243" lon="9.34078409378673"><ele>968.0000000000001</ele><time>2026-04-25T14:09:01.986Z</time></trkpt><trkpt lat="45.9924319140284" lon="9.340691533689434"><ele>968.0</ele><time>2026-04-25T14:09:02.986Z</time></trkpt><trkpt lat="45.9925165440505" lon="9.340598817407262"><ele>964.8</ele><time>2026-04-25T14:09:03.986Z</time></trkpt><trkpt lat="45.99259542232039" lon="9.340507554935549"><ele>961.5999999999999</ele><time>2026-04-25T14:09:04.986Z</time></trkpt><trkpt lat="45.99267182887851" lon="9.340414388133825"><ele>958.4000000000001</ele><time>2026-04-25T14:09:05.986Z</time></trkpt><trkpt lat="45.99275122046505" lon="9.340322560130671"><ele>955.2</ele><time>2026-04-25T14:09:06.986Z</time></trkpt><trkpt lat="45.99282261493636" lon="9.340220903814723"><ele>952.0</ele><time>2026-04-25T14:09:07.986Z</time></trkpt><trkpt lat="45.9928861459103" lon="9.340117148281331"><ele>951.9999999999999</ele><time>2026-04-25T14:09:08.986Z</time></trkpt><trkpt lat="45.99294647564045" lon="9.340013786252399"><ele>952.0</ele><time>2026-04-25T14:09:09.986Z</time></trkpt><trkpt lat="45.99300256047954" lon="9.339910801733403"><ele>952.0</ele><time>2026-04-25T14:09:10.986Z</time></trkpt><trkpt lat="45.99305180676135" lon="9.339828687106133"><ele>952.0</ele><time>2026-04-25T14:09:11.986Z</time></trkpt><trkpt lat="45.99308936553849" lon="9.339752465614636"><ele>951.9999999999999</ele><time>2026-04-25T14:09:12.986Z</time></trkpt><trkpt lat="45.993110059229345" lon="9.339605900876508"><ele>952.0</ele><time>2026-04-25T14:09:14.986Z</time></trkpt><trkpt lat="45.99302516823667" lon="9.339506856371404"><ele>952.0</ele><time>2026-04-25T14:09:16.986Z</time></trkpt><trkpt lat="45.99295012298274" lon="9.339510384693007"><ele>952.0</ele><time>2026-04-25T14:09:17.986Z</time></trkpt><trkpt lat="45.99285419559124" lon="9.33953338792503"><ele>952.0</ele><time>2026-04-25T14:09:18.986Z</time></trkpt><trkpt lat="45.992760422747416" lon="9.33959727295292"><ele>952.0</ele><time>2026-04-25T14:09:19.986Z</time></trkpt><trkpt lat="45.992682036272235" lon="9.339684807164469"><ele>952.0</ele><time>2026-04-25T14:09:20.986Z</time></trkpt><trkpt lat="45.9925968766394" lon="9.339728925603238"><ele>951.9999999999999</ele><time>2026-04-25T14:09:21.986Z</time></trkpt><trkpt lat="45.99253154136515" lon="9.339789109228155"><ele>952.0</ele><time>2026-04-25T14:09:22.986Z</time></trkpt><trkpt lat="45.99247482699907" lon="9.339838666278975"><ele>952.0</ele><time>2026-04-25T14:09:23.986Z</time></trkpt><trkpt lat="45.99239356648585" lon="9.339893545246841"><ele>952.0</ele><time>2026-04-25T14:09:25.986Z</time></trkpt><trkpt lat="45.99233096763989" lon="9.339880019910789"><ele>951.9999999999999</ele><time>2026-04-25T14:09:27.986Z</time></trkpt><trkpt lat="45.99234099733123" lon="9.3396786137132"><ele>952.0</ele><time>2026-04-25T14:09:29.986Z</time></trkpt><trkpt lat="45.99240561885086" lon="9.339567137239534"><ele>948.5</ele><time>2026-04-25T14:09:30.986Z</time></trkpt><trkpt lat="45.9924872903118" lon="9.339458954492535"><ele>945.0</ele><time>2026-04-25T14:09:31.986Z</time></trkpt><trkpt lat="45.992571642970184" lon="9.33933912769762"><ele>941.5</ele><time>2026-04-25T14:09:32.986Z</time></trkpt><trkpt lat="45.99266442303121" lon="9.339215971393358"><ele>938.0</ele><time>2026-04-25T14:09:33.986Z</time></trkpt><trkpt lat="45.99275531846182" lon="9.339104283884463"><ele>938.0</ele><time>2026-04-25T14:09:34.986Z</time></trkpt><trkpt lat="45.99284201675943" lon="9.338993487517888"><ele>938.0</ele><time>2026-04-25T14:09:35.986Z</time></trkpt><trkpt lat="45.99292453242413" lon="9.33888459620148"><ele>938.0</ele><time>2026-04-25T14:09:36.986Z</time></trkpt><trkpt lat="45.993000025183655" lon="9.338791951982493"><ele>938.0</ele><time>2026-04-25T14:09:37.986Z</time></trkpt><trkpt lat="45.99307078160077" lon="9.338708950875734"><ele>938.0</ele><time>2026-04-25T14:09:38.986Z</time></trkpt><trkpt lat="45.99313739161683" lon="9.338652505653897"><ele>935.3333333333334</ele><time>2026-04-25T14:09:39.987Z</time></trkpt><trkpt lat="45.99320707486292" lon="9.338615176285117"><ele>932.6666666666667</ele><time>2026-04-25T14:09:40.987Z</time></trkpt><trkpt lat="45.99328617602294" lon="9.338607861134486"><ele>930.0</ele><time>2026-04-25T14:09:41.987Z</time></trkpt><trkpt lat="45.99336609724951" lon="9.338620028290057"><ele>927.3333333333333</ele><time>2026-04-25T14:09:42.987Z</time></trkpt><trkpt lat="45.99345217030001" lon="9.338680666867983"><ele>924.6666666666666</ele><time>2026-04-25T14:09:43.987Z</time></trkpt><trkpt lat="45.99354570103061" lon="9.338706506575637"><ele>922.0</ele><time>2026-04-25T14:09:44.987Z</time></trkpt><trkpt lat="45.99364553846426" lon="9.338724929843814"><ele>920.6</ele><time>2026-04-25T14:09:45.987Z</time></trkpt><trkpt lat="45.99374808976297" lon="9.338740104147666"><ele>919.2</ele><time>2026-04-25T14:09:46.987Z</time></trkpt><trkpt lat="45.99386373283019" lon="9.338749490834928"><ele>917.8</ele><time>2026-04-25T14:09:47.987Z</time></trkpt><trkpt lat="45.993978635552494" lon="9.338751662836868"><ele>916.4</ele><time>2026-04-25T14:09:48.987Z</time></trkpt><trkpt lat="45.994074608859904" lon="9.338744495701622"><ele>915.0</ele><time>2026-04-25T14:09:49.987Z</time></trkpt><trkpt lat="45.994162627002446" lon="9.33871992667551"><ele>916.8</ele><time>2026-04-25T14:09:50.987Z</time></trkpt><trkpt lat="45.99424315690564" lon="9.338725176199798"><ele>918.6</ele><time>2026-04-25T14:09:51.987Z</time></trkpt><trkpt lat="45.99436245960481" lon="9.338675361071063"><ele>920.4000000000001</ele><time>2026-04-25T14:09:53.987Z</time></trkpt><trkpt lat="45.99439498657714" lon="9.338574532237747"><ele>922.2</ele><time>2026-04-25T14:09:54.987Z</time></trkpt><trkpt lat="45.994397371620025" lon="9.338452991834128"><ele>924.0</ele><time>2026-04-25T14:09:55.987Z</time></trkpt><trkpt lat="45.99439933523067" lon="9.33832802109605"><ele>924.0</ele><time>2026-04-25T14:09:56.987Z</time></trkpt><trkpt lat="45.99434574952457" lon="9.338200211896764"><ele>924.0</ele><time>2026-04-25T14:09:57.987Z</time></trkpt><trkpt lat="45.99434786925987" lon="9.338091130584917"><ele>924.0</ele><time>2026-04-25T14:09:58.987Z</time></trkpt><trkpt lat="45.99435319544067" lon="9.338000158692513"><ele>924.0</ele><time>2026-04-25T14:09:59.987Z</time></trkpt><trkpt lat="45.994385384790185" lon="9.337904935543502"><ele>924.0</ele><time>2026-04-25T14:10:00.987Z</time></trkpt><trkpt lat="45.99443186780602" lon="9.337800333552273"><ele>924.0</ele><time>2026-04-25T14:10:01.987Z</time></trkpt><trkpt lat="45.99450493198269" lon="9.337717648231372"><ele>922.0</ele><time>2026-04-25T14:10:02.987Z</time></trkpt><trkpt lat="45.99457785654215" lon="9.337648685582987"><ele>920.0</ele><time>2026-04-25T14:10:03.987Z</time></trkpt><trkpt lat="45.99465236228993" lon="9.337626284363694"><ele>918.0</ele><time>2026-04-25T14:10:04.987Z</time></trkpt><trkpt lat="45.99472056400188" lon="9.33760362379245"><ele>916.0</ele><time>2026-04-25T14:10:05.987Z</time></trkpt><trkpt lat="45.994787404653074" lon="9.337599872403274"><ele>914.0</ele><time>2026-04-25T14:10:06.987Z</time></trkpt><trkpt lat="45.99490596382842" lon="9.337580651693074"><ele>912.0</ele><time>2026-04-25T14:10:08.987Z</time></trkpt><trkpt lat="45.994997376997276" lon="9.33753628843941"><ele>912.0</ele><time>2026-04-25T14:10:10.987Z</time></trkpt><trkpt lat="45.9950577440545" lon="9.33741594987937"><ele>912.0</ele><time>2026-04-25T14:10:11.987Z</time></trkpt><trkpt lat="45.99499763672853" lon="9.337249711430117"><ele>912.0</ele><time>2026-04-25T14:10:13.987Z</time></trkpt><trkpt lat="45.99489639800427" lon="9.337137713887907"><ele>912.0</ele><time>2026-04-25T14:10:15.987Z</time></trkpt><trkpt lat="45.994823881091975" lon="9.337060999050376"><ele>909.8333333333334</ele><time>2026-04-25T14:10:16.987Z</time></trkpt><trkpt lat="45.994751996243" lon="9.336988471752184"><ele>907.6666666666667</ele><time>2026-04-25T14:10:17.987Z</time></trkpt><trkpt lat="45.994666410309726" lon="9.336924242934897"><ele>905.5</ele><time>2026-04-25T14:10:18.987Z</time></trkpt><trkpt lat="45.99458351555594" lon="9.336875392206357"><ele>903.3333333333334</ele><time>2026-04-25T14:10:19.987Z</time></trkpt><trkpt lat="45.99450622849496" lon="9.336838485707435"><ele>901.1666666666667</ele><time>2026-04-25T14:10:20.987Z</time></trkpt><trkpt lat="45.99442142394502" lon="9.336804547324324"><ele>899.0</ele><time>2026-04-25T14:10:21.987Z</time></trkpt><trkpt lat="45.99433566884757" lon="9.336776060140416"><ele>899.0000000000001</ele><time>2026-04-25T14:10:22.987Z</time></trkpt><trkpt lat="45.99424897151995" lon="9.336757423947006"><ele>899.0</ele><time>2026-04-25T14:10:23.987Z</time></trkpt><trkpt lat="45.99417210620188" lon="9.336745891874756"><ele>899.0</ele><time>2026-04-25T14:10:24.987Z</time></trkpt><trkpt lat="45.99409645686417" lon="9.336769823914949"><ele>899.0</ele><time>2026-04-25T14:10:25.987Z</time></trkpt><trkpt lat="45.994019318811894" lon="9.33676372691525"><ele>899.0000000000001</ele><time>2026-04-25T14:10:26.987Z</time></trkpt><trkpt lat="45.99395108516297" lon="9.336784740736684"><ele>899.0</ele><time>2026-04-25T14:10:27.987Z</time></trkpt><trkpt lat="45.99387780241445" lon="9.336767202245053"><ele>897.8333333333334</ele><time>2026-04-25T14:10:29.987Z</time></trkpt><trkpt lat="45.993833092141436" lon="9.336689534952844"><ele>896.6666666666667</ele><time>2026-04-25T14:10:31.987Z</time></trkpt><trkpt lat="45.993921171039815" lon="9.336552126943413"><ele>895.5</ele><time>2026-04-25T14:10:33.987Z</time></trkpt><trkpt lat="45.993984270320034" lon="9.336481921750877"><ele>894.3333333333333</ele><time>2026-04-25T14:10:34.987Z</time></trkpt><trkpt lat="45.994047184980566" lon="9.33641832334223"><ele>893.1666666666666</ele><time>2026-04-25T14:10:35.987Z</time></trkpt><trkpt lat="45.9941278639413" lon="9.336374044413109"><ele>892.0</ele><time>2026-04-25T14:10:36.987Z</time></trkpt><trkpt lat="45.994215495389014" lon="9.336317709212185"><ele>890.2</ele><time>2026-04-25T14:10:37.987Z</time></trkpt><trkpt lat="45.994304546975435" lon="9.336251868392546"><ele>888.4000000000001</ele><time>2026-04-25T14:10:38.987Z</time></trkpt><trkpt lat="45.994395552590206" lon="9.336193440322779"><ele>886.5999999999999</ele><time>2026-04-25T14:10:39.987Z</time></trkpt><trkpt lat="45.994488752445896" lon="9.336147241692034"><ele>884.8</ele><time>2026-04-25T14:10:40.987Z</time></trkpt><trkpt lat="45.99457560556824" lon="9.336102867836667"><ele>883.0</ele><time>2026-04-25T14:10:41.987Z</time></trkpt><trkpt lat="45.99466062111296" lon="9.336056761110594"><ele>882.9999999999999</ele><time>2026-04-25T14:10:42.987Z</time></trkpt><trkpt lat="45.99474862515002" lon="9.336032488686376"><ele>883.0</ele><time>2026-04-25T14:10:43.987Z</time></trkpt><trkpt lat="45.99483452379453" lon="9.336025136595023"><ele>883.0</ele><time>2026-04-25T14:10:44.987Z</time></trkpt><trkpt lat="45.99491874184904" lon="9.336033853851903"><ele>883.0</ele><time>2026-04-25T14:10:45.987Z</time></trkpt><trkpt lat="45.99500157093695" lon="9.33604646543921"><ele>882.9999999999999</ele><time>2026-04-25T14:10:46.987Z</time></trkpt><trkpt lat="45.99506983773278" lon="9.336052203298822"><ele>883.0</ele><time>2026-04-25T14:10:47.987Z</time></trkpt><trkpt lat="45.99513304996429" lon="9.336048849591188"><ele>882.8</ele><time>2026-04-25T14:10:48.987Z</time></trkpt><trkpt lat="45.99522928814601" lon="9.336038396546956"><ele>882.5999999999999</ele><time>2026-04-25T14:10:50.985Z</time></trkpt><trkpt lat="45.995248841699734" lon="9.335873963457791"><ele>882.4000000000001</ele><time>2026-04-25T14:10:51.985Z</time></trkpt><trkpt lat="45.995218276238816" lon="9.335754627820235"><ele>882.2</ele><time>2026-04-25T14:10:52.985Z</time></trkpt><trkpt lat="45.99517373774237" lon="9.335636729024982"><ele>882.0</ele><time>2026-04-25T14:10:53.984Z</time></trkpt><trkpt lat="45.9951247041172" lon="9.335509613690455"><ele>882.0</ele><time>2026-04-25T14:10:54.984Z</time></trkpt><trkpt lat="45.99508214364392" lon="9.335372313030756"><ele>882.0</ele><time>2026-04-25T14:10:55.984Z</time></trkpt><trkpt lat="45.99504348437644" lon="9.335241283466813"><ele>882.0</ele><time>2026-04-25T14:10:56.984Z</time></trkpt><trkpt lat="45.99500869596757" lon="9.335107953819099"><ele>882.0</ele><time>2026-04-25T14:10:57.984Z</time></trkpt><trkpt lat="45.99497434111186" lon="9.334965522021093"><ele>882.0</ele><time>2026-04-25T14:10:58.984Z</time></trkpt><trkpt lat="45.994945672967084" lon="9.334827649122152"><ele>878.25</ele><time>2026-04-25T14:10:59.984Z</time></trkpt><trkpt lat="45.994916779865896" lon="9.334675461901854"><ele>874.5</ele><time>2026-04-25T14:11:00.984Z</time></trkpt><trkpt lat="45.99489362762284" lon="9.334525686779774"><ele>870.75</ele><time>2026-04-25T14:11:01.984Z</time></trkpt><trkpt lat="45.99487647269573" lon="9.334357358071268"><ele>867.0</ele><time>2026-04-25T14:11:02.984Z</time></trkpt><trkpt lat="45.99486114419165" lon="9.334188780896303"><ele>867.0</ele><time>2026-04-25T14:11:03.985Z</time></trkpt><trkpt lat="45.99484073661287" lon="9.334019245447251"><ele>867.0</ele><time>2026-04-25T14:11:04.985Z</time></trkpt><trkpt lat="45.994808704442995" lon="9.333855672012449"><ele>867.0</ele><time>2026-04-25T14:11:05.985Z</time></trkpt><trkpt lat="45.994770541626366" lon="9.33369892156656"><ele>867.0</ele><time>2026-04-25T14:11:06.985Z</time></trkpt><trkpt lat="45.994711051317196" lon="9.333548408233948"><ele>866.0</ele><time>2026-04-25T14:11:07.985Z</time></trkpt><trkpt lat="45.994674210405776" lon="9.333400445049865"><ele>865.0</ele><time>2026-04-25T14:11:08.985Z</time></trkpt><trkpt lat="45.99456785236762" lon="9.333144170376576"><ele>864.0</ele><time>2026-04-25T14:11:10.985Z</time></trkpt><trkpt lat="45.99450864903947" lon="9.333032755507768"><ele>863.0</ele><time>2026-04-25T14:11:11.985Z</time></trkpt><trkpt lat="45.994454057689005" lon="9.332945793288896"><ele>861.8333333333334</ele><time>2026-04-25T14:11:12.985Z</time></trkpt><trkpt lat="45.99439963616512" lon="9.332862607575956"><ele>860.6666666666667</ele><time>2026-04-25T14:11:13.985Z</time></trkpt><trkpt lat="45.994338732236976" lon="9.3328064377458"><ele>859.5</ele><time>2026-04-25T14:11:14.985Z</time></trkpt><trkpt lat="45.99428798212112" lon="9.332746155438867"><ele>858.3333333333333</ele><time>2026-04-25T14:11:15.985Z</time></trkpt><trkpt lat="45.99420360394367" lon="9.332781130920814"><ele>857.1666666666666</ele><time>2026-04-25T14:11:16.985Z</time></trkpt><trkpt lat="45.99413518951038" lon="9.332823575457107"><ele>856.0</ele><time>2026-04-25T14:11:17.985Z</time></trkpt><trkpt lat="45.994057312682344" lon="9.332895294580613"><ele>856.1999999999999</ele><time>2026-04-25T14:11:18.985Z</time></trkpt><trkpt lat="45.993972859637296" lon="9.3329715851603"><ele>856.3999999999999</ele><time>2026-04-25T14:11:19.985Z</time></trkpt><trkpt lat="45.99388876628101" lon="9.33304370903743"><ele>856.6</ele><time>2026-04-25T14:11:20.985Z</time></trkpt><trkpt lat="45.99380642899706" lon="9.33311598267882"><ele>856.8</ele><time>2026-04-25T14:11:21.985Z</time></trkpt><trkpt lat="45.993729181365914" lon="9.333181146306016"><ele>857.0</ele><time>2026-04-25T14:11:22.985Z</time></trkpt><trkpt lat="45.99366579397329" lon="9.333239913473859"><ele>857.0000000000001</ele><time>2026-04-25T14:11:23.985Z</time></trkpt><trkpt lat="45.9936039323407" lon="9.333266913078726"><ele>857.0</ele><time>2026-04-25T14:11:24.985Z</time></trkpt><trkpt lat="45.993530844024065" lon="9.33325657688454"><ele>857.0</ele><time>2026-04-25T14:11:26.986Z</time></trkpt><trkpt lat="45.993480188680984" lon="9.333170825086919"><ele>857.0</ele><time>2026-04-25T14:11:28.986Z</time></trkpt><trkpt lat="45.99348487759602" lon="9.333066006811077"><ele>857.0000000000001</ele><time>2026-04-25T14:11:29.986Z</time></trkpt><trkpt lat="45.99350939115407" lon="9.332942067197788"><ele>857.0</ele><time>2026-04-25T14:11:30.986Z</time></trkpt><trkpt lat="45.9935409644034" lon="9.33281310888229"><ele>855.6</ele><time>2026-04-25T14:11:31.986Z</time></trkpt><trkpt lat="45.993568964900504" lon="9.332671680986346"><ele>854.2</ele><time>2026-04-25T14:11:32.986Z</time></trkpt><trkpt lat="45.99359754952367" lon="9.332523283340068"><ele>852.8</ele><time>2026-04-25T14:11:33.986Z</time></trkpt><trkpt lat="45.99362191054154" lon="9.332391858166789"><ele>851.4</ele><time>2026-04-25T14:11:34.986Z</time></trkpt><trkpt lat="45.99364699184916" lon="9.332251414175339"><ele>850.0</ele><time>2026-04-25T14:11:35.986Z</time></trkpt><trkpt lat="45.99366864434103" lon="9.332112484230034"><ele>850.0</ele><time>2026-04-25T14:11:36.986Z</time></trkpt><trkpt lat="45.99369666273693" lon="9.331837963854301"><ele>850.0</ele><time>2026-04-25T14:11:38.986Z</time></trkpt><trkpt lat="45.99370723561407" lon="9.331710380705292"><ele>850.0</ele><time>2026-04-25T14:11:39.986Z</time></trkpt><trkpt lat="45.993708124599166" lon="9.331573080304283"><ele>850.0</ele><time>2026-04-25T14:11:40.986Z</time></trkpt><trkpt lat="45.993705678145645" lon="9.331446716302468"><ele>850.2</ele><time>2026-04-25T14:11:41.986Z</time></trkpt><trkpt lat="45.99369442565325" lon="9.33130755792165"><ele>850.4</ele><time>2026-04-25T14:11:42.986Z</time></trkpt><trkpt lat="45.99367479191163" lon="9.331162228601453"><ele>850.5999999999999</ele><time>2026-04-25T14:11:43.986Z</time></trkpt><trkpt lat="45.993641132185914" lon="9.331008092686325"><ele>850.8</ele><time>2026-04-25T14:11:44.986Z</time></trkpt><trkpt lat="45.993598927814496" lon="9.330853466264099"><ele>851.0</ele><time>2026-04-25T14:11:45.986Z</time></trkpt><trkpt lat="45.99355232055869" lon="9.330716084981558"><ele>851.0</ele><time>2026-04-25T14:11:46.986Z</time></trkpt><trkpt lat="45.99349168038901" lon="9.330584587549113"><ele>851.0</ele><time>2026-04-25T14:11:47.986Z</time></trkpt><trkpt lat="45.993419428892246" lon="9.33047785386983"><ele>851.0</ele><time>2026-04-25T14:11:48.986Z</time></trkpt><trkpt lat="45.99336633047038" lon="9.330355033472356"><ele>851.0</ele><time>2026-04-25T14:11:49.986Z</time></trkpt><trkpt lat="45.99329883992604" lon="9.330253296045228"><ele>851.0</ele><time>2026-04-25T14:11:50.986Z</time></trkpt><trkpt lat="45.99323960597564" lon="9.33014484753554"><ele>849.8571428571429</ele><time>2026-04-25T14:11:51.986Z</time></trkpt><trkpt lat="45.993184752604186" lon="9.330041791804899"><ele>848.7142857142858</ele><time>2026-04-25T14:11:52.986Z</time></trkpt><trkpt lat="45.993131040327285" lon="9.329953146488325"><ele>847.5714285714286</ele><time>2026-04-25T14:11:53.986Z</time></trkpt><trkpt lat="45.993087064508" lon="9.329884742805742"><ele>846.4285714285714</ele><time>2026-04-25T14:11:54.986Z</time></trkpt><trkpt lat="45.993047213038125" lon="9.329810402516198"><ele>845.2857142857142</ele><time>2026-04-25T14:11:55.986Z</time></trkpt><trkpt lat="45.99301323518236" lon="9.329726315570845"><ele>844.1428571428571</ele><time>2026-04-25T14:11:56.986Z</time></trkpt><trkpt lat="45.99297171259533" lon="9.32963878727515"><ele>843.0</ele><time>2026-04-25T14:11:57.986Z</time></trkpt><trkpt lat="45.99294348567613" lon="9.329526374608653"><ele>843.0</ele><time>2026-04-25T14:11:58.986Z</time></trkpt><trkpt lat="45.992911024997234" lon="9.329403665651693"><ele>843.0</ele><time>2026-04-25T14:11:59.986Z</time></trkpt><trkpt lat="45.99288241696247" lon="9.329281437752785"><ele>843.0</ele><time>2026-04-25T14:12:00.986Z</time></trkpt><trkpt lat="45.992855407654176" lon="9.329143422213862"><ele>843.0</ele><time>2026-04-25T14:12:01.986Z</time></trkpt><trkpt lat="45.99283668363203" lon="9.328996737357379"><ele>843.0</ele><time>2026-04-25T14:12:02.986Z</time></trkpt><trkpt lat="45.992809901765085" lon="9.328848046654917"><ele>844.0</ele><time>2026-04-25T14:12:03.986Z</time></trkpt><trkpt lat="45.99278451409416" lon="9.32871047834261"><ele>845.0</ele><time>2026-04-25T14:12:04.986Z</time></trkpt><trkpt lat="45.99276606750755" lon="9.328570901846476"><ele>846.0</ele><time>2026-04-25T14:12:05.986Z</time></trkpt><trkpt lat="45.99276037294027" lon="9.328426772320718"><ele>847.0</ele><time>2026-04-25T14:12:06.987Z</time></trkpt><trkpt lat="45.9927627801781" lon="9.328292636209657"><ele>848.0</ele><time>2026-04-25T14:12:07.987Z</time></trkpt><trkpt lat="45.99277875972554" lon="9.328160718232732"><ele>846.8</ele><time>2026-04-25T14:12:08.987Z</time></trkpt><trkpt lat="45.99281928472394" lon="9.32804092051779"><ele>845.5999999999999</ele><time>2026-04-25T14:12:09.987Z</time></trkpt><trkpt lat="45.992864027564636" lon="9.327911630333546"><ele>844.4000000000001</ele><time>2026-04-25T14:12:10.987Z</time></trkpt><trkpt lat="45.99291906555113" lon="9.327753305317973"><ele>843.2</ele><time>2026-04-25T14:12:11.987Z</time></trkpt><trkpt lat="45.992961696686756" lon="9.327589827212842"><ele>842.0</ele><time>2026-04-25T14:12:12.987Z</time></trkpt><trkpt lat="45.99300134454123" lon="9.327430143533622"><ele>842.0</ele><time>2026-04-25T14:12:13.987Z</time></trkpt><trkpt lat="45.99303776417894" lon="9.327280293352883"><ele>842.0</ele><time>2026-04-25T14:12:14.987Z</time></trkpt><trkpt lat="45.99307199365968" lon="9.32713870081787"><ele>842.0</ele><time>2026-04-25T14:12:15.987Z</time></trkpt><trkpt lat="45.99310281838946" lon="9.32700064118828"><ele>842.0</ele><time>2026-04-25T14:12:16.987Z</time></trkpt><trkpt lat="45.99314822047716" lon="9.326872865165665"><ele>842.0</ele><time>2026-04-25T14:12:17.987Z</time></trkpt><trkpt lat="45.99319516256449" lon="9.326739307177425"><ele>840.2</ele><time>2026-04-25T14:12:18.987Z</time></trkpt><trkpt lat="45.99324958381377" lon="9.326617035257355"><ele>838.4000000000001</ele><time>2026-04-25T14:12:19.987Z</time></trkpt><trkpt lat="45.99331039827755" lon="9.326497566825825"><ele>836.5999999999999</ele><time>2026-04-25T14:12:20.987Z</time></trkpt><trkpt lat="45.99338434436885" lon="9.32637714755071"><ele>834.8</ele><time>2026-04-25T14:12:21.987Z</time></trkpt><trkpt lat="45.99347443500168" lon="9.326256860038455"><ele>833.0</ele><time>2026-04-25T14:12:22.987Z</time></trkpt><trkpt lat="45.99356394429131" lon="9.326136058169949"><ele>833.0</ele><time>2026-04-25T14:12:23.987Z</time></trkpt><trkpt lat="45.993645877191256" lon="9.3260197188807"><ele>833.0</ele><time>2026-04-25T14:12:24.987Z</time></trkpt><trkpt lat="45.99372307826455" lon="9.325913238315009"><ele>833.0</ele><time>2026-04-25T14:12:25.987Z</time></trkpt><trkpt lat="45.99378987805279" lon="9.325800974407038"><ele>833.0</ele><time>2026-04-25T14:12:26.987Z</time></trkpt><trkpt lat="45.9938468244758" lon="9.325698237441197"><ele>833.0</ele><time>2026-04-25T14:12:27.987Z</time></trkpt><trkpt lat="45.99388364248261" lon="9.325576991345498"><ele>829.2</ele><time>2026-04-25T14:12:28.987Z</time></trkpt><trkpt lat="45.9938987136071" lon="9.325444444760064"><ele>825.4</ele><time>2026-04-25T14:12:29.987Z</time></trkpt><trkpt lat="45.99392934701496" lon="9.325319558555588"><ele>821.6</ele><time>2026-04-25T14:12:30.987Z</time></trkpt><trkpt lat="45.99394767968207" lon="9.325175811081136"><ele>817.8000000000001</ele><time>2026-04-25T14:12:31.987Z</time></trkpt><trkpt lat="45.99397227189173" lon="9.32502058455876"><ele>814.0</ele><time>2026-04-25T14:12:32.987Z</time></trkpt><trkpt lat="45.99399699636634" lon="9.32487869130777"><ele>814.0</ele><time>2026-04-25T14:12:33.987Z</time></trkpt><trkpt lat="45.994068768321085" lon="9.324757567218608"><ele>814.0</ele><time>2026-04-25T14:12:34.987Z</time></trkpt><trkpt lat="45.99415077898649" lon="9.324649170954439"><ele>814.0</ele><time>2026-04-25T14:12:35.987Z</time></trkpt><trkpt lat="45.99423745815045" lon="9.32456263859324"><ele>814.0</ele><time>2026-04-25T14:12:36.987Z</time></trkpt><trkpt lat="45.99432341016372" lon="9.324485153249382"><ele>814.0</ele><time>2026-04-25T14:12:37.987Z</time></trkpt><trkpt lat="45.99441597721066" lon="9.324438421685937"><ele>805.9999999999999</ele><time>2026-04-25T14:12:38.987Z</time></trkpt><trkpt lat="45.99451417603194" lon="9.324400741656463"><ele>798.0</ele><time>2026-04-25T14:12:39.987Z</time></trkpt><trkpt lat="45.994614129589955" lon="9.324403586922672"><ele>790.0</ele><time>2026-04-25T14:12:40.987Z</time></trkpt><trkpt lat="45.994696392987045" lon="9.324438329939621"><ele>782.0</ele><time>2026-04-25T14:12:41.987Z</time></trkpt><trkpt lat="45.99476012272443" lon="9.324507203847977"><ele>774.0</ele><time>2026-04-25T14:12:42.987Z</time></trkpt><trkpt lat="45.99480271216569" lon="9.324589506995425"><ele>766.0</ele><time>2026-04-25T14:12:43.987Z</time></trkpt><trkpt lat="45.994841018113036" lon="9.324691123172258"><ele>771.0</ele><time>2026-04-25T14:12:44.987Z</time></trkpt><trkpt lat="45.994871439518896" lon="9.324793234192155"><ele>776.0</ele><time>2026-04-25T14:12:45.988Z</time></trkpt><trkpt lat="45.99489577021721" lon="9.324893754149329"><ele>781.0</ele><time>2026-04-25T14:12:46.988Z</time></trkpt><trkpt lat="45.994919772134445" lon="9.32499234459743"><ele>786.0</ele><time>2026-04-25T14:12:47.988Z</time></trkpt><trkpt lat="45.9949288173464" lon="9.325090844552438"><ele>790.9999999999999</ele><time>2026-04-25T14:12:48.988Z</time></trkpt><trkpt lat="45.994914076351954" lon="9.32520244749825"><ele>796.0</ele><time>2026-04-25T14:12:49.988Z</time></trkpt><trkpt lat="45.99489169811884" lon="9.325321935158895"><ele>796.0</ele><time>2026-04-25T14:12:50.988Z</time></trkpt><trkpt lat="45.994881015729774" lon="9.32545622049889"><ele>796.0</ele><time>2026-04-25T14:12:51.988Z</time></trkpt><trkpt lat="45.99490802964112" lon="9.32559308465764"><ele>796.0</ele><time>2026-04-25T14:12:52.988Z</time></trkpt><trkpt lat="45.994932712285845" lon="9.325752694809708"><ele>796.0</ele><time>2026-04-25T14:12:53.988Z</time></trkpt><trkpt lat="45.994995109003355" lon="9.325894509712567"><ele>796.0</ele><time>2026-04-25T14:12:54.988Z</time></trkpt><trkpt lat="45.99506373132651" lon="9.326010130175732"><ele>792.4</ele><time>2026-04-25T14:12:55.988Z</time></trkpt><trkpt lat="45.995132693353945" lon="9.326112404719638"><ele>788.8</ele><time>2026-04-25T14:12:56.985Z</time></trkpt><trkpt lat="45.995213617360925" lon="9.326211763175062"><ele>785.1999999999999</ele><time>2026-04-25T14:12:57.984Z</time></trkpt><trkpt lat="45.99528639223427" lon="9.326295571450565"><ele>781.5999999999999</ele><time>2026-04-25T14:12:58.984Z</time></trkpt><trkpt lat="45.99537710630308" lon="9.326377926092315"><ele>778.0</ele><time>2026-04-25T14:12:59.985Z</time></trkpt><trkpt lat="45.99543370280577" lon="9.32649936713502"><ele>778.0</ele><time>2026-04-25T14:13:00.984Z</time></trkpt><trkpt lat="45.99550261838229" lon="9.326608389788952"><ele>778.0</ele><time>2026-04-25T14:13:01.984Z</time></trkpt><trkpt lat="45.995578771532536" lon="9.32669657641196"><ele>778.0</ele><time>2026-04-25T14:13:02.985Z</time></trkpt><trkpt lat="45.99565465622295" lon="9.32677413684071"><ele>778.0</ele><time>2026-04-25T14:13:03.985Z</time></trkpt><trkpt lat="45.99572578162982" lon="9.32686424050446"><ele>778.0</ele><time>2026-04-25T14:13:04.985Z</time></trkpt><trkpt lat="45.99578317244947" lon="9.32696821394775"><ele>777.9999999999999</ele><time>2026-04-25T14:13:05.985Z</time></trkpt><trkpt lat="45.99582682599349" lon="9.327059251711603"><ele>778.0</ele><time>2026-04-25T14:13:06.984Z</time></trkpt><trkpt lat="45.99585050447435" lon="9.32716179318975"><ele>778.0</ele><time>2026-04-25T14:13:07.984Z</time></trkpt><trkpt lat="45.995841433545" lon="9.327270022211696"><ele>778.0</ele><time>2026-04-25T14:13:08.985Z</time></trkpt><trkpt lat="45.99581030084449" lon="9.32738591317527"><ele>777.9999999999999</ele><time>2026-04-25T14:13:09.985Z</time></trkpt><trkpt lat="45.995761787970345" lon="9.327514867660682"><ele>778.0</ele><time>2026-04-25T14:13:10.985Z</time></trkpt><trkpt lat="45.99570005266679" lon="9.327657639454088"><ele>779.5999999999999</ele><time>2026-04-25T14:13:11.985Z</time></trkpt><trkpt lat="45.99564759174517" lon="9.327802583034858"><ele>781.1999999999999</ele><time>2026-04-25T14:13:12.985Z</time></trkpt><trkpt lat="45.99560710928791" lon="9.327950305474042"><ele>782.8</ele><time>2026-04-25T14:13:13.985Z</time></trkpt><trkpt lat="45.995579262435484" lon="9.328100330968153"><ele>784.4</ele><time>2026-04-25T14:13:14.985Z</time></trkpt><trkpt lat="45.99556945516736" lon="9.328259461609656"><ele>786.0</ele><time>2026-04-25T14:13:15.985Z</time></trkpt><trkpt lat="45.99556549037826" lon="9.328406962452517"><ele>786.0</ele><time>2026-04-25T14:13:16.985Z</time></trkpt><trkpt lat="45.99553248953302" lon="9.32853619456185"><ele>786.0</ele><time>2026-04-25T14:13:17.985Z</time></trkpt><trkpt lat="45.99552201847425" lon="9.328660564677437"><ele>786.0</ele><time>2026-04-25T14:13:18.985Z</time></trkpt><trkpt lat="45.995510902759065" lon="9.328770811695529"><ele>786.0</ele><time>2026-04-25T14:13:19.985Z</time></trkpt><trkpt lat="45.995503985207606" lon="9.328875573982359"><ele>786.0</ele><time>2026-04-25T14:13:20.985Z</time></trkpt><trkpt lat="45.995517607078796" lon="9.328980713614435"><ele>786.0</ele><time>2026-04-25T14:13:21.986Z</time></trkpt><trkpt lat="45.99555702694231" lon="9.329068554330478"><ele>787.0</ele><time>2026-04-25T14:13:22.986Z</time></trkpt><trkpt lat="45.99559942135769" lon="9.329184690983672"><ele>788.0</ele><time>2026-04-25T14:13:23.986Z</time></trkpt><trkpt lat="45.99569073423451" lon="9.329220074207642"><ele>789.0</ele><time>2026-04-25T14:13:24.986Z</time></trkpt><trkpt lat="45.99579358818193" lon="9.329204102106033"><ele>790.0</ele><time>2026-04-25T14:13:25.986Z</time></trkpt><trkpt lat="45.995892532707146" lon="9.329164071829275"><ele>791.0</ele><time>2026-04-25T14:13:26.986Z</time></trkpt><trkpt lat="45.99597631075539" lon="9.32912072580465"><ele>791.1999999999999</ele><time>2026-04-25T14:13:27.986Z</time></trkpt><trkpt lat="45.99607397578903" lon="9.329056867188548"><ele>791.4</ele><time>2026-04-25T14:13:28.986Z</time></trkpt><trkpt lat="45.99617388150654" lon="9.328971092016895"><ele>791.6</ele><time>2026-04-25T14:13:29.986Z</time></trkpt><trkpt lat="45.996247145348704" lon="9.328849790673406"><ele>791.8</ele><time>2026-04-25T14:13:30.986Z</time></trkpt><trkpt lat="45.99628960524649" lon="9.328758457730862"><ele>792.0</ele><time>2026-04-25T14:13:31.986Z</time></trkpt><trkpt lat="45.996365667867835" lon="9.328663475120633"><ele>786.4000000000001</ele><time>2026-04-25T14:13:33.986Z</time></trkpt><trkpt lat="45.996473281811916" lon="9.32864396118726"><ele>780.8000000000001</ele><time>2026-04-25T14:13:35.986Z</time></trkpt><trkpt lat="45.99656369344145" lon="9.328647512751521"><ele>775.2</ele><time>2026-04-25T14:13:36.986Z</time></trkpt><trkpt lat="45.99665879246388" lon="9.328652885581509"><ele>769.6</ele><time>2026-04-25T14:13:37.986Z</time></trkpt><trkpt lat="45.99675006627333" lon="9.32864311522729"><ele>764.0</ele><time>2026-04-25T14:13:38.986Z</time></trkpt><trkpt lat="45.996841263936666" lon="9.328608001752906"><ele>762.2</ele><time>2026-04-25T14:13:39.986Z</time></trkpt><trkpt lat="45.9969119195667" lon="9.328564883892483"><ele>760.4000000000001</ele><time>2026-04-25T14:13:40.986Z</time></trkpt><trkpt lat="45.99698779016807" lon="9.328524374111577"><ele>758.6</ele><time>2026-04-25T14:13:41.986Z</time></trkpt><trkpt lat="45.99709775857244" lon="9.328500648198787"><ele>756.8</ele><time>2026-04-25T14:13:43.986Z</time></trkpt><trkpt lat="45.99715833064265" lon="9.328582172426989"><ele>755.0</ele><time>2026-04-25T14:13:44.986Z</time></trkpt><trkpt lat="45.99724352326927" lon="9.328684370280188"><ele>755.0</ele><time>2026-04-25T14:13:45.986Z</time></trkpt><trkpt lat="45.99732651678142" lon="9.3287540023148"><ele>755.0</ele><time>2026-04-25T14:13:46.986Z</time></trkpt><trkpt lat="45.99740724545406" lon="9.32882888095457"><ele>755.0</ele><time>2026-04-25T14:13:47.986Z</time></trkpt><trkpt lat="45.99751117956002" lon="9.328869606605542"><ele>755.0</ele><time>2026-04-25T14:13:48.986Z</time></trkpt><trkpt lat="45.99762904501767" lon="9.328866496984597"><ele>755.0</ele><time>2026-04-25T14:13:49.986Z</time></trkpt><trkpt lat="45.99772954967338" lon="9.328852598571089"><ele>759.8</ele><time>2026-04-25T14:13:50.986Z</time></trkpt><trkpt lat="45.9978134728362" lon="9.328829486287692"><ele>764.6</ele><time>2026-04-25T14:13:51.986Z</time></trkpt><trkpt lat="45.99789483498581" lon="9.328785494605182"><ele>769.4000000000001</ele><time>2026-04-25T14:13:52.986Z</time></trkpt><trkpt lat="45.99797480013615" lon="9.32866588300537"><ele>774.2</ele><time>2026-04-25T14:13:53.986Z</time></trkpt><trkpt lat="45.99799913076498" lon="9.328539138543478"><ele>779.0</ele><time>2026-04-25T14:13:54.986Z</time></trkpt><trkpt lat="45.99800464749336" lon="9.328390859226001"><ele>779.0</ele><time>2026-04-25T14:13:55.986Z</time></trkpt><trkpt lat="45.99798913504929" lon="9.328224738543007"><ele>779.0</ele><time>2026-04-25T14:13:56.986Z</time></trkpt><trkpt lat="45.997954746734656" lon="9.328075827494184"><ele>779.0</ele><time>2026-04-25T14:13:57.986Z</time></trkpt><trkpt lat="45.99791282461452" lon="9.327927466967667"><ele>779.0</ele><time>2026-04-25T14:13:58.986Z</time></trkpt><trkpt lat="45.99786117218765" lon="9.327798271598844"><ele>779.0</ele><time>2026-04-25T14:13:59.986Z</time></trkpt><trkpt lat="45.9978299158175" lon="9.327654476006279"><ele>782.6</ele><time>2026-04-25T14:14:00.986Z</time></trkpt><trkpt lat="45.997763103078945" lon="9.327544081874006"><ele>786.2</ele><time>2026-04-25T14:14:01.987Z</time></trkpt><trkpt lat="45.9977282224729" lon="9.327410143831786"><ele>789.8000000000001</ele><time>2026-04-25T14:14:02.987Z</time></trkpt><trkpt lat="45.997685627452604" lon="9.327289257784424"><ele>793.4000000000001</ele><time>2026-04-25T14:14:03.987Z</time></trkpt><trkpt lat="45.99762665676484" lon="9.32715899488862"><ele>797.0</ele><time>2026-04-25T14:14:04.987Z</time></trkpt><trkpt lat="45.99758758563616" lon="9.327007550037228"><ele>803.0</ele><time>2026-04-25T14:14:05.987Z</time></trkpt><trkpt lat="45.99753816060853" lon="9.326876147121533"><ele>809.0</ele><time>2026-04-25T14:14:06.987Z</time></trkpt><trkpt lat="45.997501678717235" lon="9.326724865701184"><ele>815.0</ele><time>2026-04-25T14:14:07.987Z</time></trkpt><trkpt lat="45.99746652981227" lon="9.3265556739713"><ele>821.0</ele><time>2026-04-25T14:14:08.987Z</time></trkpt><trkpt lat="45.99742888460383" lon="9.32639592725657"><ele>813.0</ele><time>2026-04-25T14:14:09.987Z</time></trkpt><trkpt lat="45.997382666753246" lon="9.326254385719228"><ele>805.0</ele><time>2026-04-25T14:14:10.987Z</time></trkpt><trkpt lat="45.997341083311426" lon="9.326113639957688"><ele>797.0</ele><time>2026-04-25T14:14:11.987Z</time></trkpt><trkpt lat="45.99728902885731" lon="9.32599028262364"><ele>789.0</ele><time>2026-04-25T14:14:12.987Z</time></trkpt><trkpt lat="45.99724653970776" lon="9.325862644924648"><ele>781.0</ele><time>2026-04-25T14:14:13.987Z</time></trkpt><trkpt lat="45.997215853385676" lon="9.325726575538837"><ele>781.0</ele><time>2026-04-25T14:14:14.987Z</time></trkpt><trkpt lat="45.997230148192315" lon="9.325577337397643"><ele>781.0</ele><time>2026-04-25T14:14:15.987Z</time></trkpt><trkpt lat="45.997218142575186" lon="9.325417527528026"><ele>781.0</ele><time>2026-04-25T14:14:16.987Z</time></trkpt><trkpt lat="45.99719812185409" lon="9.325242710335093"><ele>781.0</ele><time>2026-04-25T14:14:17.987Z</time></trkpt><trkpt lat="45.9971680925827" lon="9.32507223400765"><ele>780.1999999999999</ele><time>2026-04-25T14:14:18.987Z</time></trkpt><trkpt lat="45.9971402932962" lon="9.324920826742254"><ele>779.4</ele><time>2026-04-25T14:14:19.987Z</time></trkpt><trkpt lat="45.997138121762745" lon="9.324784302086861"><ele>778.6</ele><time>2026-04-25T14:14:20.987Z</time></trkpt><trkpt lat="45.997140218317696" lon="9.324658930526175"><ele>777.8</ele><time>2026-04-25T14:14:21.987Z</time></trkpt><trkpt lat="45.99716073303556" lon="9.324551182285077"><ele>777.0</ele><time>2026-04-25T14:14:22.987Z</time></trkpt><trkpt lat="45.99719404641874" lon="9.324439148581366"><ele>778.4000000000001</ele><time>2026-04-25T14:14:23.987Z</time></trkpt><trkpt lat="45.997254650114655" lon="9.324316427659065"><ele>779.8000000000001</ele><time>2026-04-25T14:14:24.987Z</time></trkpt><trkpt lat="45.99731030924024" lon="9.324200159196273"><ele>781.2</ele><time>2026-04-25T14:14:25.987Z</time></trkpt><trkpt lat="45.997363829970475" lon="9.324080737157715"><ele>782.6</ele><time>2026-04-25T14:14:26.987Z</time></trkpt><trkpt lat="45.99735985836078" lon="9.323913863204579"><ele>784.0</ele><time>2026-04-25T14:14:27.987Z</time></trkpt><trkpt lat="45.997286060115954" lon="9.3237599510934"><ele>784.0</ele><time>2026-04-25T14:14:28.987Z</time></trkpt><trkpt lat="45.99723018957808" lon="9.32360172944568"><ele>784.0</ele><time>2026-04-25T14:14:29.987Z</time></trkpt><trkpt lat="45.997161710672835" lon="9.323454956513315"><ele>784.0</ele><time>2026-04-25T14:14:30.987Z</time></trkpt><trkpt lat="45.9971259464193" lon="9.32330680633856"><ele>784.0</ele><time>2026-04-25T14:14:31.987Z</time></trkpt><trkpt lat="45.997080165682874" lon="9.3231688704415"><ele>788.75</ele><time>2026-04-25T14:14:32.987Z</time></trkpt><trkpt lat="45.997034485612524" lon="9.32302996714386"><ele>793.5</ele><time>2026-04-25T14:14:33.987Z</time></trkpt><trkpt lat="45.99699364540043" lon="9.322881885430839"><ele>798.25</ele><time>2026-04-25T14:14:34.987Z</time></trkpt><trkpt lat="45.996959216612176" lon="9.322721099271222"><ele>803.0</ele><time>2026-04-25T14:14:35.987Z</time></trkpt><trkpt lat="45.99693220204916" lon="9.322556408335569"><ele>803.0</ele><time>2026-04-25T14:14:36.987Z</time></trkpt><trkpt lat="45.996905782771044" lon="9.322384278615761"><ele>803.0</ele><time>2026-04-25T14:14:37.987Z</time></trkpt><trkpt lat="45.99687931746212" lon="9.32219525157396"><ele>803.0</ele><time>2026-04-25T14:14:38.987Z</time></trkpt><trkpt lat="45.99684964182117" lon="9.322012108527632"><ele>803.0</ele><time>2026-04-25T14:14:39.987Z</time></trkpt><trkpt lat="45.99684777389839" lon="9.321839723244087"><ele>801.1666666666667</ele><time>2026-04-25T14:14:40.988Z</time></trkpt><trkpt lat="45.996832922503735" lon="9.321690696748359"><ele>799.3333333333334</ele><time>2026-04-25T14:14:41.988Z</time></trkpt><trkpt lat="45.996849631126885" lon="9.321560628320524"><ele>797.5</ele><time>2026-04-25T14:14:42.988Z</time></trkpt><trkpt lat="45.99687177170497" lon="9.321449593726388"><ele>795.6666666666667</ele><time>2026-04-25T14:14:43.988Z</time></trkpt><trkpt lat="45.996903053344994" lon="9.321354542380536"><ele>793.8333333333334</ele><time>2026-04-25T14:14:44.988Z</time></trkpt><trkpt lat="45.99694235013023" lon="9.321243720241418"><ele>792.0</ele><time>2026-04-25T14:14:45.988Z</time></trkpt><trkpt lat="45.99701599259258" lon="9.321149618131765"><ele>785.5</ele><time>2026-04-25T14:14:46.988Z</time></trkpt><trkpt lat="45.99712345859173" lon="9.321074614191753"><ele>779.0</ele><time>2026-04-25T14:14:47.988Z</time></trkpt><trkpt lat="45.99721656596628" lon="9.320971311832288"><ele>772.5</ele><time>2026-04-25T14:14:48.988Z</time></trkpt><trkpt lat="45.99727122362975" lon="9.320816374768519"><ele>766.0</ele><time>2026-04-25T14:14:49.988Z</time></trkpt><trkpt lat="45.99727482107864" lon="9.3206663891042"><ele>760.5999999999999</ele><time>2026-04-25T14:14:50.988Z</time></trkpt><trkpt lat="45.9972979195613" lon="9.320542928575147"><ele>755.2</ele><time>2026-04-25T14:14:51.988Z</time></trkpt><trkpt lat="45.99733904921182" lon="9.32044847781051"><ele>749.8</ele><time>2026-04-25T14:14:52.988Z</time></trkpt><trkpt lat="45.99741997530482" lon="9.32038121817914"><ele>744.4000000000001</ele><time>2026-04-25T14:14:53.988Z</time></trkpt><trkpt lat="45.997510866178075" lon="9.320288227855439"><ele>739.0</ele><time>2026-04-25T14:14:54.988Z</time></trkpt><trkpt lat="45.997611163964066" lon="9.320190947656164"><ele>743.25</ele><time>2026-04-25T14:14:55.988Z</time></trkpt><trkpt lat="45.99771204258636" lon="9.32008985391454"><ele>747.5</ele><time>2026-04-25T14:14:56.988Z</time></trkpt><trkpt lat="45.997803128506604" lon="9.3199781639271"><ele>751.75</ele><time>2026-04-25T14:14:57.988Z</time></trkpt><trkpt lat="45.99787486102194" lon="9.319863005979622"><ele>756.0</ele><time>2026-04-25T14:14:58.988Z</time></trkpt><trkpt lat="45.9979280550901" lon="9.319732375894041"><ele>756.0</ele><time>2026-04-25T14:14:59.988Z</time></trkpt><trkpt lat="45.99795410080428" lon="9.319597352899482"><ele>756.0</ele><time>2026-04-25T14:15:00.988Z</time></trkpt><trkpt lat="45.99795936995714" lon="9.319476273490235"><ele>756.0</ele><time>2026-04-25T14:15:01.988Z</time></trkpt><trkpt lat="45.9979293807995" lon="9.319358105675525"><ele>756.0</ele><time>2026-04-25T14:15:02.985Z</time></trkpt><trkpt lat="45.997891252818754" lon="9.319207386722477"><ele>756.0</ele><time>2026-04-25T14:15:03.985Z</time></trkpt><trkpt lat="45.99786434014303" lon="9.319081007950658"><ele>756.0</ele><time>2026-04-25T14:15:04.985Z</time></trkpt><trkpt lat="45.99785788867582" lon="9.31895095801164"><ele>756.0</ele><time>2026-04-25T14:15:05.985Z</time></trkpt><trkpt lat="45.997875235596325" lon="9.318834734884916"><ele>756.0</ele><time>2026-04-25T14:15:06.985Z</time></trkpt><trkpt lat="45.99792199858616" lon="9.318742610621898"><ele>756.0</ele><time>2026-04-25T14:15:07.985Z</time></trkpt><trkpt lat="45.99799293445832" lon="9.318663306366155"><ele>756.0</ele><time>2026-04-25T14:15:08.985Z</time></trkpt><trkpt lat="45.998067894946246" lon="9.318637956445698"><ele>756.0</ele><time>2026-04-25T14:15:09.985Z</time></trkpt><trkpt lat="45.99813575237249" lon="9.318663850899426"><ele>756.5</ele><time>2026-04-25T14:15:10.985Z</time></trkpt><trkpt lat="45.998201403057564" lon="9.318724746022806"><ele>757.0</ele><time>2026-04-25T14:15:11.985Z</time></trkpt><trkpt lat="45.998266765896915" lon="9.318789522099877"><ele>757.5</ele><time>2026-04-25T14:15:12.986Z</time></trkpt><trkpt lat="45.99833709703315" lon="9.318853319789707"><ele>758.0</ele><time>2026-04-25T14:15:13.986Z</time></trkpt><trkpt lat="45.99841890193249" lon="9.318924555628147"><ele>758.5</ele><time>2026-04-25T14:15:14.985Z</time></trkpt><trkpt lat="45.9984906633276" lon="9.319014698839784"><ele>759.0</ele><time>2026-04-25T14:15:15.986Z</time></trkpt><trkpt lat="45.99856832477756" lon="9.319057600910403"><ele>759.0</ele><time>2026-04-25T14:15:16.986Z</time></trkpt><trkpt lat="45.99863342658335" lon="9.319107309534129"><ele>759.0</ele><time>2026-04-25T14:15:17.986Z</time></trkpt><trkpt lat="45.998703897598105" lon="9.319157674108533"><ele>759.0</ele><time>2026-04-25T14:15:18.986Z</time></trkpt><trkpt lat="45.99880396960773" lon="9.319171678678249"><ele>759.0</ele><time>2026-04-25T14:15:19.986Z</time></trkpt><trkpt lat="45.99890935429922" lon="9.319159636686702"><ele>759.0</ele><time>2026-04-25T14:15:20.986Z</time></trkpt><trkpt lat="45.999019241251936" lon="9.319131440029883"><ele>759.0</ele><time>2026-04-25T14:15:21.986Z</time></trkpt><trkpt lat="45.99914099677123" lon="9.319090954617426"><ele>759.0</ele><time>2026-04-25T14:15:22.986Z</time></trkpt><trkpt lat="45.9992556530922" lon="9.319050255370717"><ele>759.0</ele><time>2026-04-25T14:15:23.986Z</time></trkpt><trkpt lat="45.99936250735689" lon="9.319012879253664"><ele>759.0</ele><time>2026-04-25T14:15:24.986Z</time></trkpt><trkpt lat="45.99945521216548" lon="9.318982644776705"><ele>759.0</ele><time>2026-04-25T14:15:25.986Z</time></trkpt><trkpt lat="45.999537037524085" lon="9.31894788516917"><ele>760.3333333333334</ele><time>2026-04-25T14:15:26.986Z</time></trkpt><trkpt lat="45.99960971365706" lon="9.318900738445512"><ele>761.6666666666666</ele><time>2026-04-25T14:15:27.986Z</time></trkpt><trkpt lat="45.999684637196225" lon="9.318896752650046"><ele>763.0</ele><time>2026-04-25T14:15:28.986Z</time></trkpt><trkpt lat="45.999767059452246" lon="9.31891566916235"><ele>764.3333333333333</ele><time>2026-04-25T14:15:29.986Z</time></trkpt><trkpt lat="45.999855019052646" lon="9.318942607725653"><ele>765.6666666666666</ele><time>2026-04-25T14:15:30.986Z</time></trkpt><trkpt lat="45.99994437155294" lon="9.318947456088672"><ele>767.0</ele><time>2026-04-25T14:15:31.986Z</time></trkpt><trkpt lat="46.000025449869426" lon="9.318946081713118"><ele>767.0</ele><time>2026-04-25T14:15:32.986Z</time></trkpt><trkpt lat="46.000098736391905" lon="9.318944037689874"><ele>767.0</ele><time>2026-04-25T14:15:33.986Z</time></trkpt><trkpt lat="46.00020893782286" lon="9.318907377554622"><ele>767.0</ele><time>2026-04-25T14:15:35.986Z</time></trkpt><trkpt lat="46.00032289125874" lon="9.318815275906802"><ele>767.0</ele><time>2026-04-25T14:15:37.987Z</time></trkpt><trkpt lat="46.00034184203923" lon="9.318687232183615"><ele>767.0</ele><time>2026-04-25T14:15:38.987Z</time></trkpt><trkpt lat="46.00025361551351" lon="9.318514800658"><ele>764.6</ele><time>2026-04-25T14:15:39.987Z</time></trkpt><trkpt lat="46.000197286137514" lon="9.31841093607736"><ele>762.2</ele><time>2026-04-25T14:15:40.987Z</time></trkpt><trkpt lat="46.00012071457273" lon="9.318293796884186"><ele>759.8</ele><time>2026-04-25T14:15:41.987Z</time></trkpt><trkpt lat="46.00004965885674" lon="9.318179553790058"><ele>757.4</ele><time>2026-04-25T14:15:42.987Z</time></trkpt><trkpt lat="46.000000365948395" lon="9.318064389390425"><ele>755.0</ele><time>2026-04-25T14:15:43.987Z</time></trkpt><trkpt lat="45.99996124602119" lon="9.317935914012422"><ele>755.0</ele><time>2026-04-25T14:15:44.987Z</time></trkpt><trkpt lat="45.999934120650444" lon="9.31781038069012"><ele>755.0</ele><time>2026-04-25T14:15:45.987Z</time></trkpt><trkpt lat="45.999909392189494" lon="9.317672667636277"><ele>755.0</ele><time>2026-04-25T14:15:46.987Z</time></trkpt><trkpt lat="45.99990125566305" lon="9.317538677782517"><ele>755.0</ele><time>2026-04-25T14:15:47.987Z</time></trkpt><trkpt lat="45.99990198654754" lon="9.317381872501771"><ele>755.0</ele><time>2026-04-25T14:15:48.987Z</time></trkpt><trkpt lat="45.99987999334688" lon="9.317195050931275"><ele>757.2</ele><time>2026-04-25T14:15:49.987Z</time></trkpt><trkpt lat="45.99982031054703" lon="9.31704635990606"><ele>759.4</ele><time>2026-04-25T14:15:50.987Z</time></trkpt><trkpt lat="45.99974035095358" lon="9.316912828316532"><ele>761.5999999999999</ele><time>2026-04-25T14:15:51.987Z</time></trkpt><trkpt lat="45.99967306489268" lon="9.31680514563584"><ele>763.8</ele><time>2026-04-25T14:15:52.987Z</time></trkpt><trkpt lat="45.99960986765322" lon="9.316695298513626"><ele>766.0</ele><time>2026-04-25T14:15:53.987Z</time></trkpt><trkpt lat="45.99955120293721" lon="9.316575796090989"><ele>766.0</ele><time>2026-04-25T14:15:54.987Z</time></trkpt><trkpt lat="45.99948705669846" lon="9.316467137063693"><ele>766.0</ele><time>2026-04-25T14:15:55.987Z</time></trkpt><trkpt lat="45.99942347414334" lon="9.316350040466194"><ele>766.0</ele><time>2026-04-25T14:15:56.987Z</time></trkpt><trkpt lat="45.99934065891824" lon="9.316260931722992"><ele>766.0</ele><time>2026-04-25T14:15:57.987Z</time></trkpt><trkpt lat="45.99925756648227" lon="9.316186448515149"><ele>766.0</ele><time>2026-04-25T14:15:58.987Z</time></trkpt><trkpt lat="45.999198828688776" lon="9.316084060460685"><ele>765.5</ele><time>2026-04-25T14:15:59.987Z</time></trkpt><trkpt lat="45.99916196455852" lon="9.315978785275417"><ele>765.0</ele><time>2026-04-25T14:16:00.987Z</time></trkpt><trkpt lat="45.99914984242449" lon="9.315877851476989"><ele>764.5</ele><time>2026-04-25T14:16:01.987Z</time></trkpt><trkpt lat="45.999161655318346" lon="9.3157803472892"><ele>764.0</ele><time>2026-04-25T14:16:02.987Z</time></trkpt><trkpt lat="45.999199627543774" lon="9.315675614341744"><ele>763.5</ele><time>2026-04-25T14:16:03.987Z</time></trkpt><trkpt lat="45.99926338684377" lon="9.315589591529113"><ele>763.0</ele><time>2026-04-25T14:16:04.987Z</time></trkpt><trkpt lat="45.99932517252666" lon="9.315512892424898"><ele>759.0</ele><time>2026-04-25T14:16:05.987Z</time></trkpt><trkpt lat="45.999395590035355" lon="9.315457762728824"><ele>755.0</ele><time>2026-04-25T14:16:06.987Z</time></trkpt><trkpt lat="45.999499587088934" lon="9.315399897219791"><ele>751.0</ele><time>2026-04-25T14:16:07.987Z</time></trkpt><trkpt lat="45.99960299243673" lon="9.315342424798336"><ele>747.0</ele><time>2026-04-25T14:16:08.987Z</time></trkpt><trkpt lat="45.9997037562573" lon="9.315276012089614"><ele>743.0</ele><time>2026-04-25T14:16:09.987Z</time></trkpt><trkpt lat="45.99978656315442" lon="9.31520691957802"><ele>743.0</ele><time>2026-04-25T14:16:10.987Z</time></trkpt><trkpt lat="45.99987084780469" lon="9.315158625071248"><ele>743.0</ele><time>2026-04-25T14:16:11.987Z</time></trkpt><trkpt lat="45.999941429672326" lon="9.315087470274122"><ele>743.0</ele><time>2026-04-25T14:16:12.987Z</time></trkpt><trkpt lat="45.99999841391784" lon="9.31500441088033"><ele>743.0</ele><time>2026-04-25T14:16:13.987Z</time></trkpt><trkpt lat="46.00001940066486" lon="9.314857815743204"><ele>743.0</ele><time>2026-04-25T14:16:14.987Z</time></trkpt><trkpt lat="45.99998931147744" lon="9.314706779964935"><ele>742.0</ele><time>2026-04-25T14:16:15.987Z</time></trkpt><trkpt lat="45.99992650464514" lon="9.314563632539725"><ele>741.0</ele><time>2026-04-25T14:16:16.988Z</time></trkpt><trkpt lat="45.99986978694047" lon="9.314449524832346"><ele>740.0</ele><time>2026-04-25T14:16:17.988Z</time></trkpt><trkpt lat="45.99983536323204" lon="9.314341231638448"><ele>739.0</ele><time>2026-04-25T14:16:18.988Z</time></trkpt><trkpt lat="45.99981138227657" lon="9.314239863568178"><ele>738.0</ele><time>2026-04-25T14:16:19.988Z</time></trkpt><trkpt lat="45.99981049957704" lon="9.314133146395786"><ele>737.0</ele><time>2026-04-25T14:16:20.988Z</time></trkpt><trkpt lat="45.999846758343374" lon="9.31404106142632"><ele>737.0</ele><time>2026-04-25T14:16:21.988Z</time></trkpt><trkpt lat="45.999921765063604" lon="9.314008541485377"><ele>737.0</ele><time>2026-04-25T14:16:22.988Z</time></trkpt><trkpt lat="45.99999327945445" lon="9.313935328545458"><ele>737.0</ele><time>2026-04-25T14:16:23.988Z</time></trkpt><trkpt lat="46.000061813513796" lon="9.313847036840514"><ele>737.0</ele><time>2026-04-25T14:16:24.988Z</time></trkpt><trkpt lat="46.000105052970035" lon="9.313712500057603"><ele>737.0</ele><time>2026-04-25T14:16:25.988Z</time></trkpt><trkpt lat="46.00009404320589" lon="9.313569703751892"><ele>739.2</ele><time>2026-04-25T14:16:26.988Z</time></trkpt><trkpt lat="46.00012305761011" lon="9.31339590965321"><ele>741.4000000000001</ele><time>2026-04-25T14:16:28.988Z</time></trkpt><trkpt lat="46.00016861198919" lon="9.313314839073152"><ele>743.5999999999999</ele><time>2026-04-25T14:16:29.988Z</time></trkpt><trkpt lat="46.00022187052034" lon="9.313225584298678"><ele>745.8</ele><time>2026-04-25T14:16:30.988Z</time></trkpt><trkpt lat="46.0002728095758" lon="9.313133887926742"><ele>748.0</ele><time>2026-04-25T14:16:31.988Z</time></trkpt><trkpt lat="46.00030965578048" lon="9.313007330788386"><ele>749.0</ele><time>2026-04-25T14:16:32.988Z</time></trkpt><trkpt lat="46.000315990685436" lon="9.312858840567845"><ele>750.0</ele><time>2026-04-25T14:16:33.988Z</time></trkpt><trkpt lat="46.000307586996946" lon="9.312727450910367"><ele>751.0</ele><time>2026-04-25T14:16:34.988Z</time></trkpt><trkpt lat="46.000286873254595" lon="9.312598787075546"><ele>752.0</ele><time>2026-04-25T14:16:35.988Z</time></trkpt><trkpt lat="46.00026225102546" lon="9.312484575889929"><ele>753.0</ele><time>2026-04-25T14:16:36.988Z</time></trkpt><trkpt lat="46.000221488431364" lon="9.312350506333912"><ele>748.5999999999999</ele><time>2026-04-25T14:16:37.988Z</time></trkpt><trkpt lat="46.0001704959733" lon="9.312221034566377"><ele>744.1999999999999</ele><time>2026-04-25T14:16:38.988Z</time></trkpt><trkpt lat="46.00010134876997" lon="9.312107016746344"><ele>739.8</ele><time>2026-04-25T14:16:39.988Z</time></trkpt><trkpt lat="45.99999714161836" lon="9.312042492610379"><ele>735.4</ele><time>2026-04-25T14:16:40.988Z</time></trkpt><trkpt lat="45.999912450017334" lon="9.312007721101631"><ele>731.0</ele><time>2026-04-25T14:16:41.988Z</time></trkpt><trkpt lat="45.999849437475085" lon="9.311952232440913"><ele>731.0</ele><time>2026-04-25T14:16:42.988Z</time></trkpt><trkpt lat="45.99980684333275" lon="9.311879353436705"><ele>731.0</ele><time>2026-04-25T14:16:43.988Z</time></trkpt><trkpt lat="45.99975745206571" lon="9.311786893168332"><ele>731.0</ele><time>2026-04-25T14:16:44.988Z</time></trkpt><trkpt lat="45.99971791020091" lon="9.311680893707928"><ele>731.0</ele><time>2026-04-25T14:16:45.988Z</time></trkpt><trkpt lat="45.999689674491336" lon="9.311566459332147"><ele>731.0</ele><time>2026-04-25T14:16:46.988Z</time></trkpt><trkpt lat="45.99968978331911" lon="9.311441951019837"><ele>731.0</ele><time>2026-04-25T14:16:47.988Z</time></trkpt><trkpt lat="45.999702485092335" lon="9.311325687671463"><ele>725.8333333333333</ele><time>2026-04-25T14:16:48.988Z</time></trkpt><trkpt lat="45.99972155352588" lon="9.311215953408274"><ele>720.6666666666666</ele><time>2026-04-25T14:16:49.988Z</time></trkpt><trkpt lat="45.99974778482544" lon="9.311114049751014"><ele>715.5</ele><time>2026-04-25T14:16:50.988Z</time></trkpt><trkpt lat="45.999770302085736" lon="9.311015515725664"><ele>710.3333333333334</ele><time>2026-04-25T14:16:51.988Z</time></trkpt><trkpt lat="45.99983045135299" lon="9.310949141485791"><ele>705.1666666666667</ele><time>2026-04-25T14:16:52.988Z</time></trkpt><trkpt lat="45.99990795427904" lon="9.310903519326319"><ele>700.0</ele><time>2026-04-25T14:16:53.988Z</time></trkpt><trkpt lat="45.99999488536839" lon="9.310865467434121"><ele>700.0</ele><time>2026-04-25T14:16:54.988Z</time></trkpt><trkpt lat="46.00008579042451" lon="9.310829126119202"><ele>700.0</ele><time>2026-04-25T14:16:55.988Z</time></trkpt><trkpt lat="46.00018700693428" lon="9.310823624882548"><ele>700.0</ele><time>2026-04-25T14:16:56.989Z</time></trkpt><trkpt lat="46.00029513755084" lon="9.310822626554202"><ele>700.0</ele><time>2026-04-25T14:16:57.989Z</time></trkpt><trkpt lat="46.000404631632954" lon="9.310801326294639"><ele>700.0</ele><time>2026-04-25T14:16:58.989Z</time></trkpt><trkpt lat="46.0005078259852" lon="9.310767735337533"><ele>700.0</ele><time>2026-04-25T14:16:59.989Z</time></trkpt><trkpt lat="46.00060537978644" lon="9.310724711113368"><ele>700.0</ele><time>2026-04-25T14:17:00.989Z</time></trkpt><trkpt lat="46.0006896435531" lon="9.310669073598596"><ele>700.0</ele><time>2026-04-25T14:17:01.989Z</time></trkpt><trkpt lat="46.00076909495079" lon="9.310610245847624"><ele>700.0</ele><time>2026-04-25T14:17:02.989Z</time></trkpt><trkpt lat="46.00084742935466" lon="9.310550531450051"><ele>700.0</ele><time>2026-04-25T14:17:03.989Z</time></trkpt><trkpt lat="46.00093829053096" lon="9.310474971318506"><ele>694.25</ele><time>2026-04-25T14:17:04.989Z</time></trkpt><trkpt lat="46.00102722695288" lon="9.31039323339801"><ele>688.5</ele><time>2026-04-25T14:17:05.989Z</time></trkpt><trkpt lat="46.001110726298" lon="9.310292717771484"><ele>682.75</ele><time>2026-04-25T14:17:06.989Z</time></trkpt><trkpt lat="46.00119209986917" lon="9.31017050209676"><ele>677.0</ele><time>2026-04-25T14:17:07.989Z</time></trkpt><trkpt lat="46.00127350488161" lon="9.3100350382088"><ele>677.0</ele><time>2026-04-25T14:17:08.987Z</time></trkpt><trkpt lat="46.00133743306283" lon="9.30987701656361"><ele>677.0</ele><time>2026-04-25T14:17:09.986Z</time></trkpt><trkpt lat="46.001388421727384" lon="9.309725327187692"><ele>677.0</ele><time>2026-04-25T14:17:10.987Z</time></trkpt><trkpt lat="46.00144913450643" lon="9.309616335805556"><ele>677.0</ele><time>2026-04-25T14:17:11.986Z</time></trkpt><trkpt lat="46.00149304521802" lon="9.309517329192106"><ele>677.0</ele><time>2026-04-25T14:17:12.986Z</time></trkpt><trkpt lat="46.0015406563365" lon="9.309439327595332"><ele>678.8</ele><time>2026-04-25T14:17:13.986Z</time></trkpt><trkpt lat="46.00160968727969" lon="9.309371808036369"><ele>680.6</ele><time>2026-04-25T14:17:14.986Z</time></trkpt><trkpt lat="46.001696507250365" lon="9.309311412946887"><ele>682.4</ele><time>2026-04-25T14:17:15.986Z</time></trkpt><trkpt lat="46.00179803645477" lon="9.309277357306476"><ele>684.1999999999999</ele><time>2026-04-25T14:17:16.986Z</time></trkpt><trkpt lat="46.00191321285421" lon="9.309272373640276"><ele>686.0</ele><time>2026-04-25T14:17:17.987Z</time></trkpt><trkpt lat="46.002027182865255" lon="9.309262510591136"><ele>686.0</ele><time>2026-04-25T14:17:18.986Z</time></trkpt><trkpt lat="46.00213898039247" lon="9.309251763877086"><ele>686.0</ele><time>2026-04-25T14:17:19.986Z</time></trkpt><trkpt lat="46.00224540951457" lon="9.309246412590056"><ele>686.0</ele><time>2026-04-25T14:17:20.986Z</time></trkpt><trkpt lat="46.002344719973735" lon="9.309232244989625"><ele>686.0</ele><time>2026-04-25T14:17:21.986Z</time></trkpt><trkpt lat="46.00242626082967" lon="9.309189773024343"><ele>686.0</ele><time>2026-04-25T14:17:22.986Z</time></trkpt><trkpt lat="46.00250346990309" lon="9.309111132577002"><ele>687.5</ele><time>2026-04-25T14:17:23.986Z</time></trkpt><trkpt lat="46.002556542401564" lon="9.309029821560083"><ele>689.0</ele><time>2026-04-25T14:17:24.986Z</time></trkpt><trkpt lat="46.002604936482285" lon="9.308965151766563"><ele>690.5</ele><time>2026-04-25T14:17:25.986Z</time></trkpt><trkpt lat="46.002721849164985" lon="9.308918687737306"><ele>692.0</ele><time>2026-04-25T14:17:27.986Z</time></trkpt><trkpt lat="46.00278672254381" lon="9.308955812516967"><ele>693.5</ele><time>2026-04-25T14:17:28.986Z</time></trkpt><trkpt lat="46.00285979244188" lon="9.30901708748715"><ele>695.0</ele><time>2026-04-25T14:17:29.986Z</time></trkpt><trkpt lat="46.002928708590986" lon="9.309070125943723"><ele>695.0</ele><time>2026-04-25T14:17:30.986Z</time></trkpt><trkpt lat="46.003001583072255" lon="9.309115788878666"><ele>695.0</ele><time>2026-04-25T14:17:31.986Z</time></trkpt><trkpt lat="46.00308130159557" lon="9.30913573706231"><ele>695.0</ele><time>2026-04-25T14:17:32.986Z</time></trkpt><trkpt lat="46.003181923477605" lon="9.309141749347646"><ele>695.0</ele><time>2026-04-25T14:17:33.986Z</time></trkpt><trkpt lat="46.00328608521442" lon="9.309150946091819"><ele>695.0</ele><time>2026-04-25T14:17:34.986Z</time></trkpt><trkpt lat="46.003395488053634" lon="9.309152374479927"><ele>696.0</ele><time>2026-04-25T14:17:35.986Z</time></trkpt><trkpt lat="46.00351624678432" lon="9.309148516612742"><ele>697.0</ele><time>2026-04-25T14:17:36.986Z</time></trkpt><trkpt lat="46.00363614625007" lon="9.309141703030997"><ele>698.0</ele><time>2026-04-25T14:17:37.986Z</time></trkpt><trkpt lat="46.00375211115829" lon="9.309130927656438"><ele>699.0</ele><time>2026-04-25T14:17:38.986Z</time></trkpt><trkpt lat="46.003862697221486" lon="9.309090434322375"><ele>699.0</ele><time>2026-04-25T14:17:39.986Z</time></trkpt><trkpt lat="46.00397386342373" lon="9.3090859009744"><ele>699.0</ele><time>2026-04-25T14:17:40.986Z</time></trkpt><trkpt lat="46.004085283578526" lon="9.309042956736686"><ele>699.0</ele><time>2026-04-25T14:17:41.986Z</time></trkpt><trkpt lat="46.004185593901255" lon="9.308967517091075"><ele>699.0</ele><time>2026-04-25T14:17:42.986Z</time></trkpt><trkpt lat="46.00426300419282" lon="9.308859550965169"><ele>699.0</ele><time>2026-04-25T14:17:43.987Z</time></trkpt><trkpt lat="46.00434942431339" lon="9.308786445909215"><ele>693.0</ele><time>2026-04-25T14:17:44.987Z</time></trkpt><trkpt lat="46.00442684219811" lon="9.308715419261818"><ele>687.0</ele><time>2026-04-25T14:17:45.987Z</time></trkpt><trkpt lat="46.0045213317281" lon="9.308671041535382"><ele>681.0</ele><time>2026-04-25T14:17:46.987Z</time></trkpt><trkpt lat="46.004608340282054" lon="9.30864719278177"><ele>675.0</ele><time>2026-04-25T14:17:47.987Z</time></trkpt><trkpt lat="46.004682140176776" lon="9.30864096304842"><ele>669.0</ele><time>2026-04-25T14:17:48.987Z</time></trkpt><trkpt lat="46.00474869892239" lon="9.30859328998665"><ele>663.0</ele><time>2026-04-25T14:17:49.987Z</time></trkpt><trkpt lat="46.0048275152277" lon="9.308588995638093"><ele>663.0</ele><time>2026-04-25T14:17:50.987Z</time></trkpt><trkpt lat="46.004857552776855" lon="9.308396098316885"><ele>663.0</ele><time>2026-04-25T14:17:51.987Z</time></trkpt><trkpt lat="46.004842830199635" lon="9.308256787909876"><ele>663.0</ele><time>2026-04-25T14:17:52.987Z</time></trkpt><trkpt lat="46.004809204829755" lon="9.308128294914592"><ele>663.0</ele><time>2026-04-25T14:17:53.987Z</time></trkpt><trkpt lat="46.004745392304564" lon="9.308002181928927"><ele>663.0</ele><time>2026-04-25T14:17:54.987Z</time></trkpt><trkpt lat="46.00468357539143" lon="9.307898634907453"><ele>659.5999999999999</ele><time>2026-04-25T14:17:55.987Z</time></trkpt><trkpt lat="46.004618710767275" lon="9.307798023813593"><ele>656.1999999999999</ele><time>2026-04-25T14:17:56.987Z</time></trkpt><trkpt lat="46.00456647443486" lon="9.307692789861017"><ele>652.8</ele><time>2026-04-25T14:17:57.987Z</time></trkpt><trkpt lat="46.00454807749365" lon="9.30755268921006"><ele>649.4</ele><time>2026-04-25T14:17:58.987Z</time></trkpt><trkpt lat="46.004547789047926" lon="9.307411156646689"><ele>646.0</ele><time>2026-04-25T14:17:59.987Z</time></trkpt><trkpt lat="46.004558347848494" lon="9.307257403448963"><ele>643.4</ele><time>2026-04-25T14:18:00.987Z</time></trkpt><trkpt lat="46.004574088437984" lon="9.30708929489858"><ele>640.8</ele><time>2026-04-25T14:18:01.987Z</time></trkpt><trkpt lat="46.00457004552258" lon="9.306941259989701"><ele>638.1999999999999</ele><time>2026-04-25T14:18:02.987Z</time></trkpt><trkpt lat="46.00455661436545" lon="9.306810411847952"><ele>635.5999999999999</ele><time>2026-04-25T14:18:03.987Z</time></trkpt><trkpt lat="46.00452829723495" lon="9.306699396590844"><ele>633.0</ele><time>2026-04-25T14:18:04.987Z</time></trkpt><trkpt lat="46.004520932367264" lon="9.30658225731111"><ele>633.0</ele><time>2026-04-25T14:18:05.987Z</time></trkpt><trkpt lat="46.004537838383236" lon="9.306461966387454"><ele>633.0</ele><time>2026-04-25T14:18:06.987Z</time></trkpt><trkpt lat="46.004588191744766" lon="9.306351884593854"><ele>633.0</ele><time>2026-04-25T14:18:07.987Z</time></trkpt><trkpt lat="46.004643932579484" lon="9.306251117051138"><ele>633.0</ele><time>2026-04-25T14:18:08.987Z</time></trkpt><trkpt lat="46.00469575323119" lon="9.306127213150287"><ele>633.0</ele><time>2026-04-25T14:18:09.987Z</time></trkpt><trkpt lat="46.0047271996895" lon="9.305982664962038"><ele>629.6</ele><time>2026-04-25T14:18:10.987Z</time></trkpt><trkpt lat="46.004728755493" lon="9.305825847456278"><ele>626.1999999999999</ele><time>2026-04-25T14:18:11.987Z</time></trkpt><trkpt lat="46.00472050340607" lon="9.305667179414524"><ele>622.8</ele><time>2026-04-25T14:18:12.987Z</time></trkpt><trkpt lat="46.00470515044549" lon="9.305513903849896"><ele>619.4</ele><time>2026-04-25T14:18:13.987Z</time></trkpt><trkpt lat="46.00468365873921" lon="9.30537579905331"><ele>616.0</ele><time>2026-04-25T14:18:14.987Z</time></trkpt><trkpt lat="46.004641817992486" lon="9.305263455742903"><ele>614.0</ele><time>2026-04-25T14:18:15.987Z</time></trkpt><trkpt lat="46.00459767673013" lon="9.305164447819848"><ele>612.0</ele><time>2026-04-25T14:18:16.987Z</time></trkpt><trkpt lat="46.004559199846746" lon="9.305072518288116"><ele>610.0</ele><time>2026-04-25T14:18:17.987Z</time></trkpt><trkpt lat="46.00454795190716" lon="9.304947237955908"><ele>608.0</ele><time>2026-04-25T14:18:18.987Z</time></trkpt><trkpt lat="46.004580500604575" lon="9.30484086933673"><ele>606.0</ele><time>2026-04-25T14:18:19.987Z</time></trkpt><trkpt lat="46.004644711689515" lon="9.304767757463019"><ele>604.0</ele><time>2026-04-25T14:18:20.987Z</time></trkpt><trkpt lat="46.0047228055227" lon="9.304727784321198"><ele>600.2</ele><time>2026-04-25T14:18:21.987Z</time></trkpt><trkpt lat="46.00480439287882" lon="9.304702920557348"><ele>596.4</ele><time>2026-04-25T14:18:22.988Z</time></trkpt><trkpt lat="46.00489622435716" lon="9.304672701970128"><ele>592.6</ele><time>2026-04-25T14:18:23.988Z</time></trkpt><trkpt lat="46.004990893805505" lon="9.304638349073404"><ele>588.8</ele><time>2026-04-25T14:18:24.988Z</time></trkpt><trkpt lat="46.00509624561548" lon="9.304616899312157"><ele>585.0</ele><time>2026-04-25T14:18:25.988Z</time></trkpt><trkpt lat="46.00520426895981" lon="9.304608001866532"><ele>594.8</ele><time>2026-04-25T14:18:26.988Z</time></trkpt><trkpt lat="46.005298155407694" lon="9.304611567840618"><ele>604.6</ele><time>2026-04-25T14:18:27.988Z</time></trkpt><trkpt lat="46.005384926976454" lon="9.304602353439957"><ele>614.4</ele><time>2026-04-25T14:18:28.988Z</time></trkpt><trkpt lat="46.005472674029775" lon="9.304555354557058"><ele>624.2</ele><time>2026-04-25T14:18:29.988Z</time></trkpt><trkpt lat="46.00556569988753" lon="9.304458841791917"><ele>634.0</ele><time>2026-04-25T14:18:30.988Z</time></trkpt><trkpt lat="46.005660202896465" lon="9.304343533213869"><ele>634.0</ele><time>2026-04-25T14:18:31.988Z</time></trkpt><trkpt lat="46.00573010523284" lon="9.304228737835613"><ele>634.0</ele><time>2026-04-25T14:18:32.988Z</time></trkpt><trkpt lat="46.00578364748618" lon="9.304109914229366"><ele>634.0</ele><time>2026-04-25T14:18:33.988Z</time></trkpt><trkpt lat="46.00584246021389" lon="9.304016367576143"><ele>634.0</ele><time>2026-04-25T14:18:34.988Z</time></trkpt><trkpt lat="46.005902778345884" lon="9.303940860306101"><ele>634.0</ele><time>2026-04-25T14:18:35.988Z</time></trkpt><trkpt lat="46.00597870777663" lon="9.303917648457894"><ele>637.0</ele><time>2026-04-25T14:18:36.988Z</time></trkpt><trkpt lat="46.00605308367082" lon="9.303929152288129"><ele>640.0</ele><time>2026-04-25T14:18:37.988Z</time></trkpt><trkpt lat="46.006128905476544" lon="9.303969745370463"><ele>643.0</ele><time>2026-04-25T14:18:38.988Z</time></trkpt><trkpt lat="46.0062122121695" lon="9.30401839576364"><ele>646.0</ele><time>2026-04-25T14:18:39.988Z</time></trkpt><trkpt lat="46.00630812434376" lon="9.304078853665484"><ele>649.0</ele><time>2026-04-25T14:18:40.988Z</time></trkpt><trkpt lat="46.00640444377452" lon="9.30414753060179"><ele>649.0</ele><time>2026-04-25T14:18:41.988Z</time></trkpt><trkpt lat="46.00649704077438" lon="9.30421548648348"><ele>649.0</ele><time>2026-04-25T14:18:42.988Z</time></trkpt><trkpt lat="46.00658875178413" lon="9.30428007324673"><ele>649.0</ele><time>2026-04-25T14:18:43.988Z</time></trkpt><trkpt lat="46.00668918271151" lon="9.304320309298383"><ele>649.0</ele><time>2026-04-25T14:18:44.988Z</time></trkpt><trkpt lat="46.00678764427742" lon="9.30435459090494"><ele>649.0</ele><time>2026-04-25T14:18:45.988Z</time></trkpt><trkpt lat="46.00688980668515" lon="9.304377783545272"><ele>647.8000000000001</ele><time>2026-04-25T14:18:46.988Z</time></trkpt><trkpt lat="46.00698717091611" lon="9.304396668264287"><ele>646.6</ele><time>2026-04-25T14:18:47.988Z</time></trkpt><trkpt lat="46.00708612295776" lon="9.304411886795009"><ele>645.4</ele><time>2026-04-25T14:18:48.988Z</time></trkpt><trkpt lat="46.00717562072096" lon="9.304432090819246"><ele>644.2</ele><time>2026-04-25T14:18:49.988Z</time></trkpt><trkpt lat="46.00726839180233" lon="9.304479429928733"><ele>643.0</ele><time>2026-04-25T14:18:50.988Z</time></trkpt><trkpt lat="46.00736500533795" lon="9.304536978537337"><ele>643.0</ele><time>2026-04-25T14:18:51.988Z</time></trkpt><trkpt lat="46.00746776129553" lon="9.304617527306807"><ele>643.0</ele><time>2026-04-25T14:18:52.988Z</time></trkpt><trkpt lat="46.00757267536111" lon="9.304715599312683"><ele>643.0</ele><time>2026-04-25T14:18:53.988Z</time></trkpt><trkpt lat="46.007664372508714" lon="9.304805058519502"><ele>643.0</ele><time>2026-04-25T14:18:54.988Z</time></trkpt><trkpt lat="46.00775339149009" lon="9.304886085307501"><ele>646.0</ele><time>2026-04-25T14:18:55.988Z</time></trkpt><trkpt lat="46.007829627683655" lon="9.30494151022045"><ele>649.0</ele><time>2026-04-25T14:18:56.988Z</time></trkpt><trkpt lat="46.00791360471761" lon="9.304967023849516"><ele>652.0</ele><time>2026-04-25T14:18:57.988Z</time></trkpt><trkpt lat="46.00799703445175" lon="9.30494708506977"><ele>655.0</ele><time>2026-04-25T14:18:58.988Z</time></trkpt><trkpt lat="46.008086261646305" lon="9.304911108680594"><ele>658.0</ele><time>2026-04-25T14:18:59.988Z</time></trkpt><trkpt lat="46.00816699786198" lon="9.304858656601363"><ele>661.0</ele><time>2026-04-25T14:19:00.988Z</time></trkpt><trkpt lat="46.00825243322763" lon="9.304811873644182"><ele>658.0</ele><time>2026-04-25T14:19:01.989Z</time></trkpt><trkpt lat="46.008326893210935" lon="9.304791573931334"><ele>655.0</ele><time>2026-04-25T14:19:02.989Z</time></trkpt><trkpt lat="46.00840619424946" lon="9.304811250529387"><ele>652.0</ele><time>2026-04-25T14:19:03.989Z</time></trkpt><trkpt lat="46.00848165871435" lon="9.304855707728862"><ele>649.0</ele><time>2026-04-25T14:19:04.989Z</time></trkpt><trkpt lat="46.00854382221202" lon="9.304911935532884"><ele>646.0</ele><time>2026-04-25T14:19:05.989Z</time></trkpt><trkpt lat="46.008611633641735" lon="9.304944968153444"><ele>643.0</ele><time>2026-04-25T14:19:06.989Z</time></trkpt><trkpt lat="46.00867969782438" lon="9.304914919522782"><ele>643.0</ele><time>2026-04-25T14:19:07.989Z</time></trkpt><trkpt lat="46.00873939642264" lon="9.3048310697162"><ele>643.0</ele><time>2026-04-25T14:19:08.989Z</time></trkpt><trkpt lat="46.00875717613413" lon="9.304709420866269"><ele>643.0</ele><time>2026-04-25T14:19:09.989Z</time></trkpt><trkpt lat="46.00875447379244" lon="9.304580934215092"><ele>643.0</ele><time>2026-04-25T14:19:10.989Z</time></trkpt><trkpt lat="46.008756440890856" lon="9.30445946779086"><ele>643.0</ele><time>2026-04-25T14:19:11.989Z</time></trkpt><trkpt lat="46.00879825945934" lon="9.304345264106075"><ele>643.0</ele><time>2026-04-25T14:19:12.989Z</time></trkpt><trkpt lat="46.008872639121044" lon="9.304238621315877"><ele>640.4</ele><time>2026-04-25T14:19:13.989Z</time></trkpt><trkpt lat="46.0089582239944" lon="9.304184941627003"><ele>637.8</ele><time>2026-04-25T14:19:14.987Z</time></trkpt><trkpt lat="46.00906460311497" lon="9.304149598174597"><ele>635.2</ele><time>2026-04-25T14:19:15.987Z</time></trkpt><trkpt lat="46.00917457624366" lon="9.30411762684147"><ele>632.6</ele><time>2026-04-25T14:19:16.987Z</time></trkpt><trkpt lat="46.009304083849486" lon="9.304123390071029"><ele>630.0</ele><time>2026-04-25T14:19:17.987Z</time></trkpt><trkpt lat="46.00941870968697" lon="9.304062748859339"><ele>630.0</ele><time>2026-04-25T14:19:18.987Z</time></trkpt><trkpt lat="46.009521424700715" lon="9.304006211057956"><ele>630.0</ele><time>2026-04-25T14:19:19.987Z</time></trkpt><trkpt lat="46.00961172181579" lon="9.303949617882841"><ele>630.0</ele><time>2026-04-25T14:19:20.987Z</time></trkpt><trkpt lat="46.00969271555244" lon="9.303875983703678"><ele>630.0</ele><time>2026-04-25T14:19:21.986Z</time></trkpt><trkpt lat="46.00975607055226" lon="9.303756220187873"><ele>630.0</ele><time>2026-04-25T14:19:22.986Z</time></trkpt><trkpt lat="46.00977398362833" lon="9.303602137487005"><ele>624.6</ele><time>2026-04-25T14:19:23.987Z</time></trkpt><trkpt lat="46.00977861734573" lon="9.30344420674461"><ele>619.2</ele><time>2026-04-25T14:19:24.986Z</time></trkpt><trkpt lat="46.009764783757994" lon="9.303274861058913"><ele>613.8</ele><time>2026-04-25T14:19:25.986Z</time></trkpt><trkpt lat="46.00973543540757" lon="9.303119358096323"><ele>608.4</ele><time>2026-04-25T14:19:26.987Z</time></trkpt><trkpt lat="46.009726293089095" lon="9.30297667668344"><ele>603.0</ele><time>2026-04-25T14:19:27.987Z</time></trkpt><trkpt lat="46.00973794314743" lon="9.302848015536131"><ele>605.0</ele><time>2026-04-25T14:19:28.987Z</time></trkpt><trkpt lat="46.00973855079684" lon="9.30274067373365"><ele>607.0</ele><time>2026-04-25T14:19:29.987Z</time></trkpt><trkpt lat="46.009749916239805" lon="9.302640162004694"><ele>609.0</ele><time>2026-04-25T14:19:30.987Z</time></trkpt><trkpt lat="46.00981398865837" lon="9.302533343451325"><ele>611.0</ele><time>2026-04-25T14:19:32.987Z</time></trkpt><trkpt lat="46.009875123274085" lon="9.30249323973271"><ele>613.0</ele><time>2026-04-25T14:19:33.987Z</time></trkpt><trkpt lat="46.00994147855844" lon="9.302437428685325"><ele>615.0</ele><time>2026-04-25T14:19:34.987Z</time></trkpt><trkpt lat="46.01002903854193" lon="9.302426195556901"><ele>615.0</ele><time>2026-04-25T14:19:35.987Z</time></trkpt><trkpt lat="46.01010691241776" lon="9.302395262076217"><ele>615.0</ele><time>2026-04-25T14:19:36.987Z</time></trkpt><trkpt lat="46.01018509255592" lon="9.302351064172925"><ele>615.0</ele><time>2026-04-25T14:19:37.987Z</time></trkpt><trkpt lat="46.010252004556044" lon="9.302271981105749"><ele>615.0</ele><time>2026-04-25T14:19:38.987Z</time></trkpt><trkpt lat="46.010297040825755" lon="9.302164711719442"><ele>615.0</ele><time>2026-04-25T14:19:39.987Z</time></trkpt><trkpt lat="46.01032435094575" lon="9.302047817072387"><ele>615.0</ele><time>2026-04-25T14:19:40.987Z</time></trkpt><trkpt lat="46.010344647032845" lon="9.301937252915565"><ele>610.6666666666666</ele><time>2026-04-25T14:19:41.987Z</time></trkpt><trkpt lat="46.01035962037621" lon="9.301820007756342"><ele>606.3333333333334</ele><time>2026-04-25T14:19:42.987Z</time></trkpt><trkpt lat="46.010373195630734" lon="9.301695052385917"><ele>602.0</ele><time>2026-04-25T14:19:43.987Z</time></trkpt><trkpt lat="46.01038527708186" lon="9.301575811624707"><ele>597.6666666666667</ele><time>2026-04-25T14:19:44.987Z</time></trkpt><trkpt lat="46.01040069166044" lon="9.301448571535193"><ele>593.3333333333334</ele><time>2026-04-25T14:19:45.987Z</time></trkpt><trkpt lat="46.0104241968708" lon="9.30131251411442"><ele>589.0</ele><time>2026-04-25T14:19:46.987Z</time></trkpt><trkpt lat="46.010456826601576" lon="9.301188514520918"><ele>583.6666666666667</ele><time>2026-04-25T14:19:47.987Z</time></trkpt><trkpt lat="46.010492300860605" lon="9.30106976761841"><ele>578.3333333333334</ele><time>2026-04-25T14:19:48.987Z</time></trkpt><trkpt lat="46.01052357753589" lon="9.300957291067201"><ele>573.0</ele><time>2026-04-25T14:19:49.987Z</time></trkpt><trkpt lat="46.01053049670731" lon="9.300840727322495"><ele>567.6666666666666</ele><time>2026-04-25T14:19:50.987Z</time></trkpt><trkpt lat="46.01055637813698" lon="9.300740917004617"><ele>562.3333333333333</ele><time>2026-04-25T14:19:51.987Z</time></trkpt><trkpt lat="46.01059483016343" lon="9.300619254158526"><ele>557.0</ele><time>2026-04-25T14:19:53.987Z</time></trkpt><trkpt lat="46.01059552482188" lon="9.300515629384044"><ele>553.1428571428571</ele><time>2026-04-25T14:19:55.988Z</time></trkpt><trkpt lat="46.01057477192472" lon="9.30042233349315"><ele>549.2857142857142</ele><time>2026-04-25T14:19:57.988Z</time></trkpt><trkpt lat="46.01053309917487" lon="9.3003338707668"><ele>545.4285714285713</ele><time>2026-04-25T14:20:00.988Z</time></trkpt><trkpt lat="46.010575559226055" lon="9.300251699429204"><ele>541.5714285714286</ele><time>2026-04-25T14:20:38.989Z</time></trkpt><trkpt lat="46.010533038520144" lon="9.300134656312268"><ele>537.7142857142857</ele><time>2026-04-25T14:20:43.989Z</time></trkpt><trkpt lat="46.01052579632866" lon="9.300232333323477"><ele>533.8571428571428</ele><time>2026-04-25T14:22:05.989Z</time></trkpt><trkpt lat="46.010462129926324" lon="9.30024033359978"><ele>530.0</ele><time>2026-04-25T14:22:57.99Z</time></trkpt><trkpt lat="46.01052685797716" lon="9.300241274463389"><ele>530.0</ele><time>2026-04-25T14:23:59.989Z</time></trkpt><trkpt lat="46.01059248158145" lon="9.300237155755742"><ele>530.0</ele><time>2026-04-25T14:24:07.989Z</time></trkpt><trkpt lat="46.010695334767334" lon="9.300244186566504"><ele>530.0</ele><time>2026-04-25T14:24:09.989Z</time></trkpt><trkpt lat="46.01075826677741" lon="9.300248813423122"><ele>530.0</ele><time>2026-04-25T14:24:10.989Z</time></trkpt><trkpt lat="46.01083969144608" lon="9.300275611942828"><ele>530.0</ele><time>2026-04-25T14:24:11.989Z</time></trkpt><trkpt lat="46.0109195919836" lon="9.300311729748383"><ele>530.0</ele><time>2026-04-25T14:24:12.989Z</time></trkpt><trkpt lat="46.0109985107597" lon="9.300370240446181"><ele>537.8333333333333</ele><time>2026-04-25T14:24:13.989Z</time></trkpt><trkpt lat="46.011076844066835" lon="9.300414076980466"><ele>545.6666666666666</ele><time>2026-04-25T14:24:14.989Z</time></trkpt><trkpt lat="46.01115304232778" lon="9.30046585118548"><ele>553.5</ele><time>2026-04-25T14:24:15.989Z</time></trkpt><trkpt lat="46.011220252347556" lon="9.300519748185476"><ele>561.3333333333334</ele><time>2026-04-25T14:24:16.989Z</time></trkpt><trkpt lat="46.01128058452031" lon="9.300571640743735"><ele>569.1666666666667</ele><time>2026-04-25T14:24:17.989Z</time></trkpt><trkpt lat="46.01134473336" lon="9.30062840154797"><ele>577.0</ele><time>2026-04-25T14:24:18.989Z</time></trkpt><trkpt lat="46.01141007136022" lon="9.30068621462342"><ele>581.1666666666667</ele><time>2026-04-25T14:24:19.989Z</time></trkpt><trkpt lat="46.01147412240706" lon="9.300731583477631"><ele>585.3333333333334</ele><time>2026-04-25T14:24:20.989Z</time></trkpt><trkpt lat="46.01153630356197" lon="9.300799214008864"><ele>589.5</ele><time>2026-04-25T14:24:21.989Z</time></trkpt><trkpt lat="46.011620906750906" lon="9.300850400358348"><ele>593.6666666666666</ele><time>2026-04-25T14:24:22.989Z</time></trkpt><trkpt lat="46.01170534369942" lon="9.300902419840392"><ele>597.8333333333333</ele><time>2026-04-25T14:24:23.989Z</time></trkpt><trkpt lat="46.011797035855096" lon="9.30095860157725"><ele>602.0</ele><time>2026-04-25T14:24:24.989Z</time></trkpt><trkpt lat="46.011886976642415" lon="9.30101497952202"><ele>602.0</ele><time>2026-04-25T14:24:25.989Z</time></trkpt><trkpt lat="46.01197164306717" lon="9.301076699251059"><ele>602.0</ele><time>2026-04-25T14:24:26.989Z</time></trkpt><trkpt lat="46.01204600734896" lon="9.30115165466926"><ele>602.0</ele><time>2026-04-25T14:24:27.99Z</time></trkpt><trkpt lat="46.01212806872379" lon="9.301236784021608"><ele>602.0</ele><time>2026-04-25T14:24:28.99Z</time></trkpt><trkpt lat="46.01219891105027" lon="9.301335258622501"><ele>602.0</ele><time>2026-04-25T14:24:29.99Z</time></trkpt><trkpt lat="46.012282982208376" lon="9.301436556242548"><ele>604.5</ele><time>2026-04-25T14:24:30.99Z</time></trkpt><trkpt lat="46.01235434636122" lon="9.301549580282254"><ele>607.0</ele><time>2026-04-25T14:24:31.99Z</time></trkpt><trkpt lat="46.01243208613105" lon="9.301672958224257"><ele>609.5</ele><time>2026-04-25T14:24:32.99Z</time></trkpt><trkpt lat="46.01250310214886" lon="9.301810536359895"><ele>612.0</ele><time>2026-04-25T14:24:33.99Z</time></trkpt><trkpt lat="46.01257172423901" lon="9.301950426726386"><ele>612.0</ele><time>2026-04-25T14:24:34.99Z</time></trkpt><trkpt lat="46.01263918342123" lon="9.302078512461296"><ele>612.0</ele><time>2026-04-25T14:24:35.99Z</time></trkpt><trkpt lat="46.01271535595745" lon="9.302199367799957"><ele>612.0</ele><time>2026-04-25T14:24:36.99Z</time></trkpt><trkpt lat="46.01278861647572" lon="9.302310881200329"><ele>612.0</ele><time>2026-04-25T14:24:37.99Z</time></trkpt><trkpt lat="46.012849137854225" lon="9.302404209638258"><ele>612.0</ele><time>2026-04-25T14:24:38.99Z</time></trkpt><trkpt lat="46.01289272100611" lon="9.302523868425732"><ele>610.2</ele><time>2026-04-25T14:24:39.99Z</time></trkpt><trkpt lat="46.012959309073764" lon="9.30258962504647"><ele>608.4000000000001</ele><time>2026-04-25T14:24:40.99Z</time></trkpt><trkpt lat="46.01305635898564" lon="9.30262765520701"><ele>606.5999999999999</ele><time>2026-04-25T14:24:41.99Z</time></trkpt><trkpt lat="46.013154982099714" lon="9.302612146547736"><ele>604.8</ele><time>2026-04-25T14:24:42.99Z</time></trkpt><trkpt lat="46.013281219332754" lon="9.302500417409629"><ele>603.0</ele><time>2026-04-25T14:24:43.99Z</time></trkpt><trkpt lat="46.01338320131475" lon="9.302384206541578"><ele>595.4</ele><time>2026-04-25T14:24:44.99Z</time></trkpt><trkpt lat="46.01345592151614" lon="9.302230168868677"><ele>587.8</ele><time>2026-04-25T14:24:45.99Z</time></trkpt><trkpt lat="46.0135161795941" lon="9.302122634513355"><ele>580.2</ele><time>2026-04-25T14:24:46.99Z</time></trkpt><trkpt lat="46.0135903667444" lon="9.302037249198529"><ele>572.6</ele><time>2026-04-25T14:24:47.99Z</time></trkpt><trkpt lat="46.01366740796742" lon="9.301975947143031"><ele>565.0</ele><time>2026-04-25T14:24:48.99Z</time></trkpt><trkpt lat="46.01375958962318" lon="9.301905901317241"><ele>565.0</ele><time>2026-04-25T14:24:49.99Z</time></trkpt><trkpt lat="46.01385905808069" lon="9.301815460351502"><ele>565.0</ele><time>2026-04-25T14:24:50.99Z</time></trkpt><trkpt lat="46.01394788617987" lon="9.301714580614556"><ele>565.0</ele><time>2026-04-25T14:24:51.99Z</time></trkpt><trkpt lat="46.014030251442854" lon="9.301594571431403"><ele>565.0</ele><time>2026-04-25T14:24:52.99Z</time></trkpt><trkpt lat="46.01410822698244" lon="9.301472236808877"><ele>563.5</ele><time>2026-04-25T14:24:53.99Z</time></trkpt><trkpt lat="46.01419134558734" lon="9.301367707514618"><ele>562.0</ele><time>2026-04-25T14:24:54.99Z</time></trkpt><trkpt lat="46.01427143877834" lon="9.301249004475471"><ele>560.5</ele><time>2026-04-25T14:24:55.99Z</time></trkpt><trkpt lat="46.01433831862532" lon="9.30111220634065"><ele>559.0</ele><time>2026-04-25T14:24:56.99Z</time></trkpt><trkpt lat="46.01441472109854" lon="9.301000580175865"><ele>559.0</ele><time>2026-04-25T14:24:57.99Z</time></trkpt><trkpt lat="46.01449196784832" lon="9.30089942676445"><ele>559.0</ele><time>2026-04-25T14:24:58.99Z</time></trkpt><trkpt lat="46.01456805178554" lon="9.300783881047026"><ele>559.0</ele><time>2026-04-25T14:24:59.99Z</time></trkpt><trkpt lat="46.01466256555136" lon="9.300693667384065"><ele>559.0</ele><time>2026-04-25T14:25:00.99Z</time></trkpt><trkpt lat="46.01474767743613" lon="9.300580796090754"><ele>559.0</ele><time>2026-04-25T14:25:01.99Z</time></trkpt><trkpt lat="46.01483111167109" lon="9.300468513222187"><ele>559.25</ele><time>2026-04-25T14:25:02.99Z</time></trkpt><trkpt lat="46.01492259346342" lon="9.300361049029636"><ele>559.5</ele><time>2026-04-25T14:25:03.99Z</time></trkpt><trkpt lat="46.015014976005965" lon="9.300267131005082"><ele>559.75</ele><time>2026-04-25T14:25:04.99Z</time></trkpt><trkpt lat="46.015092104432206" lon="9.300145020273716"><ele>560.0</ele><time>2026-04-25T14:25:05.99Z</time></trkpt><trkpt lat="46.015169456237615" lon="9.300030460102153"><ele>560.0</ele><time>2026-04-25T14:25:06.99Z</time></trkpt><trkpt lat="46.015233328840345" lon="9.299896485585267"><ele>560.0</ele><time>2026-04-25T14:25:07.991Z</time></trkpt><trkpt lat="46.015299740797914" lon="9.299766011560804"><ele>560.0</ele><time>2026-04-25T14:25:08.991Z</time></trkpt><trkpt lat="46.015356372574374" lon="9.299633334499552"><ele>560.0</ele><time>2026-04-25T14:25:09.991Z</time></trkpt><trkpt lat="46.015427129726284" lon="9.299517498796128"><ele>560.0</ele><time>2026-04-25T14:25:10.991Z</time></trkpt><trkpt lat="46.015486918073364" lon="9.299397117638225"><ele>557.0</ele><time>2026-04-25T14:25:11.991Z</time></trkpt><trkpt lat="46.015547901376856" lon="9.299275450635438"><ele>554.0</ele><time>2026-04-25T14:25:12.991Z</time></trkpt><trkpt lat="46.01560823032594" lon="9.29915508903969"><ele>551.0</ele><time>2026-04-25T14:25:13.991Z</time></trkpt><trkpt lat="46.01567482172967" lon="9.299027902996485"><ele>548.0</ele><time>2026-04-25T14:25:14.991Z</time></trkpt><trkpt lat="46.015743382803834" lon="9.298894963812682"><ele>545.0</ele><time>2026-04-25T14:25:15.991Z</time></trkpt><trkpt lat="46.015836872654255" lon="9.298790844584497"><ele>545.0</ele><time>2026-04-25T14:25:16.991Z</time></trkpt><trkpt lat="46.01593676200622" lon="9.298705354562403"><ele>545.0</ele><time>2026-04-25T14:25:17.991Z</time></trkpt><trkpt lat="46.01603924884133" lon="9.298619428702944"><ele>545.0</ele><time>2026-04-25T14:25:18.991Z</time></trkpt><trkpt lat="46.016132045155416" lon="9.298536103685871"><ele>545.0</ele><time>2026-04-25T14:25:19.991Z</time></trkpt><trkpt lat="46.01621655513137" lon="9.298446297336422"><ele>545.0</ele><time>2026-04-25T14:25:20.991Z</time></trkpt><trkpt lat="46.01629210637286" lon="9.298350281927686"><ele>545.0</ele><time>2026-04-25T14:25:21.991Z</time></trkpt><trkpt lat="46.01636369368303" lon="9.298252067731081"><ele>545.0</ele><time>2026-04-25T14:25:22.991Z</time></trkpt><trkpt lat="46.01642851150022" lon="9.298153386125433"><ele>545.0</ele><time>2026-04-25T14:25:23.991Z</time></trkpt><trkpt lat="46.01649247578519" lon="9.298040711387529"><ele>545.0</ele><time>2026-04-25T14:25:24.991Z</time></trkpt><trkpt lat="46.01655572745188" lon="9.297934594198383"><ele>545.0</ele><time>2026-04-25T14:25:25.991Z</time></trkpt><trkpt lat="46.01662391011824" lon="9.297831140325192"><ele>545.0</ele><time>2026-04-25T14:25:26.991Z</time></trkpt><trkpt lat="46.01668962732317" lon="9.297709859905202"><ele>545.0</ele><time>2026-04-25T14:25:27.991Z</time></trkpt><trkpt lat="46.01674846513124" lon="9.297575110913282"><ele>545.0</ele><time>2026-04-25T14:25:28.991Z</time></trkpt><trkpt lat="46.016808761030894" lon="9.297430402502897"><ele>545.0</ele><time>2026-04-25T14:25:29.991Z</time></trkpt><trkpt lat="46.01686427206487" lon="9.297286612266788"><ele>545.0</ele><time>2026-04-25T14:25:30.991Z</time></trkpt><trkpt lat="46.01691015863766" lon="9.297141626997304"><ele>542.5</ele><time>2026-04-25T14:25:31.99Z</time></trkpt><trkpt lat="46.01695176356831" lon="9.296999249200924"><ele>540.0</ele><time>2026-04-25T14:25:32.99Z</time></trkpt><trkpt lat="46.01698965898688" lon="9.296866899740293"><ele>537.5</ele><time>2026-04-25T14:25:33.99Z</time></trkpt><trkpt lat="46.017027088801086" lon="9.296757557055898"><ele>535.0</ele><time>2026-04-25T14:25:34.99Z</time></trkpt><trkpt lat="46.01706865405097" lon="9.296663284528062"><ele>532.5</ele><time>2026-04-25T14:25:35.989Z</time></trkpt><trkpt lat="46.01712355051164" lon="9.296591897990952"><ele>530.0</ele><time>2026-04-25T14:25:36.989Z</time></trkpt><trkpt lat="46.017168906350854" lon="9.296528054266174"><ele>530.0</ele><time>2026-04-25T14:25:37.989Z</time></trkpt><trkpt lat="46.01724015360658" lon="9.296408006062922"><ele>530.0</ele><time>2026-04-25T14:25:39.989Z</time></trkpt><trkpt lat="46.01719488152159" lon="9.29629958659118"><ele>530.0</ele><time>2026-04-25T14:25:41.99Z</time></trkpt><trkpt lat="46.017012383189865" lon="9.296331123852363"><ele>530.0</ele><time>2026-04-25T14:25:43.99Z</time></trkpt><trkpt lat="46.0169677545054" lon="9.29645160919431"><ele>530.0</ele><time>2026-04-25T14:25:44.99Z</time></trkpt><trkpt lat="46.016917810458985" lon="9.296547260135021"><ele>530.0</ele><time>2026-04-25T14:25:45.99Z</time></trkpt><trkpt lat="46.01686170649853" lon="9.296661051979408"><ele>530.0</ele><time>2026-04-25T14:25:46.99Z</time></trkpt><trkpt lat="46.01679502398684" lon="9.296751443446027"><ele>530.0</ele><time>2026-04-25T14:25:47.99Z</time></trkpt><trkpt lat="46.01672566897268" lon="9.296847023140284"><ele>530.0</ele><time>2026-04-25T14:25:48.99Z</time></trkpt><trkpt lat="46.016666116765954" lon="9.29693066878784"><ele>524.0</ele><time>2026-04-25T14:25:49.99Z</time></trkpt><trkpt lat="46.01660325112849" lon="9.2969624637546"><ele>518.0</ele><time>2026-04-25T14:25:50.99Z</time></trkpt><trkpt lat="46.01653946594225" lon="9.297003850050528"><ele>512.0</ele><time>2026-04-25T14:25:51.99Z</time></trkpt><trkpt lat="46.01645883209462" lon="9.296942112575522"><ele>506.0</ele><time>2026-04-25T14:25:52.99Z</time></trkpt><trkpt lat="46.01638677394081" lon="9.29690821127356"><ele>499.99999999999994</ele><time>2026-04-25T14:25:53.99Z</time></trkpt><trkpt lat="46.016317544726824" lon="9.29689602943676"><ele>494.0</ele><time>2026-04-25T14:25:54.99Z</time></trkpt><trkpt lat="46.01621701572796" lon="9.296900778232297"><ele>494.0</ele><time>2026-04-25T14:25:56.99Z</time></trkpt><trkpt lat="46.016174202085274" lon="9.296800560824074"><ele>494.0</ele><time>2026-04-25T14:25:58.99Z</time></trkpt><trkpt lat="46.01627615931334" lon="9.296697744458601"><ele>494.0</ele><time>2026-04-25T14:26:00.99Z</time></trkpt><trkpt lat="46.016406399681365" lon="9.296766263434264"><ele>494.0</ele><time>2026-04-25T14:26:02.99Z</time></trkpt><trkpt lat="46.01648834659011" lon="9.29675843431162"><ele>494.0</ele><time>2026-04-25T14:26:03.99Z</time></trkpt><trkpt lat="46.01655037603599" lon="9.296740290815436"><ele>494.0</ele><time>2026-04-25T14:26:04.99Z</time></trkpt><trkpt lat="46.016619865336864" lon="9.296662076107664"><ele>494.0</ele><time>2026-04-25T14:26:05.99Z</time></trkpt><trkpt lat="46.016680451810046" lon="9.296561536445722"><ele>494.0</ele><time>2026-04-25T14:26:06.99Z</time></trkpt><trkpt lat="46.016726000315884" lon="9.296423825787203"><ele>494.0</ele><time>2026-04-25T14:26:07.99Z</time></trkpt><trkpt lat="46.016786736556064" lon="9.296284722605545"><ele>494.0</ele><time>2026-04-25T14:26:08.99Z</time></trkpt><trkpt lat="46.01682247152599" lon="9.296176002969583"><ele>496.79999999999995</ele><time>2026-04-25T14:26:09.991Z</time></trkpt><trkpt lat="46.01686828404689" lon="9.296064275317708"><ele>499.59999999999997</ele><time>2026-04-25T14:26:10.991Z</time></trkpt><trkpt lat="46.01692988841183" lon="9.296005708064994"><ele>502.4</ele><time>2026-04-25T14:26:11.991Z</time></trkpt><trkpt lat="46.01699890593579" lon="9.295880567480152"><ele>505.2</ele><time>2026-04-25T14:26:13.991Z</time></trkpt><trkpt lat="46.016921916769725" lon="9.295771119973326"><ele>508.0</ele><time>2026-04-25T14:26:15.991Z</time></trkpt><trkpt lat="46.01685337073801" lon="9.29576126032013"><ele>508.00000000000006</ele><time>2026-04-25T14:26:16.991Z</time></trkpt><trkpt lat="46.016797189481174" lon="9.295856442816477"><ele>508.0</ele><time>2026-04-25T14:26:17.991Z</time></trkpt><trkpt lat="46.016728016812195" lon="9.295925778344229"><ele>508.0</ele><time>2026-04-25T14:26:18.991Z</time></trkpt><trkpt lat="46.0166658207809" lon="9.296014869439068"><ele>508.0</ele><time>2026-04-25T14:26:19.991Z</time></trkpt><trkpt lat="46.016598878173376" lon="9.29610831295675"><ele>508.00000000000006</ele><time>2026-04-25T14:26:20.991Z</time></trkpt><trkpt lat="46.016544983739955" lon="9.296163512330281"><ele>508.0</ele><time>2026-04-25T14:26:21.991Z</time></trkpt><trkpt lat="46.01641571826018" lon="9.29619559193026"><ele>505.6666666666667</ele><time>2026-04-25T14:26:23.991Z</time></trkpt><trkpt lat="46.01634338926432" lon="9.296184941488846"><ele>503.33333333333337</ele><time>2026-04-25T14:26:24.991Z</time></trkpt><trkpt lat="46.01627051481772" lon="9.296195852377146"><ele>501.0</ele><time>2026-04-25T14:26:25.991Z</time></trkpt><trkpt lat="46.01619059996241" lon="9.296219381781075"><ele>498.66666666666663</ele><time>2026-04-25T14:26:26.991Z</time></trkpt><trkpt lat="46.01611007117891" lon="9.296281998780152"><ele>496.3333333333333</ele><time>2026-04-25T14:26:27.991Z</time></trkpt><trkpt lat="46.016044379679705" lon="9.296345944615013"><ele>494.0</ele><time>2026-04-25T14:26:28.991Z</time></trkpt><trkpt lat="46.01601054828142" lon="9.296472360366733"><ele>494.0</ele><time>2026-04-25T14:26:29.991Z</time></trkpt><trkpt lat="46.01597245725364" lon="9.296574661390602"><ele>494.0</ele><time>2026-04-25T14:26:30.991Z</time></trkpt><trkpt lat="46.01595299871897" lon="9.296722936667265"><ele>494.0</ele><time>2026-04-25T14:26:31.991Z</time></trkpt><trkpt lat="46.015928710711016" lon="9.296861286596501"><ele>494.0</ele><time>2026-04-25T14:26:32.991Z</time></trkpt><trkpt lat="46.01588701221392" lon="9.29696975890569"><ele>494.0</ele><time>2026-04-25T14:26:33.991Z</time></trkpt><trkpt lat="46.015840459003144" lon="9.297070354787623"><ele>491.99999999999994</ele><time>2026-04-25T14:26:34.991Z</time></trkpt><trkpt lat="46.01578912137411" lon="9.297186101099507"><ele>490.0</ele><time>2026-04-25T14:26:35.991Z</time></trkpt><trkpt lat="46.01571746349565" lon="9.297256318483068"><ele>488.0</ele><time>2026-04-25T14:26:36.991Z</time></trkpt><trkpt lat="46.01565254662141" lon="9.297327392674541"><ele>486.0</ele><time>2026-04-25T14:26:37.991Z</time></trkpt><trkpt lat="46.0155868040823" lon="9.29738069657928"><ele>483.99999999999994</ele><time>2026-04-25T14:26:38.991Z</time></trkpt><trkpt lat="46.0155150488063" lon="9.297426168658582"><ele>482.0</ele><time>2026-04-25T14:26:39.991Z</time></trkpt><trkpt lat="46.01544656085743" lon="9.297493124760203"><ele>481.99999999999994</ele><time>2026-04-25T14:26:40.991Z</time></trkpt><trkpt lat="46.01536810716968" lon="9.297532946590875"><ele>482.0</ele><time>2026-04-25T14:26:41.991Z</time></trkpt><trkpt lat="46.01528992774484" lon="9.297592065355136"><ele>482.0</ele><time>2026-04-25T14:26:42.991Z</time></trkpt><trkpt lat="46.01521790317586" lon="9.297646302199416"><ele>482.0</ele><time>2026-04-25T14:26:43.991Z</time></trkpt><trkpt lat="46.0151508517892" lon="9.297692066825796"><ele>481.99999999999994</ele><time>2026-04-25T14:26:44.991Z</time></trkpt><trkpt lat="46.01509319735196" lon="9.297748579951376"><ele>482.0</ele><time>2026-04-25T14:26:45.991Z</time></trkpt><trkpt lat="46.01502934696851" lon="9.297801358929306"><ele>480.49999999999994</ele><time>2026-04-25T14:26:46.991Z</time></trkpt><trkpt lat="46.01497131394134" lon="9.297877867937316"><ele>479.0</ele><time>2026-04-25T14:26:47.991Z</time></trkpt><trkpt lat="46.014907207071154" lon="9.297951945645622"><ele>477.5</ele><time>2026-04-25T14:26:48.992Z</time></trkpt><trkpt lat="46.014850973553564" lon="9.29803810277163"><ele>476.0</ele><time>2026-04-25T14:26:49.992Z</time></trkpt><trkpt lat="46.014767541062206" lon="9.298097505015333"><ele>474.49999999999994</ele><time>2026-04-25T14:26:50.992Z</time></trkpt><trkpt lat="46.01471168582751" lon="9.298197855564098"><ele>473.0</ele><time>2026-04-25T14:26:51.992Z</time></trkpt><trkpt lat="46.01466210370385" lon="9.29829491474029"><ele>472.99999999999994</ele><time>2026-04-25T14:26:52.992Z</time></trkpt><trkpt lat="46.0146134788448" lon="9.298392358796312"><ele>473.0</ele><time>2026-04-25T14:26:53.992Z</time></trkpt><trkpt lat="46.01455875491966" lon="9.298497653361956"><ele>473.0</ele><time>2026-04-25T14:26:54.992Z</time></trkpt><trkpt lat="46.01448627272828" lon="9.298577024749521"><ele>473.0</ele><time>2026-04-25T14:26:55.992Z</time></trkpt><trkpt lat="46.01440874138339" lon="9.298664424399638"><ele>472.99999999999994</ele><time>2026-04-25T14:26:56.992Z</time></trkpt><trkpt lat="46.014340067071565" lon="9.29873464100856"><ele>473.0</ele><time>2026-04-25T14:26:57.992Z</time></trkpt><trkpt lat="46.01427715573607" lon="9.298817207523653"><ele>472.99999999999994</ele><time>2026-04-25T14:26:58.992Z</time></trkpt><trkpt lat="46.01421563046829" lon="9.298912122155933"><ele>473.0</ele><time>2026-04-25T14:26:59.992Z</time></trkpt><trkpt lat="46.01417097158218" lon="9.299046273729651"><ele>473.0</ele><time>2026-04-25T14:27:00.992Z</time></trkpt><trkpt lat="46.0141309812758" lon="9.299147563896529"><ele>473.0</ele><time>2026-04-25T14:27:01.992Z</time></trkpt><trkpt lat="46.01409281324443" lon="9.299241069276722"><ele>472.99999999999994</ele><time>2026-04-25T14:27:02.992Z</time></trkpt><trkpt lat="46.01405811641813" lon="9.299334585785509"><ele>473.0</ele><time>2026-04-25T14:27:03.992Z</time></trkpt><trkpt lat="46.01400099451709" lon="9.299484019784877"><ele>476.16666666666663</ele><time>2026-04-25T14:27:05.992Z</time></trkpt><trkpt lat="46.013938453189866" lon="9.299587132249979"><ele>479.3333333333333</ele><time>2026-04-25T14:27:07.992Z</time></trkpt><trkpt lat="46.01392756051394" lon="9.299482080941797"><ele>482.5</ele><time>2026-04-25T14:27:11.992Z</time></trkpt><trkpt lat="46.01396361714392" lon="9.29939280235042"><ele>485.66666666666663</ele><time>2026-04-25T14:27:12.992Z</time></trkpt><trkpt lat="46.014024159180835" lon="9.299331778213226"><ele>488.8333333333333</ele><time>2026-04-25T14:27:13.992Z</time></trkpt><trkpt lat="46.014066365787166" lon="9.299247385318937"><ele>492.0</ele><time>2026-04-25T14:27:14.992Z</time></trkpt><trkpt lat="46.01411420804376" lon="9.299132406703079"><ele>492.0</ele><time>2026-04-25T14:27:15.992Z</time></trkpt><trkpt lat="46.01414849466776" lon="9.298991621786401"><ele>492.00000000000006</ele><time>2026-04-25T14:27:16.992Z</time></trkpt><trkpt lat="46.01418157829036" lon="9.298843843372621"><ele>492.00000000000006</ele><time>2026-04-25T14:27:17.992Z</time></trkpt><trkpt lat="46.0142121107397" lon="9.298714843533332"><ele>492.0</ele><time>2026-04-25T14:27:18.992Z</time></trkpt><trkpt lat="46.01424725415255" lon="9.298583559715237"><ele>492.0</ele><time>2026-04-25T14:27:19.992Z</time></trkpt><trkpt lat="46.014283043403694" lon="9.298482663730663"><ele>488.20000000000005</ele><time>2026-04-25T14:27:20.992Z</time></trkpt><trkpt lat="46.0143315488555" lon="9.298365686070204"><ele>484.40000000000003</ele><time>2026-04-25T14:27:21.992Z</time></trkpt><trkpt lat="46.01437580543627" lon="9.298233970267907"><ele>480.59999999999997</ele><time>2026-04-25T14:27:22.992Z</time></trkpt><trkpt lat="46.01441537221093" lon="9.298110485166411"><ele>476.79999999999995</ele><time>2026-04-25T14:27:23.992Z</time></trkpt><trkpt lat="46.01444298565742" lon="9.297979105098728"><ele>473.0</ele><time>2026-04-25T14:27:24.992Z</time></trkpt><trkpt lat="46.01446974493811" lon="9.29786557892221"><ele>469.16666666666663</ele><time>2026-04-25T14:27:25.992Z</time></trkpt><trkpt lat="46.01449380083173" lon="9.297755676591919"><ele>465.3333333333333</ele><time>2026-04-25T14:27:26.992Z</time></trkpt><trkpt lat="46.01451544528866" lon="9.297640849278123"><ele>461.5</ele><time>2026-04-25T14:27:27.992Z</time></trkpt><trkpt lat="46.01454708961747" lon="9.297534696815069"><ele>457.66666666666663</ele><time>2026-04-25T14:27:28.993Z</time></trkpt><trkpt lat="46.01458104462327" lon="9.297438662519266"><ele>453.8333333333333</ele><time>2026-04-25T14:27:29.993Z</time></trkpt><trkpt lat="46.014620568540366" lon="9.29733959430927"><ele>450.0</ele><time>2026-04-25T14:27:30.993Z</time></trkpt><trkpt lat="46.014677468100075" lon="9.29725097000704"><ele>451.1666666666667</ele><time>2026-04-25T14:27:31.993Z</time></trkpt><trkpt lat="46.01474308675417" lon="9.29717905339939"><ele>452.33333333333337</ele><time>2026-04-25T14:27:32.993Z</time></trkpt><trkpt lat="46.014814288426514" lon="9.297111497028087"><ele>453.5</ele><time>2026-04-25T14:27:33.993Z</time></trkpt><trkpt lat="46.01489105879627" lon="9.297060089660398"><ele>454.6666666666667</ele><time>2026-04-25T14:27:34.993Z</time></trkpt><trkpt lat="46.01498093224276" lon="9.297038941577558"><ele>455.83333333333337</ele><time>2026-04-25T14:27:35.993Z</time></trkpt><trkpt lat="46.01506455057037" lon="9.296984366553549"><ele>457.0</ele><time>2026-04-25T14:27:36.993Z</time></trkpt><trkpt lat="46.015150536550294" lon="9.29694575511845"><ele>457.0</ele><time>2026-04-25T14:27:37.991Z</time></trkpt><trkpt lat="46.01523537075533" lon="9.296890482711055"><ele>457.00000000000006</ele><time>2026-04-25T14:27:38.991Z</time></trkpt><trkpt lat="46.01530979851103" lon="9.296815600022567"><ele>457.00000000000006</ele><time>2026-04-25T14:27:39.991Z</time></trkpt><trkpt lat="46.01538018247957" lon="9.296731271070437"><ele>457.0</ele><time>2026-04-25T14:27:40.99Z</time></trkpt><trkpt lat="46.01544666719573" lon="9.296622088223888"><ele>457.0</ele><time>2026-04-25T14:27:41.991Z</time></trkpt><trkpt lat="46.015492582298435" lon="9.296499406090412"><ele>452.20000000000005</ele><time>2026-04-25T14:27:42.991Z</time></trkpt><trkpt lat="46.015525779379075" lon="9.296367628732485"><ele>447.40000000000003</ele><time>2026-04-25T14:27:43.991Z</time></trkpt><trkpt lat="46.01557703193383" lon="9.29624999039281"><ele>442.59999999999997</ele><time>2026-04-25T14:27:44.991Z</time></trkpt><trkpt lat="46.01561345434576" lon="9.296099187748833"><ele>437.79999999999995</ele><time>2026-04-25T14:27:45.991Z</time></trkpt><trkpt lat="46.01565368740106" lon="9.295969439583498"><ele>433.0</ele><time>2026-04-25T14:27:46.991Z</time></trkpt><trkpt lat="46.015683790233936" lon="9.295854698705202"><ele>433.00000000000006</ele><time>2026-04-25T14:27:47.991Z</time></trkpt><trkpt lat="46.01572039299849" lon="9.295767430011095"><ele>433.0</ele><time>2026-04-25T14:27:48.991Z</time></trkpt><trkpt lat="46.01576098708811" lon="9.295650543935713"><ele>433.0</ele><time>2026-04-25T14:27:49.99Z</time></trkpt><trkpt lat="46.01579753076062" lon="9.295535649617412"><ele>433.0</ele><time>2026-04-25T14:27:50.99Z</time></trkpt><trkpt lat="46.01583359685156" lon="9.295422697407028"><ele>433.00000000000006</ele><time>2026-04-25T14:27:51.99Z</time></trkpt><trkpt lat="46.01585527217553" lon="9.295283892927044"><ele>433.0</ele><time>2026-04-25T14:27:52.99Z</time></trkpt><trkpt lat="46.01586344378142" lon="9.295155021826996"><ele>432.33333333333337</ele><time>2026-04-25T14:27:53.991Z</time></trkpt><trkpt lat="46.01587171942307" lon="9.295021890475358"><ele>431.6666666666667</ele><time>2026-04-25T14:27:54.991Z</time></trkpt><trkpt lat="46.01588858528217" lon="9.294890086498139"><ele>431.0</ele><time>2026-04-25T14:27:55.991Z</time></trkpt><trkpt lat="46.01593400061915" lon="9.294786525093993"><ele>430.33333333333337</ele><time>2026-04-25T14:27:56.991Z</time></trkpt><trkpt lat="46.01599512271592" lon="9.294706721155368"><ele>429.6666666666667</ele><time>2026-04-25T14:27:57.991Z</time></trkpt><trkpt lat="46.01606419293196" lon="9.294625492962165"><ele>429.0</ele><time>2026-04-25T14:27:58.991Z</time></trkpt><trkpt lat="46.01615030147751" lon="9.294546258474915"><ele>429.0</ele><time>2026-04-25T14:27:59.991Z</time></trkpt><trkpt lat="46.01623638710767" lon="9.29447216979601"><ele>429.0</ele><time>2026-04-25T14:28:00.991Z</time></trkpt><trkpt lat="46.0163170881384" lon="9.294381279299133"><ele>429.0</ele><time>2026-04-25T14:28:01.991Z</time></trkpt><trkpt lat="46.01638553033688" lon="9.294327849310285"><ele>429.0</ele><time>2026-04-25T14:28:02.991Z</time></trkpt><trkpt lat="46.01644347293666" lon="9.294278856958114"><ele>429.0</ele><time>2026-04-25T14:28:03.991Z</time></trkpt><trkpt lat="46.01651126575474" lon="9.294180808804075"><ele>429.0</ele><time>2026-04-25T14:28:05.991Z</time></trkpt><trkpt lat="46.01642618411737" lon="9.2940715482963"><ele>429.0</ele><time>2026-04-25T14:28:07.991Z</time></trkpt><trkpt lat="46.016345409597626" lon="9.294021004557306"><ele>429.0</ele><time>2026-04-25T14:28:08.991Z</time></trkpt><trkpt lat="46.016242007544896" lon="9.294175541609333"><ele>429.0</ele><time>2026-04-25T14:28:09.991Z</time></trkpt><trkpt lat="46.016133577395145" lon="9.294236505759905"><ele>429.0</ele><time>2026-04-25T14:28:10.991Z</time></trkpt><trkpt lat="46.01603542699255" lon="9.294275381494655"><ele>429.0</ele><time>2026-04-25T14:28:11.991Z</time></trkpt><trkpt lat="46.01594647906287" lon="9.294294745703473"><ele>429.0</ele><time>2026-04-25T14:28:12.991Z</time></trkpt><trkpt lat="46.015864817270405" lon="9.294318063373526"><ele>429.0</ele><time>2026-04-25T14:28:13.991Z</time></trkpt><trkpt lat="46.015773367657204" lon="9.294351135073153"><ele>429.0</ele><time>2026-04-25T14:28:14.991Z</time></trkpt><trkpt lat="46.015704490935526" lon="9.294403053578726"><ele>429.0</ele><time>2026-04-25T14:28:15.991Z</time></trkpt><trkpt lat="46.01563823505479" lon="9.294484561303193"><ele>429.0</ele><time>2026-04-25T14:28:16.991Z</time></trkpt><trkpt lat="46.01558151147627" lon="9.294567166231964"><ele>425.6</ele><time>2026-04-25T14:28:17.991Z</time></trkpt><trkpt lat="46.01552102548599" lon="9.294701149837547"><ele>422.2</ele><time>2026-04-25T14:28:18.991Z</time></trkpt><trkpt lat="46.01547371216135" lon="9.29483833384254"><ele>418.8</ele><time>2026-04-25T14:28:19.991Z</time></trkpt><trkpt lat="46.01543292053891" lon="9.294974068509378"><ele>415.40000000000003</ele><time>2026-04-25T14:28:20.991Z</time></trkpt><trkpt lat="46.015390956448066" lon="9.295113230796758"><ele>412.0</ele><time>2026-04-25T14:28:21.991Z</time></trkpt><trkpt lat="46.015344449783704" lon="9.295245968537401"><ele>412.0</ele><time>2026-04-25T14:28:22.991Z</time></trkpt><trkpt lat="46.015289432771105" lon="9.295365873620218"><ele>412.0</ele><time>2026-04-25T14:28:23.991Z</time></trkpt><trkpt lat="46.01522487442951" lon="9.295465610118795"><ele>412.0</ele><time>2026-04-25T14:28:24.991Z</time></trkpt><trkpt lat="46.01515258333556" lon="9.295567757195487"><ele>412.0</ele><time>2026-04-25T14:28:25.991Z</time></trkpt><trkpt lat="46.01507854224365" lon="9.29564233481357"><ele>412.0</ele><time>2026-04-25T14:28:26.991Z</time></trkpt><trkpt lat="46.01499373206745" lon="9.295701193376784"><ele>411.6</ele><time>2026-04-25T14:28:27.991Z</time></trkpt><trkpt lat="46.014904519728006" lon="9.29576999499756"><ele>411.20000000000005</ele><time>2026-04-25T14:28:28.991Z</time></trkpt><trkpt lat="46.01483946939452" lon="9.295865280359873"><ele>410.8</ele><time>2026-04-25T14:28:29.991Z</time></trkpt><trkpt lat="46.01476254541774" lon="9.295936807385402"><ele>410.4</ele><time>2026-04-25T14:28:30.991Z</time></trkpt><trkpt lat="46.0146661196552" lon="9.295980593905254"><ele>410.0</ele><time>2026-04-25T14:28:31.991Z</time></trkpt><trkpt lat="46.01457372057953" lon="9.296039388673574"><ele>410.0</ele><time>2026-04-25T14:28:32.992Z</time></trkpt><trkpt lat="46.01448972051186" lon="9.296114106514809"><ele>410.0</ele><time>2026-04-25T14:28:33.992Z</time></trkpt><trkpt lat="46.01441492821115" lon="9.296203842951652"><ele>410.0</ele><time>2026-04-25T14:28:34.992Z</time></trkpt><trkpt lat="46.01432075479206" lon="9.296252705042347"><ele>410.0</ele><time>2026-04-25T14:28:35.992Z</time></trkpt><trkpt lat="46.01425264783768" lon="9.296330133158655"><ele>410.0</ele><time>2026-04-25T14:28:36.992Z</time></trkpt><trkpt lat="46.01418008013021" lon="9.296408465079105"><ele>410.6</ele><time>2026-04-25T14:28:37.992Z</time></trkpt><trkpt lat="46.014106703517946" lon="9.296481664084194"><ele>411.2</ele><time>2026-04-25T14:28:38.992Z</time></trkpt><trkpt lat="46.01403087402137" lon="9.296561424429239"><ele>411.79999999999995</ele><time>2026-04-25T14:28:39.992Z</time></trkpt><trkpt lat="46.013961965647084" lon="9.296649575417094"><ele>412.4</ele><time>2026-04-25T14:28:40.992Z</time></trkpt><trkpt lat="46.01388589472028" lon="9.296722223560234"><ele>413.0</ele><time>2026-04-25T14:28:41.992Z</time></trkpt><trkpt lat="46.01381463483337" lon="9.296784139714054"><ele>413.0</ele><time>2026-04-25T14:28:42.992Z</time></trkpt><trkpt lat="46.01371317829201" lon="9.29686225244209"><ele>413.0</ele><time>2026-04-25T14:28:44.992Z</time></trkpt><trkpt lat="46.013637358805475" lon="9.296901925466935"><ele>413.0</ele><time>2026-04-25T14:28:46.992Z</time></trkpt><trkpt lat="46.01366875921765" lon="9.296737205118742"><ele>413.0</ele><time>2026-04-25T14:28:49.992Z</time></trkpt><trkpt lat="46.0137315359015" lon="9.296662109350196"><ele>413.0</ele><time>2026-04-25T14:28:50.992Z</time></trkpt><trkpt lat="46.01379807000191" lon="9.29657642111089"><ele>413.0</ele><time>2026-04-25T14:28:51.992Z</time></trkpt><trkpt lat="46.01387089627205" lon="9.296486775588278"><ele>413.0</ele><time>2026-04-25T14:28:52.992Z</time></trkpt><trkpt lat="46.013943304764766" lon="9.296384536900307"><ele>413.0</ele><time>2026-04-25T14:28:53.992Z</time></trkpt><trkpt lat="46.01400534478252" lon="9.29627011942018"><ele>413.0</ele><time>2026-04-25T14:28:54.992Z</time></trkpt><trkpt lat="46.01406693700961" lon="9.296151943469816"><ele>413.0</ele><time>2026-04-25T14:28:55.992Z</time></trkpt><trkpt lat="46.014124743494314" lon="9.296044912805929"><ele>412.4</ele><time>2026-04-25T14:28:56.992Z</time></trkpt><trkpt lat="46.014184565965074" lon="9.295944513903414"><ele>411.79999999999995</ele><time>2026-04-25T14:28:57.992Z</time></trkpt><trkpt lat="46.01424652110659" lon="9.295843205225616"><ele>411.2</ele><time>2026-04-25T14:28:58.992Z</time></trkpt><trkpt lat="46.01431440230316" lon="9.295755920785881"><ele>410.6</ele><time>2026-04-25T14:28:59.992Z</time></trkpt><trkpt lat="46.01438747609009" lon="9.295680653769328"><ele>410.0</ele><time>2026-04-25T14:29:00.992Z</time></trkpt><trkpt lat="46.01446676355376" lon="9.295614835072058"><ele>406.99999999999994</ele><time>2026-04-25T14:29:01.992Z</time></trkpt><trkpt lat="46.01454578161479" lon="9.295557460120094"><ele>404.0</ele><time>2026-04-25T14:29:02.992Z</time></trkpt><trkpt lat="46.014613403552026" lon="9.29549280320291"><ele>401.0</ele><time>2026-04-25T14:29:03.992Z</time></trkpt><trkpt lat="46.014674743804775" lon="9.295412788241725"><ele>398.0</ele><time>2026-04-25T14:29:04.992Z</time></trkpt><trkpt lat="46.014737689168875" lon="9.2953300020656"><ele>394.99999999999994</ele><time>2026-04-25T14:29:05.992Z</time></trkpt><trkpt lat="46.0148000411924" lon="9.295240228458798"><ele>392.0</ele><time>2026-04-25T14:29:06.992Z</time></trkpt><trkpt lat="46.01486449691577" lon="9.295148057829802"><ele>391.99999999999994</ele><time>2026-04-25T14:29:07.992Z</time></trkpt><trkpt lat="46.01492668860168" lon="9.29505228424619"><ele>392.0</ele><time>2026-04-25T14:29:08.992Z</time></trkpt><trkpt lat="46.01498360172001" lon="9.294961881410584"><ele>392.0</ele><time>2026-04-25T14:29:09.992Z</time></trkpt><trkpt lat="46.01503871753981" lon="9.294884910152748"><ele>392.0</ele><time>2026-04-25T14:29:10.992Z</time></trkpt><trkpt lat="46.01509103466486" lon="9.294821164412797"><ele>391.99999999999994</ele><time>2026-04-25T14:29:11.992Z</time></trkpt><trkpt lat="46.015146974874995" lon="9.294681400242608"><ele>392.0</ele><time>2026-04-25T14:29:13.993Z</time></trkpt><trkpt lat="46.01508890983741" lon="9.294564352838574"><ele>392.0</ele><time>2026-04-25T14:29:15.993Z</time></trkpt><trkpt lat="46.01499287582293" lon="9.294579567752365"><ele>392.0</ele><time>2026-04-25T14:29:16.993Z</time></trkpt><trkpt lat="46.0148971316177" lon="9.29465920787292"><ele>392.0</ele><time>2026-04-25T14:29:17.993Z</time></trkpt><trkpt lat="46.014806673279175" lon="9.29473047714692"><ele>392.0</ele><time>2026-04-25T14:29:18.993Z</time></trkpt><trkpt lat="46.01471197936318" lon="9.294806924678515"><ele>392.0</ele><time>2026-04-25T14:29:19.993Z</time></trkpt><trkpt lat="46.014609281663795" lon="9.294889833711373"><ele>392.0</ele><time>2026-04-25T14:29:20.993Z</time></trkpt><trkpt lat="46.01450010900416" lon="9.294986055360281"><ele>392.0</ele><time>2026-04-25T14:29:21.993Z</time></trkpt><trkpt lat="46.01441184397525" lon="9.295100363727533"><ele>392.0</ele><time>2026-04-25T14:29:22.993Z</time></trkpt><trkpt lat="46.01431131978987" lon="9.295168603100981"><ele>392.0</ele><time>2026-04-25T14:29:23.993Z</time></trkpt><trkpt lat="46.01422754532949" lon="9.295245694123684"><ele>390.16666666666663</ele><time>2026-04-25T14:29:24.993Z</time></trkpt><trkpt lat="46.01414706630318" lon="9.295318600160194"><ele>388.3333333333333</ele><time>2026-04-25T14:29:25.993Z</time></trkpt><trkpt lat="46.014071357486145" lon="9.295379104296899"><ele>386.5</ele><time>2026-04-25T14:29:26.993Z</time></trkpt><trkpt lat="46.01401078246228" lon="9.29543176145536"><ele>384.66666666666663</ele><time>2026-04-25T14:29:27.993Z</time></trkpt><trkpt lat="46.013954180078244" lon="9.29547678402678"><ele>382.8333333333333</ele><time>2026-04-25T14:29:28.993Z</time></trkpt><trkpt lat="46.01385901938907" lon="9.295539950570767"><ele>381.0</ele><time>2026-04-25T14:29:30.993Z</time></trkpt><trkpt lat="46.013771399992216" lon="9.295554726405578"><ele>381.0</ele><time>2026-04-25T14:29:32.993Z</time></trkpt><trkpt lat="46.01375630102443" lon="9.295404579379897"><ele>381.0</ele><time>2026-04-25T14:29:34.993Z</time></trkpt><trkpt lat="46.01381441976149" lon="9.29524073391429"><ele>381.0</ele><time>2026-04-25T14:29:36.993Z</time></trkpt><trkpt lat="46.01387269622358" lon="9.295151358778678"><ele>381.0</ele><time>2026-04-25T14:29:37.993Z</time></trkpt><trkpt lat="46.01393167790691" lon="9.295048614594268"><ele>381.0</ele><time>2026-04-25T14:29:38.993Z</time></trkpt><trkpt lat="46.014019087005885" lon="9.294973861443609"><ele>381.0</ele><time>2026-04-25T14:29:39.993Z</time></trkpt><trkpt lat="46.01410989666358" lon="9.294898227564923"><ele>381.0</ele><time>2026-04-25T14:29:40.993Z</time></trkpt><trkpt lat="46.01420404017427" lon="9.294835723821409"><ele>381.0</ele><time>2026-04-25T14:29:41.993Z</time></trkpt><trkpt lat="46.014295590870994" lon="9.294760008810522"><ele>381.0</ele><time>2026-04-25T14:29:42.993Z</time></trkpt><trkpt lat="46.01437555944186" lon="9.294643532565242"><ele>381.0</ele><time>2026-04-25T14:29:43.991Z</time></trkpt><trkpt lat="46.0144520822556" lon="9.294552344620366"><ele>380.20000000000005</ele><time>2026-04-25T14:29:44.99Z</time></trkpt><trkpt lat="46.014528858221134" lon="9.294462280702755"><ele>379.40000000000003</ele><time>2026-04-25T14:29:45.99Z</time></trkpt><trkpt lat="46.014602721787625" lon="9.294363580237317"><ele>378.6</ele><time>2026-04-25T14:29:46.991Z</time></trkpt><trkpt lat="46.01468679668034" lon="9.294289648692075"><ele>377.8</ele><time>2026-04-25T14:29:47.991Z</time></trkpt><trkpt lat="46.014734806038895" lon="9.294176319527002"><ele>377.0</ele><time>2026-04-25T14:29:48.991Z</time></trkpt><trkpt lat="46.0147818514058" lon="9.294064559954526"><ele>377.0</ele><time>2026-04-25T14:29:49.991Z</time></trkpt><trkpt lat="46.014799395412396" lon="9.293936619385748"><ele>377.0</ele><time>2026-04-25T14:29:50.991Z</time></trkpt><trkpt lat="46.01481297135089" lon="9.293806409753033"><ele>377.0</ele><time>2026-04-25T14:29:51.991Z</time></trkpt><trkpt lat="46.01483600448152" lon="9.293684385734359"><ele>377.0</ele><time>2026-04-25T14:29:52.991Z</time></trkpt><trkpt lat="46.01488772788015" lon="9.293581340012091"><ele>377.0</ele><time>2026-04-25T14:29:53.991Z</time></trkpt><trkpt lat="46.0149389281255" lon="9.293499922941418"><ele>377.0</ele><time>2026-04-25T14:29:54.991Z</time></trkpt><trkpt lat="46.015009197408105" lon="9.293428182799417"><ele>377.0</ele><time>2026-04-25T14:29:55.991Z</time></trkpt><trkpt lat="46.01507435107317" lon="9.293337408979838"><ele>377.0</ele><time>2026-04-25T14:29:56.99Z</time></trkpt><trkpt lat="46.015124573557884" lon="9.293206126152773"><ele>377.0</ele><time>2026-04-25T14:29:57.99Z</time></trkpt><trkpt lat="46.015164369894826" lon="9.293072243355708"><ele>377.0</ele><time>2026-04-25T14:29:58.991Z</time></trkpt><trkpt lat="46.01519721880388" lon="9.292911919746677"><ele>377.0</ele><time>2026-04-25T14:29:59.991Z</time></trkpt><trkpt lat="46.01522579770395" lon="9.292760678306824"><ele>374.83333333333337</ele><time>2026-04-25T14:30:00.991Z</time></trkpt><trkpt lat="46.01525720286811" lon="9.292626352293736"><ele>372.6666666666667</ele><time>2026-04-25T14:30:01.991Z</time></trkpt><trkpt lat="46.01527428826926" lon="9.292494929114403"><ele>370.5</ele><time>2026-04-25T14:30:02.991Z</time></trkpt><trkpt lat="46.01530196540852" lon="9.292384570092686"><ele>368.3333333333333</ele><time>2026-04-25T14:30:03.991Z</time></trkpt><trkpt lat="46.01532771419756" lon="9.292278777500274"><ele>366.16666666666663</ele><time>2026-04-25T14:30:04.991Z</time></trkpt><trkpt lat="46.01538970842617" lon="9.292208881832682"><ele>364.0</ele><time>2026-04-25T14:30:05.991Z</time></trkpt><trkpt lat="46.01544691927441" lon="9.292099446841533"><ele>362.8333333333333</ele><time>2026-04-25T14:30:06.99Z</time></trkpt><trkpt lat="46.015514047478625" lon="9.292007222119533"><ele>361.66666666666663</ele><time>2026-04-25T14:30:07.99Z</time></trkpt><trkpt lat="46.015576308056644" lon="9.291959974844804"><ele>360.5</ele><time>2026-04-25T14:30:08.99Z</time></trkpt><trkpt lat="46.01564730246202" lon="9.291904390475816"><ele>359.3333333333333</ele><time>2026-04-25T14:30:09.99Z</time></trkpt><trkpt lat="46.01570614639053" lon="9.29185464694729"><ele>358.1666666666667</ele><time>2026-04-25T14:30:10.99Z</time></trkpt><trkpt lat="46.01575277422661" lon="9.291782642508764"><ele>357.0</ele><time>2026-04-25T14:30:11.99Z</time></trkpt><trkpt lat="46.015801640993345" lon="9.291704039141822"><ele>356.0</ele><time>2026-04-25T14:30:12.99Z</time></trkpt><trkpt lat="46.015850916439334" lon="9.291609455664851"><ele>355.0</ele><time>2026-04-25T14:30:13.99Z</time></trkpt><trkpt lat="46.015899894795595" lon="9.291499059150906"><ele>354.0</ele><time>2026-04-25T14:30:14.989Z</time></trkpt><trkpt lat="46.01594465130736" lon="9.29138602468617"><ele>353.0</ele><time>2026-04-25T14:30:15.989Z</time></trkpt><trkpt lat="46.016000572636635" lon="9.29128828356556"><ele>352.0</ele><time>2026-04-25T14:30:16.989Z</time></trkpt><trkpt lat="46.01604579280268" lon="9.291216721507274"><ele>351.0</ele><time>2026-04-25T14:30:17.989Z</time></trkpt><trkpt lat="46.016095685993626" lon="9.291143293069139"><ele>351.0</ele><time>2026-04-25T14:30:18.989Z</time></trkpt><trkpt lat="46.016168433967614" lon="9.291088400573699"><ele>351.0</ele><time>2026-04-25T14:30:19.989Z</time></trkpt><trkpt lat="46.016246374811" lon="9.291018325239142"><ele>351.0</ele><time>2026-04-25T14:30:20.989Z</time></trkpt><trkpt lat="46.016320883270964" lon="9.290934520108957"><ele>351.0</ele><time>2026-04-25T14:30:21.989Z</time></trkpt><trkpt lat="46.01638194711451" lon="9.290835311853145"><ele>351.0</ele><time>2026-04-25T14:30:22.989Z</time></trkpt><trkpt lat="46.01643982854473" lon="9.290734851815397"><ele>351.0</ele><time>2026-04-25T14:30:23.989Z</time></trkpt><trkpt lat="46.01649068449022" lon="9.290624935193541"><ele>351.0</ele><time>2026-04-25T14:30:24.989Z</time></trkpt><trkpt lat="46.01653635266441" lon="9.290508416603465"><ele>351.0</ele><time>2026-04-25T14:30:25.989Z</time></trkpt><trkpt lat="46.01657179394723" lon="9.290402955702318"><ele>351.0</ele><time>2026-04-25T14:30:26.989Z</time></trkpt><trkpt lat="46.01662082853508" lon="9.290338691934906"><ele>351.0</ele><time>2026-04-25T14:30:27.989Z</time></trkpt><trkpt lat="46.016670199570065" lon="9.290280019002672"><ele>351.0</ele><time>2026-04-25T14:30:28.989Z</time></trkpt><trkpt lat="46.01674108837374" lon="9.290239897764222"><ele>349.6</ele><time>2026-04-25T14:30:29.989Z</time></trkpt><trkpt lat="46.016820468320525" lon="9.290167372326987"><ele>348.20000000000005</ele><time>2026-04-25T14:30:30.989Z</time></trkpt><trkpt lat="46.01690050669848" lon="9.290095902594691"><ele>346.79999999999995</ele><time>2026-04-25T14:30:31.989Z</time></trkpt><trkpt lat="46.016979703137515" lon="9.290044092955014"><ele>345.4</ele><time>2026-04-25T14:30:32.989Z</time></trkpt><trkpt lat="46.017050764480224" lon="9.290013072246486"><ele>344.0</ele><time>2026-04-25T14:30:33.989Z</time></trkpt><trkpt lat="46.01715695832029" lon="9.289971355746202"><ele>344.0</ele><time>2026-04-25T14:30:35.989Z</time></trkpt><trkpt lat="46.01724200699133" lon="9.28982983208271"><ele>344.0</ele><time>2026-04-25T14:30:37.989Z</time></trkpt><trkpt lat="46.017189732627195" lon="9.28967789151936"><ele>344.0</ele><time>2026-04-25T14:30:38.989Z</time></trkpt><trkpt lat="46.017099587870284" lon="9.289694473809497"><ele>344.0</ele><time>2026-04-25T14:30:39.989Z</time></trkpt><trkpt lat="46.0170388366358" lon="9.289776722278674"><ele>344.0</ele><time>2026-04-25T14:30:40.989Z</time></trkpt><trkpt lat="46.01696121916472" lon="9.289841144697698"><ele>344.0</ele><time>2026-04-25T14:30:41.989Z</time></trkpt><trkpt lat="46.01689038343857" lon="9.28990626145756"><ele>344.0</ele><time>2026-04-25T14:30:42.989Z</time></trkpt><trkpt lat="46.01680801064991" lon="9.28997707447735"><ele>344.0</ele><time>2026-04-25T14:30:43.989Z</time></trkpt><trkpt lat="46.016715358332455" lon="9.290036933939858"><ele>344.0</ele><time>2026-04-25T14:30:44.989Z</time></trkpt><trkpt lat="46.01661652306653" lon="9.29007038383664"><ele>344.0</ele><time>2026-04-25T14:30:45.989Z</time></trkpt><trkpt lat="46.0165265944949" lon="9.290102408431096"><ele>340.2</ele><time>2026-04-25T14:30:46.989Z</time></trkpt><trkpt lat="46.01643335646374" lon="9.290116305926054"><ele>336.4</ele><time>2026-04-25T14:30:47.989Z</time></trkpt><trkpt lat="46.016342255712296" lon="9.290157797895565"><ele>332.6</ele><time>2026-04-25T14:30:48.989Z</time></trkpt><trkpt lat="46.016261004143324" lon="9.290235907594441"><ele>328.8</ele><time>2026-04-25T14:30:49.989Z</time></trkpt><trkpt lat="46.01618311724434" lon="9.290316002389712"><ele>325.0</ele><time>2026-04-25T14:30:50.989Z</time></trkpt><trkpt lat="46.01608348466157" lon="9.290366996541522"><ele>325.0</ele><time>2026-04-25T14:30:51.989Z</time></trkpt><trkpt lat="46.01600380212641" lon="9.290455891466975"><ele>325.0</ele><time>2026-04-25T14:30:52.989Z</time></trkpt><trkpt lat="46.01593272428285" lon="9.290535068313847"><ele>325.0</ele><time>2026-04-25T14:30:53.989Z</time></trkpt><trkpt lat="46.01587806972816" lon="9.29059347827716"><ele>325.0</ele><time>2026-04-25T14:30:54.989Z</time></trkpt><trkpt lat="46.015822259562604" lon="9.290640494226526"><ele>325.0</ele><time>2026-04-25T14:30:55.989Z</time></trkpt><trkpt lat="46.01572413934868" lon="9.290652655590515"><ele>325.0</ele><time>2026-04-25T14:30:57.989Z</time></trkpt><trkpt lat="46.01571251001702" lon="9.290475446597"><ele>325.0</ele><time>2026-04-25T14:30:59.989Z</time></trkpt><trkpt lat="46.01585180102654" lon="9.290379772211052"><ele>325.0</ele><time>2026-04-25T14:31:01.989Z</time></trkpt><trkpt lat="46.01593984625349" lon="9.290316812186585"><ele>325.0</ele><time>2026-04-25T14:31:02.989Z</time></trkpt><trkpt lat="46.01603087255676" lon="9.290243212052756"><ele>325.0</ele><time>2026-04-25T14:31:03.989Z</time></trkpt><trkpt lat="46.016112238989535" lon="9.290133463049955"><ele>325.0</ele><time>2026-04-25T14:31:04.989Z</time></trkpt><trkpt lat="46.01620065671777" lon="9.290069128053638"><ele>325.0</ele><time>2026-04-25T14:31:05.989Z</time></trkpt><trkpt lat="46.01627088650811" lon="9.289983177051141"><ele>325.0</ele><time>2026-04-25T14:31:06.989Z</time></trkpt><trkpt lat="46.01634781137908" lon="9.289903352832052"><ele>325.0</ele><time>2026-04-25T14:31:07.989Z</time></trkpt><trkpt lat="46.01643032426375" lon="9.289826762456377"><ele>325.0</ele><time>2026-04-25T14:31:08.989Z</time></trkpt><trkpt lat="46.016523932874335" lon="9.289763933746581"><ele>321.0</ele><time>2026-04-25T14:31:09.989Z</time></trkpt><trkpt lat="46.01663184409331" lon="9.289711640923583"><ele>317.0</ele><time>2026-04-25T14:31:10.989Z</time></trkpt><trkpt lat="46.01674307764359" lon="9.289640274606693"><ele>313.0</ele><time>2026-04-25T14:31:11.989Z</time></trkpt><trkpt lat="46.01685605433554" lon="9.289578016120108"><ele>309.0</ele><time>2026-04-25T14:31:12.989Z</time></trkpt><trkpt lat="46.01696002862792" lon="9.289513509225403"><ele>309.0</ele><time>2026-04-25T14:31:13.989Z</time></trkpt><trkpt lat="46.017065978013555" lon="9.289461324613859"><ele>309.0</ele><time>2026-04-25T14:31:14.989Z</time></trkpt><trkpt lat="46.01716136839792" lon="9.289409728231455"><ele>309.0</ele><time>2026-04-25T14:31:15.989Z</time></trkpt><trkpt lat="46.01725345703534" lon="9.289357950229837"><ele>309.0</ele><time>2026-04-25T14:31:16.989Z</time></trkpt><trkpt lat="46.017336859608314" lon="9.289310612622657"><ele>309.0</ele><time>2026-04-25T14:31:17.989Z</time></trkpt><trkpt lat="46.01740773271174" lon="9.28926957834207"><ele>309.0</ele><time>2026-04-25T14:31:18.989Z</time></trkpt><trkpt lat="46.017491432967965" lon="9.289267590691034"><ele>309.0</ele><time>2026-04-25T14:31:19.989Z</time></trkpt><trkpt lat="46.017569404407496" lon="9.289191954773488"><ele>309.0</ele><time>2026-04-25T14:31:21.989Z</time></trkpt><trkpt lat="46.0175674744228" lon="9.28908303698418"><ele>309.0</ele><time>2026-04-25T14:31:23.989Z</time></trkpt><trkpt lat="46.01743009978861" lon="9.289010968263593"><ele>309.0</ele><time>2026-04-25T14:31:25.99Z</time></trkpt><trkpt lat="46.01736613805243" lon="9.289118360689185"><ele>309.0</ele><time>2026-04-25T14:31:26.99Z</time></trkpt><trkpt lat="46.01730216778871" lon="9.289182471126031"><ele>309.0</ele><time>2026-04-25T14:31:27.99Z</time></trkpt><trkpt lat="46.01724063140414" lon="9.289227271406007"><ele>309.0</ele><time>2026-04-25T14:31:28.99Z</time></trkpt><trkpt lat="46.0171749800283" lon="9.289247049791998"><ele>309.0</ele><time>2026-04-25T14:31:29.99Z</time></trkpt><trkpt lat="46.01709851019411" lon="9.289241301536551"><ele>309.0</ele><time>2026-04-25T14:31:30.99Z</time></trkpt><trkpt lat="46.017012364238184" lon="9.28923518290992"><ele>309.0</ele><time>2026-04-25T14:31:31.99Z</time></trkpt><trkpt lat="46.01689726810475" lon="9.289246462246355"><ele>309.0</ele><time>2026-04-25T14:31:32.99Z</time></trkpt><trkpt lat="46.01680023538495" lon="9.289280244158157"><ele>309.0</ele><time>2026-04-25T14:31:33.99Z</time></trkpt><trkpt lat="46.01669845751084" lon="9.289315722839655"><ele>309.0</ele><time>2026-04-25T14:31:34.99Z</time></trkpt><trkpt lat="46.01657641839" lon="9.289348744335575"><ele>309.0</ele><time>2026-04-25T14:31:35.99Z</time></trkpt><trkpt lat="46.01646232884193" lon="9.289369462094097"><ele>309.0</ele><time>2026-04-25T14:31:36.99Z</time></trkpt><trkpt lat="46.016356849568865" lon="9.289384951646023"><ele>307.4</ele><time>2026-04-25T14:31:37.99Z</time></trkpt><trkpt lat="46.016251410251044" lon="9.289406855119863"><ele>305.79999999999995</ele><time>2026-04-25T14:31:38.99Z</time></trkpt><trkpt lat="46.01615374718046" lon="9.2894330352333"><ele>304.20000000000005</ele><time>2026-04-25T14:31:39.99Z</time></trkpt><trkpt lat="46.016064167544315" lon="9.289481020444418"><ele>302.6</ele><time>2026-04-25T14:31:40.99Z</time></trkpt><trkpt lat="46.0159645248002" lon="9.289496615277491"><ele>301.0</ele><time>2026-04-25T14:31:41.99Z</time></trkpt><trkpt lat="46.01587979388136" lon="9.289522617373654"><ele>300.8333333333333</ele><time>2026-04-25T14:31:42.99Z</time></trkpt><trkpt lat="46.015805494204464" lon="9.289539604334962"><ele>300.66666666666663</ele><time>2026-04-25T14:31:43.99Z</time></trkpt><trkpt lat="46.01573880333283" lon="9.289525466969938"><ele>300.5</ele><time>2026-04-25T14:31:44.99Z</time></trkpt><trkpt lat="46.01567699471053" lon="9.289484899846999"><ele>300.3333333333333</ele><time>2026-04-25T14:31:45.99Z</time></trkpt><trkpt lat="46.01563621879299" lon="9.289369082473373"><ele>300.1666666666667</ele><time>2026-04-25T14:31:46.99Z</time></trkpt><trkpt lat="46.01555848664201" lon="9.289284413732721"><ele>300.0</ele><time>2026-04-25T14:31:47.99Z</time></trkpt><trkpt lat="46.01549814332565" lon="9.289191658209253"><ele>300.0</ele><time>2026-04-25T14:31:48.99Z</time></trkpt><trkpt lat="46.01543711120988" lon="9.289108278432646"><ele>300.0</ele><time>2026-04-25T14:31:49.988Z</time></trkpt><trkpt lat="46.01537192018683" lon="9.289033994079743"><ele>300.0</ele><time>2026-04-25T14:31:50.988Z</time></trkpt><trkpt lat="46.01529281811037" lon="9.28896685355673"><ele>300.0</ele><time>2026-04-25T14:31:51.988Z</time></trkpt><trkpt lat="46.015203618660614" lon="9.288905734909845"><ele>300.0</ele><time>2026-04-25T14:31:52.988Z</time></trkpt><trkpt lat="46.01510474314554" lon="9.288875481359382"><ele>293.8333333333333</ele><time>2026-04-25T14:31:53.988Z</time></trkpt><trkpt lat="46.01501476653094" lon="9.288863230630385"><ele>287.6666666666667</ele><time>2026-04-25T14:31:54.988Z</time></trkpt><trkpt lat="46.014940663546724" lon="9.288885740426267"><ele>281.5</ele><time>2026-04-25T14:31:55.987Z</time></trkpt><trkpt lat="46.014884095013144" lon="9.288930332471093"><ele>275.33333333333337</ele><time>2026-04-25T14:31:56.987Z</time></trkpt><trkpt lat="46.01480692839789" lon="9.28901667670859"><ele>269.1666666666667</ele><time>2026-04-25T14:31:58.987Z</time></trkpt><trkpt lat="46.014761443959266" lon="9.28894183456496"><ele>263.0</ele><time>2026-04-25T14:32:01.987Z</time></trkpt><trkpt lat="46.01480798830826" lon="9.288864190042482"><ele>263.0</ele><time>2026-04-25T14:32:02.987Z</time></trkpt><trkpt lat="46.01490450272371" lon="9.288827354126317"><ele>263.0</ele><time>2026-04-25T14:32:03.987Z</time></trkpt><trkpt lat="46.015000886696356" lon="9.288798017575669"><ele>263.0</ele><time>2026-04-25T14:32:04.987Z</time></trkpt><trkpt lat="46.015113665578724" lon="9.28879138011196"><ele>263.0</ele><time>2026-04-25T14:32:05.987Z</time></trkpt><trkpt lat="46.015226666826024" lon="9.288788569652441"><ele>263.0</ele><time>2026-04-25T14:32:06.987Z</time></trkpt><trkpt lat="46.015339407163715" lon="9.288814401293287"><ele>263.0</ele><time>2026-04-25T14:32:07.987Z</time></trkpt><trkpt lat="46.0154418760507" lon="9.288860796155099"><ele>263.0</ele><time>2026-04-25T14:32:08.987Z</time></trkpt><trkpt lat="46.015538552400606" lon="9.28891571507917"><ele>263.0</ele><time>2026-04-25T14:32:09.987Z</time></trkpt><trkpt lat="46.01564648229114" lon="9.288962357641589"><ele>263.0</ele><time>2026-04-25T14:32:10.987Z</time></trkpt><trkpt lat="46.015752457611924" lon="9.28895581055694"><ele>263.0</ele><time>2026-04-25T14:32:11.987Z</time></trkpt><trkpt lat="46.01587292763281" lon="9.288959130294145"><ele>265.0</ele><time>2026-04-25T14:32:12.987Z</time></trkpt><trkpt lat="46.01598422430303" lon="9.288955680659885"><ele>267.0</ele><time>2026-04-25T14:32:13.987Z</time></trkpt><trkpt lat="46.01608060385996" lon="9.288934785018428"><ele>269.0</ele><time>2026-04-25T14:32:14.987Z</time></trkpt><trkpt lat="46.01616810156306" lon="9.288888618350851"><ele>271.0</ele><time>2026-04-25T14:32:15.987Z</time></trkpt><trkpt lat="46.016246699078636" lon="9.28887906470235"><ele>273.0</ele><time>2026-04-25T14:32:16.987Z</time></trkpt><trkpt lat="46.016325781024165" lon="9.288876102074354"><ele>273.0</ele><time>2026-04-25T14:32:17.987Z</time></trkpt><trkpt lat="46.01639303221945" lon="9.288883265606712"><ele>273.0</ele><time>2026-04-25T14:32:18.988Z</time></trkpt><trkpt lat="46.01648016232697" lon="9.28889240989404"><ele>273.0</ele><time>2026-04-25T14:32:20.988Z</time></trkpt><trkpt lat="46.01651976753897" lon="9.288801004275067"><ele>273.0</ele><time>2026-04-25T14:32:22.988Z</time></trkpt><trkpt lat="46.01650630312623" lon="9.288691012289846"><ele>273.0</ele><time>2026-04-25T14:32:23.988Z</time></trkpt><trkpt lat="46.016411387693076" lon="9.288659672184497"><ele>273.0</ele><time>2026-04-25T14:32:24.988Z</time></trkpt><trkpt lat="46.0162816065693" lon="9.288696991139702"><ele>273.0</ele><time>2026-04-25T14:32:26.988Z</time></trkpt><trkpt lat="46.016206458954585" lon="9.28871314608579"><ele>273.0</ele><time>2026-04-25T14:32:27.988Z</time></trkpt><trkpt lat="46.016108854853584" lon="9.288719810762771"><ele>273.0</ele><time>2026-04-25T14:32:28.988Z</time></trkpt><trkpt lat="46.01600390648861" lon="9.288707848655358"><ele>273.0</ele><time>2026-04-25T14:32:29.988Z</time></trkpt><trkpt lat="46.015906896944855" lon="9.288660126502274"><ele>273.0</ele><time>2026-04-25T14:32:30.988Z</time></trkpt><trkpt lat="46.01580804324301" lon="9.288610249551223"><ele>271.0</ele><time>2026-04-25T14:32:31.988Z</time></trkpt><trkpt lat="46.0157262816214" lon="9.28855296069886"><ele>269.0</ele><time>2026-04-25T14:32:32.988Z</time></trkpt><trkpt lat="46.01564185804109" lon="9.288473980049497"><ele>267.0</ele><time>2026-04-25T14:32:33.988Z</time></trkpt><trkpt lat="46.015551319555726" lon="9.288415191737876"><ele>265.0</ele><time>2026-04-25T14:32:34.988Z</time></trkpt><trkpt lat="46.015464837468514" lon="9.28837477381445"><ele>263.0</ele><time>2026-04-25T14:32:35.988Z</time></trkpt><trkpt lat="46.015374296514686" lon="9.288355570617629"><ele>263.0</ele><time>2026-04-25T14:32:36.988Z</time></trkpt><trkpt lat="46.01529586032124" lon="9.288345002099101"><ele>263.0</ele><time>2026-04-25T14:32:37.988Z</time></trkpt><trkpt lat="46.015230148824905" lon="9.288340322692783"><ele>263.0</ele><time>2026-04-25T14:32:38.988Z</time></trkpt><trkpt lat="46.015149208518395" lon="9.288309557061872"><ele>263.0</ele><time>2026-04-25T14:32:40.988Z</time></trkpt><trkpt lat="46.01517716581592" lon="9.28820520598616"><ele>263.0</ele><time>2026-04-25T14:32:42.988Z</time></trkpt><trkpt lat="46.015241027649964" lon="9.288198531627502"><ele>263.0</ele><time>2026-04-25T14:32:43.988Z</time></trkpt><trkpt lat="46.01532350088758" lon="9.288233298444597"><ele>263.0</ele><time>2026-04-25T14:32:44.988Z</time></trkpt><trkpt lat="46.015406026532595" lon="9.28827471220622"><ele>263.0</ele><time>2026-04-25T14:32:45.988Z</time></trkpt><trkpt lat="46.01551134992133" lon="9.288259139790334"><ele>263.0</ele><time>2026-04-25T14:32:46.988Z</time></trkpt><trkpt lat="46.015629423366896" lon="9.288309893365827"><ele>263.0</ele><time>2026-04-25T14:32:47.988Z</time></trkpt><trkpt lat="46.01574053376443" lon="9.288370558693932"><ele>263.0</ele><time>2026-04-25T14:32:48.988Z</time></trkpt><trkpt lat="46.015851189557786" lon="9.288418974261258"><ele>264.6666666666667</ele><time>2026-04-25T14:32:49.988Z</time></trkpt><trkpt lat="46.0159516607532" lon="9.288447865364525"><ele>266.33333333333337</ele><time>2026-04-25T14:32:50.988Z</time></trkpt><trkpt lat="46.016050898123986" lon="9.28847471518245"><ele>268.0</ele><time>2026-04-25T14:32:51.988Z</time></trkpt><trkpt lat="46.016137369449226" lon="9.288491890572512"><ele>269.6666666666667</ele><time>2026-04-25T14:32:52.988Z</time></trkpt><trkpt lat="46.016221858603004" lon="9.288499741671117"><ele>271.3333333333333</ele><time>2026-04-25T14:32:53.988Z</time></trkpt><trkpt lat="46.01629501449272" lon="9.28851135870253"><ele>273.0</ele><time>2026-04-25T14:32:54.988Z</time></trkpt><trkpt lat="46.01636173468505" lon="9.28850787930007"><ele>273.0</ele><time>2026-04-25T14:32:55.988Z</time></trkpt><trkpt lat="46.01644838716949" lon="9.288489879906226"><ele>273.0</ele><time>2026-04-25T14:32:57.988Z</time></trkpt><trkpt lat="46.01644097712312" lon="9.288267518390095"><ele>273.0</ele><time>2026-04-25T14:33:00.989Z</time></trkpt><trkpt lat="46.01632576415357" lon="9.288251579854176"><ele>273.0</ele><time>2026-04-25T14:33:01.989Z</time></trkpt><trkpt lat="46.01622825650621" lon="9.288273425378474"><ele>273.0</ele><time>2026-04-25T14:33:02.989Z</time></trkpt><trkpt lat="46.01612616657724" lon="9.288293936740294"><ele>273.0</ele><time>2026-04-25T14:33:03.989Z</time></trkpt><trkpt lat="46.01601739497188" lon="9.288285361832273"><ele>273.0</ele><time>2026-04-25T14:33:04.989Z</time></trkpt><trkpt lat="46.01594796321504" lon="9.28820072535158"><ele>273.0</ele><time>2026-04-25T14:33:05.989Z</time></trkpt><trkpt lat="46.01587276386009" lon="9.2881164276531"><ele>273.0</ele><time>2026-04-25T14:33:06.989Z</time></trkpt><trkpt lat="46.01580471323605" lon="9.288029739555794"><ele>266.4</ele><time>2026-04-25T14:33:07.989Z</time></trkpt><trkpt lat="46.015740951244766" lon="9.287929552585085"><ele>259.8</ele><time>2026-04-25T14:33:08.989Z</time></trkpt><trkpt lat="46.0156770428462" lon="9.28781684361103"><ele>253.2</ele><time>2026-04-25T14:33:09.989Z</time></trkpt><trkpt lat="46.0156112973449" lon="9.28770255216945"><ele>246.6</ele><time>2026-04-25T14:33:10.989Z</time></trkpt><trkpt lat="46.01554650142069" lon="9.287608789408413"><ele>240.0</ele><time>2026-04-25T14:33:11.989Z</time></trkpt><trkpt lat="46.01546007007932" lon="9.28755471293324"><ele>240.0</ele><time>2026-04-25T14:33:12.989Z</time></trkpt><trkpt lat="46.015375237970865" lon="9.287512381716708"><ele>240.0</ele><time>2026-04-25T14:33:13.989Z</time></trkpt><trkpt lat="46.01529749093055" lon="9.287511834331621"><ele>240.0</ele><time>2026-04-25T14:33:14.989Z</time></trkpt><trkpt lat="46.015204389057864" lon="9.287513732033993"><ele>240.0</ele><time>2026-04-25T14:33:15.989Z</time></trkpt><trkpt lat="46.0151170692135" lon="9.287537674905609"><ele>240.0</ele><time>2026-04-25T14:33:16.989Z</time></trkpt><trkpt lat="46.01504572375937" lon="9.28755617131631"><ele>240.0</ele><time>2026-04-25T14:33:17.989Z</time></trkpt><trkpt lat="46.01498274298146" lon="9.287574265951706"><ele>240.0</ele><time>2026-04-25T14:33:18.989Z</time></trkpt><trkpt lat="46.01489171793418" lon="9.28759406657133"><ele>240.0</ele><time>2026-04-25T14:33:20.989Z</time></trkpt><trkpt lat="46.01488225487698" lon="9.287499769046045"><ele>240.0</ele><time>2026-04-25T14:33:22.989Z</time></trkpt><trkpt lat="46.01499926336829" lon="9.287511042882153"><ele>240.0</ele><time>2026-04-25T14:33:24.989Z</time></trkpt><trkpt lat="46.0150896415823" lon="9.287519555393544"><ele>240.0</ele><time>2026-04-25T14:33:25.989Z</time></trkpt><trkpt lat="46.01518464463057" lon="9.287467058545841"><ele>240.0</ele><time>2026-04-25T14:33:26.989Z</time></trkpt><trkpt lat="46.01527685766293" lon="9.287454142573774"><ele>240.0</ele><time>2026-04-25T14:33:27.989Z</time></trkpt><trkpt lat="46.01537514502366" lon="9.287465228075778"><ele>240.0</ele><time>2026-04-25T14:33:28.989Z</time></trkpt><trkpt lat="46.01546163994276" lon="9.287491275365705"><ele>240.0</ele><time>2026-04-25T14:33:29.989Z</time></trkpt><trkpt lat="46.01554455876623" lon="9.287550742185319"><ele>240.0</ele><time>2026-04-25T14:33:30.989Z</time></trkpt><trkpt lat="46.015638640897286" lon="9.287643131710224"><ele>240.0</ele><time>2026-04-25T14:33:31.989Z</time></trkpt><trkpt lat="46.015735216989754" lon="9.287715858053895"><ele>240.0</ele><time>2026-04-25T14:33:32.989Z</time></trkpt><trkpt lat="46.01582401295621" lon="9.28777674649638"><ele>240.0</ele><time>2026-04-25T14:33:33.989Z</time></trkpt><trkpt lat="46.01590299869694" lon="9.287801944915202"><ele>240.0</ele><time>2026-04-25T14:33:34.989Z</time></trkpt><trkpt lat="46.015974731421906" lon="9.287836924850554"><ele>240.0</ele><time>2026-04-25T14:33:35.989Z</time></trkpt><trkpt lat="46.01605967335912" lon="9.287901606930465"><ele>240.5</ele><time>2026-04-25T14:33:36.989Z</time></trkpt><trkpt lat="46.016162635980066" lon="9.287970051796826"><ele>241.0</ele><time>2026-04-25T14:33:37.989Z</time></trkpt><trkpt lat="46.01626242950227" lon="9.288021852807207"><ele>241.5</ele><time>2026-04-25T14:33:38.989Z</time></trkpt><trkpt lat="46.0163626335867" lon="9.288060379087698"><ele>242.0</ele><time>2026-04-25T14:33:39.99Z</time></trkpt><trkpt lat="46.01654664512931" lon="9.288120987403245"><ele>242.0</ele><time>2026-04-25T14:33:41.99Z</time></trkpt><trkpt lat="46.01662899238195" lon="9.288109949733121"><ele>242.0</ele><time>2026-04-25T14:33:42.99Z</time></trkpt><trkpt lat="46.01671671118771" lon="9.288087115337861"><ele>242.0</ele><time>2026-04-25T14:33:44.99Z</time></trkpt><trkpt lat="46.016720099253206" lon="9.287919245268942"><ele>242.0</ele><time>2026-04-25T14:33:46.99Z</time></trkpt><trkpt lat="46.016592948588084" lon="9.28791102505424"><ele>242.0</ele><time>2026-04-25T14:33:47.99Z</time></trkpt><trkpt lat="46.0164956494722" lon="9.287889498720325"><ele>242.0</ele><time>2026-04-25T14:33:48.99Z</time></trkpt><trkpt lat="46.01635972608219" lon="9.287858472051122"><ele>242.0</ele><time>2026-04-25T14:33:49.99Z</time></trkpt><trkpt lat="46.016226675945006" lon="9.287742751562137"><ele>242.0</ele><time>2026-04-25T14:33:50.99Z</time></trkpt><trkpt lat="46.01610285023841" lon="9.28763660025604"><ele>242.0</ele><time>2026-04-25T14:33:51.99Z</time></trkpt><trkpt lat="46.01600935367853" lon="9.2875339236839"><ele>242.0</ele><time>2026-04-25T14:33:52.99Z</time></trkpt><trkpt lat="46.01591021198899" lon="9.287439271572167"><ele>242.0</ele><time>2026-04-25T14:33:53.99Z</time></trkpt><trkpt lat="46.01580722578743" lon="9.287359661525395"><ele>242.0</ele><time>2026-04-25T14:33:54.99Z</time></trkpt><trkpt lat="46.015733918038315" lon="9.287246645433301"><ele>242.0</ele><time>2026-04-25T14:33:55.986Z</time></trkpt><trkpt lat="46.015639980703305" lon="9.287163641283124"><ele>238.2</ele><time>2026-04-25T14:33:56.987Z</time></trkpt><trkpt lat="46.01556851187592" lon="9.287065281159684"><ele>234.39999999999998</ele><time>2026-04-25T14:33:57.987Z</time></trkpt><trkpt lat="46.01548873248642" lon="9.286958836175007"><ele>230.60000000000002</ele><time>2026-04-25T14:33:58.987Z</time></trkpt><trkpt lat="46.01540162317504" lon="9.286878080453214"><ele>226.8</ele><time>2026-04-25T14:33:59.987Z</time></trkpt><trkpt lat="46.015292687601146" lon="9.286799849677962"><ele>223.0</ele><time>2026-04-25T14:34:00.987Z</time></trkpt><trkpt lat="46.015195917050974" lon="9.286697804234324"><ele>223.0</ele><time>2026-04-25T14:34:01.986Z</time></trkpt><trkpt lat="46.01509487917998" lon="9.286607185059623"><ele>223.0</ele><time>2026-04-25T14:34:02.986Z</time></trkpt><trkpt lat="46.014998960156774" lon="9.286549368828"><ele>223.0</ele><time>2026-04-25T14:34:03.986Z</time></trkpt><trkpt lat="46.01493260113119" lon="9.286472227970725"><ele>223.0</ele><time>2026-04-25T14:34:04.987Z</time></trkpt><trkpt lat="46.01486433470301" lon="9.28642444897074"><ele>223.0</ele><time>2026-04-25T14:34:05.987Z</time></trkpt><trkpt lat="46.014800419846786" lon="9.286394918221077"><ele>223.4</ele><time>2026-04-25T14:34:06.987Z</time></trkpt><trkpt lat="46.01471890207455" lon="9.286423419881597"><ele>223.8</ele><time>2026-04-25T14:34:08.987Z</time></trkpt><trkpt lat="46.014667010585754" lon="9.28648737337688"><ele>224.2</ele><time>2026-04-25T14:34:10.987Z</time></trkpt><trkpt lat="46.01466825800957" lon="9.286334020442007"><ele>224.6</ele><time>2026-04-25T14:34:16.987Z</time></trkpt><trkpt lat="46.014727908852954" lon="9.286183558728368"><ele>225.0</ele><time>2026-04-25T14:34:18.987Z</time></trkpt><trkpt lat="46.01474224383891" lon="9.28605866750331"><ele>224.83333333333334</ele><time>2026-04-25T14:34:19.987Z</time></trkpt><trkpt lat="46.014722427179585" lon="9.285944925951405"><ele>224.66666666666669</ele><time>2026-04-25T14:34:20.987Z</time></trkpt><trkpt lat="46.01470069035567" lon="9.285830513546856"><ele>224.5</ele><time>2026-04-25T14:34:21.987Z</time></trkpt><trkpt lat="46.0146804437007" lon="9.285718475688645"><ele>224.33333333333334</ele><time>2026-04-25T14:34:22.987Z</time></trkpt><trkpt lat="46.014675276798904" lon="9.285609009807827"><ele>224.16666666666669</ele><time>2026-04-25T14:34:23.987Z</time></trkpt><trkpt lat="46.01467882009306" lon="9.285495080809355"><ele>224.0</ele><time>2026-04-25T14:34:24.987Z</time></trkpt><trkpt lat="46.01470226274034" lon="9.285393145308559"><ele>224.00000000000003</ele><time>2026-04-25T14:34:25.987Z</time></trkpt><trkpt lat="46.01473425721043" lon="9.285284092885652"><ele>224.0</ele><time>2026-04-25T14:34:26.987Z</time></trkpt><trkpt lat="46.01476499738516" lon="9.285187467251866"><ele>224.0</ele><time>2026-04-25T14:34:27.987Z</time></trkpt><trkpt lat="46.014790335486616" lon="9.285086001884368"><ele>224.0</ele><time>2026-04-25T14:34:28.987Z</time></trkpt><trkpt lat="46.01481976360368" lon="9.284919145547294"><ele>224.00000000000003</ele><time>2026-04-25T14:34:30.987Z</time></trkpt><trkpt lat="46.01483534889129" lon="9.284829478796956"><ele>224.0</ele><time>2026-04-25T14:34:32.987Z</time></trkpt><trkpt lat="46.01482333771631" lon="9.28473024786095"><ele>222.33333333333334</ele><time>2026-04-25T14:34:44.988Z</time></trkpt><trkpt lat="46.01484309186072" lon="9.284632825148046"><ele>220.66666666666669</ele><time>2026-04-25T14:34:47.988Z</time></trkpt><trkpt lat="46.01486784492458" lon="9.284548298112826"><ele>219.0</ele><time>2026-04-25T14:34:53.988Z</time></trkpt><trkpt lat="46.01501846268211" lon="9.284593051501865"><ele>217.33333333333331</ele><time>2026-04-25T14:35:05.988Z</time></trkpt><trkpt lat="46.015085966822994" lon="9.284606870866774"><ele>215.66666666666666</ele><time>2026-04-25T14:35:06.988Z</time></trkpt><trkpt lat="46.015154255688756" lon="9.284645230916805"><ele>214.0</ele><time>2026-04-25T14:35:07.988Z</time></trkpt><trkpt lat="46.015230628913656" lon="9.284691506159884"><ele>213.49999999999997</ele><time>2026-04-25T14:35:08.988Z</time></trkpt><trkpt lat="46.0153112164703" lon="9.284738615027319"><ele>213.0</ele><time>2026-04-25T14:35:09.988Z</time></trkpt><trkpt lat="46.015390020376586" lon="9.284782306413133"><ele>212.5</ele><time>2026-04-25T14:35:10.988Z</time></trkpt><trkpt lat="46.01546593751625" lon="9.284818327201682"><ele>212.0</ele><time>2026-04-25T14:35:11.988Z</time></trkpt><trkpt lat="46.015544108525745" lon="9.284856349679945"><ele>211.49999999999997</ele><time>2026-04-25T14:35:12.988Z</time></trkpt><trkpt lat="46.01561684555034" lon="9.284906401820487"><ele>211.0</ele><time>2026-04-25T14:35:13.989Z</time></trkpt><trkpt lat="46.015686051408025" lon="9.284981053004731"><ele>210.99999999999997</ele><time>2026-04-25T14:35:14.989Z</time></trkpt><trkpt lat="46.0157517885983" lon="9.2850705910831"><ele>211.0</ele><time>2026-04-25T14:35:15.989Z</time></trkpt><trkpt lat="46.01581297217249" lon="9.285169892450044"><ele>211.0</ele><time>2026-04-25T14:35:16.989Z</time></trkpt><trkpt lat="46.01585465122207" lon="9.285257647890926"><ele>211.0</ele><time>2026-04-25T14:35:17.989Z</time></trkpt><trkpt lat="46.015892173003465" lon="9.28535301609107"><ele>210.99999999999997</ele><time>2026-04-25T14:35:18.989Z</time></trkpt><trkpt lat="46.01593268785256" lon="9.285444250865213"><ele>211.0</ele><time>2026-04-25T14:35:19.989Z</time></trkpt><trkpt lat="46.01596881207935" lon="9.285547038789144"><ele>211.8</ele><time>2026-04-25T14:35:20.989Z</time></trkpt><trkpt lat="46.016014640466615" lon="9.285653342797453"><ele>212.60000000000002</ele><time>2026-04-25T14:35:21.989Z</time></trkpt><trkpt lat="46.01606723854431" lon="9.285761107785934"><ele>213.4</ele><time>2026-04-25T14:35:22.989Z</time></trkpt><trkpt lat="46.01611999515751" lon="9.28588539496395"><ele>214.2</ele><time>2026-04-25T14:35:23.989Z</time></trkpt><trkpt lat="46.016172001317" lon="9.28601917872897"><ele>215.0</ele><time>2026-04-25T14:35:24.989Z</time></trkpt><trkpt lat="46.01621667028522" lon="9.286134051710457"><ele>215.00000000000003</ele><time>2026-04-25T14:35:25.989Z</time></trkpt><trkpt lat="46.01623148901575" lon="9.286250749276796"><ele>215.0</ele><time>2026-04-25T14:35:26.989Z</time></trkpt><trkpt lat="46.01627489439224" lon="9.286356337693055"><ele>215.0</ele><time>2026-04-25T14:35:27.989Z</time></trkpt><trkpt lat="46.01631787368533" lon="9.286451855891062"><ele>215.0</ele><time>2026-04-25T14:35:28.989Z</time></trkpt><trkpt lat="46.016363964128146" lon="9.286554852292978"><ele>215.00000000000003</ele><time>2026-04-25T14:35:29.989Z</time></trkpt><trkpt lat="46.01640781207731" lon="9.28666290145804"><ele>215.0</ele><time>2026-04-25T14:35:30.989Z</time></trkpt><trkpt lat="46.016462964968234" lon="9.28676086188972"><ele>215.83333333333334</ele><time>2026-04-25T14:35:31.989Z</time></trkpt><trkpt lat="46.016521590913605" lon="9.286848579071204"><ele>216.66666666666669</ele><time>2026-04-25T14:35:32.989Z</time></trkpt><trkpt lat="46.01659045592751" lon="9.286930874311306"><ele>217.5</ele><time>2026-04-25T14:35:33.989Z</time></trkpt><trkpt lat="46.01664787217294" lon="9.286998965227124"><ele>218.33333333333331</ele><time>2026-04-25T14:35:34.989Z</time></trkpt><trkpt lat="46.01671393043606" lon="9.28706793950179"><ele>219.16666666666666</ele><time>2026-04-25T14:35:35.989Z</time></trkpt><trkpt lat="46.01677029037501" lon="9.287124571882654"><ele>220.0</ele><time>2026-04-25T14:35:36.989Z</time></trkpt><trkpt lat="46.01682795132825" lon="9.287179015766634"><ele>221.4</ele><time>2026-04-25T14:35:37.989Z</time></trkpt><trkpt lat="46.01688645952913" lon="9.287238259812133"><ele>222.8</ele><time>2026-04-25T14:35:38.989Z</time></trkpt><trkpt lat="46.0170376711158" lon="9.287357287882005"><ele>224.2</ele><time>2026-04-25T14:35:40.989Z</time></trkpt><trkpt lat="46.0171224610269" lon="9.287390917574605"><ele>225.6</ele><time>2026-04-25T14:35:41.989Z</time></trkpt><trkpt lat="46.01721138872514" lon="9.287414055201538"><ele>227.0</ele><time>2026-04-25T14:35:42.989Z</time></trkpt><trkpt lat="46.017307028132755" lon="9.287420484104926"><ele>227.00000000000003</ele><time>2026-04-25T14:35:43.989Z</time></trkpt><trkpt lat="46.01740325726959" lon="9.287424771498438"><ele>227.0</ele><time>2026-04-25T14:35:44.989Z</time></trkpt><trkpt lat="46.01749727011764" lon="9.287419957745017"><ele>227.0</ele><time>2026-04-25T14:35:45.989Z</time></trkpt><trkpt lat="46.017585538583205" lon="9.287412183319663"><ele>227.0</ele><time>2026-04-25T14:35:46.989Z</time></trkpt><trkpt lat="46.01766458339474" lon="9.287402453305186"><ele>227.00000000000003</ele><time>2026-04-25T14:35:47.989Z</time></trkpt><trkpt lat="46.01773870453019" lon="9.287389670119554"><ele>227.0</ele><time>2026-04-25T14:35:48.989Z</time></trkpt><trkpt lat="46.01781204379933" lon="9.287375189705092"><ele>232.0</ele><time>2026-04-25T14:35:49.989Z</time></trkpt><trkpt lat="46.017680139225405" lon="9.287396253709627"><ele>237.0</ele><time>2026-04-25T14:35:51.127Z</time></trkpt><trkpt lat="46.01697375150936" lon="9.286994195623485"><ele>237.0</ele><time>2026-04-25T14:35:52.612Z</time></trkpt><trkpt lat="46.01804660917589" lon="9.287262714323791"><ele>237.0</ele><time>2026-04-25T14:35:54.99Z</time></trkpt><trkpt lat="46.01814860941035" lon="9.287310737391723"><ele>237.0</ele><time>2026-04-25T14:35:58.99Z</time></trkpt><trkpt lat="46.01821236266107" lon="9.287288817385427"><ele>237.0</ele><time>2026-04-25T14:35:59.99Z</time></trkpt><trkpt lat="46.01827226124871" lon="9.287241179872103"><ele>237.0</ele><time>2026-04-25T14:36:00.99Z</time></trkpt><trkpt lat="46.0183271739385" lon="9.28719339021138"><ele>237.0</ele><time>2026-04-25T14:36:01.986Z</time></trkpt><trkpt lat="46.01840212050963" lon="9.28714763312596"><ele>237.0</ele><time>2026-04-25T14:36:02.986Z</time></trkpt><trkpt lat="46.018477037895714" lon="9.287089426393749"><ele>231.0</ele><time>2026-04-25T14:36:03.986Z</time></trkpt><trkpt lat="46.01854869279389" lon="9.287020290841392"><ele>225.0</ele><time>2026-04-25T14:36:04.986Z</time></trkpt><trkpt lat="46.018627891521795" lon="9.28695456159608"><ele>219.0</ele><time>2026-04-25T14:36:05.986Z</time></trkpt><trkpt lat="46.018698504649414" lon="9.28690040388457"><ele>213.0</ele><time>2026-04-25T14:36:06.986Z</time></trkpt><trkpt lat="46.01878700242225" lon="9.286871060479179"><ele>207.0</ele><time>2026-04-25T14:36:07.986Z</time></trkpt><trkpt lat="46.018874991217565" lon="9.28683849489152"><ele>201.0</ele><time>2026-04-25T14:36:08.986Z</time></trkpt><trkpt lat="46.0189584240254" lon="9.28681491548959"><ele>201.0</ele><time>2026-04-25T14:36:09.986Z</time></trkpt><trkpt lat="46.019052237758714" lon="9.286787950161035"><ele>201.0</ele><time>2026-04-25T14:36:10.987Z</time></trkpt><trkpt lat="46.01914417696692" lon="9.286763389166339"><ele>201.0</ele><time>2026-04-25T14:36:11.986Z</time></trkpt><trkpt lat="46.01923789731774" lon="9.286729388476825"><ele>201.0</ele><time>2026-04-25T14:36:12.986Z</time></trkpt><trkpt lat="46.019334069162525" lon="9.286756882050344"><ele>201.0</ele><time>2026-04-25T14:36:13.987Z</time></trkpt><trkpt lat="46.0194368606256" lon="9.286797658738859"><ele>202.0</ele><time>2026-04-25T14:36:14.986Z</time></trkpt><trkpt lat="46.019543636585645" lon="9.286820292896646"><ele>203.0</ele><time>2026-04-25T14:36:15.986Z</time></trkpt><trkpt lat="46.01965264677233" lon="9.286831535608187"><ele>204.0</ele><time>2026-04-25T14:36:16.986Z</time></trkpt><trkpt lat="46.01976135219517" lon="9.286843762229996"><ele>205.0</ele><time>2026-04-25T14:36:17.986Z</time></trkpt><trkpt lat="46.019866479878644" lon="9.286860851340775"><ele>206.0</ele><time>2026-04-25T14:36:18.986Z</time></trkpt><trkpt lat="46.01997533582763" lon="9.286870121832774"><ele>210.0</ele><time>2026-04-25T14:36:19.986Z</time></trkpt><trkpt lat="46.02008855808103" lon="9.286890266539165"><ele>214.0</ele><time>2026-04-25T14:36:20.986Z</time></trkpt><trkpt lat="46.02020282845023" lon="9.286930222661734"><ele>218.0</ele><time>2026-04-25T14:36:21.986Z</time></trkpt><trkpt lat="46.02033288983523" lon="9.286955830311987"><ele>222.0</ele><time>2026-04-25T14:36:23.122Z</time></trkpt><trkpt lat="46.02045847329979" lon="9.28697900052646"><ele>321.0</ele><time>2026-04-25T14:36:24.123Z</time></trkpt><trkpt lat="46.02194522821585" lon="9.286646257788957"><ele>321.0</ele><time>2026-04-25T14:36:27.481Z</time></trkpt><trkpt lat="46.02238472459115" lon="9.286497781540097"><ele>230.0</ele><time>2026-04-25T14:36:28.486Z</time></trkpt><trkpt lat="46.02280180794675" lon="9.286256004821864"><ele>230.0</ele><time>2026-04-25T14:36:29.486Z</time></trkpt><trkpt lat="46.02320575992345" lon="9.285981446691254"><ele>230.0</ele><time>2026-04-25T14:36:30.481Z</time></trkpt><trkpt lat="46.023548649517245" lon="9.285560120122879"><ele>214.0</ele><time>2026-04-25T14:36:31.485Z</time></trkpt><trkpt lat="46.02511574338086" lon="9.28440217862303"><ele>214.0</ele><time>2026-04-25T14:36:35.482Z</time></trkpt><trkpt lat="46.025545561954196" lon="9.284202319373668"><ele>212.5</ele><time>2026-04-25T14:36:36.486Z</time></trkpt><trkpt lat="46.02597708337659" lon="9.284021981116242"><ele>211.0</ele><time>2026-04-25T14:36:37.486Z</time></trkpt><trkpt lat="46.0249947613506" lon="9.283415984462529"><ele>198.0</ele><time>2026-04-25T14:36:53.987Z</time></trkpt><trkpt lat="46.023826723204714" lon="9.28458995781581"><ele>200.0</ele><time>2026-04-25T14:36:54.987Z</time></trkpt><trkpt lat="46.02407440647569" lon="9.285051236262072"><ele>202.0</ele><time>2026-04-25T14:36:57.987Z</time></trkpt><trkpt lat="46.024136452914014" lon="9.284932655289552"><ele>201.2</ele><time>2026-04-25T14:36:58.987Z</time></trkpt><trkpt lat="46.02421139670645" lon="9.284839445663769"><ele>200.39999999999998</ele><time>2026-04-25T14:36:59.987Z</time></trkpt><trkpt lat="46.024299969328396" lon="9.284790423763598"><ele>199.60000000000002</ele><time>2026-04-25T14:37:00.987Z</time></trkpt><trkpt lat="46.02439571948327" lon="9.284760810373538"><ele>198.8</ele><time>2026-04-25T14:37:01.987Z</time></trkpt><trkpt lat="46.02449854146437" lon="9.284724741082838"><ele>198.0</ele><time>2026-04-25T14:37:02.987Z</time></trkpt><trkpt lat="46.02460196228396" lon="9.284664083389345"><ele>198.0</ele><time>2026-04-25T14:37:03.987Z</time></trkpt><trkpt lat="46.02471470903496" lon="9.284603193579253"><ele>198.0</ele><time>2026-04-25T14:37:04.987Z</time></trkpt><trkpt lat="46.024830230506126" lon="9.284545186121447"><ele>198.0</ele><time>2026-04-25T14:37:05.987Z</time></trkpt><trkpt lat="46.02495073213613" lon="9.28448596723175"><ele>198.0</ele><time>2026-04-25T14:37:06.987Z</time></trkpt><trkpt lat="46.02507532175995" lon="9.284486638227198"><ele>202.0</ele><time>2026-04-25T14:37:07.987Z</time></trkpt><trkpt lat="46.02519083425352" lon="9.284430134338924"><ele>206.0</ele><time>2026-04-25T14:37:08.987Z</time></trkpt><trkpt lat="46.02530536245966" lon="9.284371558916483"><ele>210.0</ele><time>2026-04-25T14:37:09.987Z</time></trkpt><trkpt lat="46.02542172106596" lon="9.284306766250252"><ele>214.0</ele><time>2026-04-25T14:37:10.988Z</time></trkpt><trkpt lat="46.02553990472759" lon="9.284236406949498"><ele>214.0</ele><time>2026-04-25T14:37:11.988Z</time></trkpt><trkpt lat="46.02564963223325" lon="9.28417740923051"><ele>213.99999999999997</ele><time>2026-04-25T14:37:12.988Z</time></trkpt><trkpt lat="46.0257556663467" lon="9.28412122596709"><ele>213.99999999999997</ele><time>2026-04-25T14:37:13.988Z</time></trkpt><trkpt lat="46.02585685634325" lon="9.284076711358534"><ele>214.0</ele><time>2026-04-25T14:37:14.988Z</time></trkpt><trkpt lat="46.02596150024392" lon="9.284059081249026"><ele>214.0</ele><time>2026-04-25T14:37:15.988Z</time></trkpt><trkpt lat="46.02605567326466" lon="9.284081356390724"><ele>213.39999999999998</ele><time>2026-04-25T14:37:16.988Z</time></trkpt><trkpt lat="46.02614369240012" lon="9.284087734784347"><ele>212.79999999999998</ele><time>2026-04-25T14:37:17.988Z</time></trkpt><trkpt lat="46.026223953348456" lon="9.28415136614135"><ele>212.2</ele><time>2026-04-25T14:37:18.988Z</time></trkpt><trkpt lat="46.02628674779381" lon="9.28425896017643"><ele>211.60000000000002</ele><time>2026-04-25T14:37:19.988Z</time></trkpt><trkpt lat="46.026340435728876" lon="9.284392239241212"><ele>211.0</ele><time>2026-04-25T14:37:20.988Z</time></trkpt><trkpt lat="46.026389202257114" lon="9.284534416817129"><ele>211.0</ele><time>2026-04-25T14:37:21.988Z</time></trkpt><trkpt lat="46.02644958027722" lon="9.284676869356034"><ele>211.0</ele><time>2026-04-25T14:37:22.988Z</time></trkpt><trkpt lat="46.02651206633345" lon="9.284821391052624"><ele>211.0</ele><time>2026-04-25T14:37:23.988Z</time></trkpt><trkpt lat="46.026580950606494" lon="9.284976420643554"><ele>211.0</ele><time>2026-04-25T14:37:24.988Z</time></trkpt><trkpt lat="46.02663863240333" lon="9.285125419237714"><ele>212.25</ele><time>2026-04-25T14:37:25.988Z</time></trkpt><trkpt lat="46.026711044379184" lon="9.285273088327658"><ele>213.5</ele><time>2026-04-25T14:37:26.988Z</time></trkpt><trkpt lat="46.0267840017058" lon="9.28540653147682"><ele>214.75</ele><time>2026-04-25T14:37:27.988Z</time></trkpt><trkpt lat="46.02685681941626" lon="9.285517445709747"><ele>216.0</ele><time>2026-04-25T14:37:28.988Z</time></trkpt><trkpt lat="46.02694271687362" lon="9.285628189560004"><ele>225.5</ele><time>2026-04-25T14:37:29.988Z</time></trkpt><trkpt lat="46.027037305084285" lon="9.285746171305854"><ele>235.0</ele><time>2026-04-25T14:37:30.988Z</time></trkpt><trkpt lat="46.02713930975527" lon="9.285877241048826"><ele>244.5</ele><time>2026-04-25T14:37:31.988Z</time></trkpt><trkpt lat="46.02724282167131" lon="9.286011172458368"><ele>254.0</ele><time>2026-04-25T14:37:32.988Z</time></trkpt><trkpt lat="46.02734500683275" lon="9.286149126458184"><ele>254.0</ele><time>2026-04-25T14:37:33.988Z</time></trkpt><trkpt lat="46.02744733321182" lon="9.286283241672448"><ele>254.0</ele><time>2026-04-25T14:37:34.988Z</time></trkpt><trkpt lat="46.02754031898018" lon="9.286412859236934"><ele>254.0</ele><time>2026-04-25T14:37:35.988Z</time></trkpt><trkpt lat="46.02761838099657" lon="9.286538075477985"><ele>254.0</ele><time>2026-04-25T14:37:36.988Z</time></trkpt><trkpt lat="46.02768174080995" lon="9.286675763955989"><ele>252.5</ele><time>2026-04-25T14:37:37.988Z</time></trkpt><trkpt lat="46.02773231299701" lon="9.286824909122165"><ele>251.0</ele><time>2026-04-25T14:37:38.988Z</time></trkpt><trkpt lat="46.02778260107294" lon="9.286988773154716"><ele>249.5</ele><time>2026-04-25T14:37:39.988Z</time></trkpt><trkpt lat="46.02783668030075" lon="9.287168060034674"><ele>248.0</ele><time>2026-04-25T14:37:40.988Z</time></trkpt><trkpt lat="46.02788194196437" lon="9.287340877948958"><ele>248.0</ele><time>2026-04-25T14:37:41.988Z</time></trkpt><trkpt lat="46.02794989773009" lon="9.28751338127406"><ele>248.0</ele><time>2026-04-25T14:37:42.988Z</time></trkpt><trkpt lat="46.02800986791889" lon="9.287665125542025"><ele>248.0</ele><time>2026-04-25T14:37:43.988Z</time></trkpt><trkpt lat="46.0280915151828" lon="9.287808360674797"><ele>248.0</ele><time>2026-04-25T14:37:44.988Z</time></trkpt><trkpt lat="46.02818291844056" lon="9.287926210423628"><ele>248.0</ele><time>2026-04-25T14:37:45.988Z</time></trkpt><trkpt lat="46.028295925089" lon="9.288026505815036"><ele>248.0</ele><time>2026-04-25T14:37:46.988Z</time></trkpt><trkpt lat="46.02840934905117" lon="9.2881143964939"><ele>248.0</ele><time>2026-04-25T14:37:47.988Z</time></trkpt><trkpt lat="46.02854011380524" lon="9.288189493305053"><ele>248.0</ele><time>2026-04-25T14:37:48.988Z</time></trkpt><trkpt lat="46.028651915048336" lon="9.288270844041003"><ele>243.25</ele><time>2026-04-25T14:37:49.988Z</time></trkpt><trkpt lat="46.0287470222512" lon="9.288355572975112"><ele>238.5</ele><time>2026-04-25T14:37:50.989Z</time></trkpt><trkpt lat="46.02885614226713" lon="9.288452215841382"><ele>233.75</ele><time>2026-04-25T14:37:51.989Z</time></trkpt><trkpt lat="46.02895522047691" lon="9.288564956592577"><ele>229.0</ele><time>2026-04-25T14:37:52.989Z</time></trkpt><trkpt lat="46.02905636990593" lon="9.288682151958993"><ele>228.0</ele><time>2026-04-25T14:37:53.989Z</time></trkpt><trkpt lat="46.029162429354336" lon="9.288802687350282"><ele>227.0</ele><time>2026-04-25T14:37:54.989Z</time></trkpt><trkpt lat="46.02926556446507" lon="9.288926209192471"><ele>226.0</ele><time>2026-04-25T14:37:55.989Z</time></trkpt><trkpt lat="46.029374071090956" lon="9.289043515345902"><ele>225.0</ele><time>2026-04-25T14:37:56.989Z</time></trkpt><trkpt lat="46.02947707772573" lon="9.28915956043988"><ele>225.0</ele><time>2026-04-25T14:37:57.989Z</time></trkpt><trkpt lat="46.02957890089335" lon="9.28926722779566"><ele>225.0</ele><time>2026-04-25T14:37:58.989Z</time></trkpt><trkpt lat="46.029679655436276" lon="9.289366075990374"><ele>225.0</ele><time>2026-04-25T14:37:59.989Z</time></trkpt><trkpt lat="46.029761901790174" lon="9.289445688907227"><ele>225.0</ele><time>2026-04-25T14:38:00.989Z</time></trkpt><trkpt lat="46.0298366376679" lon="9.289523843211095"><ele>225.0</ele><time>2026-04-25T14:38:01.989Z</time></trkpt><trkpt lat="46.029902996463115" lon="9.289617282481363"><ele>224.2</ele><time>2026-04-25T14:38:02.989Z</time></trkpt><trkpt lat="46.02997656590489" lon="9.289717136032012"><ele>223.4</ele><time>2026-04-25T14:38:03.989Z</time></trkpt><trkpt lat="46.03004370859189" lon="9.289833824215952"><ele>222.60000000000002</ele><time>2026-04-25T14:38:04.989Z</time></trkpt><trkpt lat="46.03011633529417" lon="9.289957698199995"><ele>221.8</ele><time>2026-04-25T14:38:05.989Z</time></trkpt><trkpt lat="46.03018506190665" lon="9.29009206567653"><ele>221.0</ele><time>2026-04-25T14:38:06.986Z</time></trkpt><trkpt lat="46.03026357975272" lon="9.290230000201918"><ele>221.0</ele><time>2026-04-25T14:38:07.986Z</time></trkpt><trkpt lat="46.03032708147979" lon="9.2903751175932"><ele>221.0</ele><time>2026-04-25T14:38:08.986Z</time></trkpt><trkpt lat="46.03036590067886" lon="9.290542221723467"><ele>221.0</ele><time>2026-04-25T14:38:09.987Z</time></trkpt><trkpt lat="46.03041227343441" lon="9.290715815313526"><ele>221.0</ele><time>2026-04-25T14:38:10.986Z</time></trkpt><trkpt lat="46.03042830041111" lon="9.2909103920005"><ele>225.75</ele><time>2026-04-25T14:38:11.986Z</time></trkpt><trkpt lat="46.03045408176219" lon="9.29111200642484"><ele>230.5</ele><time>2026-04-25T14:38:12.986Z</time></trkpt><trkpt lat="46.03046026639186" lon="9.2912999616407"><ele>235.25</ele><time>2026-04-25T14:38:13.986Z</time></trkpt><trkpt lat="46.03047099264157" lon="9.29147302111909"><ele>240.0</ele><time>2026-04-25T14:38:14.986Z</time></trkpt><trkpt lat="46.03048603341181" lon="9.29164037835442"><ele>245.5</ele><time>2026-04-25T14:38:15.986Z</time></trkpt><trkpt lat="46.03053275667853" lon="9.291810332996137"><ele>251.0</ele><time>2026-04-25T14:38:16.986Z</time></trkpt><trkpt lat="46.0305912624383" lon="9.291975813466493"><ele>256.5</ele><time>2026-04-25T14:38:17.986Z</time></trkpt><trkpt lat="46.03066550018952" lon="9.292148074695788"><ele>262.0</ele><time>2026-04-25T14:38:18.986Z</time></trkpt><trkpt lat="46.03075418536181" lon="9.292317972953693"><ele>254.0</ele><time>2026-04-25T14:38:19.987Z</time></trkpt><trkpt lat="46.030826744840034" lon="9.292502039748138"><ele>246.0</ele><time>2026-04-25T14:38:20.987Z</time></trkpt><trkpt lat="46.03090946719065" lon="9.292673571587514"><ele>238.0</ele><time>2026-04-25T14:38:21.987Z</time></trkpt><trkpt lat="46.03099520595979" lon="9.292826062808649"><ele>230.0</ele><time>2026-04-25T14:38:22.987Z</time></trkpt><trkpt lat="46.03110664287845" lon="9.292949868348822"><ele>230.0</ele><time>2026-04-25T14:38:23.987Z</time></trkpt><trkpt lat="46.03120086401548" lon="9.293085754038946"><ele>230.0</ele><time>2026-04-25T14:38:24.987Z</time></trkpt><trkpt lat="46.03129823309089" lon="9.293217600095433"><ele>230.0</ele><time>2026-04-25T14:38:25.987Z</time></trkpt><trkpt lat="46.03139418317962" lon="9.293345014171088"><ele>230.0</ele><time>2026-04-25T14:38:26.987Z</time></trkpt><trkpt lat="46.03149048414896" lon="9.293464353765861"><ele>230.75</ele><time>2026-04-25T14:38:27.987Z</time></trkpt><trkpt lat="46.03158862551978" lon="9.293594853529916"><ele>231.5</ele><time>2026-04-25T14:38:28.987Z</time></trkpt><trkpt lat="46.03166895720572" lon="9.293742647310735"><ele>232.25</ele><time>2026-04-25T14:38:29.987Z</time></trkpt><trkpt lat="46.03174476065874" lon="9.293932897816015"><ele>233.0</ele><time>2026-04-25T14:38:30.987Z</time></trkpt><trkpt lat="46.031831596711946" lon="9.294119034806517"><ele>233.0</ele><time>2026-04-25T14:38:31.987Z</time></trkpt><trkpt lat="46.03191829293893" lon="9.294305531505053"><ele>233.0</ele><time>2026-04-25T14:38:32.987Z</time></trkpt><trkpt lat="46.03199815071976" lon="9.294473981089936"><ele>233.0</ele><time>2026-04-25T14:38:33.987Z</time></trkpt><trkpt lat="46.032076350980134" lon="9.294639146643876"><ele>233.0</ele><time>2026-04-25T14:38:34.987Z</time></trkpt><trkpt lat="46.03215860482107" lon="9.294802526728844"><ele>232.75</ele><time>2026-04-25T14:38:35.987Z</time></trkpt><trkpt lat="46.03224749832471" lon="9.294964630919196"><ele>232.5</ele><time>2026-04-25T14:38:36.987Z</time></trkpt><trkpt lat="46.032337004422295" lon="9.295103592354026"><ele>232.25</ele><time>2026-04-25T14:38:37.987Z</time></trkpt><trkpt lat="46.032401535151415" lon="9.295259585663262"><ele>232.0</ele><time>2026-04-25T14:38:38.987Z</time></trkpt><trkpt lat="46.032477775458744" lon="9.29541805489431"><ele>232.0</ele><time>2026-04-25T14:38:39.987Z</time></trkpt><trkpt lat="46.03255857835072" lon="9.295580573237544"><ele>232.0</ele><time>2026-04-25T14:38:40.987Z</time></trkpt><trkpt lat="46.03263508447376" lon="9.29574010037788"><ele>232.0</ele><time>2026-04-25T14:38:41.987Z</time></trkpt><trkpt lat="46.03270638820442" lon="9.295886289357568"><ele>232.0</ele><time>2026-04-25T14:38:42.987Z</time></trkpt><trkpt lat="46.03277585610215" lon="9.29601926459865"><ele>241.5</ele><time>2026-04-25T14:38:43.987Z</time></trkpt><trkpt lat="46.032868084622194" lon="9.296164287908788"><ele>251.0</ele><time>2026-04-25T14:38:44.987Z</time></trkpt><trkpt lat="46.032985381208675" lon="9.296327073187312"><ele>260.5</ele><time>2026-04-25T14:38:45.987Z</time></trkpt><trkpt lat="46.033101232403794" lon="9.296442598022239"><ele>270.0</ele><time>2026-04-25T14:38:46.987Z</time></trkpt><trkpt lat="46.03322663767641" lon="9.296528399009212"><ele>265.0</ele><time>2026-04-25T14:38:47.987Z</time></trkpt><trkpt lat="46.03333689170601" lon="9.296621276895017"><ele>260.0</ele><time>2026-04-25T14:38:48.987Z</time></trkpt><trkpt lat="46.0334410437284" lon="9.29673716762076"><ele>255.0</ele><time>2026-04-25T14:38:49.987Z</time></trkpt><trkpt lat="46.0335457671957" lon="9.296858952977143"><ele>250.0</ele><time>2026-04-25T14:38:50.987Z</time></trkpt><trkpt lat="46.03364366286023" lon="9.29698141029438"><ele>250.0</ele><time>2026-04-25T14:38:51.987Z</time></trkpt><trkpt lat="46.03374355716918" lon="9.297108825128998"><ele>250.0</ele><time>2026-04-25T14:38:52.987Z</time></trkpt><trkpt lat="46.03384079157053" lon="9.297229139010536"><ele>250.0</ele><time>2026-04-25T14:38:53.987Z</time></trkpt><trkpt lat="46.03392314148735" lon="9.297350325370283"><ele>250.0</ele><time>2026-04-25T14:38:54.987Z</time></trkpt><trkpt lat="46.03399375599109" lon="9.297474339381038"><ele>255.4</ele><time>2026-04-25T14:38:55.987Z</time></trkpt><trkpt lat="46.034070916917905" lon="9.297598130049579"><ele>260.8</ele><time>2026-04-25T14:38:56.987Z</time></trkpt><trkpt lat="46.0341410601607" lon="9.297724871058502"><ele>266.2</ele><time>2026-04-25T14:38:57.987Z</time></trkpt><trkpt lat="46.0342105088479" lon="9.297846740043068"><ele>271.6</ele><time>2026-04-25T14:38:58.988Z</time></trkpt><trkpt lat="46.03427901341758" lon="9.297961492196535"><ele>277.0</ele><time>2026-04-25T14:38:59.988Z</time></trkpt><trkpt lat="46.0343592570238" lon="9.298072422956762"><ele>272.2</ele><time>2026-04-25T14:39:00.988Z</time></trkpt><trkpt lat="46.03445270927863" lon="9.298168740008794"><ele>267.4</ele><time>2026-04-25T14:39:01.988Z</time></trkpt><trkpt lat="46.034535537633616" lon="9.298247495357684"><ele>262.6</ele><time>2026-04-25T14:39:02.988Z</time></trkpt><trkpt lat="46.03460215222701" lon="9.298324222691413"><ele>257.8</ele><time>2026-04-25T14:39:03.988Z</time></trkpt><trkpt lat="46.03468890421094" lon="9.298409779243306"><ele>253.0</ele><time>2026-04-25T14:39:04.988Z</time></trkpt><trkpt lat="46.03477460473313" lon="9.298509194927021"><ele>253.0</ele><time>2026-04-25T14:39:05.988Z</time></trkpt><trkpt lat="46.03486230653619" lon="9.298637044681005"><ele>253.0</ele><time>2026-04-25T14:39:06.988Z</time></trkpt><trkpt lat="46.034944999517975" lon="9.298788274226922"><ele>253.0</ele><time>2026-04-25T14:39:07.988Z</time></trkpt><trkpt lat="46.03499763806554" lon="9.298953813347524"><ele>253.0</ele><time>2026-04-25T14:39:08.988Z</time></trkpt><trkpt lat="46.03506003176074" lon="9.299099542160068"><ele>248.5</ele><time>2026-04-25T14:39:09.988Z</time></trkpt><trkpt lat="46.03514329945742" lon="9.299229017992939"><ele>244.0</ele><time>2026-04-25T14:39:10.988Z</time></trkpt><trkpt lat="46.0352450964088" lon="9.299333096262538"><ele>239.5</ele><time>2026-04-25T14:39:11.988Z</time></trkpt><trkpt lat="46.03535068865975" lon="9.299404869964015"><ele>235.0</ele><time>2026-04-25T14:39:12.988Z</time></trkpt><trkpt lat="46.03546004537408" lon="9.29945241066282"><ele>235.0</ele><time>2026-04-25T14:39:13.988Z</time></trkpt><trkpt lat="46.035566517360955" lon="9.299479210135846"><ele>235.0</ele><time>2026-04-25T14:39:14.988Z</time></trkpt><trkpt lat="46.03566780291207" lon="9.299481146955836"><ele>235.0</ele><time>2026-04-25T14:39:15.988Z</time></trkpt><trkpt lat="46.035766306053674" lon="9.299475090185805"><ele>235.0</ele><time>2026-04-25T14:39:16.988Z</time></trkpt><trkpt lat="46.03586849449773" lon="9.299465981029067"><ele>235.0</ele><time>2026-04-25T14:39:17.988Z</time></trkpt><trkpt lat="46.03596007790306" lon="9.299464324255014"><ele>229.8</ele><time>2026-04-25T14:39:18.988Z</time></trkpt><trkpt lat="46.036054577573225" lon="9.299464248490432"><ele>224.6</ele><time>2026-04-25T14:39:19.988Z</time></trkpt><trkpt lat="46.036148550260584" lon="9.299495272392797"><ele>219.39999999999998</ele><time>2026-04-25T14:39:20.988Z</time></trkpt><trkpt lat="46.036230144549265" lon="9.299551726119596"><ele>214.2</ele><time>2026-04-25T14:39:21.988Z</time></trkpt><trkpt lat="46.03630904638102" lon="9.299645265577162"><ele>209.0</ele><time>2026-04-25T14:39:22.988Z</time></trkpt><trkpt lat="46.03641570978055" lon="9.299748994576907"><ele>210.25</ele><time>2026-04-25T14:39:23.988Z</time></trkpt><trkpt lat="46.03654012593914" lon="9.29985491819068"><ele>211.5</ele><time>2026-04-25T14:39:24.988Z</time></trkpt><trkpt lat="46.036654439971194" lon="9.299944247538555"><ele>212.75</ele><time>2026-04-25T14:39:25.988Z</time></trkpt><trkpt lat="46.036759816079545" lon="9.30002792785391"><ele>214.0</ele><time>2026-04-25T14:39:26.988Z</time></trkpt><trkpt lat="46.03686050220906" lon="9.300114259576793"><ele>214.0</ele><time>2026-04-25T14:39:27.988Z</time></trkpt><trkpt lat="46.03697069926549" lon="9.300201182534938"><ele>214.0</ele><time>2026-04-25T14:39:28.988Z</time></trkpt><trkpt lat="46.0370670492407" lon="9.300291974128442"><ele>214.0</ele><time>2026-04-25T14:39:29.988Z</time></trkpt><trkpt lat="46.03716472827681" lon="9.30037280557498"><ele>214.0</ele><time>2026-04-25T14:39:30.988Z</time></trkpt><trkpt lat="46.03725523059426" lon="9.30044947904562"><ele>214.0</ele><time>2026-04-25T14:39:31.988Z</time></trkpt><trkpt lat="46.03735480519947" lon="9.300532154030684"><ele>213.99999999999997</ele><time>2026-04-25T14:39:32.988Z</time></trkpt><trkpt lat="46.037425903931016" lon="9.300637001793056"><ele>213.99999999999997</ele><time>2026-04-25T14:39:33.988Z</time></trkpt><trkpt lat="46.03748829299487" lon="9.300751389677337"><ele>214.0</ele><time>2026-04-25T14:39:34.988Z</time></trkpt><trkpt lat="46.03752910494159" lon="9.30088178907051"><ele>214.0</ele><time>2026-04-25T14:39:35.988Z</time></trkpt><trkpt lat="46.037569910399114" lon="9.301015487599797"><ele>215.0</ele><time>2026-04-25T14:39:36.988Z</time></trkpt><trkpt lat="46.03761073839888" lon="9.301154173160915"><ele>216.0</ele><time>2026-04-25T14:39:37.988Z</time></trkpt><trkpt lat="46.037660245376856" lon="9.30130663570299"><ele>217.0</ele><time>2026-04-25T14:39:38.989Z</time></trkpt><trkpt lat="46.03770532152807" lon="9.301466051343729"><ele>218.0</ele><time>2026-04-25T14:39:39.989Z</time></trkpt><trkpt lat="46.03774945381444" lon="9.301619176116331"><ele>223.0</ele><time>2026-04-25T14:39:40.989Z</time></trkpt><trkpt lat="46.03779824522613" lon="9.301762352205277"><ele>228.0</ele><time>2026-04-25T14:39:41.989Z</time></trkpt><trkpt lat="46.03786449858875" lon="9.301896383974988"><ele>233.0</ele><time>2026-04-25T14:39:42.989Z</time></trkpt><trkpt lat="46.03794305465671" lon="9.30200835950981"><ele>238.0</ele><time>2026-04-25T14:39:43.989Z</time></trkpt><trkpt lat="46.038037405084665" lon="9.302090947184677"><ele>243.0</ele><time>2026-04-25T14:39:44.989Z</time></trkpt><trkpt lat="46.03813293635194" lon="9.302152890828733"><ele>243.0</ele><time>2026-04-25T14:39:45.989Z</time></trkpt><trkpt lat="46.03824025165076" lon="9.302185171752066"><ele>243.0</ele><time>2026-04-25T14:39:46.989Z</time></trkpt><trkpt lat="46.03834308901518" lon="9.302198802530356"><ele>243.0</ele><time>2026-04-25T14:39:47.989Z</time></trkpt><trkpt lat="46.03844089945936" lon="9.30220706342874"><ele>243.0</ele><time>2026-04-25T14:39:48.989Z</time></trkpt><trkpt lat="46.03853340061152" lon="9.302212989008765"><ele>243.0</ele><time>2026-04-25T14:39:49.989Z</time></trkpt><trkpt lat="46.038618978001935" lon="9.302210534189506"><ele>236.66666666666666</ele><time>2026-04-25T14:39:50.989Z</time></trkpt><trkpt lat="46.03868914231594" lon="9.302206142116985"><ele>230.33333333333331</ele><time>2026-04-25T14:39:51.989Z</time></trkpt><trkpt lat="46.03876650412658" lon="9.302204243453053"><ele>224.0</ele><time>2026-04-25T14:39:52.989Z</time></trkpt><trkpt lat="46.03883590245428" lon="9.302209557929691"><ele>217.66666666666666</ele><time>2026-04-25T14:39:53.989Z</time></trkpt><trkpt lat="46.038910712454545" lon="9.302211509889224"><ele>211.33333333333331</ele><time>2026-04-25T14:39:54.989Z</time></trkpt><trkpt lat="46.038996878867806" lon="9.302217287656521"><ele>205.0</ele><time>2026-04-25T14:39:55.989Z</time></trkpt><trkpt lat="46.039083954481136" lon="9.302219868761897"><ele>205.14285714285714</ele><time>2026-04-25T14:39:56.989Z</time></trkpt><trkpt lat="46.039161402377495" lon="9.302220259039741"><ele>205.28571428571428</ele><time>2026-04-25T14:39:57.989Z</time></trkpt><trkpt lat="46.039232062199794" lon="9.302219853769575"><ele>205.42857142857142</ele><time>2026-04-25T14:39:58.989Z</time></trkpt><trkpt lat="46.039307751074176" lon="9.302215111452142"><ele>205.57142857142856</ele><time>2026-04-25T14:39:59.989Z</time></trkpt><trkpt lat="46.039375776982276" lon="9.302215734688653"><ele>205.71428571428572</ele><time>2026-04-25T14:40:00.989Z</time></trkpt><trkpt lat="46.039445097806244" lon="9.302231998956264"><ele>205.85714285714283</ele><time>2026-04-25T14:40:01.989Z</time></trkpt><trkpt lat="46.0395110546526" lon="9.302240209155903"><ele>206.0</ele><time>2026-04-25T14:40:02.989Z</time></trkpt><trkpt lat="46.03960617693933" lon="9.302240119134176"><ele>206.00000000000003</ele><time>2026-04-25T14:40:04.989Z</time></trkpt><trkpt lat="46.03971240395293" lon="9.30218379473975"><ele>206.0</ele><time>2026-04-25T14:40:42.986Z</time></trkpt><trkpt lat="46.03976615227606" lon="9.302231457764185"><ele>206.0</ele><time>2026-04-25T14:40:46.986Z</time></trkpt><trkpt lat="46.03982828050794" lon="9.302213293799335"><ele>206.0</ele><time>2026-04-25T14:40:53.986Z</time></trkpt><trkpt lat="46.03987391498029" lon="9.302276012708822"><ele>206.00000000000003</ele><time>2026-04-25T14:41:18.987Z</time></trkpt><trkpt lat="46.03994847380822" lon="9.302312580235949"><ele>206.0</ele><time>2026-04-25T14:41:55.988Z</time></trkpt><trkpt lat="46.04005586332733" lon="9.302287958087254"><ele>206.20000000000002</ele><time>2026-04-25T14:41:57.988Z</time></trkpt><trkpt lat="46.04018445416295" lon="9.302280940243945"><ele>206.4</ele><time>2026-04-25T14:41:59.988Z</time></trkpt><trkpt lat="46.04025305295948" lon="9.302278807678745"><ele>206.6</ele><time>2026-04-25T14:42:00.988Z</time></trkpt><trkpt lat="46.040320228585614" lon="9.302278360513"><ele>206.8</ele><time>2026-04-25T14:42:01.988Z</time></trkpt><trkpt lat="46.04043590008875" lon="9.302268529171924"><ele>207.0</ele><time>2026-04-25T14:42:03.988Z</time></trkpt><trkpt lat="46.04051460550789" lon="9.302250460706018"><ele>207.00000000000003</ele><time>2026-04-25T14:42:05.988Z</time></trkpt><trkpt lat="46.04058131557521" lon="9.302247062400562"><ele>207.0</ele><time>2026-04-25T14:42:15.988Z</time></trkpt><trkpt lat="46.04067269048625" lon="9.302249096268467"><ele>207.0</ele><time>2026-04-25T14:42:18.987Z</time></trkpt><trkpt lat="46.04073643269556" lon="9.302249892495807"><ele>207.0</ele><time>2026-04-25T14:42:20.987Z</time></trkpt><trkpt lat="46.040811984024195" lon="9.302251215528239"><ele>207.0</ele><time>2026-04-25T14:42:23.986Z</time></trkpt><trkpt lat="46.040881702121304" lon="9.302252436418419"><ele>207.00000000000003</ele><time>2026-04-25T14:42:26.986Z</time></trkpt><trkpt lat="46.040956243524455" lon="9.302253741770551"><ele>207.0</ele><time>2026-04-25T14:42:28.986Z</time></trkpt><trkpt lat="46.04102010933957" lon="9.302254860143586"><ele>207.0</ele><time>2026-04-25T14:42:30.987Z</time></trkpt><trkpt lat="46.04108677462841" lon="9.302256027513003"><ele>207.0</ele><time>2026-04-25T14:42:32.987Z</time></trkpt><trkpt lat="46.04117324592401" lon="9.302256546002301"><ele>207.0</ele><time>2026-04-25T14:42:34.987Z</time></trkpt><trkpt lat="46.041279986521076" lon="9.30226152102229"><ele>207.0</ele><time>2026-04-25T14:42:36.987Z</time></trkpt><trkpt lat="46.04137949690642" lon="9.302264707536988"><ele>207.0</ele><time>2026-04-25T14:42:38.987Z</time></trkpt><trkpt lat="46.041444658539454" lon="9.302266794141609"><ele>207.0</ele><time>2026-04-25T14:42:40.987Z</time></trkpt><trkpt lat="46.04152595700279" lon="9.302246324078224"><ele>207.0</ele><time>2026-04-25T14:42:44.987Z</time></trkpt><trkpt lat="46.04160040167771" lon="9.302271781335302"><ele>207.0</ele><time>2026-04-25T14:42:46.987Z</time></trkpt><trkpt lat="46.04167528643723" lon="9.302274390501891"><ele>207.0</ele><time>2026-04-25T14:42:48.987Z</time></trkpt><trkpt lat="46.041762580548294" lon="9.302277213442796"><ele>207.0</ele><time>2026-04-25T14:42:51.987Z</time></trkpt><trkpt lat="46.041852945387824" lon="9.30227979530378"><ele>207.0</ele><time>2026-04-25T14:42:53.987Z</time></trkpt><trkpt lat="46.04194323510198" lon="9.302282687232792"><ele>207.0</ele><time>2026-04-25T14:42:55.987Z</time></trkpt><trkpt lat="46.042028419257356" lon="9.302283291342839"><ele>207.0</ele><time>2026-04-25T14:43:23.988Z</time></trkpt><trkpt lat="46.04209795543116" lon="9.302274485117566"><ele>207.0</ele><time>2026-04-25T14:43:25.988Z</time></trkpt><trkpt lat="46.042167630308946" lon="9.30227922300183"><ele>207.0</ele><time>2026-04-25T14:43:29.988Z</time></trkpt><trkpt lat="46.04224571123261" lon="9.302304880819843"><ele>207.0</ele><time>2026-04-25T14:43:59.989Z</time></trkpt><trkpt lat="46.042318286914025" lon="9.302298925581209"><ele>207.0</ele><time>2026-04-25T14:44:01.989Z</time></trkpt><trkpt lat="46.042398822265426" lon="9.302277195510992"><ele>207.0</ele><time>2026-04-25T14:44:03.989Z</time></trkpt><trkpt lat="46.04248240311248" lon="9.302277677027986"><ele>207.33333333333334</ele><time>2026-04-25T14:44:05.989Z</time></trkpt><trkpt lat="46.04256565116954" lon="9.302299838649118"><ele>207.66666666666669</ele><time>2026-04-25T14:44:07.989Z</time></trkpt><trkpt lat="46.04267326988801" lon="9.30229868779885"><ele>208.0</ele><time>2026-04-25T14:44:09.989Z</time></trkpt><trkpt lat="46.04274778729857" lon="9.302292280128908"><ele>208.33333333333334</ele><time>2026-04-25T14:44:10.989Z</time></trkpt><trkpt lat="46.04282692787399" lon="9.30228355425349"><ele>208.66666666666669</ele><time>2026-04-25T14:44:11.989Z</time></trkpt><trkpt lat="46.04289475865042" lon="9.302304141367706"><ele>209.0</ele><time>2026-04-25T14:44:12.989Z</time></trkpt><trkpt lat="46.04296837349649" lon="9.302305526202952"><ele>209.0</ele><time>2026-04-25T14:44:13.989Z</time></trkpt><trkpt lat="46.04303801508525" lon="9.302306832796127"><ele>209.0</ele><time>2026-04-25T14:44:14.989Z</time></trkpt><trkpt lat="46.04311183374353" lon="9.302308217773259"><ele>209.0</ele><time>2026-04-25T14:44:15.989Z</time></trkpt><trkpt lat="46.04322101285244" lon="9.30231026624206"><ele>209.0</ele><time>2026-04-25T14:44:17.989Z</time></trkpt><trkpt lat="46.04332532069451" lon="9.302330564828148"><ele>209.0</ele><time>2026-04-25T14:44:19.989Z</time></trkpt><trkpt lat="46.043429921359035" lon="9.302367902303446"><ele>209.33333333333334</ele><time>2026-04-25T14:44:21.989Z</time></trkpt><trkpt lat="46.043541036945676" lon="9.302435677895863"><ele>209.66666666666669</ele><time>2026-04-25T14:44:23.989Z</time></trkpt><trkpt lat="46.04360521555911" lon="9.302459449095178"><ele>210.0</ele><time>2026-04-25T14:44:24.986Z</time></trkpt><trkpt lat="46.043660814680614" lon="9.302541189783737"><ele>210.33333333333331</ele><time>2026-04-25T14:44:25.986Z</time></trkpt><trkpt lat="46.043717126226525" lon="9.30262425706997"><ele>210.66666666666666</ele><time>2026-04-25T14:44:26.986Z</time></trkpt><trkpt lat="46.04377358916885" lon="9.302701635919364"><ele>211.0</ele><time>2026-04-25T14:44:28.986Z</time></trkpt><trkpt lat="46.043827641871886" lon="9.302770428722452"><ele>210.99999999999997</ele><time>2026-04-25T14:44:36.987Z</time></trkpt><trkpt lat="46.043886602198064" lon="9.302821292472593"><ele>211.0</ele><time>2026-04-25T14:44:38.987Z</time></trkpt><trkpt lat="46.043948451129616" lon="9.302953638808495"><ele>211.0</ele><time>2026-04-25T14:44:40.987Z</time></trkpt><trkpt lat="46.04399936088584" lon="9.30302114030449"><ele>211.0</ele><time>2026-04-25T14:44:41.987Z</time></trkpt><trkpt lat="46.04405551366495" lon="9.303096388994224"><ele>210.99999999999997</ele><time>2026-04-25T14:44:42.987Z</time></trkpt><trkpt lat="46.044115032461875" lon="9.30317282554583"><ele>211.0</ele><time>2026-04-25T14:44:43.987Z</time></trkpt><trkpt lat="46.04416891974966" lon="9.303243663639769"><ele>210.49999999999997</ele><time>2026-04-25T14:44:44.987Z</time></trkpt><trkpt lat="46.04422593257041" lon="9.303310593839258"><ele>210.0</ele><time>2026-04-25T14:44:45.987Z</time></trkpt><trkpt lat="46.044287514543534" lon="9.303381927615437"><ele>209.5</ele><time>2026-04-25T14:44:46.987Z</time></trkpt><trkpt lat="46.0443506958995" lon="9.303452518466035"><ele>209.0</ele><time>2026-04-25T14:44:47.987Z</time></trkpt><trkpt lat="46.04441483536381" lon="9.303526242888365"><ele>208.49999999999997</ele><time>2026-04-25T14:44:48.987Z</time></trkpt><trkpt lat="46.04447642753874" lon="9.303601373525803"><ele>208.0</ele><time>2026-04-25T14:44:49.987Z</time></trkpt><trkpt lat="46.04453393115403" lon="9.30367083927412"><ele>207.99999999999997</ele><time>2026-04-25T14:44:50.987Z</time></trkpt><trkpt lat="46.044590402300535" lon="9.30374022185632"><ele>208.0</ele><time>2026-04-25T14:44:51.987Z</time></trkpt><trkpt lat="46.04464981560017" lon="9.303813962070048"><ele>208.0</ele><time>2026-04-25T14:44:52.987Z</time></trkpt><trkpt lat="46.044702944786025" lon="9.303893029695487"><ele>208.0</ele><time>2026-04-25T14:44:53.987Z</time></trkpt><trkpt lat="46.04475799476023" lon="9.303979608740955"><ele>207.99999999999997</ele><time>2026-04-25T14:44:54.987Z</time></trkpt><trkpt lat="46.04481566222676" lon="9.30406741539547"><ele>208.0</ele><time>2026-04-25T14:44:55.987Z</time></trkpt><trkpt lat="46.044871593915936" lon="9.304158223468967"><ele>207.4</ele><time>2026-04-25T14:44:56.987Z</time></trkpt><trkpt lat="46.04493167039729" lon="9.30425510463316"><ele>206.8</ele><time>2026-04-25T14:44:57.987Z</time></trkpt><trkpt lat="46.04499710371458" lon="9.304350574215142"><ele>206.2</ele><time>2026-04-25T14:44:58.987Z</time></trkpt><trkpt lat="46.045058037517855" lon="9.304454623704592"><ele>205.6</ele><time>2026-04-25T14:44:59.987Z</time></trkpt><trkpt lat="46.04511397416699" lon="9.304572313562906"><ele>205.0</ele><time>2026-04-25T14:45:00.987Z</time></trkpt><trkpt lat="46.04516604803663" lon="9.304690586533539"><ele>206.0</ele><time>2026-04-25T14:45:01.987Z</time></trkpt><trkpt lat="46.04521974659144" lon="9.304803998580812"><ele>207.0</ele><time>2026-04-25T14:45:02.987Z</time></trkpt><trkpt lat="46.04526729207248" lon="9.304915774041014"><ele>208.0</ele><time>2026-04-25T14:45:03.987Z</time></trkpt><trkpt lat="46.045315868016466" lon="9.305025981458908"><ele>209.0</ele><time>2026-04-25T14:45:04.987Z</time></trkpt><trkpt lat="46.04536590355368" lon="9.305137395467638"><ele>210.0</ele><time>2026-04-25T14:45:05.987Z</time></trkpt><trkpt lat="46.045429863136754" lon="9.305236600412265"><ele>210.0</ele><time>2026-04-25T14:45:06.987Z</time></trkpt><trkpt lat="46.045492783284324" lon="9.305336117145567"><ele>210.0</ele><time>2026-04-25T14:45:07.987Z</time></trkpt><trkpt lat="46.04556267835177" lon="9.305408027384757"><ele>210.0</ele><time>2026-04-25T14:45:08.987Z</time></trkpt><trkpt lat="46.04564063826096" lon="9.30546018647129"><ele>210.0</ele><time>2026-04-25T14:45:09.987Z</time></trkpt><trkpt lat="46.045718070166735" lon="9.305503341519664"><ele>210.0</ele><time>2026-04-25T14:45:10.987Z</time></trkpt><trkpt lat="46.04580257684881" lon="9.305542026801556"><ele>210.0</ele><time>2026-04-25T14:45:11.987Z</time></trkpt><trkpt lat="46.04589174616253" lon="9.305578900187536"><ele>208.6</ele><time>2026-04-25T14:45:12.987Z</time></trkpt><trkpt lat="46.04598677611454" lon="9.305600834199357"><ele>207.2</ele><time>2026-04-25T14:45:13.988Z</time></trkpt><trkpt lat="46.04608061960351" lon="9.305611706409943"><ele>205.8</ele><time>2026-04-25T14:45:14.988Z</time></trkpt><trkpt lat="46.04617224516561" lon="9.305632899920317"><ele>204.4</ele><time>2026-04-25T14:45:15.988Z</time></trkpt><trkpt lat="46.04626562348284" lon="9.305619594404643"><ele>203.0</ele><time>2026-04-25T14:45:16.988Z</time></trkpt><trkpt lat="46.046350430590365" lon="9.305568959818158"><ele>203.0</ele><time>2026-04-25T14:45:17.988Z</time></trkpt><trkpt lat="46.04644944512366" lon="9.305552006561093"><ele>203.0</ele><time>2026-04-25T14:45:18.988Z</time></trkpt><trkpt lat="46.046544522013974" lon="9.305512180017226"><ele>203.0</ele><time>2026-04-25T14:45:19.988Z</time></trkpt><trkpt lat="46.046640099739335" lon="9.30547686095785"><ele>203.0</ele><time>2026-04-25T14:45:20.988Z</time></trkpt><trkpt lat="46.046728912611876" lon="9.305450846644808"><ele>203.0</ele><time>2026-04-25T14:45:21.988Z</time></trkpt><trkpt lat="46.04680716169046" lon="9.305430166034316"><ele>203.0</ele><time>2026-04-25T14:45:22.988Z</time></trkpt><trkpt lat="46.04688178520925" lon="9.305418144680765"><ele>203.0</ele><time>2026-04-25T14:45:23.988Z</time></trkpt><trkpt lat="46.04695209659869" lon="9.305390459588937"><ele>203.0</ele><time>2026-04-25T14:45:24.988Z</time></trkpt><trkpt lat="46.04702211888769" lon="9.305399304187636"><ele>203.0</ele><time>2026-04-25T14:45:25.988Z</time></trkpt><trkpt lat="46.047091843400636" lon="9.305415632359757"><ele>203.0</ele><time>2026-04-25T14:45:26.988Z</time></trkpt><trkpt lat="46.04716405994828" lon="9.305427601724443"><ele>203.0</ele><time>2026-04-25T14:45:27.988Z</time></trkpt><trkpt lat="46.047237757471386" lon="9.305444281570193"><ele>203.0</ele><time>2026-04-25T14:45:28.988Z</time></trkpt><trkpt lat="46.04730768792639" lon="9.305484761511911"><ele>203.00000000000003</ele><time>2026-04-25T14:45:29.988Z</time></trkpt><trkpt lat="46.04737520352799" lon="9.305536050969904"><ele>203.0</ele><time>2026-04-25T14:45:30.988Z</time></trkpt><trkpt lat="46.047442997771405" lon="9.305608865842826"><ele>203.0</ele><time>2026-04-25T14:45:31.988Z</time></trkpt><trkpt lat="46.047499943486386" lon="9.305695112373689"><ele>203.0</ele><time>2026-04-25T14:45:32.988Z</time></trkpt><trkpt lat="46.047547179135705" lon="9.305797808185856"><ele>203.00000000000003</ele><time>2026-04-25T14:45:33.988Z</time></trkpt><trkpt lat="46.04759921859641" lon="9.305918859085796"><ele>203.0</ele><time>2026-04-25T14:45:34.988Z</time></trkpt><trkpt lat="46.04764896375574" lon="9.306037603766"><ele>204.66666666666669</ele><time>2026-04-25T14:45:35.988Z</time></trkpt><trkpt lat="46.047696156151375" lon="9.306153919084368"><ele>206.33333333333334</ele><time>2026-04-25T14:45:36.988Z</time></trkpt><trkpt lat="46.04774276937141" lon="9.306265748219243"><ele>208.0</ele><time>2026-04-25T14:45:37.988Z</time></trkpt><trkpt lat="46.047788147297254" lon="9.306374831606062"><ele>209.66666666666669</ele><time>2026-04-25T14:45:38.988Z</time></trkpt><trkpt lat="46.04783166806167" lon="9.306486098812998"><ele>211.33333333333334</ele><time>2026-04-25T14:45:39.988Z</time></trkpt><trkpt lat="46.047879749263664" lon="9.306589580101813"><ele>213.0</ele><time>2026-04-25T14:45:40.988Z</time></trkpt><trkpt lat="46.04793612758404" lon="9.306686399122135"><ele>212.33333333333334</ele><time>2026-04-25T14:45:41.988Z</time></trkpt><trkpt lat="46.04799738123613" lon="9.306775806257042"><ele>211.66666666666669</ele><time>2026-04-25T14:45:42.988Z</time></trkpt><trkpt lat="46.0480730118803" lon="9.30685113030999"><ele>211.0</ele><time>2026-04-25T14:45:43.988Z</time></trkpt><trkpt lat="46.04814969123123" lon="9.306911954680945"><ele>210.33333333333334</ele><time>2026-04-25T14:45:44.988Z</time></trkpt><trkpt lat="46.04823418445618" lon="9.306963089264098"><ele>209.66666666666669</ele><time>2026-04-25T14:45:45.988Z</time></trkpt><trkpt lat="46.04831780032224" lon="9.307006778328905"><ele>209.0</ele><time>2026-04-25T14:45:46.988Z</time></trkpt><trkpt lat="46.04839856231861" lon="9.307045509341162"><ele>209.00000000000003</ele><time>2026-04-25T14:45:47.988Z</time></trkpt><trkpt lat="46.04848981841393" lon="9.307089789798116"><ele>209.0</ele><time>2026-04-25T14:45:48.988Z</time></trkpt><trkpt lat="46.048579849898935" lon="9.307120844803164"><ele>209.0</ele><time>2026-04-25T14:45:49.988Z</time></trkpt><trkpt lat="46.04866912223932" lon="9.307159432352107"><ele>209.0</ele><time>2026-04-25T14:45:50.988Z</time></trkpt><trkpt lat="46.04875462292272" lon="9.307193875291752"><ele>209.00000000000003</ele><time>2026-04-25T14:45:51.988Z</time></trkpt><trkpt lat="46.04881019653563" lon="9.307260636816883"><ele>209.0</ele><time>2026-04-25T14:45:52.988Z</time></trkpt><trkpt lat="46.04887297501853" lon="9.307305649811115"><ele>209.33333333333334</ele><time>2026-04-25T14:45:53.989Z</time></trkpt><trkpt lat="46.048934633111564" lon="9.307355714820947"><ele>209.66666666666669</ele><time>2026-04-25T14:45:54.989Z</time></trkpt><trkpt lat="46.04899134901589" lon="9.307405377635632"><ele>210.0</ele><time>2026-04-25T14:45:55.989Z</time></trkpt><trkpt lat="46.049066921706924" lon="9.307461864068436"><ele>210.33333333333331</ele><time>2026-04-25T14:45:57.989Z</time></trkpt><trkpt lat="46.049120096777365" lon="9.307510693239845"><ele>210.66666666666666</ele><time>2026-04-25T14:45:59.989Z</time></trkpt><trkpt lat="46.04920693116647" lon="9.307585729953095"><ele>211.0</ele><time>2026-04-25T14:46:01.989Z</time></trkpt><trkpt lat="46.04927249092606" lon="9.307654756783512"><ele>211.0</ele><time>2026-04-25T14:46:02.989Z</time></trkpt><trkpt lat="46.04933558493118" lon="9.307742028449205"><ele>211.0</ele><time>2026-04-25T14:46:03.989Z</time></trkpt><trkpt lat="46.04940614562028" lon="9.307851989969528"><ele>211.0</ele><time>2026-04-25T14:46:04.989Z</time></trkpt><trkpt lat="46.04947782751619" lon="9.307979091977959"><ele>211.0</ele><time>2026-04-25T14:46:05.989Z</time></trkpt><trkpt lat="46.04955300295159" lon="9.308110211991027"><ele>211.0</ele><time>2026-04-25T14:46:06.989Z</time></trkpt><trkpt lat="46.04963239396458" lon="9.308252966889876"><ele>210.0</ele><time>2026-04-25T14:46:07.989Z</time></trkpt><trkpt lat="46.049712404025655" lon="9.308396679076633"><ele>209.0</ele><time>2026-04-25T14:46:08.988Z</time></trkpt><trkpt lat="46.04979661538186" lon="9.308539649660892"><ele>208.0</ele><time>2026-04-25T14:46:09.988Z</time></trkpt><trkpt lat="46.04988142876343" lon="9.308689705887247"><ele>207.0</ele><time>2026-04-25T14:46:10.988Z</time></trkpt><trkpt lat="46.0499654543749" lon="9.308842309266405"><ele>208.5</ele><time>2026-04-25T14:46:11.988Z</time></trkpt><trkpt lat="46.050052351589535" lon="9.308998286414855"><ele>210.0</ele><time>2026-04-25T14:46:12.988Z</time></trkpt><trkpt lat="46.05014071606363" lon="9.309160880242205"><ele>211.5</ele><time>2026-04-25T14:46:13.988Z</time></trkpt><trkpt lat="46.050231607662475" lon="9.309325468625493"><ele>213.0</ele><time>2026-04-25T14:46:14.988Z</time></trkpt><trkpt lat="46.050321651938624" lon="9.309488596868057"><ele>213.0</ele><time>2026-04-25T14:46:15.988Z</time></trkpt><trkpt lat="46.05040890615473" lon="9.309647766688334"><ele>213.0</ele><time>2026-04-25T14:46:16.988Z</time></trkpt><trkpt lat="46.05049466394125" lon="9.309801232450885"><ele>213.0</ele><time>2026-04-25T14:46:17.988Z</time></trkpt><trkpt lat="46.050572652371336" lon="9.30994815814579"><ele>213.0</ele><time>2026-04-25T14:46:18.988Z</time></trkpt><trkpt lat="46.05065434927423" lon="9.31008864189204"><ele>212.0</ele><time>2026-04-25T14:46:19.988Z</time></trkpt><trkpt lat="46.05075005923623" lon="9.310216160778017"><ele>211.0</ele><time>2026-04-25T14:46:20.988Z</time></trkpt><trkpt lat="46.050857912688905" lon="9.310328982436266"><ele>210.0</ele><time>2026-04-25T14:46:21.988Z</time></trkpt><trkpt lat="46.05097325563485" lon="9.3104384454271"><ele>209.0</ele><time>2026-04-25T14:46:22.988Z</time></trkpt><trkpt lat="46.05109713108105" lon="9.310547127665654"><ele>214.25</ele><time>2026-04-25T14:46:23.987Z</time></trkpt><trkpt lat="46.051230478240086" lon="9.310629911259369"><ele>219.5</ele><time>2026-04-25T14:46:24.987Z</time></trkpt><trkpt lat="46.051352283114554" lon="9.310750544243685"><ele>224.75</ele><time>2026-04-25T14:46:25.987Z</time></trkpt><trkpt lat="46.0514751131171" lon="9.310844885483268"><ele>230.0</ele><time>2026-04-25T14:46:26.987Z</time></trkpt><trkpt lat="46.05159674240378" lon="9.31093830443288"><ele>226.0</ele><time>2026-04-25T14:46:27.987Z</time></trkpt><trkpt lat="46.051709818082585" lon="9.311025089231068"><ele>222.0</ele><time>2026-04-25T14:46:28.987Z</time></trkpt><trkpt lat="46.05181158893" lon="9.311102891286433"><ele>218.0</ele><time>2026-04-25T14:46:29.987Z</time></trkpt><trkpt lat="46.05190646453876" lon="9.31117542421096"><ele>214.0</ele><time>2026-04-25T14:46:30.984Z</time></trkpt><trkpt lat="46.05199561355766" lon="9.311243576159832"><ele>214.0</ele><time>2026-04-25T14:46:31.984Z</time></trkpt><trkpt lat="46.05208284664516" lon="9.311310264608426"><ele>213.99999999999997</ele><time>2026-04-25T14:46:32.984Z</time></trkpt><trkpt lat="46.05217080376351" lon="9.311377703098334"><ele>213.99999999999997</ele><time>2026-04-25T14:46:33.984Z</time></trkpt><trkpt lat="46.05226593137895" lon="9.311450781558232"><ele>214.0</ele><time>2026-04-25T14:46:34.984Z</time></trkpt><trkpt lat="46.05236001084304" lon="9.311523054668335"><ele>214.0</ele><time>2026-04-25T14:46:35.984Z</time></trkpt><trkpt lat="46.0524648699388" lon="9.311578124928221"><ele>213.79999999999998</ele><time>2026-04-25T14:46:36.983Z</time></trkpt><trkpt lat="46.05254868872242" lon="9.31166381278858"><ele>213.59999999999997</ele><time>2026-04-25T14:46:37.984Z</time></trkpt><trkpt lat="46.05265063160286" lon="9.311731927364454"><ele>213.4</ele><time>2026-04-25T14:46:38.984Z</time></trkpt><trkpt lat="46.05275439359087" lon="9.311803990366238"><ele>213.2</ele><time>2026-04-25T14:46:39.984Z</time></trkpt><trkpt lat="46.052841229495215" lon="9.311889149486765"><ele>213.0</ele><time>2026-04-25T14:46:40.983Z</time></trkpt><trkpt lat="46.052935877366934" lon="9.31197134863277"><ele>213.0</ele><time>2026-04-25T14:46:41.983Z</time></trkpt><trkpt lat="46.05303223939261" lon="9.312044575403709"><ele>213.0</ele><time>2026-04-25T14:46:42.984Z</time></trkpt><trkpt lat="46.053138378911804" lon="9.312118061305119"><ele>213.0</ele><time>2026-04-25T14:46:43.983Z</time></trkpt><trkpt lat="46.05324277895052" lon="9.312199054140676"><ele>213.0</ele><time>2026-04-25T14:46:44.983Z</time></trkpt><trkpt lat="46.05333881505595" lon="9.312272076921454"><ele>215.2</ele><time>2026-04-25T14:46:45.983Z</time></trkpt><trkpt lat="46.05343208639115" lon="9.312341098437509"><ele>217.4</ele><time>2026-04-25T14:46:46.983Z</time></trkpt><trkpt lat="46.053522802799506" lon="9.312400582824507"><ele>219.59999999999997</ele><time>2026-04-25T14:46:47.983Z</time></trkpt><trkpt lat="46.053629099194254" lon="9.31243926905422"><ele>221.79999999999998</ele><time>2026-04-25T14:46:48.983Z</time></trkpt><trkpt lat="46.05374205457941" lon="9.312471501830712"><ele>224.0</ele><time>2026-04-25T14:46:49.983Z</time></trkpt><trkpt lat="46.05386279223199" lon="9.312474859032505"><ele>224.0</ele><time>2026-04-25T14:46:50.983Z</time></trkpt><trkpt lat="46.05398166315609" lon="9.31247405838241"><ele>224.0</ele><time>2026-04-25T14:46:51.983Z</time></trkpt><trkpt lat="46.054102820123354" lon="9.312491073683415"><ele>224.0</ele><time>2026-04-25T14:46:52.983Z</time></trkpt><trkpt lat="46.05422067128918" lon="9.312486667153777"><ele>224.0</ele><time>2026-04-25T14:46:53.983Z</time></trkpt><trkpt lat="46.054330977191206" lon="9.312491509939308"><ele>221.75</ele><time>2026-04-25T14:46:54.984Z</time></trkpt><trkpt lat="46.05444754394158" lon="9.312501700561901"><ele>219.5</ele><time>2026-04-25T14:46:55.984Z</time></trkpt><trkpt lat="46.05456403985815" lon="9.312533964593285"><ele>217.25</ele><time>2026-04-25T14:46:56.984Z</time></trkpt><trkpt lat="46.05468331729868" lon="9.312596811575387"><ele>215.0</ele><time>2026-04-25T14:46:57.984Z</time></trkpt><trkpt lat="46.054808352099336" lon="9.312667214460658"><ele>215.0</ele><time>2026-04-25T14:46:58.984Z</time></trkpt><trkpt lat="46.054927002233384" lon="9.312713922606335"><ele>215.0</ele><time>2026-04-25T14:46:59.984Z</time></trkpt><trkpt lat="46.05503008795003" lon="9.312800281220126"><ele>215.0</ele><time>2026-04-25T14:47:00.984Z</time></trkpt><trkpt lat="46.055139953087334" lon="9.312848678643535"><ele>215.0</ele><time>2026-04-25T14:47:01.984Z</time></trkpt><trkpt lat="46.05524704344911" lon="9.312903042040272"><ele>215.0</ele><time>2026-04-25T14:47:02.984Z</time></trkpt><trkpt lat="46.05536074134813" lon="9.312935808757702"><ele>215.0</ele><time>2026-04-25T14:47:03.984Z</time></trkpt><trkpt lat="46.05548086820064" lon="9.312951639237456"><ele>215.0</ele><time>2026-04-25T14:47:04.984Z</time></trkpt><trkpt lat="46.0556050799343" lon="9.31297849153932"><ele>215.0</ele><time>2026-04-25T14:47:05.984Z</time></trkpt><trkpt lat="46.055725839219214" lon="9.31298350709847"><ele>212.5</ele><time>2026-04-25T14:47:06.984Z</time></trkpt><trkpt lat="46.055842256464395" lon="9.312994520939972"><ele>210.0</ele><time>2026-04-25T14:47:07.984Z</time></trkpt><trkpt lat="46.055955359606315" lon="9.313007388396821"><ele>207.5</ele><time>2026-04-25T14:47:08.984Z</time></trkpt><trkpt lat="46.05607295324017" lon="9.313015559359744"><ele>205.0</ele><time>2026-04-25T14:47:09.984Z</time></trkpt><trkpt lat="46.056193468530886" lon="9.313030618671055"><ele>205.0</ele><time>2026-04-25T14:47:10.984Z</time></trkpt><trkpt lat="46.056305567155434" lon="9.31304541354488"><ele>205.0</ele><time>2026-04-25T14:47:11.984Z</time></trkpt><trkpt lat="46.05641847392473" lon="9.31305857255871"><ele>205.0</ele><time>2026-04-25T14:47:12.984Z</time></trkpt><trkpt lat="46.05653481931645" lon="9.313066609632253"><ele>205.0</ele><time>2026-04-25T14:47:13.984Z</time></trkpt><trkpt lat="46.056657441502516" lon="9.31308195281788"><ele>211.25</ele><time>2026-04-25T14:47:14.984Z</time></trkpt><trkpt lat="46.0567818821096" lon="9.313087681809147"><ele>217.5</ele><time>2026-04-25T14:47:15.984Z</time></trkpt><trkpt lat="46.0569074299965" lon="9.31312131079242"><ele>223.75</ele><time>2026-04-25T14:47:16.984Z</time></trkpt><trkpt lat="46.05702416285559" lon="9.313106924298141"><ele>230.0</ele><time>2026-04-25T14:47:17.984Z</time></trkpt><trkpt lat="46.05714520203563" lon="9.313077960398314"><ele>224.5</ele><time>2026-04-25T14:47:18.984Z</time></trkpt><trkpt lat="46.05726161892636" lon="9.313035974448821"><ele>219.0</ele><time>2026-04-25T14:47:19.984Z</time></trkpt><trkpt lat="46.05737493643321" lon="9.31298761220584"><ele>213.5</ele><time>2026-04-25T14:47:20.984Z</time></trkpt><trkpt lat="46.05748747901322" lon="9.312943765167093"><ele>208.0</ele><time>2026-04-25T14:47:21.984Z</time></trkpt><trkpt lat="46.05760195432737" lon="9.312891365992911"><ele>208.0</ele><time>2026-04-25T14:47:22.984Z</time></trkpt><trkpt lat="46.05772154599083" lon="9.312842252853178"><ele>208.0</ele><time>2026-04-25T14:47:23.984Z</time></trkpt><trkpt lat="46.0578361399085" lon="9.312791162666574"><ele>208.0</ele><time>2026-04-25T14:47:24.984Z</time></trkpt><trkpt lat="46.05794596885186" lon="9.312735025794105"><ele>208.0</ele><time>2026-04-25T14:47:25.984Z</time></trkpt><trkpt lat="46.058059464026016" lon="9.312683406714331"><ele>208.0</ele><time>2026-04-25T14:47:26.984Z</time></trkpt><trkpt lat="46.05817497368071" lon="9.312627109700525"><ele>208.0</ele><time>2026-04-25T14:47:27.984Z</time></trkpt><trkpt lat="46.05829041841613" lon="9.312577094189434"><ele>208.0</ele><time>2026-04-25T14:47:28.984Z</time></trkpt><trkpt lat="46.058428246175716" lon="9.312519897092452"><ele>208.0</ele><time>2026-04-25T14:47:29.984Z</time></trkpt><trkpt lat="46.05856766588514" lon="9.31248929990137"><ele>209.75</ele><time>2026-04-25T14:47:30.984Z</time></trkpt><trkpt lat="46.058712405390125" lon="9.312468294731195"><ele>211.5</ele><time>2026-04-25T14:47:31.984Z</time></trkpt><trkpt lat="46.058842154285585" lon="9.31245069520453"><ele>213.25</ele><time>2026-04-25T14:47:32.984Z</time></trkpt><trkpt lat="46.05895757901628" lon="9.3124390064268"><ele>215.0</ele><time>2026-04-25T14:47:33.984Z</time></trkpt><trkpt lat="46.05907660174068" lon="9.31241228636022"><ele>215.6</ele><time>2026-04-25T14:47:34.984Z</time></trkpt><trkpt lat="46.05919425507096" lon="9.312399116999329"><ele>216.2</ele><time>2026-04-25T14:47:35.984Z</time></trkpt><trkpt lat="46.05930018421189" lon="9.312414847131349"><ele>216.8</ele><time>2026-04-25T14:47:36.984Z</time></trkpt><trkpt lat="46.05939516715908" lon="9.31247389747281"><ele>217.4</ele><time>2026-04-25T14:47:37.984Z</time></trkpt><trkpt lat="46.059495490267174" lon="9.312529462119718"><ele>218.0</ele><time>2026-04-25T14:47:38.984Z</time></trkpt><trkpt lat="46.05959519895674" lon="9.312585619906407"><ele>218.0</ele><time>2026-04-25T14:47:39.985Z</time></trkpt><trkpt lat="46.05970217133833" lon="9.312629413918453"><ele>218.0</ele><time>2026-04-25T14:47:40.985Z</time></trkpt><trkpt lat="46.0598200086627" lon="9.312652066956804"><ele>218.0</ele><time>2026-04-25T14:47:41.985Z</time></trkpt><trkpt lat="46.059934369629936" lon="9.312665053744478"><ele>218.0</ele><time>2026-04-25T14:47:42.985Z</time></trkpt><trkpt lat="46.06005695554641" lon="9.312681563746706"><ele>217.25</ele><time>2026-04-25T14:47:43.985Z</time></trkpt><trkpt lat="46.06017822413071" lon="9.312690575808007"><ele>216.5</ele><time>2026-04-25T14:47:44.985Z</time></trkpt><trkpt lat="46.0603053327681" lon="9.31268563566402"><ele>215.75</ele><time>2026-04-25T14:47:45.985Z</time></trkpt><trkpt lat="46.060428767059015" lon="9.312672901357477"><ele>215.0</ele><time>2026-04-25T14:47:46.985Z</time></trkpt><trkpt lat="46.060547446005074" lon="9.31266201185302"><ele>215.0</ele><time>2026-04-25T14:47:47.985Z</time></trkpt><trkpt lat="46.06066279347672" lon="9.312640520942288"><ele>215.0</ele><time>2026-04-25T14:47:48.985Z</time></trkpt><trkpt lat="46.060776932066084" lon="9.312611042939983"><ele>215.0</ele><time>2026-04-25T14:47:49.985Z</time></trkpt><trkpt lat="46.06089437011101" lon="9.312570754662106"><ele>215.0</ele><time>2026-04-25T14:47:50.985Z</time></trkpt><trkpt lat="46.0610071535219" lon="9.31249621472125"><ele>219.0</ele><time>2026-04-25T14:47:51.985Z</time></trkpt><trkpt lat="46.0611218698723" lon="9.312407975860069"><ele>223.0</ele><time>2026-04-25T14:47:52.985Z</time></trkpt><trkpt lat="46.06123471254799" lon="9.312319725163176"><ele>227.0</ele><time>2026-04-25T14:47:53.985Z</time></trkpt><trkpt lat="46.06134586867603" lon="9.312237707809658"><ele>231.0</ele><time>2026-04-25T14:47:54.985Z</time></trkpt><trkpt lat="46.06146416840694" lon="9.312190742928927"><ele>223.25</ele><time>2026-04-25T14:47:55.985Z</time></trkpt><trkpt lat="46.061593469466004" lon="9.312176679759242"><ele>215.5</ele><time>2026-04-25T14:47:56.985Z</time></trkpt><trkpt lat="46.06171353492953" lon="9.312168086526226"><ele>207.75</ele><time>2026-04-25T14:47:57.985Z</time></trkpt><trkpt lat="46.06182475102433" lon="9.312150738133042"><ele>200.0</ele><time>2026-04-25T14:47:58.985Z</time></trkpt><trkpt lat="46.061928092795" lon="9.312124765301933"><ele>200.0</ele><time>2026-04-25T14:47:59.985Z</time></trkpt><trkpt lat="46.062041715720945" lon="9.312131997182423"><ele>200.0</ele><time>2026-04-25T14:48:00.985Z</time></trkpt><trkpt lat="46.062154427538054" lon="9.312083328442972"><ele>200.0</ele><time>2026-04-25T14:48:01.985Z</time></trkpt><trkpt lat="46.062263163586294" lon="9.312019746901948"><ele>200.0</ele><time>2026-04-25T14:48:02.985Z</time></trkpt><trkpt lat="46.06236337629571" lon="9.311937946554815"><ele>202.25</ele><time>2026-04-25T14:48:03.985Z</time></trkpt><trkpt lat="46.062459775171746" lon="9.311843495234664"><ele>204.5</ele><time>2026-04-25T14:48:04.985Z</time></trkpt><trkpt lat="46.06256496807323" lon="9.311751164682816"><ele>206.75</ele><time>2026-04-25T14:48:05.985Z</time></trkpt><trkpt lat="46.062668031693875" lon="9.311677208052139"><ele>209.0</ele><time>2026-04-25T14:48:06.985Z</time></trkpt><trkpt lat="46.06277330082982" lon="9.311624752566841"><ele>209.0</ele><time>2026-04-25T14:48:07.985Z</time></trkpt><trkpt lat="46.06287937346838" lon="9.311599590356614"><ele>209.0</ele><time>2026-04-25T14:48:08.985Z</time></trkpt><trkpt lat="46.062993343738825" lon="9.311584261086432"><ele>209.0</ele><time>2026-04-25T14:48:09.985Z</time></trkpt><trkpt lat="46.06310210379899" lon="9.311589789917555"><ele>209.0</ele><time>2026-04-25T14:48:10.985Z</time></trkpt><trkpt lat="46.06320783470356" lon="9.31160342216191"><ele>209.0</ele><time>2026-04-25T14:48:11.985Z</time></trkpt><trkpt lat="46.063309453419684" lon="9.311628058007207"><ele>213.6</ele><time>2026-04-25T14:48:12.985Z</time></trkpt><trkpt lat="46.06341359648781" lon="9.311653853219715"><ele>218.2</ele><time>2026-04-25T14:48:13.985Z</time></trkpt><trkpt lat="46.06351822262665" lon="9.31167292958668"><ele>222.79999999999998</ele><time>2026-04-25T14:48:14.985Z</time></trkpt><trkpt lat="46.063628107348336" lon="9.311696324309045"><ele>227.39999999999998</ele><time>2026-04-25T14:48:15.985Z</time></trkpt><trkpt lat="46.0637409944445" lon="9.31172136501585"><ele>232.0</ele><time>2026-04-25T14:48:16.985Z</time></trkpt><trkpt lat="46.063849578303625" lon="9.311747114110075"><ele>232.0</ele><time>2026-04-25T14:48:17.985Z</time></trkpt><trkpt lat="46.063971592977275" lon="9.31174778186877"><ele>232.0</ele><time>2026-04-25T14:48:19.12Z</time></trkpt><trkpt lat="46.0640790753493" lon="9.31173382608107"><ele>232.0</ele><time>2026-04-25T14:48:20.121Z</time></trkpt><trkpt lat="46.06578419513987" lon="9.310516753716726"><ele>225.0</ele><time>2026-04-25T14:48:24.501Z</time></trkpt><trkpt lat="46.0658244" lon="9.3104161"><ele>218.0</ele><time>2026-04-25T14:48:25.5Z</time></trkpt><trkpt lat="46.06589268806583" lon="9.310186219458055"><ele>211.0</ele><time>2026-04-25T14:48:40.986Z</time></trkpt><trkpt lat="46.06596559924336" lon="9.310147671656013"><ele>204.0</ele><time>2026-04-25T14:48:41.986Z</time></trkpt><trkpt lat="46.06605053281558" lon="9.309957020076267"><ele>204.0</ele><time>2026-04-25T14:48:42.986Z</time></trkpt><trkpt lat="46.06616242541456" lon="9.309856853858783"><ele>204.0</ele><time>2026-04-25T14:48:43.986Z</time></trkpt><trkpt lat="46.06626648061635" lon="9.309773040051308"><ele>204.0</ele><time>2026-04-25T14:48:44.986Z</time></trkpt><trkpt lat="46.06637525042037" lon="9.30970891499623"><ele>204.0</ele><time>2026-04-25T14:48:45.986Z</time></trkpt><trkpt lat="46.06647126906082" lon="9.309649674328567"><ele>203.5</ele><time>2026-04-25T14:48:46.983Z</time></trkpt><trkpt lat="46.066583593815025" lon="9.309631589943493"><ele>203.0</ele><time>2026-04-25T14:48:47.983Z</time></trkpt><trkpt lat="46.066706420830506" lon="9.3096196543099"><ele>202.5</ele><time>2026-04-25T14:48:48.983Z</time></trkpt><trkpt lat="46.066833324662596" lon="9.309629595404353"><ele>202.0</ele><time>2026-04-25T14:48:49.983Z</time></trkpt><trkpt lat="46.066960244267214" lon="9.309661723908386"><ele>202.0</ele><time>2026-04-25T14:48:50.983Z</time></trkpt><trkpt lat="46.06708285458542" lon="9.309672099777538"><ele>202.0</ele><time>2026-04-25T14:48:51.983Z</time></trkpt><trkpt lat="46.06719785802322" lon="9.30968157317294"><ele>202.0</ele><time>2026-04-25T14:48:52.983Z</time></trkpt><trkpt lat="46.06731031789392" lon="9.309690046465704"><ele>202.0</ele><time>2026-04-25T14:48:53.982Z</time></trkpt><trkpt lat="46.06742457713327" lon="9.30969865533311"><ele>203.0</ele><time>2026-04-25T14:48:54.982Z</time></trkpt><trkpt lat="46.067548961426006" lon="9.309686252420564"><ele>204.0</ele><time>2026-04-25T14:48:55.982Z</time></trkpt><trkpt lat="46.06767283567876" lon="9.30971133287289"><ele>205.0</ele><time>2026-04-25T14:48:56.982Z</time></trkpt><trkpt lat="46.06779530407739" lon="9.309726391341329"><ele>206.0</ele><time>2026-04-25T14:48:57.982Z</time></trkpt><trkpt lat="46.06792271949427" lon="9.30973819213143"><ele>205.8</ele><time>2026-04-25T14:48:58.983Z</time></trkpt><trkpt lat="46.06804219770155" lon="9.30975324365403"><ele>205.60000000000002</ele><time>2026-04-25T14:48:59.983Z</time></trkpt><trkpt lat="46.068153356106706" lon="9.30975836271877"><ele>205.4</ele><time>2026-04-25T14:49:00.983Z</time></trkpt><trkpt lat="46.068256514725455" lon="9.309756154591447"><ele>205.2</ele><time>2026-04-25T14:49:01.983Z</time></trkpt><trkpt lat="46.06834907661445" lon="9.309735576157186"><ele>205.0</ele><time>2026-04-25T14:49:02.983Z</time></trkpt><trkpt lat="46.068444713913514" lon="9.309692010089593"><ele>205.0</ele><time>2026-04-25T14:49:03.983Z</time></trkpt><trkpt lat="46.06855948664352" lon="9.30966015258372"><ele>205.0</ele><time>2026-04-25T14:49:04.983Z</time></trkpt><trkpt lat="46.06867692819174" lon="9.30958349426309"><ele>205.0</ele><time>2026-04-25T14:49:05.983Z</time></trkpt><trkpt lat="46.068793591417815" lon="9.309498634618402"><ele>205.0</ele><time>2026-04-25T14:49:06.983Z</time></trkpt><trkpt lat="46.0689147854336" lon="9.309412076921"><ele>205.0</ele><time>2026-04-25T14:49:07.983Z</time></trkpt><trkpt lat="46.0690312195718" lon="9.309305267454498"><ele>205.0</ele><time>2026-04-25T14:49:08.983Z</time></trkpt><trkpt lat="46.069163054508515" lon="9.309238949470595"><ele>205.0</ele><time>2026-04-25T14:49:09.983Z</time></trkpt><trkpt lat="46.069287531702166" lon="9.309153249779902"><ele>205.0</ele><time>2026-04-25T14:49:10.983Z</time></trkpt><trkpt lat="46.0694101638513" lon="9.309063840154787"><ele>205.25</ele><time>2026-04-25T14:49:11.983Z</time></trkpt><trkpt lat="46.06953585367713" lon="9.308977253887763"><ele>205.5</ele><time>2026-04-25T14:49:12.983Z</time></trkpt><trkpt lat="46.06966116335615" lon="9.30888939468733"><ele>205.75</ele><time>2026-04-25T14:49:13.983Z</time></trkpt><trkpt lat="46.06977885976208" lon="9.308803766385132"><ele>206.0</ele><time>2026-04-25T14:49:14.983Z</time></trkpt><trkpt lat="46.06989833111906" lon="9.308718090386702"><ele>205.25</ele><time>2026-04-25T14:49:15.983Z</time></trkpt><trkpt lat="46.070031478611554" lon="9.30864798214919"><ele>204.5</ele><time>2026-04-25T14:49:16.983Z</time></trkpt><trkpt lat="46.070150252974216" lon="9.308547582077592"><ele>203.75</ele><time>2026-04-25T14:49:17.983Z</time></trkpt><trkpt lat="46.07026647723682" lon="9.308435119606207"><ele>203.0</ele><time>2026-04-25T14:49:18.983Z</time></trkpt><trkpt lat="46.07038018778097" lon="9.308321935798302"><ele>203.0</ele><time>2026-04-25T14:49:19.983Z</time></trkpt><trkpt lat="46.0705002920928" lon="9.308214276074683"><ele>203.0</ele><time>2026-04-25T14:49:20.983Z</time></trkpt><trkpt lat="46.070615785103854" lon="9.308092505067386"><ele>203.0</ele><time>2026-04-25T14:49:21.983Z</time></trkpt><trkpt lat="46.07073743133319" lon="9.30797190481243"><ele>203.0</ele><time>2026-04-25T14:49:22.983Z</time></trkpt><trkpt lat="46.07085962136336" lon="9.307841030543864"><ele>204.0</ele><time>2026-04-25T14:49:23.983Z</time></trkpt><trkpt lat="46.070988328592485" lon="9.307717493946647"><ele>205.0</ele><time>2026-04-25T14:49:24.984Z</time></trkpt><trkpt lat="46.071113574410546" lon="9.307593384046772"><ele>206.0</ele><time>2026-04-25T14:49:25.984Z</time></trkpt><trkpt lat="46.07123704702148" lon="9.307461782195032"><ele>206.0</ele><time>2026-04-25T14:49:26.984Z</time></trkpt><trkpt lat="46.07136397454367" lon="9.307330077185851"><ele>206.0</ele><time>2026-04-25T14:49:27.984Z</time></trkpt><trkpt lat="46.071487388240406" lon="9.307207012082207"><ele>206.0</ele><time>2026-04-25T14:49:28.984Z</time></trkpt><trkpt lat="46.07161424039994" lon="9.30707745123423"><ele>206.33333333333334</ele><time>2026-04-25T14:49:29.984Z</time></trkpt><trkpt lat="46.07175270332805" lon="9.306977119300084"><ele>206.66666666666669</ele><time>2026-04-25T14:49:30.984Z</time></trkpt><trkpt lat="46.07188097721031" lon="9.30685679462442"><ele>207.0</ele><time>2026-04-25T14:49:31.984Z</time></trkpt><trkpt lat="46.07200932433987" lon="9.306740842308427"><ele>207.0</ele><time>2026-04-25T14:49:32.984Z</time></trkpt><trkpt lat="46.07213820481547" lon="9.30662540784219"><ele>207.0</ele><time>2026-04-25T14:49:33.984Z</time></trkpt><trkpt lat="46.07226666753001" lon="9.30650569610495"><ele>207.0</ele><time>2026-04-25T14:49:34.984Z</time></trkpt><trkpt lat="46.07239793054795" lon="9.306381967519728"><ele>208.0</ele><time>2026-04-25T14:49:35.984Z</time></trkpt><trkpt lat="46.07253243165621" lon="9.306265313384623"><ele>209.0</ele><time>2026-04-25T14:49:36.984Z</time></trkpt><trkpt lat="46.07266888679831" lon="9.306145475045104"><ele>210.0</ele><time>2026-04-25T14:49:37.984Z</time></trkpt><trkpt lat="46.072807911863315" lon="9.306022079848521"><ele>210.0</ele><time>2026-04-25T14:49:38.984Z</time></trkpt><trkpt lat="46.07294236256797" lon="9.30590468514498"><ele>210.0</ele><time>2026-04-25T14:49:39.984Z</time></trkpt><trkpt lat="46.07308039297805" lon="9.305796580924104"><ele>210.0</ele><time>2026-04-25T14:49:40.984Z</time></trkpt><trkpt lat="46.07321256926007" lon="9.305689630812727"><ele>210.0</ele><time>2026-04-25T14:49:41.984Z</time></trkpt><trkpt lat="46.073343206735714" lon="9.305579709764334"><ele>210.0</ele><time>2026-04-25T14:49:42.984Z</time></trkpt><trkpt lat="46.07347261311309" lon="9.305479015533136"><ele>210.0</ele><time>2026-04-25T14:49:43.984Z</time></trkpt><trkpt lat="46.073594776309974" lon="9.305379436646522"><ele>210.0</ele><time>2026-04-25T14:49:44.984Z</time></trkpt><trkpt lat="46.07372028487077" lon="9.305308045902732"><ele>210.0</ele><time>2026-04-25T14:49:45.984Z</time></trkpt><trkpt lat="46.073837640394295" lon="9.305217357040023"><ele>210.0</ele><time>2026-04-25T14:49:46.984Z</time></trkpt><trkpt lat="46.073942364816084" lon="9.30513210915042"><ele>210.0</ele><time>2026-04-25T14:49:47.984Z</time></trkpt><trkpt lat="46.074041851257114" lon="9.305053276532359"><ele>210.0</ele><time>2026-04-25T14:49:48.984Z</time></trkpt><trkpt lat="46.074134880102655" lon="9.304982070673715"><ele>210.0</ele><time>2026-04-25T14:49:49.984Z</time></trkpt><trkpt lat="46.074225679363565" lon="9.30491759508231"><ele>210.0</ele><time>2026-04-25T14:49:50.984Z</time></trkpt><trkpt lat="46.074318228962696" lon="9.304857434896276"><ele>210.0</ele><time>2026-04-25T14:49:51.984Z</time></trkpt><trkpt lat="46.07440879821334" lon="9.304784526576526"><ele>210.0</ele><time>2026-04-25T14:49:52.984Z</time></trkpt><trkpt lat="46.0745113776636" lon="9.304721390386803"><ele>210.0</ele><time>2026-04-25T14:49:53.984Z</time></trkpt><trkpt lat="46.07462212605721" lon="9.304662521545524"><ele>209.75</ele><time>2026-04-25T14:49:54.984Z</time></trkpt><trkpt lat="46.07474296478433" lon="9.304622031806403"><ele>209.5</ele><time>2026-04-25T14:49:55.984Z</time></trkpt><trkpt lat="46.07486157319954" lon="9.3045706630383"><ele>209.25</ele><time>2026-04-25T14:49:56.984Z</time></trkpt><trkpt lat="46.07498919877658" lon="9.304524976891313"><ele>209.0</ele><time>2026-04-25T14:49:57.984Z</time></trkpt><trkpt lat="46.075118430318064" lon="9.304484239491327"><ele>209.0</ele><time>2026-04-25T14:49:58.984Z</time></trkpt><trkpt lat="46.07524933386921" lon="9.30445036562231"><ele>209.0</ele><time>2026-04-25T14:49:59.984Z</time></trkpt><trkpt lat="46.075377419516386" lon="9.304423025377455"><ele>209.0</ele><time>2026-04-25T14:50:00.984Z</time></trkpt><trkpt lat="46.075510701459656" lon="9.304415690947424"><ele>209.0</ele><time>2026-04-25T14:50:01.984Z</time></trkpt><trkpt lat="46.07564149991559" lon="9.304400920878388"><ele>209.0</ele><time>2026-04-25T14:50:02.984Z</time></trkpt><trkpt lat="46.075766730897335" lon="9.304399414271998"><ele>209.0</ele><time>2026-04-25T14:50:03.984Z</time></trkpt><trkpt lat="46.07589546312116" lon="9.304407011653788"><ele>209.0</ele><time>2026-04-25T14:50:04.984Z</time></trkpt><trkpt lat="46.07602274698427" lon="9.304427748983464"><ele>209.0</ele><time>2026-04-25T14:50:05.985Z</time></trkpt><trkpt lat="46.076147806612795" lon="9.304448039353295"><ele>209.25</ele><time>2026-04-25T14:50:06.985Z</time></trkpt><trkpt lat="46.076278007273345" lon="9.304467562522053"><ele>209.5</ele><time>2026-04-25T14:50:07.985Z</time></trkpt><trkpt lat="46.07641525439662" lon="9.304482781042298"><ele>209.75</ele><time>2026-04-25T14:50:08.985Z</time></trkpt><trkpt lat="46.07655645818931" lon="9.304512095956017"><ele>210.0</ele><time>2026-04-25T14:50:09.985Z</time></trkpt><trkpt lat="46.07669372586312" lon="9.30456786071506"><ele>210.0</ele><time>2026-04-25T14:50:10.985Z</time></trkpt><trkpt lat="46.07683154233414" lon="9.304592622973919"><ele>210.0</ele><time>2026-04-25T14:50:11.985Z</time></trkpt><trkpt lat="46.0769670819627" lon="9.30461730829737"><ele>210.0</ele><time>2026-04-25T14:50:12.985Z</time></trkpt><trkpt lat="46.077099597476796" lon="9.30465008891514"><ele>210.0</ele><time>2026-04-25T14:50:13.985Z</time></trkpt><trkpt lat="46.07722836056694" lon="9.304688800861209"><ele>210.0</ele><time>2026-04-25T14:50:14.985Z</time></trkpt><trkpt lat="46.077355654173786" lon="9.304730461982404"><ele>210.0</ele><time>2026-04-25T14:50:15.985Z</time></trkpt><trkpt lat="46.07747551775847" lon="9.304784437391046"><ele>210.0</ele><time>2026-04-25T14:50:16.985Z</time></trkpt><trkpt lat="46.0775878341193" lon="9.304844526045043"><ele>210.0</ele><time>2026-04-25T14:50:17.985Z</time></trkpt><trkpt lat="46.07769970439198" lon="9.304911176261614"><ele>210.75</ele><time>2026-04-25T14:50:18.985Z</time></trkpt><trkpt lat="46.07781608881815" lon="9.304983865934217"><ele>211.5</ele><time>2026-04-25T14:50:19.985Z</time></trkpt><trkpt lat="46.07793109310465" lon="9.305075623037641"><ele>212.25</ele><time>2026-04-25T14:50:20.985Z</time></trkpt><trkpt lat="46.078038627059925" lon="9.305167437933486"><ele>213.0</ele><time>2026-04-25T14:50:21.985Z</time></trkpt><trkpt lat="46.078137053054654" lon="9.305253747735842"><ele>213.0</ele><time>2026-04-25T14:50:22.985Z</time></trkpt><trkpt lat="46.07823025242466" lon="9.3053458571212"><ele>213.0</ele><time>2026-04-25T14:50:23.985Z</time></trkpt><trkpt lat="46.07831930064942" lon="9.305445911894235"><ele>213.0</ele><time>2026-04-25T14:50:24.985Z</time></trkpt><trkpt lat="46.078406368054374" lon="9.305561207971193"><ele>213.0</ele><time>2026-04-25T14:50:25.985Z</time></trkpt><trkpt lat="46.078490147825306" lon="9.305686870128307"><ele>213.5</ele><time>2026-04-25T14:50:26.985Z</time></trkpt><trkpt lat="46.07857199604678" lon="9.30581504795038"><ele>214.0</ele><time>2026-04-25T14:50:27.985Z</time></trkpt><trkpt lat="46.07865184055305" lon="9.3059542020169"><ele>214.5</ele><time>2026-04-25T14:50:28.985Z</time></trkpt><trkpt lat="46.07873173852994" lon="9.30610088128717"><ele>215.0</ele><time>2026-04-25T14:50:29.985Z</time></trkpt><trkpt lat="46.07880293916718" lon="9.306241221866367"><ele>215.0</ele><time>2026-04-25T14:50:30.985Z</time></trkpt><trkpt lat="46.07886511067124" lon="9.30637593791034"><ele>215.0</ele><time>2026-04-25T14:50:31.985Z</time></trkpt><trkpt lat="46.07892516731506" lon="9.306506029945346"><ele>215.0</ele><time>2026-04-25T14:50:32.985Z</time></trkpt><trkpt lat="46.07898821486803" lon="9.3066377682497"><ele>215.0</ele><time>2026-04-25T14:50:33.985Z</time></trkpt><trkpt lat="46.07904861993255" lon="9.306768554801726"><ele>215.0</ele><time>2026-04-25T14:50:34.985Z</time></trkpt><trkpt lat="46.079118253615675" lon="9.306902059279178"><ele>214.4</ele><time>2026-04-25T14:50:35.985Z</time></trkpt><trkpt lat="46.0791868431719" lon="9.307037554620413"><ele>213.8</ele><time>2026-04-25T14:50:36.985Z</time></trkpt><trkpt lat="46.079252751651765" lon="9.307171016839847"><ele>213.2</ele><time>2026-04-25T14:50:37.985Z</time></trkpt><trkpt lat="46.0793013131516" lon="9.30731038685415"><ele>212.6</ele><time>2026-04-25T14:50:38.985Z</time></trkpt><trkpt lat="46.07935938109107" lon="9.307429707395848"><ele>212.0</ele><time>2026-04-25T14:50:39.985Z</time></trkpt><trkpt lat="46.07941985283597" lon="9.307554341474725"><ele>212.0</ele><time>2026-04-25T14:50:40.985Z</time></trkpt><trkpt lat="46.07948043205291" lon="9.307680630919275"><ele>212.0</ele><time>2026-04-25T14:50:41.985Z</time></trkpt><trkpt lat="46.07954121592184" lon="9.30780697090112"><ele>212.0</ele><time>2026-04-25T14:50:42.985Z</time></trkpt><trkpt lat="46.07960436475029" lon="9.307937690988636"><ele>212.0</ele><time>2026-04-25T14:50:43.985Z</time></trkpt><trkpt lat="46.07966551296622" lon="9.308063400138131"><ele>212.0</ele><time>2026-04-25T14:50:44.985Z</time></trkpt><trkpt lat="46.07972288384865" lon="9.308182518571178"><ele>212.2</ele><time>2026-04-25T14:50:45.985Z</time></trkpt><trkpt lat="46.07977719115542" lon="9.308299672987417"><ele>212.39999999999998</ele><time>2026-04-25T14:50:46.985Z</time></trkpt><trkpt lat="46.07983514120829" lon="9.308420299035475"><ele>212.60000000000002</ele><time>2026-04-25T14:50:47.986Z</time></trkpt><trkpt lat="46.07989669941167" lon="9.308542332508582"><ele>212.8</ele><time>2026-04-25T14:50:48.986Z</time></trkpt><trkpt lat="46.07996210153151" lon="9.308672347534227"><ele>213.0</ele><time>2026-04-25T14:50:49.986Z</time></trkpt><trkpt lat="46.08002787201065" lon="9.308807288854597"><ele>213.2</ele><time>2026-04-25T14:50:50.986Z</time></trkpt><trkpt lat="46.08009870264711" lon="9.308937914367242"><ele>213.4</ele><time>2026-04-25T14:50:51.986Z</time></trkpt><trkpt lat="46.080162545196984" lon="9.309066146076935"><ele>213.59999999999997</ele><time>2026-04-25T14:50:52.983Z</time></trkpt><trkpt lat="46.08021334267034" lon="9.309202140028814"><ele>213.79999999999998</ele><time>2026-04-25T14:50:53.982Z</time></trkpt><trkpt lat="46.08027643118467" lon="9.309333808947759"><ele>214.0</ele><time>2026-04-25T14:50:54.982Z</time></trkpt><trkpt lat="46.08034296525655" lon="9.309467827669831"><ele>214.0</ele><time>2026-04-25T14:50:55.983Z</time></trkpt><trkpt lat="46.080409039882944" lon="9.30959846820955"><ele>213.99999999999997</ele><time>2026-04-25T14:50:56.982Z</time></trkpt><trkpt lat="46.080474868765414" lon="9.30972941105246"><ele>213.99999999999997</ele><time>2026-04-25T14:50:57.982Z</time></trkpt><trkpt lat="46.08053978395226" lon="9.309857549063546"><ele>214.0</ele><time>2026-04-25T14:50:58.982Z</time></trkpt><trkpt lat="46.08060646522177" lon="9.309984893841822"><ele>214.0</ele><time>2026-04-25T14:50:59.982Z</time></trkpt><trkpt lat="46.080673050736564" lon="9.310107801188837"><ele>213.0</ele><time>2026-04-25T14:51:00.982Z</time></trkpt><trkpt lat="46.08073124979009" lon="9.310233602072724"><ele>211.99999999999997</ele><time>2026-04-25T14:51:01.982Z</time></trkpt><trkpt lat="46.080814155115576" lon="9.310349209087992"><ele>211.0</ele><time>2026-04-25T14:51:02.983Z</time></trkpt><trkpt lat="46.0809021656796" lon="9.3104576042242"><ele>210.0</ele><time>2026-04-25T14:51:03.983Z</time></trkpt><trkpt lat="46.08099310989344" lon="9.310552738277286"><ele>209.0</ele><time>2026-04-25T14:51:04.982Z</time></trkpt><trkpt lat="46.08109622569256" lon="9.310638325358216"><ele>212.25</ele><time>2026-04-25T14:51:05.983Z</time></trkpt><trkpt lat="46.08120468331594" lon="9.31071712711738"><ele>215.5</ele><time>2026-04-25T14:51:06.983Z</time></trkpt><trkpt lat="46.081317367416005" lon="9.310782424908357"><ele>218.75</ele><time>2026-04-25T14:51:07.983Z</time></trkpt><trkpt lat="46.081432235677106" lon="9.310832610147704"><ele>222.0</ele><time>2026-04-25T14:51:08.983Z</time></trkpt><trkpt lat="46.08154551339121" lon="9.310868559545208"><ele>220.2</ele><time>2026-04-25T14:51:09.983Z</time></trkpt><trkpt lat="46.081648565883306" lon="9.310907784198983"><ele>218.39999999999998</ele><time>2026-04-25T14:51:10.983Z</time></trkpt><trkpt lat="46.081749609076006" lon="9.31092768489994"><ele>216.60000000000002</ele><time>2026-04-25T14:51:11.983Z</time></trkpt><trkpt lat="46.081846775203374" lon="9.310942345243905"><ele>214.8</ele><time>2026-04-25T14:51:12.983Z</time></trkpt><trkpt lat="46.08194654775288" lon="9.31095865810846"><ele>213.0</ele><time>2026-04-25T14:51:13.983Z</time></trkpt><trkpt lat="46.08204866149922" lon="9.310975660470849"><ele>213.0</ele><time>2026-04-25T14:51:14.983Z</time></trkpt><trkpt lat="46.08215019188448" lon="9.31100794842358"><ele>213.0</ele><time>2026-04-25T14:51:15.983Z</time></trkpt><trkpt lat="46.08225158929469" lon="9.311054355001872"><ele>213.0</ele><time>2026-04-25T14:51:16.983Z</time></trkpt><trkpt lat="46.08235305698752" lon="9.311120622845381"><ele>213.0</ele><time>2026-04-25T14:51:17.983Z</time></trkpt><trkpt lat="46.08245688156068" lon="9.311192541684118"><ele>213.0</ele><time>2026-04-25T14:51:18.983Z</time></trkpt><trkpt lat="46.082553813816595" lon="9.311257952772186"><ele>211.25</ele><time>2026-04-25T14:51:19.983Z</time></trkpt><trkpt lat="46.08265225070951" lon="9.31131152135868"><ele>209.5</ele><time>2026-04-25T14:51:20.983Z</time></trkpt><trkpt lat="46.082752398190294" lon="9.311328374181183"><ele>207.75</ele><time>2026-04-25T14:51:21.983Z</time></trkpt><trkpt lat="46.082873529849465" lon="9.311315300950396"><ele>206.0</ele><time>2026-04-25T14:51:22.983Z</time></trkpt><trkpt lat="46.083018161608244" lon="9.3112957842965"><ele>206.0</ele><time>2026-04-25T14:51:23.983Z</time></trkpt><trkpt lat="46.083180079268544" lon="9.31125876820149"><ele>206.0</ele><time>2026-04-25T14:51:24.983Z</time></trkpt><trkpt lat="46.083343234512355" lon="9.311220739013848"><ele>206.0</ele><time>2026-04-25T14:51:25.983Z</time></trkpt><trkpt lat="46.083504121666394" lon="9.311181992579733"><ele>207.25</ele><time>2026-04-25T14:51:26.983Z</time></trkpt><trkpt lat="46.08365245025733" lon="9.311122527293831"><ele>208.5</ele><time>2026-04-25T14:51:27.983Z</time></trkpt><trkpt lat="46.083793430251156" lon="9.3111132212817"><ele>209.75</ele><time>2026-04-25T14:51:28.983Z</time></trkpt><trkpt lat="46.08392949800059" lon="9.311076659527302"><ele>211.0</ele><time>2026-04-25T14:51:29.983Z</time></trkpt><trkpt lat="46.084066103543464" lon="9.311039897602319"><ele>212.75</ele><time>2026-04-25T14:51:30.983Z</time></trkpt><trkpt lat="46.08420410326402" lon="9.311000353936734"><ele>214.5</ele><time>2026-04-25T14:51:31.983Z</time></trkpt><trkpt lat="46.084345986094526" lon="9.31097738575732"><ele>216.25</ele><time>2026-04-25T14:51:32.983Z</time></trkpt><trkpt lat="46.08448446904686" lon="9.31094503101628"><ele>218.0</ele><time>2026-04-25T14:51:33.983Z</time></trkpt><trkpt lat="46.08461838868198" lon="9.310895431455457"><ele>218.0</ele><time>2026-04-25T14:51:34.983Z</time></trkpt><trkpt lat="46.084754761669686" lon="9.310845273943603"><ele>218.0</ele><time>2026-04-25T14:51:35.983Z</time></trkpt><trkpt lat="46.084890280692186" lon="9.31077771582919"><ele>218.0</ele><time>2026-04-25T14:51:36.983Z</time></trkpt><trkpt lat="46.085026683263" lon="9.310705824392985"><ele>218.0</ele><time>2026-04-25T14:51:37.983Z</time></trkpt><trkpt lat="46.08516244008071" lon="9.310644287533323"><ele>214.25</ele><time>2026-04-25T14:51:38.983Z</time></trkpt><trkpt lat="46.0853008519281" lon="9.310572616974325"><ele>210.5</ele><time>2026-04-25T14:51:39.983Z</time></trkpt><trkpt lat="46.08543683444569" lon="9.310505651120145"><ele>206.75</ele><time>2026-04-25T14:51:40.983Z</time></trkpt><trkpt lat="46.085573867946316" lon="9.310423965157465"><ele>203.0</ele><time>2026-04-25T14:51:41.983Z</time></trkpt><trkpt lat="46.08571412764521" lon="9.310366046301269"><ele>204.0</ele><time>2026-04-25T14:51:42.984Z</time></trkpt><trkpt lat="46.085857697772056" lon="9.31030897192701"><ele>205.0</ele><time>2026-04-25T14:51:43.984Z</time></trkpt><trkpt lat="46.08600267623154" lon="9.31025524610456"><ele>206.0</ele><time>2026-04-25T14:51:44.984Z</time></trkpt><trkpt lat="46.08614981711138" lon="9.31020138861862"><ele>206.0</ele><time>2026-04-25T14:51:45.984Z</time></trkpt><trkpt lat="46.08628782377973" lon="9.310151225776318"><ele>206.0</ele><time>2026-04-25T14:51:46.984Z</time></trkpt><trkpt lat="46.08641531835156" lon="9.31011323777415"><ele>206.0</ele><time>2026-04-25T14:51:47.984Z</time></trkpt><trkpt lat="46.08654719296211" lon="9.310084037555763"><ele>206.0</ele><time>2026-04-25T14:51:48.984Z</time></trkpt><trkpt lat="46.08668513553101" lon="9.310066479855077"><ele>209.0</ele><time>2026-04-25T14:51:49.984Z</time></trkpt><trkpt lat="46.086815309546246" lon="9.310051290668415"><ele>212.0</ele><time>2026-04-25T14:51:50.984Z</time></trkpt><trkpt lat="46.086937352017905" lon="9.310037892323729"><ele>215.0</ele><time>2026-04-25T14:51:51.984Z</time></trkpt><trkpt lat="46.08705832897713" lon="9.310031724464954"><ele>218.0</ele><time>2026-04-25T14:51:52.984Z</time></trkpt><trkpt lat="46.08717454048118" lon="9.310051754262032"><ele>218.0</ele><time>2026-04-25T14:51:53.984Z</time></trkpt><trkpt lat="46.087281725828745" lon="9.310107048867916"><ele>218.0</ele><time>2026-04-25T14:51:54.984Z</time></trkpt><trkpt lat="46.0873906882578" lon="9.310203024328292"><ele>218.0</ele><time>2026-04-25T14:51:55.984Z</time></trkpt><trkpt lat="46.08752146252401" lon="9.31030766406935"><ele>218.0</ele><time>2026-04-25T14:51:56.984Z</time></trkpt><trkpt lat="46.08764161824747" lon="9.31040369514302"><ele>216.75</ele><time>2026-04-25T14:51:57.984Z</time></trkpt><trkpt lat="46.08776258594597" lon="9.31050047983986"><ele>215.5</ele><time>2026-04-25T14:51:58.984Z</time></trkpt><trkpt lat="46.0878819462499" lon="9.310596080373196"><ele>214.25</ele><time>2026-04-25T14:51:59.984Z</time></trkpt><trkpt lat="46.08800442450646" lon="9.310694127731281"><ele>213.0</ele><time>2026-04-25T14:52:00.984Z</time></trkpt><trkpt lat="46.08812285636654" lon="9.310788750223091"><ele>216.25</ele><time>2026-04-25T14:52:01.984Z</time></trkpt><trkpt lat="46.088245218324545" lon="9.310886586194576"><ele>219.5</ele><time>2026-04-25T14:52:02.984Z</time></trkpt><trkpt lat="46.088364716327035" lon="9.310982580588163"><ele>222.75</ele><time>2026-04-25T14:52:03.984Z</time></trkpt><trkpt lat="46.08849965032321" lon="9.311066693224753"><ele>226.0</ele><time>2026-04-25T14:52:04.984Z</time></trkpt><trkpt lat="46.08862376000626" lon="9.311165255370907"><ele>226.0</ele><time>2026-04-25T14:52:05.984Z</time></trkpt><trkpt lat="46.088739492761185" lon="9.311278750707755"><ele>226.0</ele><time>2026-04-25T14:52:06.984Z</time></trkpt><trkpt lat="46.088881847626645" lon="9.31134274062541"><ele>226.0</ele><time>2026-04-25T14:52:07.984Z</time></trkpt><trkpt lat="46.08901222081554" lon="9.311408987111562"><ele>226.0</ele><time>2026-04-25T14:52:08.984Z</time></trkpt><trkpt lat="46.089149277630376" lon="9.311442473026492"><ele>229.75</ele><time>2026-04-25T14:52:09.984Z</time></trkpt><trkpt lat="46.08928977487065" lon="9.311453225629995"><ele>233.5</ele><time>2026-04-25T14:52:10.984Z</time></trkpt><trkpt lat="46.08942870928279" lon="9.311450655824087"><ele>237.25</ele><time>2026-04-25T14:52:11.984Z</time></trkpt><trkpt lat="46.08955729500038" lon="9.311441236347083"><ele>241.0</ele><time>2026-04-25T14:52:12.984Z</time></trkpt><trkpt lat="46.089680374078945" lon="9.311451103560186"><ele>241.0</ele><time>2026-04-25T14:52:13.984Z</time></trkpt><trkpt lat="46.08980108699616" lon="9.311485414994266"><ele>241.0</ele><time>2026-04-25T14:52:14.984Z</time></trkpt><trkpt lat="46.08993525888615" lon="9.311538635012598"><ele>241.0</ele><time>2026-04-25T14:52:15.984Z</time></trkpt><trkpt lat="46.090091926044195" lon="9.311598299307223"><ele>241.0</ele><time>2026-04-25T14:52:16.984Z</time></trkpt><trkpt lat="46.09022772858271" lon="9.311654088976423"><ele>241.25</ele><time>2026-04-25T14:52:17.984Z</time></trkpt><trkpt lat="46.090365267590435" lon="9.311701751390288"><ele>241.5</ele><time>2026-04-25T14:52:18.984Z</time></trkpt><trkpt lat="46.090503851699296" lon="9.311754568330452"><ele>241.75</ele><time>2026-04-25T14:52:19.984Z</time></trkpt><trkpt lat="46.09062967870078" lon="9.311809988864772"><ele>242.0</ele><time>2026-04-25T14:52:20.984Z</time></trkpt><trkpt lat="46.09074136524491" lon="9.311903256058136"><ele>237.25</ele><time>2026-04-25T14:52:21.984Z</time></trkpt><trkpt lat="46.09085970295971" lon="9.31199398998935"><ele>232.5</ele><time>2026-04-25T14:52:22.984Z</time></trkpt><trkpt lat="46.090976705955065" lon="9.312134280357556"><ele>227.75</ele><time>2026-04-25T14:52:23.984Z</time></trkpt><trkpt lat="46.09109651566327" lon="9.312270724099223"><ele>223.0</ele><time>2026-04-25T14:52:24.985Z</time></trkpt><trkpt lat="46.091212335695246" lon="9.312388225464517"><ele>223.75</ele><time>2026-04-25T14:52:25.985Z</time></trkpt><trkpt lat="46.09133459222553" lon="9.312487916601475"><ele>224.5</ele><time>2026-04-25T14:52:26.985Z</time></trkpt><trkpt lat="46.0914729973396" lon="9.312557424623506"><ele>225.25</ele><time>2026-04-25T14:52:27.985Z</time></trkpt><trkpt lat="46.09162229353937" lon="9.312605607123057"><ele>226.0</ele><time>2026-04-25T14:52:28.985Z</time></trkpt><trkpt lat="46.09177603279885" lon="9.312649517782003"><ele>226.0</ele><time>2026-04-25T14:52:29.985Z</time></trkpt><trkpt lat="46.091918362641074" lon="9.312722097211614"><ele>226.0</ele><time>2026-04-25T14:52:30.985Z</time></trkpt><trkpt lat="46.092051068418634" lon="9.312822982328674"><ele>226.0</ele><time>2026-04-25T14:52:31.985Z</time></trkpt><trkpt lat="46.09218519038139" lon="9.31294736985809"><ele>226.0</ele><time>2026-04-25T14:52:32.985Z</time></trkpt><trkpt lat="46.09232566647406" lon="9.313041801271899"><ele>226.0</ele><time>2026-04-25T14:52:33.985Z</time></trkpt><trkpt lat="46.09246801598475" lon="9.313148931593652"><ele>226.0</ele><time>2026-04-25T14:52:34.985Z</time></trkpt><trkpt lat="46.092611403466655" lon="9.313255770837277"><ele>226.66666666666666</ele><time>2026-04-25T14:52:35.985Z</time></trkpt><trkpt lat="46.092756922781554" lon="9.31336420019157"><ele>227.33333333333331</ele><time>2026-04-25T14:52:36.985Z</time></trkpt><trkpt lat="46.09289859064941" lon="9.313472386913082"><ele>228.0</ele><time>2026-04-25T14:52:37.985Z</time></trkpt><trkpt lat="46.09303645088227" lon="9.313584548693765"><ele>228.0</ele><time>2026-04-25T14:52:38.985Z</time></trkpt><trkpt lat="46.09317107810719" lon="9.313700257024145"><ele>228.0</ele><time>2026-04-25T14:52:39.985Z</time></trkpt><trkpt lat="46.09330595992069" lon="9.313794441947904"><ele>228.0</ele><time>2026-04-25T14:52:40.985Z</time></trkpt><trkpt lat="46.09342336815279" lon="9.31390492701517"><ele>228.0</ele><time>2026-04-25T14:52:41.985Z</time></trkpt><trkpt lat="46.09353698855425" lon="9.314002873041193"><ele>229.25</ele><time>2026-04-25T14:52:42.985Z</time></trkpt><trkpt lat="46.093652912474106" lon="9.314101545380202"><ele>230.5</ele><time>2026-04-25T14:52:43.985Z</time></trkpt><trkpt lat="46.09376853917565" lon="9.314221900711892"><ele>231.75</ele><time>2026-04-25T14:52:44.985Z</time></trkpt><trkpt lat="46.093869030053526" lon="9.31436018231706"><ele>233.0</ele><time>2026-04-25T14:52:45.985Z</time></trkpt><trkpt lat="46.09397914164465" lon="9.314518977589488"><ele>230.33333333333334</ele><time>2026-04-25T14:52:46.985Z</time></trkpt><trkpt lat="46.09408952419865" lon="9.314673452527876"><ele>227.66666666666669</ele><time>2026-04-25T14:52:47.985Z</time></trkpt><trkpt lat="46.09420010993288" lon="9.31483270740775"><ele>225.0</ele><time>2026-04-25T14:52:48.985Z</time></trkpt><trkpt lat="46.09430894090707" lon="9.3149915731243"><ele>225.0</ele><time>2026-04-25T14:52:49.985Z</time></trkpt><trkpt lat="46.09441614061783" lon="9.315147429528224"><ele>225.0</ele><time>2026-04-25T14:52:50.985Z</time></trkpt><trkpt lat="46.094517345593204" lon="9.315310529512054"><ele>225.0</ele><time>2026-04-25T14:52:51.985Z</time></trkpt><trkpt lat="46.09462268732152" lon="9.315463623477468"><ele>223.25</ele><time>2026-04-25T14:52:52.985Z</time></trkpt><trkpt lat="46.09472189332358" lon="9.315613096197701"><ele>221.5</ele><time>2026-04-25T14:52:53.985Z</time></trkpt><trkpt lat="46.0948133698355" lon="9.315762938281102"><ele>219.75</ele><time>2026-04-25T14:52:54.985Z</time></trkpt><trkpt lat="46.09490534848486" lon="9.315890212581829"><ele>218.0</ele><time>2026-04-25T14:52:55.985Z</time></trkpt><trkpt lat="46.094994932777674" lon="9.31600660548146"><ele>218.0</ele><time>2026-04-25T14:52:56.985Z</time></trkpt><trkpt lat="46.09508290169699" lon="9.316115498620416"><ele>218.0</ele><time>2026-04-25T14:52:57.985Z</time></trkpt><trkpt lat="46.09517606332578" lon="9.31620577023312"><ele>218.0</ele><time>2026-04-25T14:52:58.983Z</time></trkpt><trkpt lat="46.0952872662913" lon="9.316283122844562"><ele>218.0</ele><time>2026-04-25T14:52:59.983Z</time></trkpt><trkpt lat="46.09540479818516" lon="9.316345586735562"><ele>218.0</ele><time>2026-04-25T14:53:00.983Z</time></trkpt><trkpt lat="46.09552889726894" lon="9.316394177581921"><ele>218.0</ele><time>2026-04-25T14:53:01.983Z</time></trkpt><trkpt lat="46.095650762957675" lon="9.316443713977257"><ele>218.0</ele><time>2026-04-25T14:53:02.983Z</time></trkpt><trkpt lat="46.09578255915693" lon="9.316485535578718"><ele>218.0</ele><time>2026-04-25T14:53:03.983Z</time></trkpt><trkpt lat="46.09591282434914" lon="9.316529115589526"><ele>219.5</ele><time>2026-04-25T14:53:04.982Z</time></trkpt><trkpt lat="46.09603756143584" lon="9.316575593519394"><ele>221.0</ele><time>2026-04-25T14:53:05.982Z</time></trkpt><trkpt lat="46.09616367438534" lon="9.316615740318623"><ele>222.5</ele><time>2026-04-25T14:53:06.982Z</time></trkpt><trkpt lat="46.09628177438836" lon="9.316653010804005"><ele>224.0</ele><time>2026-04-25T14:53:07.983Z</time></trkpt><trkpt lat="46.09640073432335" lon="9.316673224688369"><ele>224.0</ele><time>2026-04-25T14:53:08.982Z</time></trkpt><trkpt lat="46.096514685433874" lon="9.316675965017561"><ele>223.99999999999997</ele><time>2026-04-25T14:53:09.982Z</time></trkpt><trkpt lat="46.096618037867145" lon="9.316666488865742"><ele>223.99999999999997</ele><time>2026-04-25T14:53:10.982Z</time></trkpt><trkpt lat="46.09671359710245" lon="9.316664133605384"><ele>224.0</ele><time>2026-04-25T14:53:11.983Z</time></trkpt><trkpt lat="46.0967899036156" lon="9.316638810912375"><ele>224.0</ele><time>2026-04-25T14:53:12.983Z</time></trkpt><trkpt lat="46.09685587640249" lon="9.31661505436167"><ele>223.5</ele><time>2026-04-25T14:53:13.983Z</time></trkpt><trkpt lat="46.09696594237599" lon="9.316569092791791"><ele>223.0</ele><time>2026-04-25T14:53:15.983Z</time></trkpt><trkpt lat="46.09707632722687" lon="9.316554085044078"><ele>222.5</ele><time>2026-04-25T14:53:17.983Z</time></trkpt><trkpt lat="46.09721134375235" lon="9.316575629418024"><ele>222.0</ele><time>2026-04-25T14:53:19.983Z</time></trkpt><trkpt lat="46.0972980714213" lon="9.31660221001596"><ele>222.0</ele><time>2026-04-25T14:53:20.983Z</time></trkpt><trkpt lat="46.097390854374325" lon="9.316646449531682"><ele>222.0</ele><time>2026-04-25T14:53:21.983Z</time></trkpt><trkpt lat="46.097492650516955" lon="9.316719408060283"><ele>222.0</ele><time>2026-04-25T14:53:22.983Z</time></trkpt><trkpt lat="46.09758843924269" lon="9.316802670231743"><ele>222.0</ele><time>2026-04-25T14:53:23.983Z</time></trkpt><trkpt lat="46.09768972710535" lon="9.316892524688178"><ele>222.0</ele><time>2026-04-25T14:53:24.983Z</time></trkpt><trkpt lat="46.09779741890879" lon="9.316979800754197"><ele>220.75</ele><time>2026-04-25T14:53:25.983Z</time></trkpt><trkpt lat="46.09790478344517" lon="9.317071531995346"><ele>219.5</ele><time>2026-04-25T14:53:26.983Z</time></trkpt><trkpt lat="46.09802966071266" lon="9.317122808720143"><ele>218.25</ele><time>2026-04-25T14:53:27.983Z</time></trkpt><trkpt lat="46.09816471272924" lon="9.317151891072713"><ele>217.0</ele><time>2026-04-25T14:53:28.983Z</time></trkpt><trkpt lat="46.098294581300046" lon="9.317158303482387"><ele>215.0</ele><time>2026-04-25T14:53:29.984Z</time></trkpt><trkpt lat="46.098431593529234" lon="9.317159297325949"><ele>213.0</ele><time>2026-04-25T14:53:30.984Z</time></trkpt><trkpt lat="46.09856977552525" lon="9.317157583974154"><ele>211.0</ele><time>2026-04-25T14:53:31.984Z</time></trkpt><trkpt lat="46.09870698562975" lon="9.317157026649523"><ele>209.0</ele><time>2026-04-25T14:53:32.984Z</time></trkpt><trkpt lat="46.09884761251686" lon="9.317148064414187"><ele>209.0</ele><time>2026-04-25T14:53:33.984Z</time></trkpt><trkpt lat="46.09898623474344" lon="9.317146226404601"><ele>209.0</ele><time>2026-04-25T14:53:34.984Z</time></trkpt><trkpt lat="46.099123645933034" lon="9.317146727466255"><ele>209.0</ele><time>2026-04-25T14:53:35.984Z</time></trkpt><trkpt lat="46.09925793866056" lon="9.317150880470487"><ele>209.0</ele><time>2026-04-25T14:53:36.984Z</time></trkpt><trkpt lat="46.09939234605262" lon="9.317150729407096"><ele>208.25</ele><time>2026-04-25T14:53:37.984Z</time></trkpt><trkpt lat="46.09952847709727" lon="9.317152200356512"><ele>207.5</ele><time>2026-04-25T14:53:38.984Z</time></trkpt><trkpt lat="46.099665640731885" lon="9.317160499812523"><ele>206.75</ele><time>2026-04-25T14:53:39.984Z</time></trkpt><trkpt lat="46.099808431676564" lon="9.31718636559545"><ele>206.0</ele><time>2026-04-25T14:53:40.984Z</time></trkpt><trkpt lat="46.09995551943035" lon="9.317236136686606"><ele>212.66666666666669</ele><time>2026-04-25T14:53:41.984Z</time></trkpt><trkpt lat="46.100107959119086" lon="9.31729092051851"><ele>219.33333333333331</ele><time>2026-04-25T14:53:42.984Z</time></trkpt><trkpt lat="46.10025756524354" lon="9.317366735198362"><ele>226.0</ele><time>2026-04-25T14:53:43.984Z</time></trkpt><trkpt lat="46.100399593948744" lon="9.31745784187396"><ele>226.0</ele><time>2026-04-25T14:53:44.984Z</time></trkpt><trkpt lat="46.10053998829838" lon="9.317538340709277"><ele>226.0</ele><time>2026-04-25T14:53:45.984Z</time></trkpt><trkpt lat="46.1006764813461" lon="9.317629367789554"><ele>226.0</ele><time>2026-04-25T14:53:46.984Z</time></trkpt><trkpt lat="46.10081220124772" lon="9.317723527536307"><ele>227.5</ele><time>2026-04-25T14:53:47.984Z</time></trkpt><trkpt lat="46.10093476338677" lon="9.317835072307483"><ele>229.0</ele><time>2026-04-25T14:53:48.984Z</time></trkpt><trkpt lat="46.10106716676819" lon="9.317903754556504"><ele>230.5</ele><time>2026-04-25T14:53:49.984Z</time></trkpt><trkpt lat="46.10118428909753" lon="9.317990749163242"><ele>232.0</ele><time>2026-04-25T14:53:50.984Z</time></trkpt><trkpt lat="46.10129441452806" lon="9.318073329993743"><ele>232.0</ele><time>2026-04-25T14:53:51.984Z</time></trkpt><trkpt lat="46.10139158944945" lon="9.318188350665292"><ele>232.0</ele><time>2026-04-25T14:53:52.984Z</time></trkpt><trkpt lat="46.101503832848806" lon="9.318266599433027"><ele>232.0</ele><time>2026-04-25T14:53:53.984Z</time></trkpt><trkpt lat="46.101615143036625" lon="9.318347364573091"><ele>232.0</ele><time>2026-04-25T14:53:54.984Z</time></trkpt><trkpt lat="46.10171232980305" lon="9.318442786124827"><ele>233.5</ele><time>2026-04-25T14:53:55.984Z</time></trkpt><trkpt lat="46.10180496065626" lon="9.318544645508164"><ele>235.0</ele><time>2026-04-25T14:53:56.984Z</time></trkpt><trkpt lat="46.101895726105255" lon="9.31865872320778"><ele>236.5</ele><time>2026-04-25T14:53:57.984Z</time></trkpt><trkpt lat="46.10198619246436" lon="9.318785495395781"><ele>238.0</ele><time>2026-04-25T14:53:58.984Z</time></trkpt><trkpt lat="46.10208109734515" lon="9.318913596147457"><ele>238.0</ele><time>2026-04-25T14:53:59.984Z</time></trkpt><trkpt lat="46.10218373942062" lon="9.31903690103493"><ele>238.0</ele><time>2026-04-25T14:54:00.984Z</time></trkpt><trkpt lat="46.10227949257615" lon="9.31916217589995"><ele>238.0</ele><time>2026-04-25T14:54:01.984Z</time></trkpt><trkpt lat="46.10238109550901" lon="9.319275600181468"><ele>238.0</ele><time>2026-04-25T14:54:02.984Z</time></trkpt><trkpt lat="46.102492431884194" lon="9.319376484722929"><ele>237.75</ele><time>2026-04-25T14:54:03.984Z</time></trkpt><trkpt lat="46.102575757246754" lon="9.319506598751726"><ele>237.5</ele><time>2026-04-25T14:54:04.984Z</time></trkpt><trkpt lat="46.102690348856775" lon="9.319605123092519"><ele>237.25</ele><time>2026-04-25T14:54:05.984Z</time></trkpt><trkpt lat="46.102798821898084" lon="9.319691794795569"><ele>237.0</ele><time>2026-04-25T14:54:06.984Z</time></trkpt><trkpt lat="46.10290620499512" lon="9.319770850464975"><ele>237.0</ele><time>2026-04-25T14:54:07.984Z</time></trkpt><trkpt lat="46.103015907570644" lon="9.319855067162326"><ele>237.0</ele><time>2026-04-25T14:54:08.984Z</time></trkpt><trkpt lat="46.10312527429566" lon="9.319947192049106"><ele>237.0</ele><time>2026-04-25T14:54:09.984Z</time></trkpt><trkpt lat="46.10323200809884" lon="9.320049089480964"><ele>237.0</ele><time>2026-04-25T14:54:10.984Z</time></trkpt><trkpt lat="46.10334756323734" lon="9.320146597758637"><ele>238.0</ele><time>2026-04-25T14:54:11.985Z</time></trkpt><trkpt lat="46.10346808503882" lon="9.320243814121376"><ele>239.0</ele><time>2026-04-25T14:54:12.985Z</time></trkpt><trkpt lat="46.10358900871889" lon="9.320355300911181"><ele>240.0</ele><time>2026-04-25T14:54:13.985Z</time></trkpt><trkpt lat="46.10371197954546" lon="9.320461962878596"><ele>241.0</ele><time>2026-04-25T14:54:14.985Z</time></trkpt><trkpt lat="46.10383882227737" lon="9.320575867737189"><ele>241.0</ele><time>2026-04-25T14:54:15.985Z</time></trkpt><trkpt lat="46.1039628553811" lon="9.320692236039553"><ele>241.0</ele><time>2026-04-25T14:54:16.985Z</time></trkpt><trkpt lat="46.10408829474549" lon="9.320798791787379"><ele>241.0</ele><time>2026-04-25T14:54:17.985Z</time></trkpt><trkpt lat="46.10422070713351" lon="9.320901020596636"><ele>241.0</ele><time>2026-04-25T14:54:18.985Z</time></trkpt><trkpt lat="46.10435937570829" lon="9.320966933996377"><ele>236.0</ele><time>2026-04-25T14:54:19.985Z</time></trkpt><trkpt lat="46.104495718672176" lon="9.32103686570841"><ele>231.0</ele><time>2026-04-25T14:54:20.985Z</time></trkpt><trkpt lat="46.10462557446715" lon="9.321103304635878"><ele>226.0</ele><time>2026-04-25T14:54:21.985Z</time></trkpt><trkpt lat="46.10474060514638" lon="9.32114748480293"><ele>221.0</ele><time>2026-04-25T14:54:22.985Z</time></trkpt><trkpt lat="46.10486255069217" lon="9.32118793366904"><ele>220.75</ele><time>2026-04-25T14:54:23.985Z</time></trkpt><trkpt lat="46.104993010457534" lon="9.321201325422699"><ele>220.5</ele><time>2026-04-25T14:54:24.985Z</time></trkpt><trkpt lat="46.105125768571234" lon="9.321179365131632"><ele>220.25</ele><time>2026-04-25T14:54:25.985Z</time></trkpt><trkpt lat="46.105258603058175" lon="9.321127966278436"><ele>220.0</ele><time>2026-04-25T14:54:26.985Z</time></trkpt><trkpt lat="46.10539475535078" lon="9.321072203321572"><ele>220.0</ele><time>2026-04-25T14:54:27.985Z</time></trkpt><trkpt lat="46.10553498501591" lon="9.321020862059784"><ele>220.0</ele><time>2026-04-25T14:54:28.985Z</time></trkpt><trkpt lat="46.10567548151198" lon="9.320967552401466"><ele>220.0</ele><time>2026-04-25T14:54:29.985Z</time></trkpt><trkpt lat="46.10582023862853" lon="9.320914203132915"><ele>220.0</ele><time>2026-04-25T14:54:30.985Z</time></trkpt><trkpt lat="46.105962552266895" lon="9.320859099525755"><ele>218.33333333333331</ele><time>2026-04-25T14:54:31.985Z</time></trkpt><trkpt lat="46.10611127414782" lon="9.320806847210397"><ele>216.66666666666669</ele><time>2026-04-25T14:54:32.985Z</time></trkpt><trkpt lat="46.106260772204685" lon="9.320741136538162"><ele>215.0</ele><time>2026-04-25T14:54:33.985Z</time></trkpt><trkpt lat="46.10640216487355" lon="9.32065887014113"><ele>214.75</ele><time>2026-04-25T14:54:34.985Z</time></trkpt><trkpt lat="46.10653755389343" lon="9.320551119748453"><ele>214.5</ele><time>2026-04-25T14:54:35.985Z</time></trkpt><trkpt lat="46.10666705729893" lon="9.320439352881186"><ele>214.25</ele><time>2026-04-25T14:54:36.985Z</time></trkpt><trkpt lat="46.10679323200668" lon="9.320355561953944"><ele>214.0</ele><time>2026-04-25T14:54:37.985Z</time></trkpt><trkpt lat="46.10691253828099" lon="9.320254618225656"><ele>214.0</ele><time>2026-04-25T14:54:38.985Z</time></trkpt><trkpt lat="46.107026095549266" lon="9.320176359780724"><ele>214.0</ele><time>2026-04-25T14:54:39.985Z</time></trkpt><trkpt lat="46.10714326910194" lon="9.320106169689215"><ele>214.0</ele><time>2026-04-25T14:54:40.985Z</time></trkpt><trkpt lat="46.10728249615194" lon="9.32006998235501"><ele>214.0</ele><time>2026-04-25T14:54:41.985Z</time></trkpt><trkpt lat="46.10742387473514" lon="9.32003089433649"><ele>217.25</ele><time>2026-04-25T14:54:42.985Z</time></trkpt><trkpt lat="46.107569209722996" lon="9.319980418734685"><ele>220.5</ele><time>2026-04-25T14:54:43.985Z</time></trkpt><trkpt lat="46.10771639365634" lon="9.319937899759243"><ele>223.75</ele><time>2026-04-25T14:54:44.985Z</time></trkpt><trkpt lat="46.1078612377739" lon="9.319884311645929"><ele>227.0</ele><time>2026-04-25T14:54:45.985Z</time></trkpt><trkpt lat="46.108011132546665" lon="9.319852411924987"><ele>227.0</ele><time>2026-04-25T14:54:46.985Z</time></trkpt><trkpt lat="46.108160736171605" lon="9.319783698133405"><ele>227.0</ele><time>2026-04-25T14:54:47.985Z</time></trkpt><trkpt lat="46.108311826124826" lon="9.319734533367734"><ele>227.0</ele><time>2026-04-25T14:54:48.985Z</time></trkpt><trkpt lat="46.1084679561932" lon="9.319694228399273"><ele>222.33333333333334</ele><time>2026-04-25T14:54:49.985Z</time></trkpt><trkpt lat="46.108626457268684" lon="9.31966434158297"><ele>217.66666666666669</ele><time>2026-04-25T14:54:50.985Z</time></trkpt><trkpt lat="46.10877557376716" lon="9.319640407226297"><ele>213.0</ele><time>2026-04-25T14:54:51.985Z</time></trkpt><trkpt lat="46.10891755524616" lon="9.319632301473886"><ele>213.0</ele><time>2026-04-25T14:54:52.986Z</time></trkpt><trkpt lat="46.10903982159607" lon="9.31959524706216"><ele>213.0</ele><time>2026-04-25T14:54:53.986Z</time></trkpt><trkpt lat="46.109153619023836" lon="9.319522655666972"><ele>213.0</ele><time>2026-04-25T14:54:54.986Z</time></trkpt><trkpt lat="46.10926130314822" lon="9.31940875281499"><ele>213.0</ele><time>2026-04-25T14:54:55.986Z</time></trkpt><trkpt lat="46.10935485573512" lon="9.319282646014022"><ele>211.0</ele><time>2026-04-25T14:54:56.986Z</time></trkpt><trkpt lat="46.10945219486418" lon="9.319147963747998"><ele>209.0</ele><time>2026-04-25T14:54:57.986Z</time></trkpt><trkpt lat="46.10957320585431" lon="9.31904229229544"><ele>207.0</ele><time>2026-04-25T14:54:58.986Z</time></trkpt><trkpt lat="46.109679425702325" lon="9.318909654231467"><ele>205.0</ele><time>2026-04-25T14:54:59.986Z</time></trkpt><trkpt lat="46.10979045247251" lon="9.31877651658055"><ele>205.0</ele><time>2026-04-25T14:55:00.986Z</time></trkpt><trkpt lat="46.10989592301602" lon="9.318641803481587"><ele>205.0</ele><time>2026-04-25T14:55:01.986Z</time></trkpt><trkpt lat="46.110001790652255" lon="9.318504084543227"><ele>205.0</ele><time>2026-04-25T14:55:02.986Z</time></trkpt><trkpt lat="46.110117546933765" lon="9.318420704707787"><ele>205.0</ele><time>2026-04-25T14:55:03.986Z</time></trkpt><trkpt lat="46.110248478062736" lon="9.318359423106559"><ele>209.5</ele><time>2026-04-25T14:55:04.983Z</time></trkpt><trkpt lat="46.11038382380767" lon="9.318318591439994"><ele>214.0</ele><time>2026-04-25T14:55:05.982Z</time></trkpt><trkpt lat="46.110518493182234" lon="9.318295983490085"><ele>218.5</ele><time>2026-04-25T14:55:06.982Z</time></trkpt><trkpt lat="46.11064409150265" lon="9.318263060165505"><ele>223.0</ele><time>2026-04-25T14:55:07.983Z</time></trkpt><trkpt lat="46.110765746767946" lon="9.3181697103053"><ele>225.5</ele><time>2026-04-25T14:55:08.982Z</time></trkpt><trkpt lat="46.11087843859176" lon="9.318048112487501"><ele>228.0</ele><time>2026-04-25T14:55:09.982Z</time></trkpt><trkpt lat="46.11098774315848" lon="9.317911531749331"><ele>230.5</ele><time>2026-04-25T14:55:10.982Z</time></trkpt><trkpt lat="46.11110361645949" lon="9.31776023038159"><ele>233.0</ele><time>2026-04-25T14:55:11.982Z</time></trkpt><trkpt lat="46.11123418665011" lon="9.317655690345674"><ele>233.0</ele><time>2026-04-25T14:55:12.982Z</time></trkpt><trkpt lat="46.111348317430874" lon="9.317513756568854"><ele>233.0</ele><time>2026-04-25T14:55:13.982Z</time></trkpt><trkpt lat="46.111459495226114" lon="9.3173726255954"><ele>233.0</ele><time>2026-04-25T14:55:14.982Z</time></trkpt><trkpt lat="46.11156498030437" lon="9.317242377931345"><ele>233.0</ele><time>2026-04-25T14:55:15.983Z</time></trkpt><trkpt lat="46.11166868007214" lon="9.31712124862236"><ele>234.0</ele><time>2026-04-25T14:55:16.982Z</time></trkpt><trkpt lat="46.1117859828076" lon="9.317006086441541"><ele>235.0</ele><time>2026-04-25T14:55:17.983Z</time></trkpt><trkpt lat="46.11191100085838" lon="9.316921857529312"><ele>236.0</ele><time>2026-04-25T14:55:18.983Z</time></trkpt><trkpt lat="46.11204032181654" lon="9.31686769657858"><ele>237.0</ele><time>2026-04-25T14:55:19.983Z</time></trkpt><trkpt lat="46.11217129694091" lon="9.316838787714648"><ele>237.0</ele><time>2026-04-25T14:55:20.983Z</time></trkpt><trkpt lat="46.112296466461665" lon="9.316831069256299"><ele>237.0</ele><time>2026-04-25T14:55:21.983Z</time></trkpt><trkpt lat="46.11242593410613" lon="9.31683590208181"><ele>237.0</ele><time>2026-04-25T14:55:22.983Z</time></trkpt><trkpt lat="46.112560721434924" lon="9.316834464881829"><ele>237.0</ele><time>2026-04-25T14:55:23.983Z</time></trkpt><trkpt lat="46.11269958641709" lon="9.316815845360159"><ele>240.25</ele><time>2026-04-25T14:55:24.983Z</time></trkpt><trkpt lat="46.112834017200576" lon="9.316760601558641"><ele>243.5</ele><time>2026-04-25T14:55:25.983Z</time></trkpt><trkpt lat="46.112966270478495" lon="9.316713182531446"><ele>246.75</ele><time>2026-04-25T14:55:26.983Z</time></trkpt><trkpt lat="46.11309433653929" lon="9.316673951323976"><ele>250.0</ele><time>2026-04-25T14:55:27.983Z</time></trkpt><trkpt lat="46.11321694418653" lon="9.316648682440247"><ele>251.0</ele><time>2026-04-25T14:55:28.983Z</time></trkpt><trkpt lat="46.113342021177964" lon="9.316660355267853"><ele>252.0</ele><time>2026-04-25T14:55:29.983Z</time></trkpt><trkpt lat="46.11346283426992" lon="9.316699508363802"><ele>253.0</ele><time>2026-04-25T14:55:30.983Z</time></trkpt><trkpt lat="46.113578292622734" lon="9.31677038908545"><ele>254.0</ele><time>2026-04-25T14:55:31.983Z</time></trkpt><trkpt lat="46.113691289596815" lon="9.316862945359343"><ele>254.0</ele><time>2026-04-25T14:55:32.983Z</time></trkpt><trkpt lat="46.11380700525121" lon="9.316974808139134"><ele>254.0</ele><time>2026-04-25T14:55:33.983Z</time></trkpt><trkpt lat="46.11392214702116" lon="9.317100630273025"><ele>254.0</ele><time>2026-04-25T14:55:34.983Z</time></trkpt><trkpt lat="46.11403186025445" lon="9.317221491566864"><ele>254.0</ele><time>2026-04-25T14:55:35.983Z</time></trkpt><trkpt lat="46.11413753753731" lon="9.317340892163863"><ele>254.25</ele><time>2026-04-25T14:55:36.983Z</time></trkpt><trkpt lat="46.11423110115902" lon="9.317479065404925"><ele>254.5</ele><time>2026-04-25T14:55:37.983Z</time></trkpt><trkpt lat="46.11430494115631" lon="9.317629550971844"><ele>254.75</ele><time>2026-04-25T14:55:38.983Z</time></trkpt><trkpt lat="46.11436570653905" lon="9.317794759759847"><ele>255.0</ele><time>2026-04-25T14:55:39.983Z</time></trkpt><trkpt lat="46.11442760409201" lon="9.31796767144897"><ele>256.0</ele><time>2026-04-25T14:55:40.983Z</time></trkpt><trkpt lat="46.11447315643222" lon="9.31814638154498"><ele>257.0</ele><time>2026-04-25T14:55:41.983Z</time></trkpt><trkpt lat="46.11451215075307" lon="9.318317582407428"><ele>258.0</ele><time>2026-04-25T14:55:42.983Z</time></trkpt><trkpt lat="46.11454481631287" lon="9.318487636887179"><ele>259.0</ele><time>2026-04-25T14:55:43.983Z</time></trkpt><trkpt lat="46.114536130852656" lon="9.318671304495806"><ele>259.0</ele><time>2026-04-25T14:55:44.983Z</time></trkpt><trkpt lat="46.114577900183775" lon="9.31886213510327"><ele>259.0</ele><time>2026-04-25T14:55:45.983Z</time></trkpt><trkpt lat="46.11457607168491" lon="9.319066838239946"><ele>259.0</ele><time>2026-04-25T14:55:46.983Z</time></trkpt><trkpt lat="46.11457451950275" lon="9.319279996391948"><ele>259.0</ele><time>2026-04-25T14:55:47.983Z</time></trkpt><trkpt lat="46.114574370362924" lon="9.319508998231328"><ele>260.66666666666663</ele><time>2026-04-25T14:55:48.983Z</time></trkpt><trkpt lat="46.114506249353894" lon="9.319745168776617"><ele>262.3333333333333</ele><time>2026-04-25T14:55:49.983Z</time></trkpt><trkpt lat="46.11449729457823" lon="9.319987944983303"><ele>264.0</ele><time>2026-04-25T14:55:50.983Z</time></trkpt><trkpt lat="46.114488275797534" lon="9.320226026289747"><ele>264.0</ele><time>2026-04-25T14:55:51.983Z</time></trkpt><trkpt lat="46.11447930262529" lon="9.32046567818763"><ele>264.0</ele><time>2026-04-25T14:55:52.984Z</time></trkpt><trkpt lat="46.1144723291613" lon="9.320701553510409"><ele>264.0</ele><time>2026-04-25T14:55:53.984Z</time></trkpt><trkpt lat="46.114465359587925" lon="9.320937297093542"><ele>265.0</ele><time>2026-04-25T14:55:54.984Z</time></trkpt><trkpt lat="46.1144583306261" lon="9.321175049563974"><ele>266.0</ele><time>2026-04-25T14:55:55.984Z</time></trkpt><trkpt lat="46.11445097412595" lon="9.321410536515204"><ele>267.0</ele><time>2026-04-25T14:55:56.984Z</time></trkpt><trkpt lat="46.11444376670872" lon="9.321640891599083"><ele>267.6666666666667</ele><time>2026-04-25T14:55:57.984Z</time></trkpt><trkpt lat="46.11444155698478" lon="9.321871950176485"><ele>268.33333333333337</ele><time>2026-04-25T14:55:58.984Z</time></trkpt><trkpt lat="46.11446755075353" lon="9.322097678146887"><ele>269.0</ele><time>2026-04-25T14:55:59.984Z</time></trkpt><trkpt lat="46.11447524576808" lon="9.322319648775261"><ele>269.33333333333337</ele><time>2026-04-25T14:56:00.984Z</time></trkpt><trkpt lat="46.114484168762885" lon="9.322545818279053"><ele>269.6666666666667</ele><time>2026-04-25T14:56:01.984Z</time></trkpt><trkpt lat="46.11449486986515" lon="9.322767898895139"><ele>270.0</ele><time>2026-04-25T14:56:02.984Z</time></trkpt><trkpt lat="46.1144939496214" lon="9.32298294356082"><ele>270.6666666666667</ele><time>2026-04-25T14:56:03.984Z</time></trkpt><trkpt lat="46.11451282784282" lon="9.323204229996295"><ele>271.33333333333337</ele><time>2026-04-25T14:56:04.984Z</time></trkpt><trkpt lat="46.11457069815734" lon="9.323408907127742"><ele>272.0</ele><time>2026-04-25T14:56:05.984Z</time></trkpt><trkpt lat="46.114612044731004" lon="9.323622095957315"><ele>272.0</ele><time>2026-04-25T14:56:06.984Z</time></trkpt><trkpt lat="46.11466616602365" lon="9.323827519981325"><ele>272.0</ele><time>2026-04-25T14:56:07.984Z</time></trkpt><trkpt lat="46.114681098372394" lon="9.324041280308395"><ele>272.0</ele><time>2026-04-25T14:56:08.984Z</time></trkpt><trkpt lat="46.11467238244795" lon="9.324263718049847"><ele>271.25</ele><time>2026-04-25T14:56:09.984Z</time></trkpt><trkpt lat="46.11464392583939" lon="9.324465802880493"><ele>270.5</ele><time>2026-04-25T14:56:10.984Z</time></trkpt><trkpt lat="46.11461199699162" lon="9.324647404207322"><ele>269.75</ele><time>2026-04-25T14:56:11.984Z</time></trkpt><trkpt lat="46.11454009653992" lon="9.324821846329305"><ele>269.0</ele><time>2026-04-25T14:56:12.984Z</time></trkpt><trkpt lat="46.11445644278937" lon="9.324985627481379"><ele>265.25</ele><time>2026-04-25T14:56:13.984Z</time></trkpt><trkpt lat="46.114374832014164" lon="9.325150112252006"><ele>261.5</ele><time>2026-04-25T14:56:14.984Z</time></trkpt><trkpt lat="46.114294252296176" lon="9.325325207192812"><ele>257.75</ele><time>2026-04-25T14:56:15.984Z</time></trkpt><trkpt lat="46.11423316173951" lon="9.325516533776698"><ele>254.0</ele><time>2026-04-25T14:56:16.984Z</time></trkpt><trkpt lat="46.11417049761367" lon="9.325721482939446"><ele>250.0</ele><time>2026-04-25T14:56:17.984Z</time></trkpt><trkpt lat="46.11412500204828" lon="9.325918835056397"><ele>246.0</ele><time>2026-04-25T14:56:18.984Z</time></trkpt><trkpt lat="46.11408035292755" lon="9.32609881726778"><ele>242.0</ele><time>2026-04-25T14:56:19.984Z</time></trkpt><trkpt lat="46.11402971654303" lon="9.326273122087333"><ele>238.0</ele><time>2026-04-25T14:56:20.984Z</time></trkpt><trkpt lat="46.11398725811177" lon="9.326451316871806"><ele>250.0</ele><time>2026-04-25T14:56:21.984Z</time></trkpt><trkpt lat="46.113948292071505" lon="9.326630316920026"><ele>262.0</ele><time>2026-04-25T14:56:22.984Z</time></trkpt><trkpt lat="46.11393327003859" lon="9.32682063393261"><ele>274.0</ele><time>2026-04-25T14:56:23.984Z</time></trkpt><trkpt lat="46.11392987115985" lon="9.327016087163917"><ele>286.0</ele><time>2026-04-25T14:56:24.984Z</time></trkpt><trkpt lat="46.11393586546315" lon="9.327212853345324"><ele>285.5</ele><time>2026-04-25T14:56:25.984Z</time></trkpt><trkpt lat="46.11394227557751" lon="9.327396026017176"><ele>285.0</ele><time>2026-04-25T14:56:26.984Z</time></trkpt><trkpt lat="46.11394782058384" lon="9.327575059609595"><ele>284.5</ele><time>2026-04-25T14:56:27.984Z</time></trkpt><trkpt lat="46.113953815241416" lon="9.327741195236474"><ele>284.0</ele><time>2026-04-25T14:56:28.984Z</time></trkpt><trkpt lat="46.11396202222692" lon="9.327902489894932"><ele>283.0</ele><time>2026-04-25T14:56:29.984Z</time></trkpt><trkpt lat="46.11398945354438" lon="9.32806323576502"><ele>282.0</ele><time>2026-04-25T14:56:30.984Z</time></trkpt><trkpt lat="46.114040203241714" lon="9.32822359020044"><ele>281.0</ele><time>2026-04-25T14:56:31.984Z</time></trkpt><trkpt lat="46.114125375673396" lon="9.328367725144005"><ele>280.0</ele><time>2026-04-25T14:56:32.984Z</time></trkpt><trkpt lat="46.11420913209829" lon="9.328516266362438"><ele>268.5</ele><time>2026-04-25T14:56:33.985Z</time></trkpt><trkpt lat="46.11427880595189" lon="9.328675445258442"><ele>257.0</ele><time>2026-04-25T14:56:34.985Z</time></trkpt><trkpt lat="46.11431449866184" lon="9.328848535339274"><ele>245.5</ele><time>2026-04-25T14:56:35.985Z</time></trkpt><trkpt lat="46.1143376052758" lon="9.329032038980971"><ele>234.0</ele><time>2026-04-25T14:56:36.985Z</time></trkpt><trkpt lat="46.11434581440172" lon="9.329226446956646"><ele>234.0</ele><time>2026-04-25T14:56:37.985Z</time></trkpt><trkpt lat="46.114338636226165" lon="9.32942888781116"><ele>234.0</ele><time>2026-04-25T14:56:38.985Z</time></trkpt><trkpt lat="46.11432346366323" lon="9.329642677746534"><ele>234.0</ele><time>2026-04-25T14:56:39.985Z</time></trkpt><trkpt lat="46.11432917669409" lon="9.329851581207192"><ele>234.0</ele><time>2026-04-25T14:56:40.985Z</time></trkpt><trkpt lat="46.11433855783724" lon="9.330059185404954"><ele>234.75</ele><time>2026-04-25T14:56:41.985Z</time></trkpt><trkpt lat="46.11434307710532" lon="9.330260113163634"><ele>235.5</ele><time>2026-04-25T14:56:42.985Z</time></trkpt><trkpt lat="46.11434657085358" lon="9.330456405818971"><ele>236.25</ele><time>2026-04-25T14:56:43.985Z</time></trkpt><trkpt lat="46.11435189326143" lon="9.330645279194952"><ele>237.0</ele><time>2026-04-25T14:56:44.985Z</time></trkpt><trkpt lat="46.11437036945669" lon="9.330846335087804"><ele>239.66666666666669</ele><time>2026-04-25T14:56:45.985Z</time></trkpt><trkpt lat="46.11441480537882" lon="9.331046106193073"><ele>242.33333333333334</ele><time>2026-04-25T14:56:46.985Z</time></trkpt><trkpt lat="46.114470644561" lon="9.331249774742604"><ele>245.0</ele><time>2026-04-25T14:56:47.985Z</time></trkpt><trkpt lat="46.11453571923666" lon="9.331456540846302"><ele>247.33333333333334</ele><time>2026-04-25T14:56:48.985Z</time></trkpt><trkpt lat="46.114599810853406" lon="9.331656315654456"><ele>249.66666666666669</ele><time>2026-04-25T14:56:49.985Z</time></trkpt><trkpt lat="46.11467196173488" lon="9.331847875666819"><ele>252.0</ele><time>2026-04-25T14:56:50.985Z</time></trkpt><trkpt lat="46.11475547078979" lon="9.332031276994579"><ele>252.0</ele><time>2026-04-25T14:56:51.985Z</time></trkpt><trkpt lat="46.11482938961302" lon="9.332219056324933"><ele>252.0</ele><time>2026-04-25T14:56:52.985Z</time></trkpt><trkpt lat="46.11489271245945" lon="9.332417116481707"><ele>252.0</ele><time>2026-04-25T14:56:53.985Z</time></trkpt><trkpt lat="46.11495296281029" lon="9.332613388639007"><ele>250.33333333333331</ele><time>2026-04-25T14:56:54.985Z</time></trkpt><trkpt lat="46.11502138086121" lon="9.332801987479508"><ele>248.66666666666666</ele><time>2026-04-25T14:56:55.985Z</time></trkpt><trkpt lat="46.11511348122194" lon="9.33297907945209"><ele>247.0</ele><time>2026-04-25T14:56:56.985Z</time></trkpt><trkpt lat="46.115213749560674" lon="9.333150944042002"><ele>247.0</ele><time>2026-04-25T14:56:57.985Z</time></trkpt><trkpt lat="46.11531536491132" lon="9.333318564100688"><ele>247.0</ele><time>2026-04-25T14:56:58.985Z</time></trkpt><trkpt lat="46.115413593299245" lon="9.333494057633407"><ele>247.0</ele><time>2026-04-25T14:56:59.985Z</time></trkpt><trkpt lat="46.11550689557981" lon="9.333672989503935"><ele>247.0</ele><time>2026-04-25T14:57:00.985Z</time></trkpt><trkpt lat="46.11558676077008" lon="9.333853336377544"><ele>247.0</ele><time>2026-04-25T14:57:01.985Z</time></trkpt><trkpt lat="46.11565878482272" lon="9.334024015186365"><ele>247.0</ele><time>2026-04-25T14:57:02.985Z</time></trkpt><trkpt lat="46.115737113362215" lon="9.334184089583848"><ele>247.0</ele><time>2026-04-25T14:57:03.985Z</time></trkpt><trkpt lat="46.115798823975766" lon="9.334349027671228"><ele>245.75</ele><time>2026-04-25T14:57:04.985Z</time></trkpt><trkpt lat="46.11584549104291" lon="9.334529712996813"><ele>244.5</ele><time>2026-04-25T14:57:05.985Z</time></trkpt><trkpt lat="46.1158630714072" lon="9.334730867244092"><ele>243.25</ele><time>2026-04-25T14:57:06.985Z</time></trkpt><trkpt lat="46.11587857978199" lon="9.334924841223565"><ele>242.0</ele><time>2026-04-25T14:57:07.985Z</time></trkpt><trkpt lat="46.11590395999186" lon="9.335115804919345"><ele>242.0</ele><time>2026-04-25T14:57:08.985Z</time></trkpt><trkpt lat="46.115954632913436" lon="9.335302996688084"><ele>242.0</ele><time>2026-04-25T14:57:09.985Z</time></trkpt><trkpt lat="46.11602876102676" lon="9.335474128236502"><ele>242.0</ele><time>2026-04-25T14:57:10.983Z</time></trkpt><trkpt lat="46.11612362763585" lon="9.335635179105994"><ele>242.0</ele><time>2026-04-25T14:57:11.982Z</time></trkpt><trkpt lat="46.11622173901738" lon="9.335795215373574"><ele>249.0</ele><time>2026-04-25T14:57:12.982Z</time></trkpt><trkpt lat="46.116319806680224" lon="9.335964456860173"><ele>256.0</ele><time>2026-04-25T14:57:13.983Z</time></trkpt><trkpt lat="46.11638889156439" lon="9.336164587279244"><ele>263.0</ele><time>2026-04-25T14:57:14.982Z</time></trkpt><trkpt lat="46.11647275964489" lon="9.336359641236509"><ele>270.0</ele><time>2026-04-25T14:57:15.982Z</time></trkpt><trkpt lat="46.11655494474738" lon="9.33655473551539"><ele>277.0</ele><time>2026-04-25T14:57:16.983Z</time></trkpt><trkpt lat="46.116634910610095" lon="9.336748363548587"><ele>284.0</ele><time>2026-04-25T14:57:17.983Z</time></trkpt><trkpt lat="46.11670901743868" lon="9.33693047885864"><ele>271.5</ele><time>2026-04-25T14:57:18.983Z</time></trkpt><trkpt lat="46.1167799892407" lon="9.337116799650865"><ele>259.0</ele><time>2026-04-25T14:57:19.983Z</time></trkpt><trkpt lat="46.11684085223536" lon="9.337291938532124"><ele>246.5</ele><time>2026-04-25T14:57:20.983Z</time></trkpt><trkpt lat="46.11689279593274" lon="9.337459819166916"><ele>234.0</ele><time>2026-04-25T14:57:21.983Z</time></trkpt><trkpt lat="46.11693448704021" lon="9.337638799288225"><ele>234.0</ele><time>2026-04-25T14:57:22.983Z</time></trkpt><trkpt lat="46.11695409840754" lon="9.33782116750578"><ele>234.0</ele><time>2026-04-25T14:57:23.982Z</time></trkpt><trkpt lat="46.11694940401399" lon="9.338013971147163"><ele>234.0</ele><time>2026-04-25T14:57:24.983Z</time></trkpt><trkpt lat="46.116944437479894" lon="9.33821951552451"><ele>234.0</ele><time>2026-04-25T14:57:25.983Z</time></trkpt><trkpt lat="46.1169399594848" lon="9.33842001898583"><ele>234.75</ele><time>2026-04-25T14:57:26.983Z</time></trkpt><trkpt lat="46.116935413395964" lon="9.33861124650728"><ele>235.5</ele><time>2026-04-25T14:57:27.983Z</time></trkpt><trkpt lat="46.11692434408962" lon="9.338800672527706"><ele>236.25</ele><time>2026-04-25T14:57:28.983Z</time></trkpt><trkpt lat="46.11690597931662" lon="9.338993204886416"><ele>237.0</ele><time>2026-04-25T14:57:29.983Z</time></trkpt><trkpt lat="46.116878424088085" lon="9.339183374264191"><ele>237.0</ele><time>2026-04-25T14:57:30.983Z</time></trkpt><trkpt lat="46.11684530414714" lon="9.339385623499728"><ele>237.0</ele><time>2026-04-25T14:57:31.983Z</time></trkpt><trkpt lat="46.11681180728031" lon="9.339585522851953"><ele>237.0</ele><time>2026-04-25T14:57:32.983Z</time></trkpt><trkpt lat="46.11677805682246" lon="9.339784747314123"><ele>237.0</ele><time>2026-04-25T14:57:33.983Z</time></trkpt><trkpt lat="46.11673979693862" lon="9.339989935664747"><ele>234.0</ele><time>2026-04-25T14:57:34.983Z</time></trkpt><trkpt lat="46.11669145021791" lon="9.340189504508073"><ele>231.0</ele><time>2026-04-25T14:57:35.983Z</time></trkpt><trkpt lat="46.11664073461586" lon="9.340392841300506"><ele>228.0</ele><time>2026-04-25T14:57:36.983Z</time></trkpt><trkpt lat="46.11659033399363" lon="9.340598386774486"><ele>225.0</ele><time>2026-04-25T14:57:37.983Z</time></trkpt><trkpt lat="46.11653668028481" lon="9.340806343800612"><ele>231.5</ele><time>2026-04-25T14:57:38.983Z</time></trkpt><trkpt lat="46.11649130041452" lon="9.341007185385218"><ele>238.0</ele><time>2026-04-25T14:57:39.983Z</time></trkpt><trkpt lat="46.11644691827661" lon="9.34121056531292"><ele>244.5</ele><time>2026-04-25T14:57:40.983Z</time></trkpt><trkpt lat="46.116392762197556" lon="9.34140531384688"><ele>251.0</ele><time>2026-04-25T14:57:41.983Z</time></trkpt><trkpt lat="46.116338983486884" lon="9.341602978635873"><ele>251.0</ele><time>2026-04-25T14:57:42.983Z</time></trkpt><trkpt lat="46.116285134741034" lon="9.341798829482995"><ele>251.0</ele><time>2026-04-25T14:57:43.983Z</time></trkpt><trkpt lat="46.1162414117812" lon="9.342000647008653"><ele>251.0</ele><time>2026-04-25T14:57:44.983Z</time></trkpt><trkpt lat="46.11619833303073" lon="9.342207496000455"><ele>251.0</ele><time>2026-04-25T14:57:45.983Z</time></trkpt><trkpt lat="46.116174096479675" lon="9.342417096042256"><ele>248.0</ele><time>2026-04-25T14:57:46.983Z</time></trkpt><trkpt lat="46.11616528965943" lon="9.342628426955736"><ele>245.0</ele><time>2026-04-25T14:57:47.983Z</time></trkpt><trkpt lat="46.116159889218636" lon="9.342845838489565"><ele>242.0</ele><time>2026-04-25T14:57:48.983Z</time></trkpt><trkpt lat="46.11617801673899" lon="9.343272888689238"><ele>239.75</ele><time>2026-04-25T14:57:50.983Z</time></trkpt><trkpt lat="46.11619922071212" lon="9.343483733939063"><ele>237.5</ele><time>2026-04-25T14:57:51.983Z</time></trkpt><trkpt lat="46.1162172909689" lon="9.343695257232497"><ele>235.25</ele><time>2026-04-25T14:57:52.983Z</time></trkpt><trkpt lat="46.11623551516985" lon="9.343908315994975"><ele>233.0</ele><time>2026-04-25T14:57:53.983Z</time></trkpt><trkpt lat="46.1162570617724" lon="9.344125371385866"><ele>232.5</ele><time>2026-04-25T14:57:54.983Z</time></trkpt><trkpt lat="46.11627485588846" lon="9.344339548493522"><ele>232.0</ele><time>2026-04-25T14:57:55.983Z</time></trkpt><trkpt lat="46.116293415031" lon="9.344547189184544"><ele>231.5</ele><time>2026-04-25T14:57:56.983Z</time></trkpt><trkpt lat="46.116310258760315" lon="9.344749188226471"><ele>231.0</ele><time>2026-04-25T14:57:57.983Z</time></trkpt><trkpt lat="46.11632976644124" lon="9.344950194497885"><ele>233.25</ele><time>2026-04-25T14:57:58.983Z</time></trkpt><trkpt lat="46.116355905692096" lon="9.345149671053386"><ele>235.5</ele><time>2026-04-25T14:57:59.983Z</time></trkpt><trkpt lat="46.11639720737167" lon="9.345349202937784"><ele>237.75</ele><time>2026-04-25T14:58:00.983Z</time></trkpt><trkpt lat="46.11646525894138" lon="9.345548998040842"><ele>240.0</ele><time>2026-04-25T14:58:01.983Z</time></trkpt><trkpt lat="46.1165366621867" lon="9.34573187726684"><ele>232.0</ele><time>2026-04-25T14:58:02.983Z</time></trkpt><trkpt lat="46.11661394845784" lon="9.34589433809856"><ele>224.0</ele><time>2026-04-25T14:58:03.983Z</time></trkpt><trkpt lat="46.11669213506745" lon="9.346042182967839"><ele>216.0</ele><time>2026-04-25T14:58:04.983Z</time></trkpt><trkpt lat="46.11677151280841" lon="9.346180030587384"><ele>208.0</ele><time>2026-04-25T14:58:05.984Z</time></trkpt><trkpt lat="46.11684502421752" lon="9.346305517001614"><ele>210.66666666666666</ele><time>2026-04-25T14:58:06.984Z</time></trkpt><trkpt lat="46.1169145693521" lon="9.346413198560647"><ele>213.33333333333331</ele><time>2026-04-25T14:58:07.984Z</time></trkpt><trkpt lat="46.11697508344776" lon="9.346505809301302"><ele>216.0</ele><time>2026-04-25T14:58:08.984Z</time></trkpt><trkpt lat="46.11702381150558" lon="9.346576612897804"><ele>218.66666666666669</ele><time>2026-04-25T14:58:09.984Z</time></trkpt><trkpt lat="46.117078209469184" lon="9.346687204372467"><ele>221.33333333333334</ele><time>2026-04-25T14:58:11.984Z</time></trkpt><trkpt lat="46.11712763517447" lon="9.346785254317894"><ele>224.0</ele><time>2026-04-25T14:58:14.984Z</time></trkpt><trkpt lat="46.117271553935176" lon="9.346799203969189"><ele>224.0</ele><time>2026-04-25T14:58:17.984Z</time></trkpt><trkpt lat="46.11733494663502" lon="9.346753472466775"><ele>224.0</ele><time>2026-04-25T14:58:18.984Z</time></trkpt><trkpt lat="46.11740674208551" lon="9.346719032534258"><ele>224.0</ele><time>2026-04-25T14:58:19.984Z</time></trkpt><trkpt lat="46.117483738337356" lon="9.346709341705878"><ele>224.0</ele><time>2026-04-25T14:58:20.984Z</time></trkpt><trkpt lat="46.117554199207596" lon="9.34672281528381"><ele>224.0</ele><time>2026-04-25T14:58:21.984Z</time></trkpt><trkpt lat="46.11761776323431" lon="9.346741991697524"><ele>224.0</ele><time>2026-04-25T14:58:22.984Z</time></trkpt><trkpt lat="46.117681332522594" lon="9.346759498894702"><ele>224.0</ele><time>2026-04-25T14:58:23.984Z</time></trkpt><trkpt lat="46.117748376701506" lon="9.346777208835626"><ele>220.50000000000003</ele><time>2026-04-25T14:58:24.984Z</time></trkpt><trkpt lat="46.117816973067605" lon="9.346798574750569"><ele>217.0</ele><time>2026-04-25T14:58:25.984Z</time></trkpt><trkpt lat="46.11788445001675" lon="9.346822082628753"><ele>213.5</ele><time>2026-04-25T14:58:26.984Z</time></trkpt><trkpt lat="46.117986676343165" lon="9.346869983642858"><ele>210.0</ele><time>2026-04-25T14:58:28.984Z</time></trkpt><trkpt lat="46.11805707664098" lon="9.346920616981151"><ele>206.50000000000003</ele><time>2026-04-25T14:58:31.984Z</time></trkpt><trkpt lat="46.118119944673005" lon="9.346954995932267"><ele>203.0</ele><time>2026-04-25T14:58:36.984Z</time></trkpt><trkpt lat="46.118221765805856" lon="9.346926605842203"><ele>202.66666666666669</ele><time>2026-04-25T14:58:46.985Z</time></trkpt><trkpt lat="46.118287257968674" lon="9.3469507144942"><ele>202.33333333333334</ele><time>2026-04-25T14:58:47.985Z</time></trkpt><trkpt lat="46.118357556137646" lon="9.346982864231324"><ele>202.0</ele><time>2026-04-25T14:58:48.985Z</time></trkpt><trkpt lat="46.11843799513267" lon="9.347015935389276"><ele>201.66666666666669</ele><time>2026-04-25T14:58:49.985Z</time></trkpt><trkpt lat="46.11851702025699" lon="9.347045899834534"><ele>201.33333333333334</ele><time>2026-04-25T14:58:50.985Z</time></trkpt><trkpt lat="46.118611645689356" lon="9.347075955480939"><ele>201.0</ele><time>2026-04-25T14:58:51.985Z</time></trkpt><trkpt lat="46.11871539128827" lon="9.347110969661886"><ele>201.0</ele><time>2026-04-25T14:58:52.985Z</time></trkpt><trkpt lat="46.11882358171055" lon="9.347148963382901"><ele>201.0</ele><time>2026-04-25T14:58:53.985Z</time></trkpt><trkpt lat="46.11893614450804" lon="9.34718669042625"><ele>201.0</ele><time>2026-04-25T14:58:54.985Z</time></trkpt><trkpt lat="46.11904558068382" lon="9.34722058253905"><ele>201.0</ele><time>2026-04-25T14:58:55.985Z</time></trkpt><trkpt lat="46.11915766984235" lon="9.34725695318884"><ele>202.4</ele><time>2026-04-25T14:58:56.985Z</time></trkpt><trkpt lat="46.1192612956677" lon="9.34728921405457"><ele>203.8</ele><time>2026-04-25T14:58:57.985Z</time></trkpt><trkpt lat="46.11935852593815" lon="9.347322065554486"><ele>205.20000000000002</ele><time>2026-04-25T14:58:58.985Z</time></trkpt><trkpt lat="46.119457624754034" lon="9.34735692130172"><ele>206.60000000000002</ele><time>2026-04-25T14:58:59.985Z</time></trkpt><trkpt lat="46.11955307383327" lon="9.347399066606604"><ele>208.0</ele><time>2026-04-25T14:59:00.985Z</time></trkpt><trkpt lat="46.11965174454249" lon="9.347445139617314"><ele>208.0</ele><time>2026-04-25T14:59:01.985Z</time></trkpt><trkpt lat="46.119756520300776" lon="9.347492721289749"><ele>208.0</ele><time>2026-04-25T14:59:02.985Z</time></trkpt><trkpt lat="46.11986337814907" lon="9.347547945548197"><ele>208.0</ele><time>2026-04-25T14:59:03.985Z</time></trkpt><trkpt lat="46.11996990896637" lon="9.347601769726827"><ele>208.0</ele><time>2026-04-25T14:59:04.985Z</time></trkpt><trkpt lat="46.12006969544497" lon="9.347652386936966"><ele>208.0</ele><time>2026-04-25T14:59:05.985Z</time></trkpt><trkpt lat="46.120163920323705" lon="9.347698985612718"><ele>207.49999999999997</ele><time>2026-04-25T14:59:06.985Z</time></trkpt><trkpt lat="46.12025090644878" lon="9.347748540266874"><ele>207.0</ele><time>2026-04-25T14:59:07.985Z</time></trkpt><trkpt lat="46.120334066095154" lon="9.347791502124181"><ele>206.5</ele><time>2026-04-25T14:59:08.985Z</time></trkpt><trkpt lat="46.12041359624526" lon="9.347832214015751"><ele>206.0</ele><time>2026-04-25T14:59:09.985Z</time></trkpt><trkpt lat="46.1204925056395" lon="9.34786842767619"><ele>205.49999999999997</ele><time>2026-04-25T14:59:10.985Z</time></trkpt><trkpt lat="46.12056191206429" lon="9.347907864566738"><ele>205.0</ele><time>2026-04-25T14:59:11.985Z</time></trkpt><trkpt lat="46.120640444329915" lon="9.347939217924544"><ele>204.99999999999997</ele><time>2026-04-25T14:59:12.985Z</time></trkpt><trkpt lat="46.120725699594175" lon="9.347980629434781"><ele>205.0</ele><time>2026-04-25T14:59:13.985Z</time></trkpt><trkpt lat="46.1208095304219" lon="9.348021169239145"><ele>205.0</ele><time>2026-04-25T14:59:14.985Z</time></trkpt><trkpt lat="46.12089005081379" lon="9.348060253199266"><ele>205.0</ele><time>2026-04-25T14:59:15.985Z</time></trkpt><trkpt lat="46.120972439715274" lon="9.348099232891178"><ele>204.99999999999997</ele><time>2026-04-25T14:59:16.983Z</time></trkpt><trkpt lat="46.12105047469277" lon="9.348141106047011"><ele>205.0</ele><time>2026-04-25T14:59:17.983Z</time></trkpt><trkpt lat="46.12113224753862" lon="9.348183966474302"><ele>205.2</ele><time>2026-04-25T14:59:18.983Z</time></trkpt><trkpt lat="46.12122167865103" lon="9.348223275307415"><ele>205.4</ele><time>2026-04-25T14:59:19.983Z</time></trkpt><trkpt lat="46.12130913484426" lon="9.34826547928126"><ele>205.60000000000002</ele><time>2026-04-25T14:59:20.983Z</time></trkpt><trkpt lat="46.12140205699315" lon="9.34830711263399"><ele>205.8</ele><time>2026-04-25T14:59:21.983Z</time></trkpt><trkpt lat="46.121498400789704" lon="9.34835456247456"><ele>206.0</ele><time>2026-04-25T14:59:22.983Z</time></trkpt><trkpt lat="46.121594878701494" lon="9.348401519021982"><ele>206.0</ele><time>2026-04-25T14:59:23.983Z</time></trkpt><trkpt lat="46.12169002943409" lon="9.348448638908595"><ele>206.0</ele><time>2026-04-25T14:59:24.983Z</time></trkpt><trkpt lat="46.121787986923344" lon="9.348494589619225"><ele>206.0</ele><time>2026-04-25T14:59:25.983Z</time></trkpt><trkpt lat="46.12187709876472" lon="9.348539118088063"><ele>206.0</ele><time>2026-04-25T14:59:26.983Z</time></trkpt><trkpt lat="46.12196398630524" lon="9.348575092303706"><ele>206.0</ele><time>2026-04-25T14:59:27.983Z</time></trkpt><trkpt lat="46.12204527711948" lon="9.348609804343255"><ele>206.00000000000003</ele><time>2026-04-25T14:59:28.983Z</time></trkpt><trkpt lat="46.122106593760954" lon="9.348668389039085"><ele>206.0</ele><time>2026-04-25T14:59:29.982Z</time></trkpt><trkpt lat="46.122172189272526" lon="9.348701294813056"><ele>206.0</ele><time>2026-04-25T14:59:30.983Z</time></trkpt><trkpt lat="46.12227569678359" lon="9.348751260974757"><ele>206.0</ele><time>2026-04-25T14:59:32.983Z</time></trkpt><trkpt lat="46.12236099704281" lon="9.34878972098634"><ele>206.00000000000003</ele><time>2026-04-25T14:59:34.983Z</time></trkpt><trkpt lat="46.12242668609959" lon="9.34883012109635"><ele>206.0</ele><time>2026-04-25T14:59:37.983Z</time></trkpt><trkpt lat="46.12239434074021" lon="9.349002585547373"><ele>206.16666666666669</ele><time>2026-04-25T14:59:41.983Z</time></trkpt><trkpt lat="46.122380976352325" lon="9.349107387562142"><ele>206.33333333333334</ele><time>2026-04-25T14:59:42.983Z</time></trkpt><trkpt lat="46.1223452582192" lon="9.34920973828664"><ele>206.5</ele><time>2026-04-25T14:59:43.983Z</time></trkpt><trkpt lat="46.12231360893283" lon="9.349313731212037"><ele>206.66666666666669</ele><time>2026-04-25T14:59:44.983Z</time></trkpt><trkpt lat="46.12228525042314" lon="9.3494192708736"><ele>206.83333333333334</ele><time>2026-04-25T14:59:45.983Z</time></trkpt><trkpt lat="46.12223744820769" lon="9.34950514466569"><ele>207.0</ele><time>2026-04-25T14:59:46.983Z</time></trkpt><trkpt lat="46.12221286385249" lon="9.349600629503025"><ele>207.0</ele><time>2026-04-25T14:59:47.983Z</time></trkpt><trkpt lat="46.12219041008483" lon="9.34970023220628"><ele>207.0</ele><time>2026-04-25T14:59:48.983Z</time></trkpt><trkpt lat="46.12215347963147" lon="9.34986026581165"><ele>207.0</ele><time>2026-04-25T14:59:50.983Z</time></trkpt><trkpt lat="46.12213794535378" lon="9.349968673004975"><ele>207.0</ele><time>2026-04-25T14:59:52.983Z</time></trkpt><trkpt lat="46.122129186404756" lon="9.350126937501098"><ele>207.0</ele><time>2026-04-25T14:59:56.983Z</time></trkpt><trkpt lat="46.12211976442344" lon="9.350223437763379"><ele>207.0</ele><time>2026-04-25T14:59:57.983Z</time></trkpt><trkpt lat="46.122100682024964" lon="9.350354687648617"><ele>208.0</ele><time>2026-04-25T14:59:58.983Z</time></trkpt><trkpt lat="46.122087715968476" lon="9.350479403402302"><ele>209.0</ele><time>2026-04-25T14:59:59.983Z</time></trkpt><trkpt lat="46.12207338543071" lon="9.350601724106589"><ele>210.0</ele><time>2026-04-25T15:00:00.983Z</time></trkpt><trkpt lat="46.12205528782246" lon="9.350709563974974"><ele>211.0</ele><time>2026-04-25T15:00:01.983Z</time></trkpt><trkpt lat="46.12204590565317" lon="9.350813160475338"><ele>212.0</ele><time>2026-04-25T15:00:02.983Z</time></trkpt><trkpt lat="46.122028853139405" lon="9.35091313314261"><ele>213.0</ele><time>2026-04-25T15:00:03.983Z</time></trkpt><trkpt lat="46.122025318582686" lon="9.35101011384473"><ele>213.66666666666666</ele><time>2026-04-25T15:00:04.983Z</time></trkpt><trkpt lat="46.12204007535714" lon="9.351107498906975"><ele>214.33333333333331</ele><time>2026-04-25T15:00:05.983Z</time></trkpt><trkpt lat="46.12207629025701" lon="9.35121519598693"><ele>215.0</ele><time>2026-04-25T15:00:06.983Z</time></trkpt><trkpt lat="46.1221065795754" lon="9.351324930174737"><ele>215.66666666666666</ele><time>2026-04-25T15:00:07.983Z</time></trkpt><trkpt lat="46.12214202132961" lon="9.351417550956379"><ele>216.33333333333331</ele><time>2026-04-25T15:00:08.983Z</time></trkpt><trkpt lat="46.12216242143823" lon="9.351545280797588"><ele>217.0</ele><time>2026-04-25T15:00:10.983Z</time></trkpt><trkpt lat="46.122340145164884" lon="9.35157421659281"><ele>216.99999999999997</ele><time>2026-04-25T15:00:14.984Z</time></trkpt><trkpt lat="46.12226177619766" lon="9.351590597754663"><ele>217.0</ele><time>2026-04-25T15:00:29.984Z</time></trkpt><trkpt lat="46.12220189125933" lon="9.351551987921827"><ele>217.0</ele><time>2026-04-25T15:00:31.984Z</time></trkpt><trkpt lat="46.12224312406651" lon="9.351460440443107"><ele>217.0</ele><time>2026-04-25T15:00:40.984Z</time></trkpt><trkpt lat="46.12231366424611" lon="9.351396379873156"><ele>216.99999999999997</ele><time>2026-04-25T15:00:43.984Z</time></trkpt><trkpt lat="46.1223015061697" lon="9.351284046704784"><ele>217.0</ele><time>2026-04-25T15:00:45.984Z</time></trkpt><trkpt lat="46.12227784307774" lon="9.351179356777916"><ele>217.0</ele><time>2026-04-25T15:00:47.984Z</time></trkpt><trkpt lat="46.12225182020094" lon="9.351078805114122"><ele>217.0</ele><time>2026-04-25T15:00:49.984Z</time></trkpt><trkpt lat="46.12223019145585" lon="9.350975785890652"><ele>217.0</ele><time>2026-04-25T15:00:51.984Z</time></trkpt><trkpt lat="46.12221056590318" lon="9.350869826357284"><ele>217.0</ele><time>2026-04-25T15:00:53.985Z</time></trkpt><trkpt lat="46.122192494193804" lon="9.350750095260498"><ele>217.0</ele><time>2026-04-25T15:00:55.985Z</time></trkpt><trkpt lat="46.12212103565842" lon="9.350426777116205"><ele>216.2</ele><time>2026-04-25T15:00:56.985Z</time></trkpt><trkpt lat="46.122126193653045" lon="9.350307994267467"><ele>215.39999999999998</ele><time>2026-04-25T15:00:58.985Z</time></trkpt><trkpt lat="46.12219404407621" lon="9.350193319855467"><ele>214.60000000000002</ele><time>2026-04-25T15:01:01.985Z</time></trkpt><trkpt lat="46.12230377102553" lon="9.350202093753524"><ele>213.8</ele><time>2026-04-25T15:01:03.985Z</time></trkpt><trkpt lat="46.12237454592422" lon="9.350225014509892"><ele>213.0</ele><time>2026-04-25T15:01:04.985Z</time></trkpt><trkpt lat="46.12246194045606" lon="9.350247685743446"><ele>212.83333333333334</ele><time>2026-04-25T15:01:05.985Z</time></trkpt><trkpt lat="46.12254524229895" lon="9.3502753089128"><ele>212.66666666666669</ele><time>2026-04-25T15:01:06.985Z</time></trkpt><trkpt lat="46.12261511015149" lon="9.35029841815406"><ele>212.5</ele><time>2026-04-25T15:01:07.985Z</time></trkpt><trkpt lat="46.122680200036044" lon="9.350319445343217"><ele>212.33333333333334</ele><time>2026-04-25T15:01:08.985Z</time></trkpt><trkpt lat="46.12278086854006" lon="9.350326630960115"><ele>212.16666666666669</ele><time>2026-04-25T15:01:10.985Z</time></trkpt><trkpt lat="46.12283523015066" lon="9.350272103009443"><ele>212.0</ele><time>2026-04-25T15:01:19.985Z</time></trkpt><trkpt lat="46.12295109961726" lon="9.35027229073449"><ele>212.0</ele><time>2026-04-25T15:01:21.983Z</time></trkpt><trkpt lat="46.1230394199917" lon="9.350303457293638"><ele>212.0</ele><time>2026-04-25T15:01:22.983Z</time></trkpt><trkpt lat="46.123142424827826" lon="9.350343352540191"><ele>212.0</ele><time>2026-04-25T15:01:23.983Z</time></trkpt><trkpt lat="46.123264399129226" lon="9.350387962815729"><ele>212.0</ele><time>2026-04-25T15:01:24.984Z</time></trkpt><trkpt lat="46.12339244245441" lon="9.350436766101797"><ele>211.75</ele><time>2026-04-25T15:01:25.983Z</time></trkpt><trkpt lat="46.12352188530208" lon="9.35048243421133"><ele>211.5</ele><time>2026-04-25T15:01:26.983Z</time></trkpt><trkpt lat="46.12365669562313" lon="9.350534917888378"><ele>211.25</ele><time>2026-04-25T15:01:27.984Z</time></trkpt><trkpt lat="46.123794550306805" lon="9.350592446853025"><ele>211.0</ele><time>2026-04-25T15:01:28.984Z</time></trkpt><trkpt lat="46.123934913185096" lon="9.350650827610675"><ele>211.5</ele><time>2026-04-25T15:01:29.984Z</time></trkpt><trkpt lat="46.12407966415649" lon="9.35070737244951"><ele>212.0</ele><time>2026-04-25T15:01:30.984Z</time></trkpt><trkpt lat="46.12422156045719" lon="9.35076277308045"><ele>212.5</ele><time>2026-04-25T15:01:31.983Z</time></trkpt><trkpt lat="46.124360177119414" lon="9.350817630963457"><ele>213.0</ele><time>2026-04-25T15:01:32.983Z</time></trkpt><trkpt lat="46.12449685200769" lon="9.350871123057027"><ele>213.0</ele><time>2026-04-25T15:01:33.984Z</time></trkpt><trkpt lat="46.124638911172774" lon="9.350922050319408"><ele>213.0</ele><time>2026-04-25T15:01:34.983Z</time></trkpt><trkpt lat="46.124774466977115" lon="9.35097036129115"><ele>213.0</ele><time>2026-04-25T15:01:35.983Z</time></trkpt><trkpt lat="46.12490668607398" lon="9.351026113883414"><ele>213.0</ele><time>2026-04-25T15:01:36.983Z</time></trkpt><trkpt lat="46.125029123842616" lon="9.35109544657966"><ele>212.75</ele><time>2026-04-25T15:01:37.983Z</time></trkpt><trkpt lat="46.125146216018045" lon="9.351197279382124"><ele>212.5</ele><time>2026-04-25T15:01:38.983Z</time></trkpt><trkpt lat="46.12526398241935" lon="9.351308965965464"><ele>212.25</ele><time>2026-04-25T15:01:39.983Z</time></trkpt><trkpt lat="46.12537313857131" lon="9.351450625401762"><ele>212.0</ele><time>2026-04-25T15:01:40.983Z</time></trkpt><trkpt lat="46.12548832250653" lon="9.351598929131391"><ele>212.0</ele><time>2026-04-25T15:01:41.983Z</time></trkpt><trkpt lat="46.12559955687345" lon="9.35174948317978"><ele>212.0</ele><time>2026-04-25T15:01:42.983Z</time></trkpt><trkpt lat="46.12570931293546" lon="9.351895251340439"><ele>212.0</ele><time>2026-04-25T15:01:43.983Z</time></trkpt><trkpt lat="46.12582382881" lon="9.352043484903797"><ele>212.0</ele><time>2026-04-25T15:01:44.983Z</time></trkpt><trkpt lat="46.12594239805436" lon="9.352194792280152"><ele>212.0</ele><time>2026-04-25T15:01:45.983Z</time></trkpt><trkpt lat="46.12606213287755" lon="9.352346910785384"><ele>212.0</ele><time>2026-04-25T15:01:46.983Z</time></trkpt><trkpt lat="46.12618336197423" lon="9.352499929226978"><ele>212.25</ele><time>2026-04-25T15:01:47.983Z</time></trkpt><trkpt lat="46.126300807483524" lon="9.35265083144985"><ele>212.5</ele><time>2026-04-25T15:01:48.983Z</time></trkpt><trkpt lat="46.126407924339624" lon="9.352790629283131"><ele>212.75</ele><time>2026-04-25T15:01:49.983Z</time></trkpt><trkpt lat="46.12650782259672" lon="9.352922829182024"><ele>213.0</ele><time>2026-04-25T15:01:50.983Z</time></trkpt><trkpt lat="46.12660660053922" lon="9.353048498923888"><ele>213.5</ele><time>2026-04-25T15:01:51.983Z</time></trkpt><trkpt lat="46.12669773319469" lon="9.353172294795396"><ele>214.0</ele><time>2026-04-25T15:01:52.983Z</time></trkpt><trkpt lat="46.126788412559634" lon="9.353290974350909"><ele>214.5</ele><time>2026-04-25T15:01:53.983Z</time></trkpt><trkpt lat="46.12687345330788" lon="9.353397617865975"><ele>215.0</ele><time>2026-04-25T15:01:54.983Z</time></trkpt><trkpt lat="46.12695838078846" lon="9.353503367736224"><ele>215.0</ele><time>2026-04-25T15:01:55.983Z</time></trkpt><trkpt lat="46.127040655821396" lon="9.353609069017626"><ele>215.0</ele><time>2026-04-25T15:01:56.983Z</time></trkpt><trkpt lat="46.127122507636955" lon="9.353710854082362"><ele>215.0</ele><time>2026-04-25T15:01:57.983Z</time></trkpt><trkpt lat="46.127197910555196" lon="9.353808452898116"><ele>215.0</ele><time>2026-04-25T15:01:58.983Z</time></trkpt><trkpt lat="46.127267157704246" lon="9.3539029521564"><ele>215.0</ele><time>2026-04-25T15:01:59.984Z</time></trkpt><trkpt lat="46.12733362452937" lon="9.353991311157364"><ele>215.33333333333334</ele><time>2026-04-25T15:02:00.984Z</time></trkpt><trkpt lat="46.12740264174031" lon="9.35407405864526"><ele>215.66666666666669</ele><time>2026-04-25T15:02:01.984Z</time></trkpt><trkpt lat="46.12746959255299" lon="9.354158454495701"><ele>216.0</ele><time>2026-04-25T15:02:02.984Z</time></trkpt><trkpt lat="46.12753487243396" lon="9.354240828392223"><ele>216.33333333333331</ele><time>2026-04-25T15:02:03.984Z</time></trkpt><trkpt lat="46.12760240699498" lon="9.354322036180436"><ele>216.66666666666666</ele><time>2026-04-25T15:02:04.984Z</time></trkpt><trkpt lat="46.12766760828533" lon="9.35440205420312"><ele>217.0</ele><time>2026-04-25T15:02:05.984Z</time></trkpt><trkpt lat="46.12773661891606" lon="9.354487231773648"><ele>217.0</ele><time>2026-04-25T15:02:06.984Z</time></trkpt><trkpt lat="46.1278085817544" lon="9.354579540987594"><ele>217.0</ele><time>2026-04-25T15:02:07.984Z</time></trkpt><trkpt lat="46.12788041640291" lon="9.354675669089563"><ele>217.0</ele><time>2026-04-25T15:02:08.984Z</time></trkpt><trkpt lat="46.127952173150966" lon="9.354772180528586"><ele>217.0</ele><time>2026-04-25T15:02:09.984Z</time></trkpt><trkpt lat="46.12802792907716" lon="9.35486621864884"><ele>217.0</ele><time>2026-04-25T15:02:10.984Z</time></trkpt><trkpt lat="46.12810903814009" lon="9.354968794597202"><ele>217.0</ele><time>2026-04-25T15:02:11.984Z</time></trkpt><trkpt lat="46.12819136353011" lon="9.355075211787247"><ele>217.0</ele><time>2026-04-25T15:02:12.984Z</time></trkpt><trkpt lat="46.12827180346707" lon="9.355185203202808"><ele>217.0</ele><time>2026-04-25T15:02:13.984Z</time></trkpt><trkpt lat="46.12835586652542" lon="9.35529907317025"><ele>217.0</ele><time>2026-04-25T15:02:14.984Z</time></trkpt><trkpt lat="46.128442983154216" lon="9.355407899571325"><ele>217.0</ele><time>2026-04-25T15:02:15.984Z</time></trkpt><trkpt lat="46.128530460555744" lon="9.355523084695777"><ele>217.0</ele><time>2026-04-25T15:02:16.984Z</time></trkpt><trkpt lat="46.12861959097114" lon="9.355635487319244"><ele>217.0</ele><time>2026-04-25T15:02:17.984Z</time></trkpt><trkpt lat="46.1287062448746" lon="9.355748417668082"><ele>217.0</ele><time>2026-04-25T15:02:18.984Z</time></trkpt><trkpt lat="46.12878741917909" lon="9.355857711873176"><ele>217.0</ele><time>2026-04-25T15:02:19.984Z</time></trkpt><trkpt lat="46.12886867192532" lon="9.35596832799461"><ele>217.0</ele><time>2026-04-25T15:02:20.984Z</time></trkpt><trkpt lat="46.1289509805571" lon="9.356084376539405"><ele>217.0</ele><time>2026-04-25T15:02:21.984Z</time></trkpt><trkpt lat="46.12903575812989" lon="9.356209875586636"><ele>217.0</ele><time>2026-04-25T15:02:22.984Z</time></trkpt><trkpt lat="46.12912645227192" lon="9.356343931707341"><ele>217.5</ele><time>2026-04-25T15:02:23.984Z</time></trkpt><trkpt lat="46.129220770729255" lon="9.356483792410373"><ele>218.0</ele><time>2026-04-25T15:02:24.984Z</time></trkpt><trkpt lat="46.129313577533395" lon="9.356629402508956"><ele>218.5</ele><time>2026-04-25T15:02:25.984Z</time></trkpt><trkpt lat="46.12940157314327" lon="9.356775803331491"><ele>219.0</ele><time>2026-04-25T15:02:26.984Z</time></trkpt><trkpt lat="46.12948537864041" lon="9.356927140012603"><ele>219.0</ele><time>2026-04-25T15:02:27.984Z</time></trkpt><trkpt lat="46.12956682880392" lon="9.35707933660671"><ele>219.0</ele><time>2026-04-25T15:02:28.984Z</time></trkpt><trkpt lat="46.12964638718628" lon="9.357235506817776"><ele>219.0</ele><time>2026-04-25T15:02:29.984Z</time></trkpt><trkpt lat="46.12972452992579" lon="9.357393937726808"><ele>219.0</ele><time>2026-04-25T15:02:30.984Z</time></trkpt><trkpt lat="46.12979638290951" lon="9.357556079695152"><ele>219.5</ele><time>2026-04-25T15:02:31.984Z</time></trkpt><trkpt lat="46.12986882094705" lon="9.35771785817106"><ele>220.0</ele><time>2026-04-25T15:02:32.984Z</time></trkpt><trkpt lat="46.12993656123114" lon="9.357884927832588"><ele>220.5</ele><time>2026-04-25T15:02:33.984Z</time></trkpt><trkpt lat="46.129998460727506" lon="9.358046359844012"><ele>221.0</ele><time>2026-04-25T15:02:34.984Z</time></trkpt><trkpt lat="46.130057793518276" lon="9.358208846943342"><ele>220.0</ele><time>2026-04-25T15:02:35.984Z</time></trkpt><trkpt lat="46.13012036351367" lon="9.358376067070584"><ele>219.0</ele><time>2026-04-25T15:02:36.984Z</time></trkpt><trkpt lat="46.13017741356659" lon="9.358548454186714"><ele>218.0</ele><time>2026-04-25T15:02:37.984Z</time></trkpt><trkpt lat="46.130237163124136" lon="9.35871675935293"><ele>217.0</ele><time>2026-04-25T15:02:38.984Z</time></trkpt><trkpt lat="46.13029585503999" lon="9.358881154481688"><ele>217.0</ele><time>2026-04-25T15:02:39.984Z</time></trkpt><trkpt lat="46.13035613531427" lon="9.359043108485187"><ele>217.0</ele><time>2026-04-25T15:02:40.984Z</time></trkpt><trkpt lat="46.13041375231719" lon="9.35920046630797"><ele>217.0</ele><time>2026-04-25T15:02:41.984Z</time></trkpt><trkpt lat="46.13047016223366" lon="9.35935227269002"><ele>217.0</ele><time>2026-04-25T15:02:42.984Z</time></trkpt><trkpt lat="46.130524595909165" lon="9.35950134616263"><ele>217.0</ele><time>2026-04-25T15:02:43.984Z</time></trkpt><trkpt lat="46.130575920690156" lon="9.359642670172896"><ele>217.0</ele><time>2026-04-25T15:02:44.984Z</time></trkpt><trkpt lat="46.130624100887346" lon="9.35978574931166"><ele>217.0</ele><time>2026-04-25T15:02:45.984Z</time></trkpt><trkpt lat="46.130675668429795" lon="9.359933441479532"><ele>217.0</ele><time>2026-04-25T15:02:46.984Z</time></trkpt><trkpt lat="46.13072792741946" lon="9.360079349012835"><ele>217.0</ele><time>2026-04-25T15:02:47.984Z</time></trkpt><trkpt lat="46.130779457738456" lon="9.360230842362586"><ele>216.75</ele><time>2026-04-25T15:02:48.984Z</time></trkpt><trkpt lat="46.13083697803222" lon="9.360380180870475"><ele>216.5</ele><time>2026-04-25T15:02:49.984Z</time></trkpt><trkpt lat="46.13089317961068" lon="9.360534798826523"><ele>216.25</ele><time>2026-04-25T15:02:50.984Z</time></trkpt><trkpt lat="46.13094977729514" lon="9.360688084167519"><ele>216.0</ele><time>2026-04-25T15:02:51.984Z</time></trkpt><trkpt lat="46.13100152741175" lon="9.36083811802476"><ele>216.5</ele><time>2026-04-25T15:02:52.984Z</time></trkpt><trkpt lat="46.13105585566583" lon="9.360986325656995"><ele>217.0</ele><time>2026-04-25T15:02:53.984Z</time></trkpt><trkpt lat="46.13111064881199" lon="9.361131415893661"><ele>217.5</ele><time>2026-04-25T15:02:54.984Z</time></trkpt><trkpt lat="46.131167031538055" lon="9.36127614013841"><ele>218.0</ele><time>2026-04-25T15:02:55.984Z</time></trkpt><trkpt lat="46.13119142952567" lon="9.361433606708015"><ele>218.0</ele><time>2026-04-25T15:02:56.984Z</time></trkpt><trkpt lat="46.13124242482611" lon="9.361577864900042"><ele>218.0</ele><time>2026-04-25T15:02:57.984Z</time></trkpt><trkpt lat="46.131292474519945" lon="9.36171227486561"><ele>218.0</ele><time>2026-04-25T15:02:58.984Z</time></trkpt><trkpt lat="46.13134109990582" lon="9.36184480451957"><ele>218.0</ele><time>2026-04-25T15:02:59.984Z</time></trkpt><trkpt lat="46.13139276280871" lon="9.361983479593917"><ele>218.0</ele><time>2026-04-25T15:03:00.984Z</time></trkpt><trkpt lat="46.13144612552369" lon="9.362129370247436"><ele>218.5</ele><time>2026-04-25T15:03:01.984Z</time></trkpt><trkpt lat="46.13150464671492" lon="9.362285816547224"><ele>219.0</ele><time>2026-04-25T15:03:02.984Z</time></trkpt><trkpt lat="46.13156218307351" lon="9.36244461053535"><ele>219.5</ele><time>2026-04-25T15:03:03.984Z</time></trkpt><trkpt lat="46.131621931999966" lon="9.362603695466392"><ele>220.0</ele><time>2026-04-25T15:03:04.984Z</time></trkpt><trkpt lat="46.131681224671446" lon="9.362757707475032"><ele>218.6</ele><time>2026-04-25T15:03:05.984Z</time></trkpt><trkpt lat="46.13173191421698" lon="9.36290527982176"><ele>217.2</ele><time>2026-04-25T15:03:06.984Z</time></trkpt><trkpt lat="46.13177999560603" lon="9.363044817254279"><ele>215.8</ele><time>2026-04-25T15:03:07.984Z</time></trkpt><trkpt lat="46.13182719340529" lon="9.36317723290338"><ele>214.4</ele><time>2026-04-25T15:03:08.984Z</time></trkpt><trkpt lat="46.13187305468636" lon="9.363302458972338"><ele>213.0</ele><time>2026-04-25T15:03:09.984Z</time></trkpt><trkpt lat="46.1319145694168" lon="9.36342489048016"><ele>213.0</ele><time>2026-04-25T15:03:10.984Z</time></trkpt><trkpt lat="46.13196035772971" lon="9.363548593329865"><ele>213.0</ele><time>2026-04-25T15:03:11.984Z</time></trkpt><trkpt lat="46.132005111686176" lon="9.363677461370408"><ele>213.0</ele><time>2026-04-25T15:03:12.985Z</time></trkpt><trkpt lat="46.132048077439016" lon="9.363792741642635"><ele>213.0</ele><time>2026-04-25T15:03:13.985Z</time></trkpt><trkpt lat="46.132089573560286" lon="9.363904700406033"><ele>213.0</ele><time>2026-04-25T15:03:14.985Z</time></trkpt><trkpt lat="46.13212606472164" lon="9.364006853281202"><ele>213.66666666666666</ele><time>2026-04-25T15:03:15.985Z</time></trkpt><trkpt lat="46.13215883638644" lon="9.36409281822417"><ele>214.33333333333331</ele><time>2026-04-25T15:03:16.985Z</time></trkpt><trkpt lat="46.13220855384408" lon="9.364233199111938"><ele>215.0</ele><time>2026-04-25T15:03:18.985Z</time></trkpt><trkpt lat="46.13224702329163" lon="9.364349209685559"><ele>215.66666666666666</ele><time>2026-04-25T15:03:20.985Z</time></trkpt><trkpt lat="46.13227399822674" lon="9.364446872378515"><ele>216.33333333333331</ele><time>2026-04-25T15:03:22.985Z</time></trkpt><trkpt lat="46.13231252407104" lon="9.364538341624627"><ele>217.0</ele><time>2026-04-25T15:03:30.983Z</time></trkpt><trkpt lat="46.13233574320915" lon="9.364690735358417"><ele>217.28571428571428</ele><time>2026-04-25T15:03:32.983Z</time></trkpt><trkpt lat="46.13235026200845" lon="9.364791262029922"><ele>217.57142857142856</ele><time>2026-04-25T15:03:33.983Z</time></trkpt><trkpt lat="46.13241785377827" lon="9.364863439160649"><ele>217.85714285714286</ele><time>2026-04-25T15:03:34.983Z</time></trkpt><trkpt lat="46.132462744285625" lon="9.364947850897462"><ele>218.14285714285714</ele><time>2026-04-25T15:03:35.983Z</time></trkpt><trkpt lat="46.13249886652442" lon="9.36503026624464"><ele>218.42857142857142</ele><time>2026-04-25T15:03:36.982Z</time></trkpt><trkpt lat="46.13253156089923" lon="9.365122344855578"><ele>218.71428571428572</ele><time>2026-04-25T15:03:37.982Z</time></trkpt><trkpt lat="46.13256589066732" lon="9.36522547774425"><ele>219.0</ele><time>2026-04-25T15:03:38.982Z</time></trkpt><trkpt lat="46.13260875699731" lon="9.365331541454324"><ele>218.39999999999998</ele><time>2026-04-25T15:03:39.983Z</time></trkpt><trkpt lat="46.132653289543335" lon="9.36544092755894"><ele>217.79999999999998</ele><time>2026-04-25T15:03:40.982Z</time></trkpt><trkpt lat="46.13269585205214" lon="9.365552609407347"><ele>217.20000000000002</ele><time>2026-04-25T15:03:41.982Z</time></trkpt><trkpt lat="46.1327376087117" lon="9.365671075198392"><ele>216.60000000000002</ele><time>2026-04-25T15:03:42.982Z</time></trkpt><trkpt lat="46.13275346207547" lon="9.36580433617227"><ele>216.0</ele><time>2026-04-25T15:03:43.982Z</time></trkpt><trkpt lat="46.13279974746566" lon="9.365934324944273"><ele>216.0</ele><time>2026-04-25T15:03:44.982Z</time></trkpt><trkpt lat="46.13284740027093" lon="9.366060737690765"><ele>216.00000000000003</ele><time>2026-04-25T15:03:45.982Z</time></trkpt><trkpt lat="46.13289465156691" lon="9.36617781131464"><ele>216.00000000000003</ele><time>2026-04-25T15:03:46.982Z</time></trkpt><trkpt lat="46.132940843961" lon="9.366296898567123"><ele>216.0</ele><time>2026-04-25T15:03:47.982Z</time></trkpt><trkpt lat="46.13299270782254" lon="9.366416666814036"><ele>216.0</ele><time>2026-04-25T15:03:48.982Z</time></trkpt><trkpt lat="46.13304884745974" lon="9.366527121272629"><ele>215.8</ele><time>2026-04-25T15:03:49.982Z</time></trkpt><trkpt lat="46.13310532924199" lon="9.366632252547927"><ele>215.60000000000002</ele><time>2026-04-25T15:03:50.982Z</time></trkpt><trkpt lat="46.13316365784175" lon="9.366734816875542"><ele>215.4</ele><time>2026-04-25T15:03:51.982Z</time></trkpt><trkpt lat="46.13322269756021" lon="9.36684534859264"><ele>215.2</ele><time>2026-04-25T15:03:52.982Z</time></trkpt><trkpt lat="46.133290296778114" lon="9.366962898414217"><ele>215.0</ele><time>2026-04-25T15:03:53.982Z</time></trkpt><trkpt lat="46.133360025744246" lon="9.367083174040184"><ele>215.5</ele><time>2026-04-25T15:03:54.982Z</time></trkpt><trkpt lat="46.133436727442714" lon="9.367204114579641"><ele>216.0</ele><time>2026-04-25T15:03:55.982Z</time></trkpt><trkpt lat="46.13352187429844" lon="9.367317491882377"><ele>216.5</ele><time>2026-04-25T15:03:56.982Z</time></trkpt><trkpt lat="46.13359805722026" lon="9.36743059460181"><ele>217.0</ele><time>2026-04-25T15:03:57.983Z</time></trkpt><trkpt lat="46.133674323088286" lon="9.367548306214205"><ele>217.0</ele><time>2026-04-25T15:03:58.983Z</time></trkpt><trkpt lat="46.13374962211945" lon="9.367662372886794"><ele>217.0</ele><time>2026-04-25T15:03:59.983Z</time></trkpt><trkpt lat="46.133818185103976" lon="9.367772878590005"><ele>217.0</ele><time>2026-04-25T15:04:00.983Z</time></trkpt><trkpt lat="46.13389363646661" lon="9.367890790768092"><ele>217.0</ele><time>2026-04-25T15:04:01.983Z</time></trkpt><trkpt lat="46.133969350747655" lon="9.368011181690006"><ele>217.0</ele><time>2026-04-25T15:04:02.983Z</time></trkpt><trkpt lat="46.134042100482354" lon="9.368126003599949"><ele>216.0</ele><time>2026-04-25T15:04:03.983Z</time></trkpt><trkpt lat="46.1341114296217" lon="9.368235109183852"><ele>215.0</ele><time>2026-04-25T15:04:04.983Z</time></trkpt><trkpt lat="46.13417890044196" lon="9.368343107264092"><ele>214.0</ele><time>2026-04-25T15:04:05.983Z</time></trkpt><trkpt lat="46.13424405576574" lon="9.368449212140883"><ele>213.0</ele><time>2026-04-25T15:04:06.983Z</time></trkpt><trkpt lat="46.13430770556028" lon="9.368548783815712"><ele>212.0</ele><time>2026-04-25T15:04:07.983Z</time></trkpt><trkpt lat="46.13436884800775" lon="9.368643663737824"><ele>212.00000000000003</ele><time>2026-04-25T15:04:08.983Z</time></trkpt><trkpt lat="46.134425114761605" lon="9.368734713117"><ele>212.0</ele><time>2026-04-25T15:04:09.983Z</time></trkpt><trkpt lat="46.1344802914777" lon="9.368819459273338"><ele>212.0</ele><time>2026-04-25T15:04:10.983Z</time></trkpt><trkpt lat="46.13452953057603" lon="9.36889727281342"><ele>212.0</ele><time>2026-04-25T15:04:11.983Z</time></trkpt><trkpt lat="46.13457495640574" lon="9.36896738227181"><ele>212.00000000000003</ele><time>2026-04-25T15:04:12.983Z</time></trkpt><trkpt lat="46.134633969125275" lon="9.369108270692097"><ele>212.0</ele><time>2026-04-25T15:04:14.983Z</time></trkpt><trkpt lat="46.13470974493447" lon="9.369235909940482"><ele>212.0</ele><time>2026-04-25T15:04:16.983Z</time></trkpt><trkpt lat="46.13478150929218" lon="9.369369215168723"><ele>212.0</ele><time>2026-04-25T15:04:18.983Z</time></trkpt><trkpt lat="46.1348491259094" lon="9.36948505715408"><ele>212.0</ele><time>2026-04-25T15:04:20.983Z</time></trkpt><trkpt lat="46.13489631671533" lon="9.369637701408482"><ele>212.0</ele><time>2026-04-25T15:04:22.983Z</time></trkpt><trkpt lat="46.134954303672146" lon="9.369750347925164"><ele>212.0</ele><time>2026-04-25T15:04:24.983Z</time></trkpt><trkpt lat="46.135005094822155" lon="9.369857013471542"><ele>212.16666666666669</ele><time>2026-04-25T15:04:26.983Z</time></trkpt><trkpt lat="46.1350813041218" lon="9.369988682007786"><ele>212.33333333333334</ele><time>2026-04-25T15:04:28.983Z</time></trkpt><trkpt lat="46.13512525028129" lon="9.37006893727305"><ele>212.5</ele><time>2026-04-25T15:04:29.983Z</time></trkpt><trkpt lat="46.13516634819589" lon="9.37014620618751"><ele>212.66666666666669</ele><time>2026-04-25T15:04:30.983Z</time></trkpt><trkpt lat="46.135201533855685" lon="9.370222367574579"><ele>212.83333333333334</ele><time>2026-04-25T15:04:31.983Z</time></trkpt><trkpt lat="46.135254793500636" lon="9.370337298584161"><ele>213.0</ele><time>2026-04-25T15:04:33.983Z</time></trkpt><trkpt lat="46.1352588843481" lon="9.3704493673218"><ele>213.4</ele><time>2026-04-25T15:04:35.983Z</time></trkpt><trkpt lat="46.13530610895806" lon="9.370540670510277"><ele>213.8</ele><time>2026-04-25T15:04:37.983Z</time></trkpt><trkpt lat="46.135345085536535" lon="9.370637743688604"><ele>214.2</ele><time>2026-04-25T15:04:39.984Z</time></trkpt><trkpt lat="46.13537766982748" lon="9.370748184108487"><ele>214.6</ele><time>2026-04-25T15:04:41.984Z</time></trkpt><trkpt lat="46.13545605410898" lon="9.370859950009052"><ele>215.0</ele><time>2026-04-25T15:04:43.984Z</time></trkpt><trkpt lat="46.13554274004405" lon="9.370971606088736"><ele>215.0</ele><time>2026-04-25T15:04:45.984Z</time></trkpt><trkpt lat="46.1355824998527" lon="9.371048027760576"><ele>215.0</ele><time>2026-04-25T15:04:46.984Z</time></trkpt><trkpt lat="46.135606878591375" lon="9.371138676005755"><ele>215.0</ele><time>2026-04-25T15:04:47.984Z</time></trkpt><trkpt lat="46.135646155897106" lon="9.371224041999303"><ele>215.0</ele><time>2026-04-25T15:04:48.984Z</time></trkpt><trkpt lat="46.13568777674215" lon="9.371314501520791"><ele>215.0</ele><time>2026-04-25T15:04:49.984Z</time></trkpt><trkpt lat="46.13573244626927" lon="9.37141254878876"><ele>215.0</ele><time>2026-04-25T15:04:50.984Z</time></trkpt><trkpt lat="46.13577847453913" lon="9.371514176574818"><ele>215.0</ele><time>2026-04-25T15:04:51.984Z</time></trkpt><trkpt lat="46.13582687355089" lon="9.37162103878691"><ele>214.66666666666669</ele><time>2026-04-25T15:04:52.984Z</time></trkpt><trkpt lat="46.135871163448684" lon="9.371721174887213"><ele>214.33333333333334</ele><time>2026-04-25T15:04:53.984Z</time></trkpt><trkpt lat="46.1359110736511" lon="9.371812281161162"><ele>214.0</ele><time>2026-04-25T15:04:54.984Z</time></trkpt><trkpt lat="46.135945825826596" lon="9.371904273955476"><ele>213.66666666666669</ele><time>2026-04-25T15:04:55.984Z</time></trkpt><trkpt lat="46.13598573651859" lon="9.371997186627926"><ele>213.33333333333334</ele><time>2026-04-25T15:04:56.984Z</time></trkpt><trkpt lat="46.13602831711795" lon="9.372093170316703"><ele>213.0</ele><time>2026-04-25T15:04:57.984Z</time></trkpt><trkpt lat="46.136077172811376" lon="9.37219907568622"><ele>213.0</ele><time>2026-04-25T15:04:58.984Z</time></trkpt><trkpt lat="46.13612977913894" lon="9.372332366374037"><ele>213.0</ele><time>2026-04-25T15:04:59.984Z</time></trkpt><trkpt lat="46.136180736484874" lon="9.37246850914085"><ele>213.0</ele><time>2026-04-25T15:05:00.984Z</time></trkpt><trkpt lat="46.13623816760285" lon="9.37260863964981"><ele>213.0</ele><time>2026-04-25T15:05:01.984Z</time></trkpt><trkpt lat="46.1362973948314" lon="9.37273916673206"><ele>213.0</ele><time>2026-04-25T15:05:02.984Z</time></trkpt><trkpt lat="46.13635882065951" lon="9.372866175746557"><ele>213.0</ele><time>2026-04-25T15:05:03.984Z</time></trkpt><trkpt lat="46.136423085821086" lon="9.372993646681268"><ele>213.0</ele><time>2026-04-25T15:05:04.984Z</time></trkpt><trkpt lat="46.13648804613337" lon="9.37312855137779"><ele>213.0</ele><time>2026-04-25T15:05:05.984Z</time></trkpt><trkpt lat="46.13655540824243" lon="9.37326148371995"><ele>213.0</ele><time>2026-04-25T15:05:06.984Z</time></trkpt><trkpt lat="46.13662607415901" lon="9.373387199477168"><ele>213.0</ele><time>2026-04-25T15:05:07.984Z</time></trkpt><trkpt lat="46.136696098300725" lon="9.37351243758891"><ele>212.8</ele><time>2026-04-25T15:05:08.984Z</time></trkpt><trkpt lat="46.13676674835217" lon="9.37363531382892"><ele>212.60000000000002</ele><time>2026-04-25T15:05:09.984Z</time></trkpt><trkpt lat="46.13683548120427" lon="9.373772154462802"><ele>212.39999999999998</ele><time>2026-04-25T15:05:10.984Z</time></trkpt><trkpt lat="46.13689303808846" lon="9.373904708220996"><ele>212.2</ele><time>2026-04-25T15:05:11.984Z</time></trkpt><trkpt lat="46.13695585686636" lon="9.374006799236938"><ele>212.0</ele><time>2026-04-25T15:05:12.984Z</time></trkpt><trkpt lat="46.137007403540636" lon="9.374093568744444"><ele>212.39999999999998</ele><time>2026-04-25T15:05:13.984Z</time></trkpt><trkpt lat="46.13701661614322" lon="9.374201796897161"><ele>212.79999999999998</ele><time>2026-04-25T15:05:14.984Z</time></trkpt><trkpt lat="46.13708027003182" lon="9.374348904488064"><ele>213.2</ele><time>2026-04-25T15:05:16.984Z</time></trkpt><trkpt lat="46.1371186014673" lon="9.374422920186358"><ele>213.6</ele><time>2026-04-25T15:05:17.984Z</time></trkpt><trkpt lat="46.13718707719669" lon="9.374582644239174"><ele>214.0</ele><time>2026-04-25T15:05:19.984Z</time></trkpt><trkpt lat="46.13722315846616" lon="9.374665575958193"><ele>214.14285714285717</ele><time>2026-04-25T15:05:20.984Z</time></trkpt><trkpt lat="46.13726838105086" lon="9.374739042094829"><ele>214.28571428571428</ele><time>2026-04-25T15:05:21.985Z</time></trkpt><trkpt lat="46.13731857304744" lon="9.374816682073916"><ele>214.42857142857144</ele><time>2026-04-25T15:05:22.985Z</time></trkpt><trkpt lat="46.137366963490855" lon="9.374892246903743"><ele>214.57142857142858</ele><time>2026-04-25T15:05:23.985Z</time></trkpt><trkpt lat="46.13741206186323" lon="9.37497551893563"><ele>214.71428571428572</ele><time>2026-04-25T15:05:24.985Z</time></trkpt><trkpt lat="46.13745677225145" lon="9.375065707427318"><ele>214.85714285714286</ele><time>2026-04-25T15:05:25.985Z</time></trkpt><trkpt lat="46.13749923049503" lon="9.375153646245238"><ele>215.0</ele><time>2026-04-25T15:05:26.985Z</time></trkpt><trkpt lat="46.1375243598715" lon="9.375264894383223"><ele>214.4</ele><time>2026-04-25T15:05:27.985Z</time></trkpt><trkpt lat="46.13758557582209" lon="9.37533882496548"><ele>213.8</ele><time>2026-04-25T15:05:28.985Z</time></trkpt><trkpt lat="46.137635302459344" lon="9.375442619854201"><ele>213.2</ele><time>2026-04-25T15:05:29.985Z</time></trkpt><trkpt lat="46.13768906915223" lon="9.375562462821227"><ele>212.6</ele><time>2026-04-25T15:05:30.985Z</time></trkpt><trkpt lat="46.137753278151536" lon="9.375692131798745"><ele>212.0</ele><time>2026-04-25T15:05:31.985Z</time></trkpt><trkpt lat="46.13781800090155" lon="9.375832000992968"><ele>212.0</ele><time>2026-04-25T15:05:32.985Z</time></trkpt><trkpt lat="46.13787732044582" lon="9.375986017232089"><ele>212.0</ele><time>2026-04-25T15:05:33.982Z</time></trkpt><trkpt lat="46.13794135689481" lon="9.37613180568032"><ele>212.0</ele><time>2026-04-25T15:05:34.982Z</time></trkpt><trkpt lat="46.13800759958987" lon="9.376264863294773"><ele>212.0</ele><time>2026-04-25T15:05:35.982Z</time></trkpt><trkpt lat="46.13806579413232" lon="9.37640682307296"><ele>212.25</ele><time>2026-04-25T15:05:36.982Z</time></trkpt><trkpt lat="46.13812660061475" lon="9.37654516689217"><ele>212.5</ele><time>2026-04-25T15:05:37.982Z</time></trkpt><trkpt lat="46.13818712117084" lon="9.376684522643837"><ele>212.75</ele><time>2026-04-25T15:05:38.982Z</time></trkpt><trkpt lat="46.13824150280978" lon="9.376820529322128"><ele>213.0</ele><time>2026-04-25T15:05:39.983Z</time></trkpt><trkpt lat="46.138281425859304" lon="9.376975107142341"><ele>212.60000000000002</ele><time>2026-04-25T15:05:40.982Z</time></trkpt><trkpt lat="46.138365983505885" lon="9.377096123161408"><ele>212.20000000000002</ele><time>2026-04-25T15:05:41.982Z</time></trkpt><trkpt lat="46.138424517678445" lon="9.377232176207274"><ele>211.8</ele><time>2026-04-25T15:05:42.982Z</time></trkpt><trkpt lat="46.13847666275232" lon="9.377358990946748"><ele>211.4</ele><time>2026-04-25T15:05:43.982Z</time></trkpt><trkpt lat="46.13852962128572" lon="9.37747465412046"><ele>211.0</ele><time>2026-04-25T15:05:44.982Z</time></trkpt><trkpt lat="46.13858092230697" lon="9.37759755011005"><ele>211.0</ele><time>2026-04-25T15:05:45.982Z</time></trkpt><trkpt lat="46.13863967030463" lon="9.377712604511705"><ele>211.0</ele><time>2026-04-25T15:05:46.982Z</time></trkpt><trkpt lat="46.13870429737248" lon="9.377843312983357"><ele>211.0</ele><time>2026-04-25T15:05:47.982Z</time></trkpt><trkpt lat="46.138751594803686" lon="9.377969155597933"><ele>211.0</ele><time>2026-04-25T15:05:48.982Z</time></trkpt><trkpt lat="46.13880367328975" lon="9.378095457125506"><ele>211.0</ele><time>2026-04-25T15:05:49.982Z</time></trkpt><trkpt lat="46.13886237542837" lon="9.378227073187066"><ele>210.75</ele><time>2026-04-25T15:05:50.982Z</time></trkpt><trkpt lat="46.13891929601753" lon="9.378367027319523"><ele>210.5</ele><time>2026-04-25T15:05:51.982Z</time></trkpt><trkpt lat="46.13897525889034" lon="9.378523348964613"><ele>210.25</ele><time>2026-04-25T15:05:52.982Z</time></trkpt><trkpt lat="46.1390269694561" lon="9.378686440787131"><ele>210.0</ele><time>2026-04-25T15:05:53.982Z</time></trkpt><trkpt lat="46.1390750880727" lon="9.378846284808692"><ele>210.25</ele><time>2026-04-25T15:05:54.982Z</time></trkpt><trkpt lat="46.13911691279926" lon="9.378999759598502"><ele>210.5</ele><time>2026-04-25T15:05:55.982Z</time></trkpt><trkpt lat="46.13915376719462" lon="9.379160703571749"><ele>210.75</ele><time>2026-04-25T15:05:56.982Z</time></trkpt><trkpt lat="46.13919100545549" lon="9.379321135643968"><ele>211.0</ele><time>2026-04-25T15:05:57.982Z</time></trkpt><trkpt lat="46.13922258937237" lon="9.379482677227733"><ele>211.0</ele><time>2026-04-25T15:05:58.983Z</time></trkpt><trkpt lat="46.13924630287729" lon="9.37965227675886"><ele>211.0</ele><time>2026-04-25T15:05:59.983Z</time></trkpt><trkpt lat="46.13927007828638" lon="9.379832205052278"><ele>211.0</ele><time>2026-04-25T15:06:00.983Z</time></trkpt><trkpt lat="46.13928974310338" lon="9.380015876663705"><ele>211.0</ele><time>2026-04-25T15:06:01.983Z</time></trkpt><trkpt lat="46.139304854141635" lon="9.380203123791263"><ele>211.5</ele><time>2026-04-25T15:06:02.983Z</time></trkpt><trkpt lat="46.13931847795849" lon="9.380388363932347"><ele>212.0</ele><time>2026-04-25T15:06:03.983Z</time></trkpt><trkpt lat="46.13931942730162" lon="9.380578426909477"><ele>212.5</ele><time>2026-04-25T15:06:04.983Z</time></trkpt><trkpt lat="46.13933276294578" lon="9.380765692673785"><ele>213.0</ele><time>2026-04-25T15:06:05.983Z</time></trkpt><trkpt lat="46.13934495688758" lon="9.380957197493725"><ele>213.75</ele><time>2026-04-25T15:06:06.983Z</time></trkpt><trkpt lat="46.13939081314299" lon="9.381149082424338"><ele>214.5</ele><time>2026-04-25T15:06:07.983Z</time></trkpt><trkpt lat="46.13940204386044" lon="9.381345173133864"><ele>215.25</ele><time>2026-04-25T15:06:08.983Z</time></trkpt><trkpt lat="46.139416535062765" lon="9.381528357923443"><ele>216.0</ele><time>2026-04-25T15:06:09.983Z</time></trkpt><trkpt lat="46.139428663269214" lon="9.38170098326115"><ele>216.5</ele><time>2026-04-25T15:06:10.983Z</time></trkpt><trkpt lat="46.13940504916553" lon="9.381874774655572"><ele>217.0</ele><time>2026-04-25T15:06:11.983Z</time></trkpt><trkpt lat="46.13944665130271" lon="9.382036008803798"><ele>217.5</ele><time>2026-04-25T15:06:12.983Z</time></trkpt><trkpt lat="46.13945598007781" lon="9.382204104984341"><ele>218.0</ele><time>2026-04-25T15:06:13.983Z</time></trkpt><trkpt lat="46.139470779473356" lon="9.382383522200847"><ele>218.25</ele><time>2026-04-25T15:06:14.983Z</time></trkpt><trkpt lat="46.13948674559683" lon="9.382564124293856"><ele>218.5</ele><time>2026-04-25T15:06:15.983Z</time></trkpt><trkpt lat="46.13946192512452" lon="9.382746368143396"><ele>218.75</ele><time>2026-04-25T15:06:16.983Z</time></trkpt><trkpt lat="46.13947380760767" lon="9.38292628197975"><ele>219.0</ele><time>2026-04-25T15:06:17.983Z</time></trkpt><trkpt lat="46.139484537663975" lon="9.383088746777942"><ele>219.16666666666666</ele><time>2026-04-25T15:06:18.983Z</time></trkpt><trkpt lat="46.139494298254114" lon="9.383242726098233"><ele>219.33333333333331</ele><time>2026-04-25T15:06:19.983Z</time></trkpt><trkpt lat="46.13950285311492" lon="9.383379967432733"><ele>219.5</ele><time>2026-04-25T15:06:20.983Z</time></trkpt><trkpt lat="46.139510545457775" lon="9.383503371807313"><ele>219.66666666666666</ele><time>2026-04-25T15:06:21.983Z</time></trkpt><trkpt lat="46.1395175789862" lon="9.383616207004124"><ele>219.83333333333331</ele><time>2026-04-25T15:06:22.983Z</time></trkpt><trkpt lat="46.13952318227104" lon="9.383717272323718"><ele>220.0</ele><time>2026-04-25T15:06:23.983Z</time></trkpt><trkpt lat="46.139528494867875" lon="9.383813990084303"><ele>219.99999999999997</ele><time>2026-04-25T15:06:24.983Z</time></trkpt><trkpt lat="46.13953511345935" lon="9.383919093659369"><ele>220.0</ele><time>2026-04-25T15:06:26.983Z</time></trkpt><trkpt lat="46.13951523908741" lon="9.384021559499251"><ele>220.0</ele><time>2026-04-25T15:06:29.983Z</time></trkpt><trkpt lat="46.13948859010804" lon="9.384174386998549"><ele>220.0</ele><time>2026-04-25T15:06:31.983Z</time></trkpt><trkpt lat="46.13955136334172" lon="9.384264492881508"><ele>219.99999999999997</ele><time>2026-04-25T15:06:32.983Z</time></trkpt><trkpt lat="46.139583903094945" lon="9.384373403131335"><ele>220.0</ele><time>2026-04-25T15:06:33.983Z</time></trkpt><trkpt lat="46.139605148027364" lon="9.384502414829058"><ele>220.0</ele><time>2026-04-25T15:06:34.983Z</time></trkpt><trkpt lat="46.13961958930659" lon="9.384651764169151"><ele>220.0</ele><time>2026-04-25T15:06:35.983Z</time></trkpt><trkpt lat="46.13960052177753" lon="9.38480938891589"><ele>220.0</ele><time>2026-04-25T15:06:36.983Z</time></trkpt><trkpt lat="46.13961119970548" lon="9.38496964099124"><ele>220.0</ele><time>2026-04-25T15:06:37.983Z</time></trkpt><trkpt lat="46.13962282299588" lon="9.385144080800659"><ele>220.0</ele><time>2026-04-25T15:06:38.983Z</time></trkpt><trkpt lat="46.13963427074557" lon="9.385315886183697"><ele>220.0</ele><time>2026-04-25T15:06:39.983Z</time></trkpt><trkpt lat="46.13964633037951" lon="9.385496874574159"><ele>220.0</ele><time>2026-04-25T15:06:40.984Z</time></trkpt><trkpt lat="46.139659029577324" lon="9.385687461349898"><ele>220.0</ele><time>2026-04-25T15:06:41.984Z</time></trkpt><trkpt lat="46.139687193299935" lon="9.38587621216774"><ele>220.0</ele><time>2026-04-25T15:06:42.984Z</time></trkpt><trkpt lat="46.13968747146263" lon="9.386066161567813"><ele>220.25</ele><time>2026-04-25T15:06:43.984Z</time></trkpt><trkpt lat="46.13970026137272" lon="9.386252301490593"><ele>220.5</ele><time>2026-04-25T15:06:44.984Z</time></trkpt><trkpt lat="46.13971188392224" lon="9.386435856497918"><ele>220.75</ele><time>2026-04-25T15:06:45.984Z</time></trkpt><trkpt lat="46.139726669401846" lon="9.386611467530212"><ele>221.0</ele><time>2026-04-25T15:06:46.984Z</time></trkpt><trkpt lat="46.1397392965676" lon="9.386782733103987"><ele>221.0</ele><time>2026-04-25T15:06:47.984Z</time></trkpt><trkpt lat="46.13975020683253" lon="9.386954433210215"><ele>221.0</ele><time>2026-04-25T15:06:48.984Z</time></trkpt><trkpt lat="46.13976475442358" lon="9.387128120093633"><ele>221.0</ele><time>2026-04-25T15:06:49.984Z</time></trkpt><trkpt lat="46.139784493557144" lon="9.387307603143462"><ele>221.0</ele><time>2026-04-25T15:06:50.984Z</time></trkpt><trkpt lat="46.139797279633264" lon="9.387489173458627"><ele>220.75</ele><time>2026-04-25T15:06:51.984Z</time></trkpt><trkpt lat="46.13982011135345" lon="9.38767335976653"><ele>220.5</ele><time>2026-04-25T15:06:52.984Z</time></trkpt><trkpt lat="46.13983657507728" lon="9.387860712350095"><ele>220.25</ele><time>2026-04-25T15:06:53.984Z</time></trkpt><trkpt lat="46.139815493676586" lon="9.38805650213061"><ele>220.0</ele><time>2026-04-25T15:06:54.984Z</time></trkpt><trkpt lat="46.13982761011298" lon="9.388246234586365"><ele>220.0</ele><time>2026-04-25T15:06:55.984Z</time></trkpt><trkpt lat="46.139839101943885" lon="9.388425428718682"><ele>220.0</ele><time>2026-04-25T15:06:56.984Z</time></trkpt><trkpt lat="46.13985020990049" lon="9.388598637068373"><ele>220.0</ele><time>2026-04-25T15:06:57.984Z</time></trkpt><trkpt lat="46.139861993088935" lon="9.388777279623557"><ele>220.0</ele><time>2026-04-25T15:06:58.984Z</time></trkpt><trkpt lat="46.139874331678506" lon="9.388963552511251"><ele>219.5</ele><time>2026-04-25T15:06:59.984Z</time></trkpt><trkpt lat="46.13988707788711" lon="9.389157635723832"><ele>219.0</ele><time>2026-04-25T15:07:00.984Z</time></trkpt><trkpt lat="46.139926393303426" lon="9.389349418207232"><ele>218.5</ele><time>2026-04-25T15:07:01.984Z</time></trkpt><trkpt lat="46.139936296923906" lon="9.389544462481759"><ele>218.0</ele><time>2026-04-25T15:07:02.984Z</time></trkpt><trkpt lat="46.13994492956539" lon="9.389734774971629"><ele>218.0</ele><time>2026-04-25T15:07:03.984Z</time></trkpt><trkpt lat="46.139964827543864" lon="9.389917841761475"><ele>218.0</ele><time>2026-04-25T15:07:04.984Z</time></trkpt><trkpt lat="46.13994924184653" lon="9.390110613618518"><ele>218.0</ele><time>2026-04-25T15:07:05.984Z</time></trkpt><trkpt lat="46.13996163548475" lon="9.390302481731844"><ele>218.0</ele><time>2026-04-25T15:07:06.984Z</time></trkpt><trkpt lat="46.13997445024776" lon="9.390500994997414"><ele>218.25</ele><time>2026-04-25T15:07:07.984Z</time></trkpt><trkpt lat="46.139987417926775" lon="9.39070184094577"><ele>218.5</ele><time>2026-04-25T15:07:08.984Z</time></trkpt><trkpt lat="46.13999889272466" lon="9.390893696750219"><ele>218.75</ele><time>2026-04-25T15:07:09.984Z</time></trkpt><trkpt lat="46.140009902442024" lon="9.391076694911721"><ele>219.0</ele><time>2026-04-25T15:07:10.984Z</time></trkpt><trkpt lat="46.14001767166947" lon="9.391246265928647"><ele>218.6</ele><time>2026-04-25T15:07:11.984Z</time></trkpt><trkpt lat="46.140024432924484" lon="9.391402955045635"><ele>218.2</ele><time>2026-04-25T15:07:12.984Z</time></trkpt><trkpt lat="46.14002944803167" lon="9.39155822842308"><ele>217.79999999999998</ele><time>2026-04-25T15:07:13.984Z</time></trkpt><trkpt lat="46.140035171174546" lon="9.391720017057658"><ele>217.39999999999998</ele><time>2026-04-25T15:07:14.984Z</time></trkpt><trkpt lat="46.1400387315181" lon="9.391880667755983"><ele>217.0</ele><time>2026-04-25T15:07:15.984Z</time></trkpt><trkpt lat="46.1400425780631" lon="9.392047682261053"><ele>217.5</ele><time>2026-04-25T15:07:16.984Z</time></trkpt><trkpt lat="46.140046549953915" lon="9.392220136825074"><ele>218.0</ele><time>2026-04-25T15:07:17.984Z</time></trkpt><trkpt lat="46.14006654634662" lon="9.392387305532889"><ele>218.5</ele><time>2026-04-25T15:07:18.984Z</time></trkpt><trkpt lat="46.140053762019164" lon="9.392546906612713"><ele>219.0</ele><time>2026-04-25T15:07:19.984Z</time></trkpt><trkpt lat="46.140056880474404" lon="9.392699655252356"><ele>219.0</ele><time>2026-04-25T15:07:20.984Z</time></trkpt><trkpt lat="46.140059933730015" lon="9.392850835019551"><ele>218.99999999999997</ele><time>2026-04-25T15:07:21.985Z</time></trkpt><trkpt lat="46.14005935801663" lon="9.393005684541816"><ele>218.99999999999997</ele><time>2026-04-25T15:07:22.985Z</time></trkpt><trkpt lat="46.14005968895622" lon="9.393165099719793"><ele>219.0</ele><time>2026-04-25T15:07:23.985Z</time></trkpt><trkpt lat="46.14006133577929" lon="9.393327735389096"><ele>219.0</ele><time>2026-04-25T15:07:24.985Z</time></trkpt><trkpt lat="46.14006433120441" lon="9.393488291631439"><ele>218.75</ele><time>2026-04-25T15:07:25.985Z</time></trkpt><trkpt lat="46.14006812264764" lon="9.393646073999019"><ele>218.5</ele><time>2026-04-25T15:07:26.985Z</time></trkpt><trkpt lat="46.14007475343405" lon="9.393809806139085"><ele>218.25</ele><time>2026-04-25T15:07:27.985Z</time></trkpt><trkpt lat="46.140090965450945" lon="9.393979480515036"><ele>218.0</ele><time>2026-04-25T15:07:28.985Z</time></trkpt><trkpt lat="46.14010778631359" lon="9.39415371501484"><ele>217.25</ele><time>2026-04-25T15:07:29.985Z</time></trkpt><trkpt lat="46.14012866839369" lon="9.394333001707027"><ele>216.5</ele><time>2026-04-25T15:07:30.985Z</time></trkpt><trkpt lat="46.14016728155421" lon="9.394518091181975"><ele>215.75</ele><time>2026-04-25T15:07:31.985Z</time></trkpt><trkpt lat="46.14021962403409" lon="9.394706617263427"><ele>215.0</ele><time>2026-04-25T15:07:32.985Z</time></trkpt><trkpt lat="46.14028324430949" lon="9.394889855844895"><ele>214.5</ele><time>2026-04-25T15:07:33.985Z</time></trkpt><trkpt lat="46.140355301828734" lon="9.395072455089826"><ele>214.0</ele><time>2026-04-25T15:07:34.985Z</time></trkpt><trkpt lat="46.14042931689119" lon="9.395255584144945"><ele>213.5</ele><time>2026-04-25T15:07:35.985Z</time></trkpt><trkpt lat="46.14050353854821" lon="9.395431816492268"><ele>213.0</ele><time>2026-04-25T15:07:36.985Z</time></trkpt><trkpt lat="46.14057717100273" lon="9.395604550642904"><ele>212.5</ele><time>2026-04-25T15:07:37.985Z</time></trkpt><trkpt lat="46.140641862098505" lon="9.395769118645012"><ele>212.0</ele><time>2026-04-25T15:07:38.985Z</time></trkpt><trkpt lat="46.14070749218703" lon="9.395932366989236"><ele>211.5</ele><time>2026-04-25T15:07:39.982Z</time></trkpt><trkpt lat="46.14077294059722" lon="9.396090791709815"><ele>211.0</ele><time>2026-04-25T15:07:40.982Z</time></trkpt><trkpt lat="46.1408383892591" lon="9.396254947452247"><ele>210.5</ele><time>2026-04-25T15:07:41.982Z</time></trkpt><trkpt lat="46.14090475870274" lon="9.396424633225534"><ele>210.0</ele><time>2026-04-25T15:07:42.981Z</time></trkpt><trkpt lat="46.14097451157175" lon="9.396594599602482"><ele>209.5</ele><time>2026-04-25T15:07:43.982Z</time></trkpt><trkpt lat="46.14104676651313" lon="9.396773921786103"><ele>209.0</ele><time>2026-04-25T15:07:44.982Z</time></trkpt><trkpt lat="46.14111663728633" lon="9.39695047205123"><ele>209.0</ele><time>2026-04-25T15:07:45.981Z</time></trkpt><trkpt lat="46.14118037091011" lon="9.397120003672349"><ele>209.0</ele><time>2026-04-25T15:07:46.982Z</time></trkpt><trkpt lat="46.141241598156896" lon="9.397279133877445"><ele>209.0</ele><time>2026-04-25T15:07:47.982Z</time></trkpt><trkpt lat="46.14130100221747" lon="9.39743125743209"><ele>209.0</ele><time>2026-04-25T15:07:48.981Z</time></trkpt><trkpt lat="46.141359528925726" lon="9.397577901097074"><ele>208.79999999999998</ele><time>2026-04-25T15:07:49.982Z</time></trkpt><trkpt lat="46.141414527857556" lon="9.397719767373129"><ele>208.6</ele><time>2026-04-25T15:07:50.982Z</time></trkpt><trkpt lat="46.14146195103634" lon="9.397860652968038"><ele>208.4</ele><time>2026-04-25T15:07:51.981Z</time></trkpt><trkpt lat="46.14150532824983" lon="9.398006587126199"><ele>208.2</ele><time>2026-04-25T15:07:52.981Z</time></trkpt><trkpt lat="46.14154541389311" lon="9.398152911608898"><ele>208.0</ele><time>2026-04-25T15:07:53.981Z</time></trkpt><trkpt lat="46.14157578666936" lon="9.398280052965005"><ele>207.66666666666666</ele><time>2026-04-25T15:07:54.981Z</time></trkpt><trkpt lat="46.1415965179876" lon="9.398371873458021"><ele>207.33333333333331</ele><time>2026-04-25T15:07:55.981Z</time></trkpt><trkpt lat="46.14161463488029" lon="9.398471390640285"><ele>207.0</ele><time>2026-04-25T15:07:57.981Z</time></trkpt><trkpt lat="46.14162699335926" lon="9.398598888779402"><ele>206.66666666666669</ele><time>2026-04-25T15:08:00.982Z</time></trkpt><trkpt lat="46.14160526141268" lon="9.398735230072779"><ele>206.33333333333334</ele><time>2026-04-25T15:08:02.982Z</time></trkpt><trkpt lat="46.1416448961501" lon="9.39887230411472"><ele>206.0</ele><time>2026-04-25T15:08:04.982Z</time></trkpt><trkpt lat="46.141763431429446" lon="9.39895201282168"><ele>205.60000000000002</ele><time>2026-04-25T15:08:06.982Z</time></trkpt><trkpt lat="46.14182788323331" lon="9.398995146741179"><ele>205.2</ele><time>2026-04-25T15:08:07.982Z</time></trkpt><trkpt lat="46.1418958228284" lon="9.399061869838793"><ele>204.8</ele><time>2026-04-25T15:08:08.982Z</time></trkpt><trkpt lat="46.141955976849864" lon="9.399183476737212"><ele>204.39999999999998</ele><time>2026-04-25T15:08:09.982Z</time></trkpt><trkpt lat="46.14201858567545" lon="9.399336872588261"><ele>204.0</ele><time>2026-04-25T15:08:10.982Z</time></trkpt><trkpt lat="46.14208357781316" lon="9.399497544165861"><ele>204.0</ele><time>2026-04-25T15:08:11.982Z</time></trkpt><trkpt lat="46.142147703093315" lon="9.399662499883558"><ele>204.0</ele><time>2026-04-25T15:08:12.982Z</time></trkpt><trkpt lat="46.14221323287502" lon="9.39983057799837"><ele>204.0</ele><time>2026-04-25T15:08:13.982Z</time></trkpt><trkpt lat="46.142281546394344" lon="9.400004745436872"><ele>204.0</ele><time>2026-04-25T15:08:14.982Z</time></trkpt><trkpt lat="46.14234774261013" lon="9.400178390593258"><ele>203.75</ele><time>2026-04-25T15:08:15.982Z</time></trkpt><trkpt lat="46.142414584766506" lon="9.40035594583258"><ele>203.5</ele><time>2026-04-25T15:08:16.982Z</time></trkpt><trkpt lat="46.142483824177376" lon="9.400529831788882"><ele>203.25</ele><time>2026-04-25T15:08:17.982Z</time></trkpt><trkpt lat="46.14255276831859" lon="9.400704863123455"><ele>203.0</ele><time>2026-04-25T15:08:18.982Z</time></trkpt><trkpt lat="46.142623717116" lon="9.40088994760207"><ele>203.0</ele><time>2026-04-25T15:08:19.982Z</time></trkpt><trkpt lat="46.14269344273031" lon="9.401084781909137"><ele>203.0</ele><time>2026-04-25T15:08:20.982Z</time></trkpt><trkpt lat="46.142762998907735" lon="9.401278961936761"><ele>203.0</ele><time>2026-04-25T15:08:21.982Z</time></trkpt><trkpt lat="46.14283200443023" lon="9.401483658691546"><ele>202.66666666666669</ele><time>2026-04-25T15:08:22.982Z</time></trkpt><trkpt lat="46.142902888383254" lon="9.401697728546035"><ele>202.33333333333331</ele><time>2026-04-25T15:08:23.982Z</time></trkpt><trkpt lat="46.14297289370017" lon="9.401921286782914"><ele>202.0</ele><time>2026-04-25T15:08:24.982Z</time></trkpt><trkpt lat="46.14303443304424" lon="9.402146823715098"><ele>201.66666666666666</ele><time>2026-04-25T15:08:25.982Z</time></trkpt><trkpt lat="46.14309113093103" lon="9.402375351113106"><ele>201.33333333333331</ele><time>2026-04-25T15:08:26.982Z</time></trkpt><trkpt lat="46.14314551139067" lon="9.402605357445912"><ele>201.0</ele><time>2026-04-25T15:08:27.982Z</time></trkpt><trkpt lat="46.143200588068844" lon="9.40283900195512"><ele>202.0</ele><time>2026-04-25T15:08:28.982Z</time></trkpt><trkpt lat="46.14325273443533" lon="9.403074041548908"><ele>203.0</ele><time>2026-04-25T15:08:29.982Z</time></trkpt><trkpt lat="46.14329992455283" lon="9.403306465197282"><ele>204.0</ele><time>2026-04-25T15:08:30.982Z</time></trkpt><trkpt lat="46.143339896603024" lon="9.403546495689971"><ele>204.0</ele><time>2026-04-25T15:08:31.982Z</time></trkpt><trkpt lat="46.14337500285706" lon="9.403787090979591"><ele>204.0</ele><time>2026-04-25T15:08:32.982Z</time></trkpt><trkpt lat="46.143409790084256" lon="9.404029250835247"><ele>204.0</ele><time>2026-04-25T15:08:33.982Z</time></trkpt><trkpt lat="46.14343621202757" lon="9.404279863315463"><ele>204.0</ele><time>2026-04-25T15:08:34.982Z</time></trkpt><trkpt lat="46.14346788739319" lon="9.404530806345214"><ele>204.0</ele><time>2026-04-25T15:08:35.982Z</time></trkpt><trkpt lat="46.14349114504332" lon="9.40477420378362"><ele>204.0</ele><time>2026-04-25T15:08:36.982Z</time></trkpt><trkpt lat="46.14350438172714" lon="9.405012456437698"><ele>204.0</ele><time>2026-04-25T15:08:37.982Z</time></trkpt><trkpt lat="46.143517055617025" lon="9.405246192680888"><ele>204.0</ele><time>2026-04-25T15:08:38.982Z</time></trkpt><trkpt lat="46.14352668112123" lon="9.405475164290406"><ele>204.0</ele><time>2026-04-25T15:08:39.982Z</time></trkpt><trkpt lat="46.14353649955719" lon="9.40570428418079"><ele>203.5</ele><time>2026-04-25T15:08:40.982Z</time></trkpt><trkpt lat="46.143546596350646" lon="9.40592204035601"><ele>203.0</ele><time>2026-04-25T15:08:41.983Z</time></trkpt><trkpt lat="46.14355600891438" lon="9.406135091027643"><ele>202.5</ele><time>2026-04-25T15:08:42.983Z</time></trkpt><trkpt lat="46.14356589170775" lon="9.406329639468224"><ele>202.0</ele><time>2026-04-25T15:08:43.983Z</time></trkpt><trkpt lat="46.1435720544077" lon="9.406509472353187"><ele>202.0</ele><time>2026-04-25T15:08:44.983Z</time></trkpt><trkpt lat="46.14357560257856" lon="9.406668657210762"><ele>202.0</ele><time>2026-04-25T15:08:45.983Z</time></trkpt><trkpt lat="46.143584029558056" lon="9.406801764926064"><ele>202.0</ele><time>2026-04-25T15:08:46.983Z</time></trkpt><trkpt lat="46.14359546820046" lon="9.406915192780566"><ele>202.0</ele><time>2026-04-25T15:08:47.983Z</time></trkpt><trkpt lat="46.14361336865679" lon="9.407002979046034"><ele>202.0</ele><time>2026-04-25T15:08:48.983Z</time></trkpt><trkpt lat="46.143637952858064" lon="9.407187316871788"><ele>202.0</ele><time>2026-04-25T15:08:50.983Z</time></trkpt><trkpt lat="46.143641355496634" lon="9.407298715093198"><ele>202.0</ele><time>2026-04-25T15:08:51.983Z</time></trkpt><trkpt lat="46.14366188914203" lon="9.407405644815288"><ele>202.0</ele><time>2026-04-25T15:08:52.983Z</time></trkpt><trkpt lat="46.14370354670627" lon="9.40748249758956"><ele>202.0</ele><time>2026-04-25T15:08:53.983Z</time></trkpt><trkpt lat="46.143760645204836" lon="9.407625466104271"><ele>202.0</ele><time>2026-04-25T15:08:55.983Z</time></trkpt><trkpt lat="46.143872283249074" lon="9.407568139883827"><ele>202.0</ele><time>2026-04-25T15:08:56.983Z</time></trkpt><trkpt lat="46.14397084835759" lon="9.407491696856194"><ele>202.0</ele><time>2026-04-25T15:08:58.983Z</time></trkpt><trkpt lat="46.14400226288888" lon="9.407409007892122"><ele>202.0</ele><time>2026-04-25T15:08:59.983Z</time></trkpt><trkpt lat="46.144019049383566" lon="9.407321095874341"><ele>202.0</ele><time>2026-04-25T15:09:00.983Z</time></trkpt><trkpt lat="46.1439937344419" lon="9.407169273730855"><ele>202.0</ele><time>2026-04-25T15:09:02.983Z</time></trkpt><trkpt lat="46.14389214526859" lon="9.4070694010365"><ele>201.99999999999997</ele><time>2026-04-25T15:09:04.983Z</time></trkpt><trkpt lat="46.14382400653719" lon="9.407064084827393"><ele>202.0</ele><time>2026-04-25T15:09:05.983Z</time></trkpt><trkpt lat="46.14375678066267" lon="9.407093137201493"><ele>202.0</ele><time>2026-04-25T15:09:06.983Z</time></trkpt><trkpt lat="46.14370436375243" lon="9.40714704222013"><ele>202.0</ele><time>2026-04-25T15:09:07.983Z</time></trkpt><trkpt lat="46.14366335961405" lon="9.407237179088701"><ele>201.99999999999997</ele><time>2026-04-25T15:09:08.983Z</time></trkpt><trkpt lat="46.143644639255236" lon="9.407373037924504"><ele>202.0</ele><time>2026-04-25T15:09:09.983Z</time></trkpt><trkpt lat="46.14363558041083" lon="9.40754030706221"><ele>202.0</ele><time>2026-04-25T15:09:10.983Z</time></trkpt><trkpt lat="46.143618423695614" lon="9.407726815387663"><ele>202.0</ele><time>2026-04-25T15:09:11.983Z</time></trkpt><trkpt lat="46.14358339439412" lon="9.407923062678492"><ele>202.0</ele><time>2026-04-25T15:09:12.983Z</time></trkpt><trkpt lat="46.14353989401654" lon="9.40811535009305"><ele>202.0</ele><time>2026-04-25T15:09:13.983Z</time></trkpt><trkpt lat="46.14349641851943" lon="9.408294292769561"><ele>202.0</ele><time>2026-04-25T15:09:14.983Z</time></trkpt><trkpt lat="46.14345348210076" lon="9.408471473061413"><ele>202.0</ele><time>2026-04-25T15:09:15.983Z</time></trkpt><trkpt lat="46.14341422380764" lon="9.408644687683749"><ele>202.0</ele><time>2026-04-25T15:09:16.983Z</time></trkpt><trkpt lat="46.14337713554203" lon="9.408826989201518"><ele>202.0</ele><time>2026-04-25T15:09:17.983Z</time></trkpt><trkpt lat="46.14333626338854" lon="9.409017431359876"><ele>202.0</ele><time>2026-04-25T15:09:18.983Z</time></trkpt><trkpt lat="46.14328991669899" lon="9.409187355632666"><ele>202.0</ele><time>2026-04-25T15:09:19.983Z</time></trkpt><trkpt lat="46.14324895338135" lon="9.409341626025899"><ele>202.0</ele><time>2026-04-25T15:09:20.983Z</time></trkpt><trkpt lat="46.14319955823482" lon="9.409493335894835"><ele>202.0</ele><time>2026-04-25T15:09:21.983Z</time></trkpt><trkpt lat="46.143097671164064" lon="9.409603893269088"><ele>202.25</ele><time>2026-04-25T15:09:22.983Z</time></trkpt><trkpt lat="46.1430129857564" lon="9.409735317206515"><ele>202.5</ele><time>2026-04-25T15:09:23.984Z</time></trkpt><trkpt lat="46.14291653253723" lon="9.409860157709602"><ele>202.75</ele><time>2026-04-25T15:09:24.984Z</time></trkpt><trkpt lat="46.142814518586995" lon="9.40997792606148"><ele>203.0</ele><time>2026-04-25T15:09:25.984Z</time></trkpt><trkpt lat="46.142704502365326" lon="9.410073199021149"><ele>203.0</ele><time>2026-04-25T15:09:26.984Z</time></trkpt><trkpt lat="46.14258705696274" lon="9.410149690412572"><ele>203.0</ele><time>2026-04-25T15:09:27.984Z</time></trkpt><trkpt lat="46.1424724613258" lon="9.410212587652001"><ele>203.0</ele><time>2026-04-25T15:09:28.984Z</time></trkpt><trkpt lat="46.14235326184277" lon="9.410260449660022"><ele>203.0</ele><time>2026-04-25T15:09:29.984Z</time></trkpt><trkpt lat="46.142230020631104" lon="9.410293692693228"><ele>203.0</ele><time>2026-04-25T15:09:30.984Z</time></trkpt><trkpt lat="46.142108793237774" lon="9.410304685366661"><ele>203.0</ele><time>2026-04-25T15:09:31.984Z</time></trkpt><trkpt lat="46.141985579519364" lon="9.410302692540412"><ele>203.0</ele><time>2026-04-25T15:09:32.984Z</time></trkpt><trkpt lat="46.141858987707714" lon="9.410289248445897"><ele>203.0</ele><time>2026-04-25T15:09:33.984Z</time></trkpt><trkpt lat="46.14173131980407" lon="9.410257281953704"><ele>203.0</ele><time>2026-04-25T15:09:34.984Z</time></trkpt><trkpt lat="46.14159942940554" lon="9.410209814638742"><ele>203.0</ele><time>2026-04-25T15:09:35.984Z</time></trkpt><trkpt lat="46.14146734366635" lon="9.410148985501532"><ele>203.0</ele><time>2026-04-25T15:09:36.984Z</time></trkpt><trkpt lat="46.1413402292635" lon="9.410077263145483"><ele>203.0</ele><time>2026-04-25T15:09:37.984Z</time></trkpt><trkpt lat="46.14121355749028" lon="9.410008742831465"><ele>203.0</ele><time>2026-04-25T15:09:38.984Z</time></trkpt><trkpt lat="46.14108140515373" lon="9.409935928452871"><ele>203.0</ele><time>2026-04-25T15:09:39.984Z</time></trkpt><trkpt lat="46.14094434577651" lon="9.409864484003437"><ele>203.0</ele><time>2026-04-25T15:09:40.984Z</time></trkpt><trkpt lat="46.14081065498113" lon="9.409788265634246"><ele>203.0</ele><time>2026-04-25T15:09:41.984Z</time></trkpt><trkpt lat="46.14067725566235" lon="9.409709296041344"><ele>203.0</ele><time>2026-04-25T15:09:42.984Z</time></trkpt><trkpt lat="46.14053376769851" lon="9.409650410911686"><ele>203.0</ele><time>2026-04-25T15:09:43.984Z</time></trkpt><trkpt lat="46.14038626112566" lon="9.409608138148647"><ele>203.0</ele><time>2026-04-25T15:09:44.984Z</time></trkpt><trkpt lat="46.14023458346042" lon="9.409580598450965"><ele>203.0</ele><time>2026-04-25T15:09:45.98Z</time></trkpt><trkpt lat="46.14007963875153" lon="9.409553325029368"><ele>203.0</ele><time>2026-04-25T15:09:46.98Z</time></trkpt><trkpt lat="46.139926107436516" lon="9.409543445385486"><ele>203.0</ele><time>2026-04-25T15:09:47.98Z</time></trkpt><trkpt lat="46.13977949468167" lon="9.409539971028346"><ele>203.25</ele><time>2026-04-25T15:09:48.98Z</time></trkpt><trkpt lat="46.139637338197275" lon="9.409528110665898"><ele>203.5</ele><time>2026-04-25T15:09:49.98Z</time></trkpt><trkpt lat="46.139492895719954" lon="9.409504368462839"><ele>203.75</ele><time>2026-04-25T15:09:50.98Z</time></trkpt><trkpt lat="46.1393458690626" lon="9.409480775521013"><ele>204.0</ele><time>2026-04-25T15:09:51.98Z</time></trkpt><trkpt lat="46.13919740643494" lon="9.409438700040457"><ele>203.66666666666669</ele><time>2026-04-25T15:09:52.98Z</time></trkpt><trkpt lat="46.1390500437226" lon="9.409381560501862"><ele>203.33333333333334</ele><time>2026-04-25T15:09:53.98Z</time></trkpt><trkpt lat="46.13890753475949" lon="9.409303070063515"><ele>203.0</ele><time>2026-04-25T15:09:54.98Z</time></trkpt><trkpt lat="46.13876260292793" lon="9.40921052209503"><ele>203.0</ele><time>2026-04-25T15:09:55.98Z</time></trkpt><trkpt lat="46.138624840162684" lon="9.409091811309374"><ele>203.0</ele><time>2026-04-25T15:09:56.98Z</time></trkpt><trkpt lat="46.13849762571057" lon="9.408964875847355"><ele>203.0</ele><time>2026-04-25T15:09:57.98Z</time></trkpt><trkpt lat="46.13836402317542" lon="9.408831572572991"><ele>203.33333333333334</ele><time>2026-04-25T15:09:58.98Z</time></trkpt><trkpt lat="46.13822548529795" lon="9.408701872926725"><ele>203.66666666666669</ele><time>2026-04-25T15:09:59.98Z</time></trkpt><trkpt lat="46.13808943459568" lon="9.408568054875618"><ele>204.0</ele><time>2026-04-25T15:10:00.98Z</time></trkpt><trkpt lat="46.137951915018945" lon="9.40843014686616"><ele>205.0</ele><time>2026-04-25T15:10:01.98Z</time></trkpt><trkpt lat="46.13781330513191" lon="9.408289889254775"><ele>206.0</ele><time>2026-04-25T15:10:02.98Z</time></trkpt><trkpt lat="46.13767132930503" lon="9.40814155382876"><ele>207.0</ele><time>2026-04-25T15:10:03.98Z</time></trkpt><trkpt lat="46.13753025972696" lon="9.407991287112626"><ele>207.66666666666669</ele><time>2026-04-25T15:10:04.98Z</time></trkpt><trkpt lat="46.13738572076153" lon="9.407837777348615"><ele>208.33333333333334</ele><time>2026-04-25T15:10:05.98Z</time></trkpt><trkpt lat="46.13724146014813" lon="9.407684895829892"><ele>209.0</ele><time>2026-04-25T15:10:06.98Z</time></trkpt><trkpt lat="46.137099170288685" lon="9.40753575370946"><ele>209.33333333333334</ele><time>2026-04-25T15:10:07.98Z</time></trkpt><trkpt lat="46.13695570093191" lon="9.407385763568815"><ele>209.66666666666669</ele><time>2026-04-25T15:10:08.98Z</time></trkpt><trkpt lat="46.136812696807716" lon="9.407237420386043"><ele>210.0</ele><time>2026-04-25T15:10:09.98Z</time></trkpt><trkpt lat="46.13667147873766" lon="9.407086627300199"><ele>213.0</ele><time>2026-04-25T15:10:10.98Z</time></trkpt><trkpt lat="46.13653287041232" lon="9.40693647170493"><ele>216.0</ele><time>2026-04-25T15:10:11.98Z</time></trkpt><trkpt lat="46.13639373604933" lon="9.406786418841303"><ele>219.0</ele><time>2026-04-25T15:10:12.98Z</time></trkpt><trkpt lat="46.13625312591553" lon="9.406636227318888"><ele>219.0</ele><time>2026-04-25T15:10:13.98Z</time></trkpt><trkpt lat="46.13611324375078" lon="9.406485362040558"><ele>219.0</ele><time>2026-04-25T15:10:14.98Z</time></trkpt><trkpt lat="46.13597334710749" lon="9.406335971106204"><ele>219.0</ele><time>2026-04-25T15:10:15.98Z</time></trkpt><trkpt lat="46.13583224514654" lon="9.406189361697837"><ele>223.33333333333331</ele><time>2026-04-25T15:10:16.98Z</time></trkpt><trkpt lat="46.13568957397485" lon="9.406042810326149"><ele>227.66666666666666</ele><time>2026-04-25T15:10:17.98Z</time></trkpt><trkpt lat="46.135550275367756" lon="9.405897450367789"><ele>232.0</ele><time>2026-04-25T15:10:18.98Z</time></trkpt><trkpt lat="46.135413022274925" lon="9.40575195660827"><ele>232.0</ele><time>2026-04-25T15:10:19.98Z</time></trkpt><trkpt lat="46.135272702215445" lon="9.405600797864745"><ele>232.0</ele><time>2026-04-25T15:10:20.98Z</time></trkpt><trkpt lat="46.135126183968076" lon="9.40545080336064"><ele>232.0</ele><time>2026-04-25T15:10:21.98Z</time></trkpt><trkpt lat="46.13498492502093" lon="9.405303356159209"><ele>237.33333333333331</ele><time>2026-04-25T15:10:22.98Z</time></trkpt><trkpt lat="46.134847737169686" lon="9.405149239337687"><ele>242.66666666666669</ele><time>2026-04-25T15:10:23.98Z</time></trkpt><trkpt lat="46.134712463126824" lon="9.40498870519674"><ele>248.0</ele><time>2026-04-25T15:10:24.98Z</time></trkpt><trkpt lat="46.13458175601794" lon="9.404818709268747"><ele>246.33333333333334</ele><time>2026-04-25T15:10:25.98Z</time></trkpt><trkpt lat="46.134454368413124" lon="9.404643267083369"><ele>244.66666666666669</ele><time>2026-04-25T15:10:26.98Z</time></trkpt><trkpt lat="46.13432862468222" lon="9.404458198784225"><ele>243.0</ele><time>2026-04-25T15:10:27.98Z</time></trkpt><trkpt lat="46.13420083823227" lon="9.404264205463377"><ele>243.0</ele><time>2026-04-25T15:10:28.98Z</time></trkpt><trkpt lat="46.13408015136746" lon="9.404056716732173"><ele>243.0</ele><time>2026-04-25T15:10:29.98Z</time></trkpt><trkpt lat="46.13396427636633" lon="9.403837608850125"><ele>243.0</ele><time>2026-04-25T15:10:30.98Z</time></trkpt><trkpt lat="46.13385846511803" lon="9.403621211897956"><ele>248.5</ele><time>2026-04-25T15:10:31.98Z</time></trkpt><trkpt lat="46.133755487396726" lon="9.403396933552413"><ele>254.0</ele><time>2026-04-25T15:10:32.98Z</time></trkpt><trkpt lat="46.13319069615617" lon="9.401769683038456"><ele>254.33333333333334</ele><time>2026-04-25T15:10:39.981Z</time></trkpt><trkpt lat="46.1331262782442" lon="9.401533623492117"><ele>254.66666666666669</ele><time>2026-04-25T15:10:40.981Z</time></trkpt><trkpt lat="46.133039330678955" lon="9.401295859008574"><ele>255.0</ele><time>2026-04-25T15:10:41.981Z</time></trkpt><trkpt lat="46.13296713111971" lon="9.401048770112382"><ele>253.33333333333331</ele><time>2026-04-25T15:10:42.981Z</time></trkpt><trkpt lat="46.132928581617136" lon="9.400827358438297"><ele>251.66666666666666</ele><time>2026-04-25T15:10:43.981Z</time></trkpt><trkpt lat="46.13288507299168" lon="9.400582512723568"><ele>250.0</ele><time>2026-04-25T15:10:44.981Z</time></trkpt><trkpt lat="46.13282566114063" lon="9.40034179201361"><ele>250.0</ele><time>2026-04-25T15:10:45.981Z</time></trkpt><trkpt lat="46.13275764226769" lon="9.400103886113017"><ele>250.0</ele><time>2026-04-25T15:10:46.981Z</time></trkpt><trkpt lat="46.13268476775833" lon="9.39985733144822"><ele>250.0</ele><time>2026-04-25T15:10:47.981Z</time></trkpt><trkpt lat="46.13261370133556" lon="9.399607780256796"><ele>250.33333333333331</ele><time>2026-04-25T15:10:48.981Z</time></trkpt><trkpt lat="46.13255866828012" lon="9.399353967950603"><ele>250.66666666666669</ele><time>2026-04-25T15:10:49.981Z</time></trkpt><trkpt lat="46.13250569292984" lon="9.39910169307483"><ele>251.0</ele><time>2026-04-25T15:10:50.981Z</time></trkpt><trkpt lat="46.13245742811619" lon="9.39884363985977"><ele>251.33333333333334</ele><time>2026-04-25T15:10:51.981Z</time></trkpt><trkpt lat="46.13241667753783" lon="9.398583156445143"><ele>251.66666666666669</ele><time>2026-04-25T15:10:52.981Z</time></trkpt><trkpt lat="46.132388563055244" lon="9.39832120619319"><ele>252.0</ele><time>2026-04-25T15:10:53.981Z</time></trkpt><trkpt lat="46.13236774044837" lon="9.398072987066598"><ele>261.3333333333333</ele><time>2026-04-25T15:10:54.981Z</time></trkpt><trkpt lat="46.13236018380983" lon="9.397805272441303"><ele>270.66666666666663</ele><time>2026-04-25T15:10:55.981Z</time></trkpt><trkpt lat="46.132353117003355" lon="9.39755121176105"><ele>280.0</ele><time>2026-04-25T15:10:56.981Z</time></trkpt><trkpt lat="46.13234792424048" lon="9.397288746929245"><ele>278.66666666666663</ele><time>2026-04-25T15:10:57.981Z</time></trkpt><trkpt lat="46.13235679216676" lon="9.397023855342976"><ele>277.3333333333333</ele><time>2026-04-25T15:10:58.981Z</time></trkpt><trkpt lat="46.132367470851044" lon="9.396758100743497"><ele>276.0</ele><time>2026-04-25T15:10:59.981Z</time></trkpt><trkpt lat="46.13238665319589" lon="9.396498051711372"><ele>273.0</ele><time>2026-04-25T15:11:00.981Z</time></trkpt><trkpt lat="46.132401226914936" lon="9.396235465107065"><ele>270.0</ele><time>2026-04-25T15:11:01.981Z</time></trkpt><trkpt lat="46.132416005844746" lon="9.395970424639344"><ele>267.0</ele><time>2026-04-25T15:11:02.981Z</time></trkpt><trkpt lat="46.13245321530564" lon="9.395716629324932"><ele>268.6666666666667</ele><time>2026-04-25T15:11:03.981Z</time></trkpt><trkpt lat="46.13250090244605" lon="9.39544611371688"><ele>270.33333333333337</ele><time>2026-04-25T15:11:04.981Z</time></trkpt><trkpt lat="46.13254226453738" lon="9.395167141544395"><ele>272.0</ele><time>2026-04-25T15:11:05.981Z</time></trkpt><trkpt lat="46.13258062440134" lon="9.39489542007693"><ele>273.0</ele><time>2026-04-25T15:11:06.981Z</time></trkpt><trkpt lat="46.132620343691336" lon="9.394624017889724"><ele>274.0</ele><time>2026-04-25T15:11:07.981Z</time></trkpt><trkpt lat="46.13322929759254" lon="9.39158764019718"><ele>276.0</ele><time>2026-04-25T15:11:12.533Z</time></trkpt><trkpt lat="46.13340258254347" lon="9.389939517241007"><ele>276.0</ele><time>2026-04-25T15:11:24.982Z</time></trkpt><trkpt lat="46.13334880619076" lon="9.38975812354319"><ele>276.0</ele><time>2026-04-25T15:11:25.982Z</time></trkpt><trkpt lat="46.13346431199988" lon="9.38944585621798"><ele>276.0</ele><time>2026-04-25T15:11:26.982Z</time></trkpt><trkpt lat="46.13359087574609" lon="9.389152409701378"><ele>276.6666666666667</ele><time>2026-04-25T15:11:27.982Z</time></trkpt><trkpt lat="46.1336560609357" lon="9.388880524647687"><ele>277.33333333333337</ele><time>2026-04-25T15:11:28.982Z</time></trkpt><trkpt lat="46.13370609777641" lon="9.388603530712514"><ele>278.0</ele><time>2026-04-25T15:11:29.982Z</time></trkpt><trkpt lat="46.13374729308448" lon="9.388324854182708"><ele>278.0</ele><time>2026-04-25T15:11:30.982Z</time></trkpt><trkpt lat="46.13377123842735" lon="9.388041839882654"><ele>278.0</ele><time>2026-04-25T15:11:31.982Z</time></trkpt><trkpt lat="46.13379432857202" lon="9.387767689240023"><ele>278.0</ele><time>2026-04-25T15:11:32.982Z</time></trkpt><trkpt lat="46.13381933928385" lon="9.387490986635378"><ele>278.0</ele><time>2026-04-25T15:11:33.982Z</time></trkpt><trkpt lat="46.13382058792845" lon="9.387207143327117"><ele>278.0</ele><time>2026-04-25T15:11:34.982Z</time></trkpt><trkpt lat="46.13382140579118" lon="9.386914420604759"><ele>278.0</ele><time>2026-04-25T15:11:35.982Z</time></trkpt><trkpt lat="46.13381443492118" lon="9.386629189766122"><ele>277.33333333333337</ele><time>2026-04-25T15:11:36.982Z</time></trkpt><trkpt lat="46.13380428603084" lon="9.386342142500874"><ele>276.6666666666667</ele><time>2026-04-25T15:11:37.982Z</time></trkpt><trkpt lat="46.133785583290326" lon="9.386066848550112"><ele>276.0</ele><time>2026-04-25T15:11:38.982Z</time></trkpt><trkpt lat="46.133764308439154" lon="9.385789084745657"><ele>276.0</ele><time>2026-04-25T15:11:39.982Z</time></trkpt><trkpt lat="46.13373168700929" lon="9.38551738264992"><ele>276.0</ele><time>2026-04-25T15:11:40.982Z</time></trkpt><trkpt lat="46.13368370608531" lon="9.38524114778753"><ele>276.0</ele><time>2026-04-25T15:11:41.982Z</time></trkpt><trkpt lat="46.133638017785344" lon="9.384962086899398"><ele>274.6666666666667</ele><time>2026-04-25T15:11:42.982Z</time></trkpt><trkpt lat="46.13358499461392" lon="9.384694498323874"><ele>273.33333333333337</ele><time>2026-04-25T15:11:43.982Z</time></trkpt><trkpt lat="46.13352436800452" lon="9.38442952686153"><ele>272.0</ele><time>2026-04-25T15:11:44.982Z</time></trkpt><trkpt lat="46.133453636594986" lon="9.38416211432485"><ele>271.33333333333337</ele><time>2026-04-25T15:11:45.982Z</time></trkpt><trkpt lat="46.13337821296364" lon="9.383900299252527"><ele>270.6666666666667</ele><time>2026-04-25T15:11:46.982Z</time></trkpt><trkpt lat="46.13329718767476" lon="9.383637949902026"><ele>270.0</ele><time>2026-04-25T15:11:47.982Z</time></trkpt><trkpt lat="46.13321183898189" lon="9.383378429463814"><ele>272.0</ele><time>2026-04-25T15:11:48.982Z</time></trkpt><trkpt lat="46.133118799580885" lon="9.383127616463678"><ele>274.0</ele><time>2026-04-25T15:11:49.982Z</time></trkpt><trkpt lat="46.133012458019664" lon="9.382874329318218"><ele>276.0</ele><time>2026-04-25T15:11:50.982Z</time></trkpt><trkpt lat="46.13289948426642" lon="9.382622904917897"><ele>276.0</ele><time>2026-04-25T15:11:51.98Z</time></trkpt><trkpt lat="46.13278238019752" lon="9.382374902136789"><ele>276.0</ele><time>2026-04-25T15:11:52.98Z</time></trkpt><trkpt lat="46.13266601806368" lon="9.382131376228262"><ele>276.0</ele><time>2026-04-25T15:11:53.98Z</time></trkpt><trkpt lat="46.13254345089527" lon="9.381898538621208"><ele>275.0</ele><time>2026-04-25T15:11:54.981Z</time></trkpt><trkpt lat="46.13242733157224" lon="9.381661945948267"><ele>274.0</ele><time>2026-04-25T15:11:55.98Z</time></trkpt><trkpt lat="46.1323144153952" lon="9.381412108535308"><ele>273.0</ele><time>2026-04-25T15:11:56.98Z</time></trkpt><trkpt lat="46.132194635564325" lon="9.381177341309758"><ele>273.6666666666667</ele><time>2026-04-25T15:11:57.98Z</time></trkpt><trkpt lat="46.13208255164861" lon="9.380940569178017"><ele>274.33333333333337</ele><time>2026-04-25T15:11:58.98Z</time></trkpt><trkpt lat="46.131970005328746" lon="9.380690006347999"><ele>275.0</ele><time>2026-04-25T15:11:59.98Z</time></trkpt><trkpt lat="46.13185329062633" lon="9.380446703578333"><ele>275.0</ele><time>2026-04-25T15:12:00.98Z</time></trkpt><trkpt lat="46.13173770556152" lon="9.380211425952528"><ele>275.0</ele><time>2026-04-25T15:12:01.98Z</time></trkpt><trkpt lat="46.13162372639658" lon="9.379974753140027"><ele>275.0</ele><time>2026-04-25T15:12:02.98Z</time></trkpt><trkpt lat="46.13151264312797" lon="9.379732673086375"><ele>277.33333333333337</ele><time>2026-04-25T15:12:03.98Z</time></trkpt><trkpt lat="46.131400348890416" lon="9.379494278698903"><ele>279.6666666666667</ele><time>2026-04-25T15:12:04.98Z</time></trkpt><trkpt lat="46.13128953472012" lon="9.37925289152469"><ele>282.0</ele><time>2026-04-25T15:12:05.98Z</time></trkpt><trkpt lat="46.131181266513906" lon="9.379013946563193"><ele>280.3333333333333</ele><time>2026-04-25T15:12:06.98Z</time></trkpt><trkpt lat="46.131069799009396" lon="9.37877316189229"><ele>278.66666666666663</ele><time>2026-04-25T15:12:07.98Z</time></trkpt><trkpt lat="46.13095600825751" lon="9.378531364904898"><ele>277.0</ele><time>2026-04-25T15:12:08.98Z</time></trkpt><trkpt lat="46.1308287131569" lon="9.378257771355015"><ele>275.0</ele><time>2026-04-25T15:12:10.117Z</time></trkpt><trkpt lat="46.12971179008777" lon="9.375831065357538"><ele>272.0</ele><time>2026-04-25T15:12:13.532Z</time></trkpt><trkpt lat="46.12937515038485" lon="9.374769311871207"><ele>267.0</ele><time>2026-04-25T15:12:14.535Z</time></trkpt><trkpt lat="46.128882988141086" lon="9.373069269210454"><ele>267.5</ele><time>2026-04-25T15:12:30.981Z</time></trkpt><trkpt lat="46.1288633081574" lon="9.372738156015693"><ele>268.0</ele><time>2026-04-25T15:12:31.981Z</time></trkpt><trkpt lat="46.1289549693862" lon="9.372442008333232"><ele>267.66666666666663</ele><time>2026-04-25T15:12:32.981Z</time></trkpt><trkpt lat="46.128925637587635" lon="9.372140406802487"><ele>267.3333333333333</ele><time>2026-04-25T15:12:33.981Z</time></trkpt><trkpt lat="46.12884643035832" lon="9.371855803505529"><ele>267.0</ele><time>2026-04-25T15:12:34.981Z</time></trkpt><trkpt lat="46.12878559992536" lon="9.37157966472309"><ele>266.3333333333333</ele><time>2026-04-25T15:12:35.981Z</time></trkpt><trkpt lat="46.12872785559506" lon="9.371302559230793"><ele>265.66666666666663</ele><time>2026-04-25T15:12:36.981Z</time></trkpt><trkpt lat="46.12867961434348" lon="9.371023944261362"><ele>265.0</ele><time>2026-04-25T15:12:37.981Z</time></trkpt><trkpt lat="46.128642365142575" lon="9.370741763489956"><ele>265.0</ele><time>2026-04-25T15:12:38.981Z</time></trkpt><trkpt lat="46.12861180509911" lon="9.370458753026863"><ele>265.0</ele><time>2026-04-25T15:12:39.981Z</time></trkpt><trkpt lat="46.12856834083404" lon="9.370173603044305"><ele>265.0</ele><time>2026-04-25T15:12:40.981Z</time></trkpt><trkpt lat="46.12852869609885" lon="9.369879315797084"><ele>263.66666666666663</ele><time>2026-04-25T15:12:41.981Z</time></trkpt><trkpt lat="46.1284869727292" lon="9.369595355653091"><ele>262.3333333333333</ele><time>2026-04-25T15:12:42.981Z</time></trkpt><trkpt lat="46.12844637804332" lon="9.369317726278132"><ele>261.0</ele><time>2026-04-25T15:12:43.981Z</time></trkpt><trkpt lat="46.128403834774446" lon="9.369038469241666"><ele>260.0</ele><time>2026-04-25T15:12:44.981Z</time></trkpt><trkpt lat="46.12836538377121" lon="9.368762829661096"><ele>259.0</ele><time>2026-04-25T15:12:45.981Z</time></trkpt><trkpt lat="46.128330761471155" lon="9.36848773864467"><ele>258.0</ele><time>2026-04-25T15:12:46.981Z</time></trkpt><trkpt lat="46.12828946845528" lon="9.368211106651515"><ele>257.3333333333333</ele><time>2026-04-25T15:12:47.981Z</time></trkpt><trkpt lat="46.12824885780745" lon="9.36793253848747"><ele>256.66666666666663</ele><time>2026-04-25T15:12:48.981Z</time></trkpt><trkpt lat="46.12820571172763" lon="9.367655890103276"><ele>256.0</ele><time>2026-04-25T15:12:49.981Z</time></trkpt><trkpt lat="46.12816133044364" lon="9.367384030168164"><ele>257.66666666666663</ele><time>2026-04-25T15:12:50.981Z</time></trkpt><trkpt lat="46.12812065819356" lon="9.367098161900365"><ele>259.3333333333333</ele><time>2026-04-25T15:12:51.981Z</time></trkpt><trkpt lat="46.128078543828934" lon="9.366815447691215"><ele>261.0</ele><time>2026-04-25T15:12:52.981Z</time></trkpt><trkpt lat="46.128032519918456" lon="9.36652741976553"><ele>260.0</ele><time>2026-04-25T15:12:53.981Z</time></trkpt><trkpt lat="46.12798995287301" lon="9.366242209967444"><ele>259.0</ele><time>2026-04-25T15:12:54.981Z</time></trkpt><trkpt lat="46.12794965429928" lon="9.365959231718604"><ele>258.0</ele><time>2026-04-25T15:12:55.981Z</time></trkpt><trkpt lat="46.12790829574741" lon="9.365682695484718"><ele>257.6666666666667</ele><time>2026-04-25T15:12:56.981Z</time></trkpt><trkpt lat="46.12786685105579" lon="9.365410635238572"><ele>257.33333333333337</ele><time>2026-04-25T15:12:57.981Z</time></trkpt><trkpt lat="46.12782750720617" lon="9.36515222247615"><ele>257.0</ele><time>2026-04-25T15:12:58.981Z</time></trkpt><trkpt lat="46.12779189688452" lon="9.364898843855434"><ele>256.6666666666667</ele><time>2026-04-25T15:12:59.981Z</time></trkpt><trkpt lat="46.12775805620962" lon="9.364649829119314"><ele>256.3333333333333</ele><time>2026-04-25T15:13:00.981Z</time></trkpt><trkpt lat="46.127708052760084" lon="9.36440152814583"><ele>256.0</ele><time>2026-04-25T15:13:01.981Z</time></trkpt><trkpt lat="46.12765293200183" lon="9.364154522151795"><ele>256.0</ele><time>2026-04-25T15:13:02.981Z</time></trkpt><trkpt lat="46.12759861785134" lon="9.363907116937698"><ele>256.0</ele><time>2026-04-25T15:13:03.981Z</time></trkpt><trkpt lat="46.12753169520959" lon="9.36365128208832"><ele>256.0</ele><time>2026-04-25T15:13:04.981Z</time></trkpt><trkpt lat="46.1274631547778" lon="9.363399863442812"><ele>258.0</ele><time>2026-04-25T15:13:05.981Z</time></trkpt><trkpt lat="46.12739201067798" lon="9.36314864238813"><ele>260.0</ele><time>2026-04-25T15:13:06.981Z</time></trkpt><trkpt lat="46.12731739319533" lon="9.362896674450468"><ele>262.0</ele><time>2026-04-25T15:13:07.981Z</time></trkpt><trkpt lat="46.127241117301836" lon="9.36265458753696"><ele>262.0</ele><time>2026-04-25T15:13:08.981Z</time></trkpt><trkpt lat="46.127152560694164" lon="9.362413524925355"><ele>262.0</ele><time>2026-04-25T15:13:09.981Z</time></trkpt><trkpt lat="46.12705593904341" lon="9.362169977848755"><ele>262.0</ele><time>2026-04-25T15:13:10.982Z</time></trkpt><trkpt lat="46.12696926309114" lon="9.361923925026147"><ele>260.0</ele><time>2026-04-25T15:13:11.982Z</time></trkpt><trkpt lat="46.12688349890974" lon="9.361678730568473"><ele>258.0</ele><time>2026-04-25T15:13:12.982Z</time></trkpt><trkpt lat="46.12679444299326" lon="9.361429587018598"><ele>256.0</ele><time>2026-04-25T15:13:13.982Z</time></trkpt><trkpt lat="46.126706545259644" lon="9.361178554866914"><ele>256.0</ele><time>2026-04-25T15:13:14.982Z</time></trkpt><trkpt lat="46.126618877658444" lon="9.360929925266275"><ele>256.0</ele><time>2026-04-25T15:13:15.982Z</time></trkpt><trkpt lat="46.126528574528066" lon="9.360687417334987"><ele>256.0</ele><time>2026-04-25T15:13:16.982Z</time></trkpt><trkpt lat="46.12643215891814" lon="9.360455170121856"><ele>256.0</ele><time>2026-04-25T15:13:17.982Z</time></trkpt><trkpt lat="46.1263272546266" lon="9.360214634911351"><ele>256.0</ele><time>2026-04-25T15:13:18.982Z</time></trkpt><trkpt lat="46.126243122758524" lon="9.359826462994837"><ele>251.0</ele><time>2026-04-25T15:13:19.982Z</time></trkpt><trkpt lat="46.1246180073378" lon="9.35789175510132"><ele>254.0</ele><time>2026-04-25T15:13:24.536Z</time></trkpt><trkpt lat="46.123956013643735" lon="9.357224154206014"><ele>250.0</ele><time>2026-04-25T15:13:25.534Z</time></trkpt><trkpt lat="46.123291052230634" lon="9.356554950953097"><ele>248.0</ele><time>2026-04-25T15:13:26.537Z</time></trkpt><trkpt lat="46.12262937229952" lon="9.35588376654566"><ele>245.0</ele><time>2026-04-25T15:13:27.537Z</time></trkpt><trkpt lat="46.121967351602216" lon="9.355214045531364"><ele>242.0</ele><time>2026-04-25T15:13:28.536Z</time></trkpt><trkpt lat="46.12130542396583" lon="9.354542972297349"><ele>239.0</ele><time>2026-04-25T15:13:29.536Z</time></trkpt><trkpt lat="46.120658333728535" lon="9.353843132951079"><ele>239.0</ele><time>2026-04-25T15:13:30.536Z</time></trkpt><trkpt lat="46.120009948506855" lon="9.353148184725699"><ele>234.0</ele><time>2026-04-25T15:13:31.535Z</time></trkpt><trkpt lat="46.119371799695095" lon="9.352429162487136"><ele>234.0</ele><time>2026-04-25T15:13:32.537Z</time></trkpt><trkpt lat="46.1192939" lon="9.3523402"><ele>234.0</ele><time>2026-04-25T15:13:33.537Z</time></trkpt></trkseg></trk></gpx>